<?xml version="1.0" encoding="UTF-8" standalone="no" ?>
<gpx xmlns="http://www.topografix.com/GPX/1/1" xmlns:xsi="http://www.w3.org/2001/XMLSchema-instance" xsi:schemaLocation="http://www.topografix.com/GPX/1/1 http://www.topografix.com/GPX/1/1/gpx.xsd" version="1.1" creator="VisuGPX - https://www.visugpx.com">
  <metadata>
    <name>2018-09-09 Bike ride-Ambérieux Saône O v32k</name>
    <desc><![CDATA[2018-09-09 Bike ride-Ambérieux Saône O v32k]]></desc>
  </metadata>
  <wpt lat="45.92444" lon="4.7371">
    <ele>174</ele>
    <name><![CDATA[2018-09-09 10:28 (Start)]]></name>
  </wpt>
  <wpt lat="45.9246" lon="4.73707">
    <ele>174</ele>
    <name><![CDATA[2018-09-09 10:28 (End)]]></name>
  </wpt>
  <trk>
    <name><![CDATA[2018-09-09 10:28]]></name>
    <trkseg>
      <trkpt lat="45.92444" lon="4.7371">
        <ele>174</ele>
        <time>2018-09-09T08:28:17.91Z</time>
      </trkpt>
      <trkpt lat="45.92451" lon="4.73712">
        <ele>174</ele>
        <time>2018-09-09T08:28:21Z</time>
      </trkpt>
      <trkpt lat="45.92453" lon="4.73711">
        <ele>174</ele>
        <time>2018-09-09T08:28:22Z</time>
      </trkpt>
      <trkpt lat="45.92461" lon="4.73708">
        <ele>174</ele>
        <time>2018-09-09T08:28:36Z</time>
      </trkpt>
      <trkpt lat="45.92463" lon="4.73706">
        <ele>174</ele>
        <time>2018-09-09T08:28:37Z</time>
      </trkpt>
      <trkpt lat="45.92466" lon="4.73695">
        <ele>174</ele>
        <time>2018-09-09T08:28:41Z</time>
      </trkpt>
      <trkpt lat="45.92466" lon="4.73692">
        <ele>174</ele>
        <time>2018-09-09T08:28:42Z</time>
      </trkpt>
      <trkpt lat="45.92467" lon="4.7368">
        <ele>174</ele>
        <time>2018-09-09T08:28:45Z</time>
      </trkpt>
      <trkpt lat="45.92467" lon="4.73675">
        <ele>174</ele>
        <time>2018-09-09T08:28:46Z</time>
      </trkpt>
      <trkpt lat="45.92469" lon="4.73665">
        <ele>174</ele>
        <time>2018-09-09T08:28:48Z</time>
      </trkpt>
      <trkpt lat="45.92469" lon="4.7366">
        <ele>174</ele>
        <time>2018-09-09T08:28:49Z</time>
      </trkpt>
      <trkpt lat="45.9247" lon="4.73655">
        <ele>174</ele>
        <time>2018-09-09T08:28:50Z</time>
      </trkpt>
      <trkpt lat="45.92472" lon="4.73642">
        <ele>174</ele>
        <time>2018-09-09T08:28:51Z</time>
      </trkpt>
      <trkpt lat="45.92473" lon="4.73631">
        <ele>174</ele>
        <time>2018-09-09T08:28:53Z</time>
      </trkpt>
      <trkpt lat="45.92473" lon="4.73625">
        <ele>174</ele>
        <time>2018-09-09T08:28:54Z</time>
      </trkpt>
      <trkpt lat="45.92473" lon="4.73613">
        <ele>174</ele>
        <time>2018-09-09T08:28:56Z</time>
      </trkpt>
      <trkpt lat="45.92473" lon="4.73607">
        <ele>174</ele>
        <time>2018-09-09T08:28:57Z</time>
      </trkpt>
      <trkpt lat="45.92473" lon="4.73594">
        <ele>174</ele>
        <time>2018-09-09T08:28:59Z</time>
      </trkpt>
      <trkpt lat="45.92472" lon="4.73588">
        <ele>174</ele>
        <time>2018-09-09T08:29:00Z</time>
      </trkpt>
      <trkpt lat="45.92472" lon="4.73576">
        <ele>173</ele>
        <time>2018-09-09T08:29:02Z</time>
      </trkpt>
      <trkpt lat="45.92471" lon="4.7357">
        <ele>173</ele>
        <time>2018-09-09T08:29:03Z</time>
      </trkpt>
      <trkpt lat="45.9247" lon="4.73559">
        <ele>173</ele>
        <time>2018-09-09T08:29:06Z</time>
      </trkpt>
      <trkpt lat="45.92469" lon="4.73556">
        <ele>173</ele>
        <time>2018-09-09T08:29:07Z</time>
      </trkpt>
      <trkpt lat="45.92465" lon="4.73546">
        <ele>173</ele>
        <time>2018-09-09T08:29:10Z</time>
      </trkpt>
      <trkpt lat="45.92458" lon="4.7354">
        <ele>173</ele>
        <time>2018-09-09T08:29:11Z</time>
      </trkpt>
      <trkpt lat="45.9245" lon="4.73544">
        <ele>174</ele>
        <time>2018-09-09T08:29:13Z</time>
      </trkpt>
      <trkpt lat="45.92446" lon="4.73546">
        <ele>174</ele>
        <time>2018-09-09T08:29:14Z</time>
      </trkpt>
      <trkpt lat="45.92441" lon="4.73549">
        <ele>174</ele>
        <time>2018-09-09T08:29:15Z</time>
      </trkpt>
      <trkpt lat="45.92436" lon="4.73553">
        <ele>174</ele>
        <time>2018-09-09T08:29:16Z</time>
      </trkpt>
      <trkpt lat="45.92429" lon="4.73552">
        <ele>174</ele>
        <time>2018-09-09T08:29:17Z</time>
      </trkpt>
      <trkpt lat="45.92427" lon="4.73558">
        <ele>174</ele>
        <time>2018-09-09T08:29:18Z</time>
      </trkpt>
      <trkpt lat="45.92423" lon="4.73562">
        <ele>174</ele>
        <time>2018-09-09T08:29:19Z</time>
      </trkpt>
      <trkpt lat="45.92419" lon="4.73565">
        <ele>174</ele>
        <time>2018-09-09T08:29:20Z</time>
      </trkpt>
      <trkpt lat="45.92411" lon="4.73571">
        <ele>173</ele>
        <time>2018-09-09T08:29:22Z</time>
      </trkpt>
      <trkpt lat="45.92407" lon="4.73573">
        <ele>173</ele>
        <time>2018-09-09T08:29:23Z</time>
      </trkpt>
      <trkpt lat="45.92402" lon="4.73575">
        <ele>173</ele>
        <time>2018-09-09T08:29:24Z</time>
      </trkpt>
      <trkpt lat="45.92397" lon="4.73577">
        <ele>173</ele>
        <time>2018-09-09T08:29:25Z</time>
      </trkpt>
      <trkpt lat="45.92391" lon="4.73579">
        <ele>173</ele>
        <time>2018-09-09T08:29:26Z</time>
      </trkpt>
      <trkpt lat="45.92386" lon="4.73582">
        <ele>173</ele>
        <time>2018-09-09T08:29:27Z</time>
      </trkpt>
      <trkpt lat="45.9238" lon="4.73584">
        <ele>173</ele>
        <time>2018-09-09T08:29:28Z</time>
      </trkpt>
      <trkpt lat="45.92374" lon="4.73587">
        <ele>173</ele>
        <time>2018-09-09T08:29:29Z</time>
      </trkpt>
      <trkpt lat="45.9237" lon="4.7359">
        <ele>173</ele>
        <time>2018-09-09T08:29:30Z</time>
      </trkpt>
      <trkpt lat="45.92365" lon="4.73592">
        <ele>173</ele>
        <time>2018-09-09T08:29:31Z</time>
      </trkpt>
      <trkpt lat="45.92359" lon="4.73594">
        <ele>173</ele>
        <time>2018-09-09T08:29:32Z</time>
      </trkpt>
      <trkpt lat="45.92355" lon="4.73597">
        <ele>173</ele>
        <time>2018-09-09T08:29:33Z</time>
      </trkpt>
      <trkpt lat="45.9235" lon="4.73599">
        <ele>173</ele>
        <time>2018-09-09T08:29:34Z</time>
      </trkpt>
      <trkpt lat="45.92345" lon="4.73601">
        <ele>173</ele>
        <time>2018-09-09T08:29:35Z</time>
      </trkpt>
      <trkpt lat="45.9234" lon="4.73603">
        <ele>173</ele>
        <time>2018-09-09T08:29:36Z</time>
      </trkpt>
      <trkpt lat="45.92336" lon="4.73606">
        <ele>173</ele>
        <time>2018-09-09T08:29:37Z</time>
      </trkpt>
      <trkpt lat="45.92331" lon="4.73611">
        <ele>172</ele>
        <time>2018-09-09T08:29:38Z</time>
      </trkpt>
      <trkpt lat="45.92326" lon="4.73613">
        <ele>172</ele>
        <time>2018-09-09T08:29:39Z</time>
      </trkpt>
      <trkpt lat="45.92319" lon="4.73621">
        <ele>172</ele>
        <time>2018-09-09T08:29:41Z</time>
      </trkpt>
      <trkpt lat="45.92314" lon="4.73623">
        <ele>172</ele>
        <time>2018-09-09T08:29:42Z</time>
      </trkpt>
      <trkpt lat="45.92308" lon="4.73625">
        <ele>172</ele>
        <time>2018-09-09T08:29:43Z</time>
      </trkpt>
      <trkpt lat="45.92302" lon="4.73626">
        <ele>172</ele>
        <time>2018-09-09T08:29:44Z</time>
      </trkpt>
      <trkpt lat="45.92296" lon="4.73629">
        <ele>172</ele>
        <time>2018-09-09T08:29:45Z</time>
      </trkpt>
      <trkpt lat="45.92291" lon="4.73633">
        <ele>172</ele>
        <time>2018-09-09T08:29:46Z</time>
      </trkpt>
      <trkpt lat="45.92287" lon="4.7364">
        <ele>172</ele>
        <time>2018-09-09T08:29:47Z</time>
      </trkpt>
      <trkpt lat="45.92282" lon="4.73643">
        <ele>172</ele>
        <time>2018-09-09T08:29:48Z</time>
      </trkpt>
      <trkpt lat="45.92277" lon="4.73647">
        <ele>172</ele>
        <time>2018-09-09T08:29:49Z</time>
      </trkpt>
      <trkpt lat="45.92275" lon="4.73654">
        <ele>172</ele>
        <time>2018-09-09T08:29:50Z</time>
      </trkpt>
      <trkpt lat="45.9227" lon="4.73656">
        <ele>171</ele>
        <time>2018-09-09T08:29:51Z</time>
      </trkpt>
      <trkpt lat="45.92264" lon="4.73658">
        <ele>171</ele>
        <time>2018-09-09T08:29:52Z</time>
      </trkpt>
      <trkpt lat="45.92257" lon="4.7366">
        <ele>171</ele>
        <time>2018-09-09T08:29:53Z</time>
      </trkpt>
      <trkpt lat="45.92251" lon="4.73662">
        <ele>171</ele>
        <time>2018-09-09T08:29:54Z</time>
      </trkpt>
      <trkpt lat="45.92246" lon="4.73664">
        <ele>171</ele>
        <time>2018-09-09T08:29:55Z</time>
      </trkpt>
      <trkpt lat="45.9224" lon="4.73666">
        <ele>171</ele>
        <time>2018-09-09T08:29:56Z</time>
      </trkpt>
      <trkpt lat="45.92235" lon="4.73674">
        <ele>171</ele>
        <time>2018-09-09T08:29:57Z</time>
      </trkpt>
      <trkpt lat="45.9223" lon="4.73677">
        <ele>171</ele>
        <time>2018-09-09T08:29:58Z</time>
      </trkpt>
      <trkpt lat="45.92228" lon="4.73683">
        <ele>171</ele>
        <time>2018-09-09T08:29:59Z</time>
      </trkpt>
      <trkpt lat="45.92222" lon="4.73687">
        <ele>171</ele>
        <time>2018-09-09T08:30:00Z</time>
      </trkpt>
      <trkpt lat="45.92217" lon="4.73689">
        <ele>171</ele>
        <time>2018-09-09T08:30:01Z</time>
      </trkpt>
      <trkpt lat="45.92211" lon="4.73692">
        <ele>171</ele>
        <time>2018-09-09T08:30:02Z</time>
      </trkpt>
      <trkpt lat="45.92206" lon="4.73695">
        <ele>171</ele>
        <time>2018-09-09T08:30:03Z</time>
      </trkpt>
      <trkpt lat="45.922" lon="4.73697">
        <ele>171</ele>
        <time>2018-09-09T08:30:04Z</time>
      </trkpt>
      <trkpt lat="45.92195" lon="4.73701">
        <ele>171</ele>
        <time>2018-09-09T08:30:05Z</time>
      </trkpt>
      <trkpt lat="45.92189" lon="4.73702">
        <ele>171</ele>
        <time>2018-09-09T08:30:06Z</time>
      </trkpt>
      <trkpt lat="45.92183" lon="4.73704">
        <ele>171</ele>
        <time>2018-09-09T08:30:07Z</time>
      </trkpt>
      <trkpt lat="45.92179" lon="4.73708">
        <ele>171</ele>
        <time>2018-09-09T08:30:08Z</time>
      </trkpt>
      <trkpt lat="45.92172" lon="4.7371">
        <ele>172</ele>
        <time>2018-09-09T08:30:09Z</time>
      </trkpt>
      <trkpt lat="45.92167" lon="4.73712">
        <ele>171</ele>
        <time>2018-09-09T08:30:10Z</time>
      </trkpt>
      <trkpt lat="45.92161" lon="4.73714">
        <ele>171</ele>
        <time>2018-09-09T08:30:11Z</time>
      </trkpt>
      <trkpt lat="45.92157" lon="4.73715">
        <ele>171</ele>
        <time>2018-09-09T08:30:12Z</time>
      </trkpt>
      <trkpt lat="45.92152" lon="4.73716">
        <ele>171</ele>
        <time>2018-09-09T08:30:13Z</time>
      </trkpt>
      <trkpt lat="45.92146" lon="4.73716">
        <ele>171</ele>
        <time>2018-09-09T08:30:14Z</time>
      </trkpt>
      <trkpt lat="45.9214" lon="4.73717">
        <ele>171</ele>
        <time>2018-09-09T08:30:15Z</time>
      </trkpt>
      <trkpt lat="45.92136" lon="4.73717">
        <ele>171</ele>
        <time>2018-09-09T08:30:16Z</time>
      </trkpt>
      <trkpt lat="45.92131" lon="4.73718">
        <ele>171</ele>
        <time>2018-09-09T08:30:17Z</time>
      </trkpt>
      <trkpt lat="45.92125" lon="4.73718">
        <ele>171</ele>
        <time>2018-09-09T08:30:18Z</time>
      </trkpt>
      <trkpt lat="45.9212" lon="4.73722">
        <ele>171</ele>
        <time>2018-09-09T08:30:19Z</time>
      </trkpt>
      <trkpt lat="45.92114" lon="4.73723">
        <ele>171</ele>
        <time>2018-09-09T08:30:20Z</time>
      </trkpt>
      <trkpt lat="45.92109" lon="4.73723">
        <ele>171</ele>
        <time>2018-09-09T08:30:21Z</time>
      </trkpt>
      <trkpt lat="45.92103" lon="4.73724">
        <ele>171</ele>
        <time>2018-09-09T08:30:22Z</time>
      </trkpt>
      <trkpt lat="45.92097" lon="4.73726">
        <ele>171</ele>
        <time>2018-09-09T08:30:23Z</time>
      </trkpt>
      <trkpt lat="45.92091" lon="4.73727">
        <ele>171</ele>
        <time>2018-09-09T08:30:24Z</time>
      </trkpt>
      <trkpt lat="45.92086" lon="4.73728">
        <ele>171</ele>
        <time>2018-09-09T08:30:25Z</time>
      </trkpt>
      <trkpt lat="45.9208" lon="4.73728">
        <ele>171</ele>
        <time>2018-09-09T08:30:26Z</time>
      </trkpt>
      <trkpt lat="45.92075" lon="4.73729">
        <ele>171</ele>
        <time>2018-09-09T08:30:27Z</time>
      </trkpt>
      <trkpt lat="45.92067" lon="4.73726">
        <ele>171</ele>
        <time>2018-09-09T08:30:28Z</time>
      </trkpt>
      <trkpt lat="45.92061" lon="4.73726">
        <ele>171</ele>
        <time>2018-09-09T08:30:29Z</time>
      </trkpt>
      <trkpt lat="45.92056" lon="4.73727">
        <ele>171</ele>
        <time>2018-09-09T08:30:30Z</time>
      </trkpt>
      <trkpt lat="45.92051" lon="4.73725">
        <ele>171</ele>
        <time>2018-09-09T08:30:31Z</time>
      </trkpt>
      <trkpt lat="45.92046" lon="4.73726">
        <ele>171</ele>
        <time>2018-09-09T08:30:32Z</time>
      </trkpt>
      <trkpt lat="45.92041" lon="4.73726">
        <ele>171</ele>
        <time>2018-09-09T08:30:33Z</time>
      </trkpt>
      <trkpt lat="45.92036" lon="4.73727">
        <ele>171</ele>
        <time>2018-09-09T08:30:34Z</time>
      </trkpt>
      <trkpt lat="45.92031" lon="4.73729">
        <ele>171</ele>
        <time>2018-09-09T08:30:35Z</time>
      </trkpt>
      <trkpt lat="45.92025" lon="4.7373">
        <ele>171</ele>
        <time>2018-09-09T08:30:36Z</time>
      </trkpt>
      <trkpt lat="45.92019" lon="4.73731">
        <ele>171</ele>
        <time>2018-09-09T08:30:37Z</time>
      </trkpt>
      <trkpt lat="45.92014" lon="4.7373">
        <ele>171</ele>
        <time>2018-09-09T08:30:38Z</time>
      </trkpt>
      <trkpt lat="45.92009" lon="4.7373">
        <ele>171</ele>
        <time>2018-09-09T08:30:39Z</time>
      </trkpt>
      <trkpt lat="45.92004" lon="4.7373">
        <ele>171</ele>
        <time>2018-09-09T08:30:40Z</time>
      </trkpt>
      <trkpt lat="45.91998" lon="4.7373">
        <ele>171</ele>
        <time>2018-09-09T08:30:41Z</time>
      </trkpt>
      <trkpt lat="45.91993" lon="4.73731">
        <ele>171</ele>
        <time>2018-09-09T08:30:42Z</time>
      </trkpt>
      <trkpt lat="45.91989" lon="4.7373">
        <ele>171</ele>
        <time>2018-09-09T08:30:43Z</time>
      </trkpt>
      <trkpt lat="45.91984" lon="4.7373">
        <ele>171</ele>
        <time>2018-09-09T08:30:44Z</time>
      </trkpt>
      <trkpt lat="45.91979" lon="4.7373">
        <ele>171</ele>
        <time>2018-09-09T08:30:45Z</time>
      </trkpt>
      <trkpt lat="45.91971" lon="4.73731">
        <ele>171</ele>
        <time>2018-09-09T08:30:46Z</time>
      </trkpt>
      <trkpt lat="45.91966" lon="4.73731">
        <ele>171</ele>
        <time>2018-09-09T08:30:47Z</time>
      </trkpt>
      <trkpt lat="45.9196" lon="4.73732">
        <ele>171</ele>
        <time>2018-09-09T08:30:48Z</time>
      </trkpt>
      <trkpt lat="45.91954" lon="4.73732">
        <ele>170</ele>
        <time>2018-09-09T08:30:49Z</time>
      </trkpt>
      <trkpt lat="45.91948" lon="4.73731">
        <ele>170</ele>
        <time>2018-09-09T08:30:50Z</time>
      </trkpt>
      <trkpt lat="45.91943" lon="4.73732">
        <ele>170</ele>
        <time>2018-09-09T08:30:51Z</time>
      </trkpt>
      <trkpt lat="45.91937" lon="4.73732">
        <ele>170</ele>
        <time>2018-09-09T08:30:52Z</time>
      </trkpt>
      <trkpt lat="45.91931" lon="4.73731">
        <ele>170</ele>
        <time>2018-09-09T08:30:53Z</time>
      </trkpt>
      <trkpt lat="45.91926" lon="4.73732">
        <ele>170</ele>
        <time>2018-09-09T08:30:54Z</time>
      </trkpt>
      <trkpt lat="45.91919" lon="4.73734">
        <ele>170</ele>
        <time>2018-09-09T08:30:55Z</time>
      </trkpt>
      <trkpt lat="45.91913" lon="4.73733">
        <ele>171</ele>
        <time>2018-09-09T08:30:56Z</time>
      </trkpt>
      <trkpt lat="45.91907" lon="4.73734">
        <ele>171</ele>
        <time>2018-09-09T08:30:57Z</time>
      </trkpt>
      <trkpt lat="45.91901" lon="4.73737">
        <ele>171</ele>
        <time>2018-09-09T08:30:58Z</time>
      </trkpt>
      <trkpt lat="45.91895" lon="4.73737">
        <ele>171</ele>
        <time>2018-09-09T08:30:59Z</time>
      </trkpt>
      <trkpt lat="45.91888" lon="4.73737">
        <ele>171</ele>
        <time>2018-09-09T08:31:00Z</time>
      </trkpt>
      <trkpt lat="45.91881" lon="4.73738">
        <ele>171</ele>
        <time>2018-09-09T08:31:01Z</time>
      </trkpt>
      <trkpt lat="45.91875" lon="4.73738">
        <ele>171</ele>
        <time>2018-09-09T08:31:02Z</time>
      </trkpt>
      <trkpt lat="45.9187" lon="4.7374">
        <ele>171</ele>
        <time>2018-09-09T08:31:03Z</time>
      </trkpt>
      <trkpt lat="45.91864" lon="4.73739">
        <ele>171</ele>
        <time>2018-09-09T08:31:04Z</time>
      </trkpt>
      <trkpt lat="45.91859" lon="4.73741">
        <ele>171</ele>
        <time>2018-09-09T08:31:05Z</time>
      </trkpt>
      <trkpt lat="45.91853" lon="4.73742">
        <ele>172</ele>
        <time>2018-09-09T08:31:06Z</time>
      </trkpt>
      <trkpt lat="45.91847" lon="4.7374">
        <ele>172</ele>
        <time>2018-09-09T08:31:07Z</time>
      </trkpt>
      <trkpt lat="45.91841" lon="4.7374">
        <ele>172</ele>
        <time>2018-09-09T08:31:08Z</time>
      </trkpt>
      <trkpt lat="45.91836" lon="4.73739">
        <ele>172</ele>
        <time>2018-09-09T08:31:09Z</time>
      </trkpt>
      <trkpt lat="45.9183" lon="4.73739">
        <ele>172</ele>
        <time>2018-09-09T08:31:10Z</time>
      </trkpt>
      <trkpt lat="45.91824" lon="4.73739">
        <ele>172</ele>
        <time>2018-09-09T08:31:11Z</time>
      </trkpt>
      <trkpt lat="45.91816" lon="4.73739">
        <ele>172</ele>
        <time>2018-09-09T08:31:12Z</time>
      </trkpt>
      <trkpt lat="45.91811" lon="4.7374">
        <ele>172</ele>
        <time>2018-09-09T08:31:13Z</time>
      </trkpt>
      <trkpt lat="45.91805" lon="4.7374">
        <ele>172</ele>
        <time>2018-09-09T08:31:14Z</time>
      </trkpt>
      <trkpt lat="45.91799" lon="4.73739">
        <ele>172</ele>
        <time>2018-09-09T08:31:15Z</time>
      </trkpt>
      <trkpt lat="45.91794" lon="4.7374">
        <ele>172</ele>
        <time>2018-09-09T08:31:16Z</time>
      </trkpt>
      <trkpt lat="45.91789" lon="4.73739">
        <ele>173</ele>
        <time>2018-09-09T08:31:17Z</time>
      </trkpt>
      <trkpt lat="45.91782" lon="4.7374">
        <ele>173</ele>
        <time>2018-09-09T08:31:18Z</time>
      </trkpt>
      <trkpt lat="45.91776" lon="4.7374">
        <ele>173</ele>
        <time>2018-09-09T08:31:19Z</time>
      </trkpt>
      <trkpt lat="45.91771" lon="4.73741">
        <ele>173</ele>
        <time>2018-09-09T08:31:20Z</time>
      </trkpt>
      <trkpt lat="45.91766" lon="4.73743">
        <ele>173</ele>
        <time>2018-09-09T08:31:21Z</time>
      </trkpt>
      <trkpt lat="45.91759" lon="4.73741">
        <ele>173</ele>
        <time>2018-09-09T08:31:22Z</time>
      </trkpt>
      <trkpt lat="45.91755" lon="4.73743">
        <ele>173</ele>
        <time>2018-09-09T08:31:23Z</time>
      </trkpt>
      <trkpt lat="45.9175" lon="4.73744">
        <ele>173</ele>
        <time>2018-09-09T08:31:24Z</time>
      </trkpt>
      <trkpt lat="45.91744" lon="4.73746">
        <ele>173</ele>
        <time>2018-09-09T08:31:25Z</time>
      </trkpt>
      <trkpt lat="45.9174" lon="4.73747">
        <ele>173</ele>
        <time>2018-09-09T08:31:26Z</time>
      </trkpt>
      <trkpt lat="45.91734" lon="4.73749">
        <ele>173</ele>
        <time>2018-09-09T08:31:27Z</time>
      </trkpt>
      <trkpt lat="45.91728" lon="4.73749">
        <ele>173</ele>
        <time>2018-09-09T08:31:28Z</time>
      </trkpt>
      <trkpt lat="45.91722" lon="4.73749">
        <ele>173</ele>
        <time>2018-09-09T08:31:29Z</time>
      </trkpt>
      <trkpt lat="45.91715" lon="4.73749">
        <ele>173</ele>
        <time>2018-09-09T08:31:30Z</time>
      </trkpt>
      <trkpt lat="45.9171" lon="4.73749">
        <ele>173</ele>
        <time>2018-09-09T08:31:31Z</time>
      </trkpt>
      <trkpt lat="45.91703" lon="4.73747">
        <ele>172</ele>
        <time>2018-09-09T08:31:32Z</time>
      </trkpt>
      <trkpt lat="45.91697" lon="4.73747">
        <ele>172</ele>
        <time>2018-09-09T08:31:33Z</time>
      </trkpt>
      <trkpt lat="45.91693" lon="4.73747">
        <ele>172</ele>
        <time>2018-09-09T08:31:34Z</time>
      </trkpt>
      <trkpt lat="45.91688" lon="4.73745">
        <ele>172</ele>
        <time>2018-09-09T08:31:35Z</time>
      </trkpt>
      <trkpt lat="45.91683" lon="4.73745">
        <ele>172</ele>
        <time>2018-09-09T08:31:36Z</time>
      </trkpt>
      <trkpt lat="45.91678" lon="4.73744">
        <ele>172</ele>
        <time>2018-09-09T08:31:37Z</time>
      </trkpt>
      <trkpt lat="45.91673" lon="4.73744">
        <ele>172</ele>
        <time>2018-09-09T08:31:38Z</time>
      </trkpt>
      <trkpt lat="45.91666" lon="4.73745">
        <ele>172</ele>
        <time>2018-09-09T08:31:40Z</time>
      </trkpt>
      <trkpt lat="45.91657" lon="4.73746">
        <ele>172</ele>
        <time>2018-09-09T08:31:41Z</time>
      </trkpt>
      <trkpt lat="45.91653" lon="4.73748">
        <ele>172</ele>
        <time>2018-09-09T08:31:42Z</time>
      </trkpt>
      <trkpt lat="45.91647" lon="4.73748">
        <ele>172</ele>
        <time>2018-09-09T08:31:43Z</time>
      </trkpt>
      <trkpt lat="45.91641" lon="4.73744">
        <ele>172</ele>
        <time>2018-09-09T08:31:44Z</time>
      </trkpt>
      <trkpt lat="45.91635" lon="4.73747">
        <ele>172</ele>
        <time>2018-09-09T08:31:45Z</time>
      </trkpt>
      <trkpt lat="45.91629" lon="4.73747">
        <ele>172</ele>
        <time>2018-09-09T08:31:46Z</time>
      </trkpt>
      <trkpt lat="45.91623" lon="4.73746">
        <ele>173</ele>
        <time>2018-09-09T08:31:47Z</time>
      </trkpt>
      <trkpt lat="45.91618" lon="4.73746">
        <ele>173</ele>
        <time>2018-09-09T08:31:48Z</time>
      </trkpt>
      <trkpt lat="45.91613" lon="4.73747">
        <ele>173</ele>
        <time>2018-09-09T08:31:49Z</time>
      </trkpt>
      <trkpt lat="45.91605" lon="4.73747">
        <ele>173</ele>
        <time>2018-09-09T08:31:51Z</time>
      </trkpt>
      <trkpt lat="45.916" lon="4.73747">
        <ele>173</ele>
        <time>2018-09-09T08:31:52Z</time>
      </trkpt>
      <trkpt lat="45.91594" lon="4.73745">
        <ele>173</ele>
        <time>2018-09-09T08:31:53Z</time>
      </trkpt>
      <trkpt lat="45.91588" lon="4.73746">
        <ele>173</ele>
        <time>2018-09-09T08:31:54Z</time>
      </trkpt>
      <trkpt lat="45.91582" lon="4.73744">
        <ele>173</ele>
        <time>2018-09-09T08:31:55Z</time>
      </trkpt>
      <trkpt lat="45.91577" lon="4.73744">
        <ele>173</ele>
        <time>2018-09-09T08:31:56Z</time>
      </trkpt>
      <trkpt lat="45.91571" lon="4.73743">
        <ele>173</ele>
        <time>2018-09-09T08:31:57Z</time>
      </trkpt>
      <trkpt lat="45.91565" lon="4.73742">
        <ele>173</ele>
        <time>2018-09-09T08:31:58Z</time>
      </trkpt>
      <trkpt lat="45.91559" lon="4.73743">
        <ele>173</ele>
        <time>2018-09-09T08:31:59Z</time>
      </trkpt>
      <trkpt lat="45.91554" lon="4.73742">
        <ele>174</ele>
        <time>2018-09-09T08:32:00Z</time>
      </trkpt>
      <trkpt lat="45.91548" lon="4.73742">
        <ele>174</ele>
        <time>2018-09-09T08:32:01Z</time>
      </trkpt>
      <trkpt lat="45.91542" lon="4.73741">
        <ele>174</ele>
        <time>2018-09-09T08:32:02Z</time>
      </trkpt>
      <trkpt lat="45.91536" lon="4.73741">
        <ele>174</ele>
        <time>2018-09-09T08:32:03Z</time>
      </trkpt>
      <trkpt lat="45.9153" lon="4.7374">
        <ele>174</ele>
        <time>2018-09-09T08:32:04Z</time>
      </trkpt>
      <trkpt lat="45.91524" lon="4.73739">
        <ele>174</ele>
        <time>2018-09-09T08:32:05Z</time>
      </trkpt>
      <trkpt lat="45.91519" lon="4.73739">
        <ele>174</ele>
        <time>2018-09-09T08:32:06Z</time>
      </trkpt>
      <trkpt lat="45.91513" lon="4.73739">
        <ele>174</ele>
        <time>2018-09-09T08:32:07Z</time>
      </trkpt>
      <trkpt lat="45.91507" lon="4.73738">
        <ele>174</ele>
        <time>2018-09-09T08:32:08Z</time>
      </trkpt>
      <trkpt lat="45.91502" lon="4.73739">
        <ele>174</ele>
        <time>2018-09-09T08:32:09Z</time>
      </trkpt>
      <trkpt lat="45.91497" lon="4.73739">
        <ele>174</ele>
        <time>2018-09-09T08:32:10Z</time>
      </trkpt>
      <trkpt lat="45.91491" lon="4.7374">
        <ele>174</ele>
        <time>2018-09-09T08:32:11Z</time>
      </trkpt>
      <trkpt lat="45.91485" lon="4.73739">
        <ele>174</ele>
        <time>2018-09-09T08:32:12Z</time>
      </trkpt>
      <trkpt lat="45.91479" lon="4.73739">
        <ele>174</ele>
        <time>2018-09-09T08:32:13Z</time>
      </trkpt>
      <trkpt lat="45.91473" lon="4.73739">
        <ele>174</ele>
        <time>2018-09-09T08:32:14Z</time>
      </trkpt>
      <trkpt lat="45.91467" lon="4.73738">
        <ele>174</ele>
        <time>2018-09-09T08:32:15Z</time>
      </trkpt>
      <trkpt lat="45.91461" lon="4.73738">
        <ele>174</ele>
        <time>2018-09-09T08:32:16Z</time>
      </trkpt>
      <trkpt lat="45.91455" lon="4.73738">
        <ele>173</ele>
        <time>2018-09-09T08:32:17Z</time>
      </trkpt>
      <trkpt lat="45.91449" lon="4.73738">
        <ele>173</ele>
        <time>2018-09-09T08:32:18Z</time>
      </trkpt>
      <trkpt lat="45.91444" lon="4.73737">
        <ele>173</ele>
        <time>2018-09-09T08:32:19Z</time>
      </trkpt>
      <trkpt lat="45.91438" lon="4.73737">
        <ele>173</ele>
        <time>2018-09-09T08:32:20Z</time>
      </trkpt>
      <trkpt lat="45.91432" lon="4.73736">
        <ele>173</ele>
        <time>2018-09-09T08:32:21Z</time>
      </trkpt>
      <trkpt lat="45.91427" lon="4.73736">
        <ele>173</ele>
        <time>2018-09-09T08:32:22Z</time>
      </trkpt>
      <trkpt lat="45.91421" lon="4.73736">
        <ele>173</ele>
        <time>2018-09-09T08:32:23Z</time>
      </trkpt>
      <trkpt lat="45.91415" lon="4.73736">
        <ele>173</ele>
        <time>2018-09-09T08:32:24Z</time>
      </trkpt>
      <trkpt lat="45.9141" lon="4.73736">
        <ele>173</ele>
        <time>2018-09-09T08:32:25Z</time>
      </trkpt>
      <trkpt lat="45.91404" lon="4.73735">
        <ele>173</ele>
        <time>2018-09-09T08:32:26Z</time>
      </trkpt>
      <trkpt lat="45.91398" lon="4.73736">
        <ele>173</ele>
        <time>2018-09-09T08:32:27Z</time>
      </trkpt>
      <trkpt lat="45.91392" lon="4.73737">
        <ele>173</ele>
        <time>2018-09-09T08:32:28Z</time>
      </trkpt>
      <trkpt lat="45.91387" lon="4.73736">
        <ele>173</ele>
        <time>2018-09-09T08:32:29Z</time>
      </trkpt>
      <trkpt lat="45.91381" lon="4.73735">
        <ele>173</ele>
        <time>2018-09-09T08:32:30Z</time>
      </trkpt>
      <trkpt lat="45.91374" lon="4.73735">
        <ele>173</ele>
        <time>2018-09-09T08:32:31Z</time>
      </trkpt>
      <trkpt lat="45.91368" lon="4.73735">
        <ele>173</ele>
        <time>2018-09-09T08:32:32Z</time>
      </trkpt>
      <trkpt lat="45.91363" lon="4.73736">
        <ele>173</ele>
        <time>2018-09-09T08:32:33Z</time>
      </trkpt>
      <trkpt lat="45.91358" lon="4.73738">
        <ele>173</ele>
        <time>2018-09-09T08:32:34Z</time>
      </trkpt>
      <trkpt lat="45.91353" lon="4.73737">
        <ele>173</ele>
        <time>2018-09-09T08:32:35Z</time>
      </trkpt>
      <trkpt lat="45.91348" lon="4.73737">
        <ele>173</ele>
        <time>2018-09-09T08:32:36Z</time>
      </trkpt>
      <trkpt lat="45.91343" lon="4.73737">
        <ele>173</ele>
        <time>2018-09-09T08:32:37Z</time>
      </trkpt>
      <trkpt lat="45.91338" lon="4.73737">
        <ele>173</ele>
        <time>2018-09-09T08:32:38Z</time>
      </trkpt>
      <trkpt lat="45.91332" lon="4.73738">
        <ele>173</ele>
        <time>2018-09-09T08:32:39Z</time>
      </trkpt>
      <trkpt lat="45.91326" lon="4.73739">
        <ele>173</ele>
        <time>2018-09-09T08:32:40Z</time>
      </trkpt>
      <trkpt lat="45.9132" lon="4.73738">
        <ele>174</ele>
        <time>2018-09-09T08:32:41Z</time>
      </trkpt>
      <trkpt lat="45.91314" lon="4.73738">
        <ele>174</ele>
        <time>2018-09-09T08:32:42Z</time>
      </trkpt>
      <trkpt lat="45.91308" lon="4.73738">
        <ele>174</ele>
        <time>2018-09-09T08:32:43Z</time>
      </trkpt>
      <trkpt lat="45.91302" lon="4.73738">
        <ele>174</ele>
        <time>2018-09-09T08:32:44Z</time>
      </trkpt>
      <trkpt lat="45.91296" lon="4.73738">
        <ele>174</ele>
        <time>2018-09-09T08:32:45Z</time>
      </trkpt>
      <trkpt lat="45.91291" lon="4.73738">
        <ele>174</ele>
        <time>2018-09-09T08:32:46Z</time>
      </trkpt>
      <trkpt lat="45.91285" lon="4.73738">
        <ele>174</ele>
        <time>2018-09-09T08:32:47Z</time>
      </trkpt>
      <trkpt lat="45.9128" lon="4.73736">
        <ele>174</ele>
        <time>2018-09-09T08:32:48Z</time>
      </trkpt>
      <trkpt lat="45.91274" lon="4.73736">
        <ele>174</ele>
        <time>2018-09-09T08:32:49Z</time>
      </trkpt>
      <trkpt lat="45.91269" lon="4.73737">
        <ele>174</ele>
        <time>2018-09-09T08:32:50Z</time>
      </trkpt>
      <trkpt lat="45.91263" lon="4.73737">
        <ele>174</ele>
        <time>2018-09-09T08:32:51Z</time>
      </trkpt>
      <trkpt lat="45.91258" lon="4.73738">
        <ele>175</ele>
        <time>2018-09-09T08:32:52Z</time>
      </trkpt>
      <trkpt lat="45.91252" lon="4.73737">
        <ele>175</ele>
        <time>2018-09-09T08:32:53Z</time>
      </trkpt>
      <trkpt lat="45.91246" lon="4.73737">
        <ele>175</ele>
        <time>2018-09-09T08:32:54Z</time>
      </trkpt>
      <trkpt lat="45.9124" lon="4.73737">
        <ele>175</ele>
        <time>2018-09-09T08:32:55Z</time>
      </trkpt>
      <trkpt lat="45.91235" lon="4.73737">
        <ele>175</ele>
        <time>2018-09-09T08:32:56Z</time>
      </trkpt>
      <trkpt lat="45.91229" lon="4.73738">
        <ele>175</ele>
        <time>2018-09-09T08:32:57Z</time>
      </trkpt>
      <trkpt lat="45.91223" lon="4.73739">
        <ele>175</ele>
        <time>2018-09-09T08:32:58Z</time>
      </trkpt>
      <trkpt lat="45.91217" lon="4.73738">
        <ele>175</ele>
        <time>2018-09-09T08:32:59Z</time>
      </trkpt>
      <trkpt lat="45.91213" lon="4.73738">
        <ele>175</ele>
        <time>2018-09-09T08:33:00Z</time>
      </trkpt>
      <trkpt lat="45.91207" lon="4.73737">
        <ele>175</ele>
        <time>2018-09-09T08:33:01Z</time>
      </trkpt>
      <trkpt lat="45.91202" lon="4.73738">
        <ele>175</ele>
        <time>2018-09-09T08:33:02Z</time>
      </trkpt>
      <trkpt lat="45.91198" lon="4.73737">
        <ele>175</ele>
        <time>2018-09-09T08:33:03Z</time>
      </trkpt>
      <trkpt lat="45.91193" lon="4.73736">
        <ele>175</ele>
        <time>2018-09-09T08:33:04Z</time>
      </trkpt>
      <trkpt lat="45.91188" lon="4.73734">
        <ele>175</ele>
        <time>2018-09-09T08:33:05Z</time>
      </trkpt>
      <trkpt lat="45.91183" lon="4.73732">
        <ele>175</ele>
        <time>2018-09-09T08:33:06Z</time>
      </trkpt>
      <trkpt lat="45.91176" lon="4.7373">
        <ele>175</ele>
        <time>2018-09-09T08:33:08Z</time>
      </trkpt>
      <trkpt lat="45.91172" lon="4.73731">
        <ele>175</ele>
        <time>2018-09-09T08:33:09Z</time>
      </trkpt>
      <trkpt lat="45.91165" lon="4.7373">
        <ele>175</ele>
        <time>2018-09-09T08:33:13Z</time>
      </trkpt>
      <trkpt lat="45.91158" lon="4.73732">
        <ele>175</ele>
        <time>2018-09-09T08:33:14Z</time>
      </trkpt>
      <trkpt lat="45.91157" lon="4.73741">
        <ele>175</ele>
        <time>2018-09-09T08:33:16Z</time>
      </trkpt>
      <trkpt lat="45.91157" lon="4.73745">
        <ele>175</ele>
        <time>2018-09-09T08:33:17Z</time>
      </trkpt>
      <trkpt lat="45.9116" lon="4.7375">
        <ele>175</ele>
        <time>2018-09-09T08:33:18Z</time>
      </trkpt>
      <trkpt lat="45.91163" lon="4.73756">
        <ele>175</ele>
        <time>2018-09-09T08:33:19Z</time>
      </trkpt>
      <trkpt lat="45.91165" lon="4.73761">
        <ele>175</ele>
        <time>2018-09-09T08:33:20Z</time>
      </trkpt>
      <trkpt lat="45.91168" lon="4.73767">
        <ele>175</ele>
        <time>2018-09-09T08:33:21Z</time>
      </trkpt>
      <trkpt lat="45.91171" lon="4.73773">
        <ele>175</ele>
        <time>2018-09-09T08:33:22Z</time>
      </trkpt>
      <trkpt lat="45.91174" lon="4.73779">
        <ele>175</ele>
        <time>2018-09-09T08:33:23Z</time>
      </trkpt>
      <trkpt lat="45.91176" lon="4.73786">
        <ele>175</ele>
        <time>2018-09-09T08:33:24Z</time>
      </trkpt>
      <trkpt lat="45.91179" lon="4.73791">
        <ele>175</ele>
        <time>2018-09-09T08:33:25Z</time>
      </trkpt>
      <trkpt lat="45.91181" lon="4.73798">
        <ele>175</ele>
        <time>2018-09-09T08:33:26Z</time>
      </trkpt>
      <trkpt lat="45.91184" lon="4.73804">
        <ele>175</ele>
        <time>2018-09-09T08:33:27Z</time>
      </trkpt>
      <trkpt lat="45.91188" lon="4.7381">
        <ele>175</ele>
        <time>2018-09-09T08:33:28Z</time>
      </trkpt>
      <trkpt lat="45.91191" lon="4.73815">
        <ele>175</ele>
        <time>2018-09-09T08:33:29Z</time>
      </trkpt>
      <trkpt lat="45.91194" lon="4.73822">
        <ele>175</ele>
        <time>2018-09-09T08:33:30Z</time>
      </trkpt>
      <trkpt lat="45.91197" lon="4.73828">
        <ele>175</ele>
        <time>2018-09-09T08:33:31Z</time>
      </trkpt>
      <trkpt lat="45.912" lon="4.73834">
        <ele>174</ele>
        <time>2018-09-09T08:33:32Z</time>
      </trkpt>
      <trkpt lat="45.91203" lon="4.7384">
        <ele>174</ele>
        <time>2018-09-09T08:33:33Z</time>
      </trkpt>
      <trkpt lat="45.91205" lon="4.73845">
        <ele>174</ele>
        <time>2018-09-09T08:33:34Z</time>
      </trkpt>
      <trkpt lat="45.91208" lon="4.73851">
        <ele>174</ele>
        <time>2018-09-09T08:33:35Z</time>
      </trkpt>
      <trkpt lat="45.9121" lon="4.73859">
        <ele>174</ele>
        <time>2018-09-09T08:33:36Z</time>
      </trkpt>
      <trkpt lat="45.91212" lon="4.73864">
        <ele>174</ele>
        <time>2018-09-09T08:33:37Z</time>
      </trkpt>
      <trkpt lat="45.91215" lon="4.7387">
        <ele>174</ele>
        <time>2018-09-09T08:33:38Z</time>
      </trkpt>
      <trkpt lat="45.91217" lon="4.73876">
        <ele>174</ele>
        <time>2018-09-09T08:33:39Z</time>
      </trkpt>
      <trkpt lat="45.91218" lon="4.73882">
        <ele>174</ele>
        <time>2018-09-09T08:33:40Z</time>
      </trkpt>
      <trkpt lat="45.91221" lon="4.73888">
        <ele>174</ele>
        <time>2018-09-09T08:33:41Z</time>
      </trkpt>
      <trkpt lat="45.91222" lon="4.73895">
        <ele>174</ele>
        <time>2018-09-09T08:33:42Z</time>
      </trkpt>
      <trkpt lat="45.91225" lon="4.73902">
        <ele>174</ele>
        <time>2018-09-09T08:33:43Z</time>
      </trkpt>
      <trkpt lat="45.91226" lon="4.73909">
        <ele>174</ele>
        <time>2018-09-09T08:33:44Z</time>
      </trkpt>
      <trkpt lat="45.91226" lon="4.73915">
        <ele>174</ele>
        <time>2018-09-09T08:33:45Z</time>
      </trkpt>
      <trkpt lat="45.91226" lon="4.73922">
        <ele>173</ele>
        <time>2018-09-09T08:33:46Z</time>
      </trkpt>
      <trkpt lat="45.91227" lon="4.73929">
        <ele>173</ele>
        <time>2018-09-09T08:33:47Z</time>
      </trkpt>
      <trkpt lat="45.91227" lon="4.73935">
        <ele>173</ele>
        <time>2018-09-09T08:33:48Z</time>
      </trkpt>
      <trkpt lat="45.91228" lon="4.73943">
        <ele>173</ele>
        <time>2018-09-09T08:33:49Z</time>
      </trkpt>
      <trkpt lat="45.91228" lon="4.7395">
        <ele>173</ele>
        <time>2018-09-09T08:33:50Z</time>
      </trkpt>
      <trkpt lat="45.91229" lon="4.73956">
        <ele>173</ele>
        <time>2018-09-09T08:33:51Z</time>
      </trkpt>
      <trkpt lat="45.91229" lon="4.73962">
        <ele>173</ele>
        <time>2018-09-09T08:33:52Z</time>
      </trkpt>
      <trkpt lat="45.91228" lon="4.73969">
        <ele>173</ele>
        <time>2018-09-09T08:33:53Z</time>
      </trkpt>
      <trkpt lat="45.91228" lon="4.73976">
        <ele>173</ele>
        <time>2018-09-09T08:33:54Z</time>
      </trkpt>
      <trkpt lat="45.91228" lon="4.73986">
        <ele>173</ele>
        <time>2018-09-09T08:33:55Z</time>
      </trkpt>
      <trkpt lat="45.91227" lon="4.73993">
        <ele>173</ele>
        <time>2018-09-09T08:33:56Z</time>
      </trkpt>
      <trkpt lat="45.91226" lon="4.73999">
        <ele>173</ele>
        <time>2018-09-09T08:33:57Z</time>
      </trkpt>
      <trkpt lat="45.91225" lon="4.74006">
        <ele>173</ele>
        <time>2018-09-09T08:33:58Z</time>
      </trkpt>
      <trkpt lat="45.91223" lon="4.74013">
        <ele>173</ele>
        <time>2018-09-09T08:33:59Z</time>
      </trkpt>
      <trkpt lat="45.91222" lon="4.74019">
        <ele>173</ele>
        <time>2018-09-09T08:34:00Z</time>
      </trkpt>
      <trkpt lat="45.9122" lon="4.74027">
        <ele>173</ele>
        <time>2018-09-09T08:34:01Z</time>
      </trkpt>
      <trkpt lat="45.91218" lon="4.74034">
        <ele>173</ele>
        <time>2018-09-09T08:34:02Z</time>
      </trkpt>
      <trkpt lat="45.91216" lon="4.74042">
        <ele>173</ele>
        <time>2018-09-09T08:34:03Z</time>
      </trkpt>
      <trkpt lat="45.91214" lon="4.74048">
        <ele>173</ele>
        <time>2018-09-09T08:34:04Z</time>
      </trkpt>
      <trkpt lat="45.91214" lon="4.74058">
        <ele>173</ele>
        <time>2018-09-09T08:34:05Z</time>
      </trkpt>
      <trkpt lat="45.91212" lon="4.74066">
        <ele>173</ele>
        <time>2018-09-09T08:34:06Z</time>
      </trkpt>
      <trkpt lat="45.91211" lon="4.74074">
        <ele>173</ele>
        <time>2018-09-09T08:34:07Z</time>
      </trkpt>
      <trkpt lat="45.91211" lon="4.74084">
        <ele>173</ele>
        <time>2018-09-09T08:34:08Z</time>
      </trkpt>
      <trkpt lat="45.9121" lon="4.74092">
        <ele>173</ele>
        <time>2018-09-09T08:34:09Z</time>
      </trkpt>
      <trkpt lat="45.91208" lon="4.74099">
        <ele>173</ele>
        <time>2018-09-09T08:34:10Z</time>
      </trkpt>
      <trkpt lat="45.91206" lon="4.74106">
        <ele>173</ele>
        <time>2018-09-09T08:34:11Z</time>
      </trkpt>
      <trkpt lat="45.91203" lon="4.74113">
        <ele>173</ele>
        <time>2018-09-09T08:34:12Z</time>
      </trkpt>
      <trkpt lat="45.91201" lon="4.74119">
        <ele>174</ele>
        <time>2018-09-09T08:34:13Z</time>
      </trkpt>
      <trkpt lat="45.912" lon="4.74127">
        <ele>174</ele>
        <time>2018-09-09T08:34:14Z</time>
      </trkpt>
      <trkpt lat="45.91199" lon="4.74135">
        <ele>174</ele>
        <time>2018-09-09T08:34:15Z</time>
      </trkpt>
      <trkpt lat="45.91197" lon="4.74143">
        <ele>174</ele>
        <time>2018-09-09T08:34:16Z</time>
      </trkpt>
      <trkpt lat="45.91195" lon="4.74149">
        <ele>174</ele>
        <time>2018-09-09T08:34:17Z</time>
      </trkpt>
      <trkpt lat="45.91194" lon="4.74158">
        <ele>174</ele>
        <time>2018-09-09T08:34:18Z</time>
      </trkpt>
      <trkpt lat="45.91193" lon="4.74165">
        <ele>174</ele>
        <time>2018-09-09T08:34:19Z</time>
      </trkpt>
      <trkpt lat="45.91192" lon="4.74172">
        <ele>174</ele>
        <time>2018-09-09T08:34:20Z</time>
      </trkpt>
      <trkpt lat="45.91192" lon="4.74182">
        <ele>174</ele>
        <time>2018-09-09T08:34:21Z</time>
      </trkpt>
      <trkpt lat="45.91191" lon="4.7419">
        <ele>175</ele>
        <time>2018-09-09T08:34:22Z</time>
      </trkpt>
      <trkpt lat="45.91189" lon="4.74196">
        <ele>175</ele>
        <time>2018-09-09T08:34:23Z</time>
      </trkpt>
      <trkpt lat="45.91188" lon="4.74204">
        <ele>175</ele>
        <time>2018-09-09T08:34:24Z</time>
      </trkpt>
      <trkpt lat="45.91188" lon="4.74217">
        <ele>175</ele>
        <time>2018-09-09T08:34:25Z</time>
      </trkpt>
      <trkpt lat="45.91189" lon="4.74226">
        <ele>175</ele>
        <time>2018-09-09T08:34:26Z</time>
      </trkpt>
      <trkpt lat="45.91188" lon="4.74233">
        <ele>175</ele>
        <time>2018-09-09T08:34:27Z</time>
      </trkpt>
      <trkpt lat="45.91188" lon="4.74242">
        <ele>175</ele>
        <time>2018-09-09T08:34:28Z</time>
      </trkpt>
      <trkpt lat="45.91191" lon="4.74253">
        <ele>175</ele>
        <time>2018-09-09T08:34:29Z</time>
      </trkpt>
      <trkpt lat="45.91193" lon="4.74263">
        <ele>175</ele>
        <time>2018-09-09T08:34:30Z</time>
      </trkpt>
      <trkpt lat="45.91196" lon="4.74274">
        <ele>175</ele>
        <time>2018-09-09T08:34:31Z</time>
      </trkpt>
      <trkpt lat="45.912" lon="4.74285">
        <ele>175</ele>
        <time>2018-09-09T08:34:32Z</time>
      </trkpt>
      <trkpt lat="45.91203" lon="4.74297">
        <ele>175</ele>
        <time>2018-09-09T08:34:33Z</time>
      </trkpt>
      <trkpt lat="45.91206" lon="4.74308">
        <ele>175</ele>
        <time>2018-09-09T08:34:34Z</time>
      </trkpt>
      <trkpt lat="45.91208" lon="4.7432">
        <ele>175</ele>
        <time>2018-09-09T08:34:35Z</time>
      </trkpt>
      <trkpt lat="45.91212" lon="4.74331">
        <ele>175</ele>
        <time>2018-09-09T08:34:36Z</time>
      </trkpt>
      <trkpt lat="45.91215" lon="4.74343">
        <ele>175</ele>
        <time>2018-09-09T08:34:37Z</time>
      </trkpt>
      <trkpt lat="45.91218" lon="4.74354">
        <ele>174</ele>
        <time>2018-09-09T08:34:38Z</time>
      </trkpt>
      <trkpt lat="45.91221" lon="4.74366">
        <ele>174</ele>
        <time>2018-09-09T08:34:39Z</time>
      </trkpt>
      <trkpt lat="45.91224" lon="4.74378">
        <ele>174</ele>
        <time>2018-09-09T08:34:40Z</time>
      </trkpt>
      <trkpt lat="45.91229" lon="4.74389">
        <ele>174</ele>
        <time>2018-09-09T08:34:41Z</time>
      </trkpt>
      <trkpt lat="45.91232" lon="4.74401">
        <ele>174</ele>
        <time>2018-09-09T08:34:42Z</time>
      </trkpt>
      <trkpt lat="45.91234" lon="4.74411">
        <ele>174</ele>
        <time>2018-09-09T08:34:43Z</time>
      </trkpt>
      <trkpt lat="45.91237" lon="4.74422">
        <ele>174</ele>
        <time>2018-09-09T08:34:44Z</time>
      </trkpt>
      <trkpt lat="45.9124" lon="4.74431">
        <ele>174</ele>
        <time>2018-09-09T08:34:45Z</time>
      </trkpt>
      <trkpt lat="45.91242" lon="4.74441">
        <ele>174</ele>
        <time>2018-09-09T08:34:46Z</time>
      </trkpt>
      <trkpt lat="45.91245" lon="4.74452">
        <ele>174</ele>
        <time>2018-09-09T08:34:47Z</time>
      </trkpt>
      <trkpt lat="45.91247" lon="4.74461">
        <ele>174</ele>
        <time>2018-09-09T08:34:48Z</time>
      </trkpt>
      <trkpt lat="45.91251" lon="4.74472">
        <ele>173</ele>
        <time>2018-09-09T08:34:49Z</time>
      </trkpt>
      <trkpt lat="45.91253" lon="4.74481">
        <ele>173</ele>
        <time>2018-09-09T08:34:50Z</time>
      </trkpt>
      <trkpt lat="45.91254" lon="4.74488">
        <ele>174</ele>
        <time>2018-09-09T08:34:51Z</time>
      </trkpt>
      <trkpt lat="45.91257" lon="4.74498">
        <ele>174</ele>
        <time>2018-09-09T08:34:52Z</time>
      </trkpt>
      <trkpt lat="45.9126" lon="4.74507">
        <ele>174</ele>
        <time>2018-09-09T08:34:53Z</time>
      </trkpt>
      <trkpt lat="45.91262" lon="4.74515">
        <ele>174</ele>
        <time>2018-09-09T08:34:54Z</time>
      </trkpt>
      <trkpt lat="45.91264" lon="4.74524">
        <ele>173</ele>
        <time>2018-09-09T08:34:55Z</time>
      </trkpt>
      <trkpt lat="45.91267" lon="4.74531">
        <ele>173</ele>
        <time>2018-09-09T08:34:56Z</time>
      </trkpt>
      <trkpt lat="45.9127" lon="4.74537">
        <ele>173</ele>
        <time>2018-09-09T08:34:57Z</time>
      </trkpt>
      <trkpt lat="45.91273" lon="4.74544">
        <ele>173</ele>
        <time>2018-09-09T08:34:58Z</time>
      </trkpt>
      <trkpt lat="45.91276" lon="4.7455">
        <ele>173</ele>
        <time>2018-09-09T08:34:59Z</time>
      </trkpt>
      <trkpt lat="45.91279" lon="4.74557">
        <ele>173</ele>
        <time>2018-09-09T08:35:00Z</time>
      </trkpt>
      <trkpt lat="45.91282" lon="4.74564">
        <ele>173</ele>
        <time>2018-09-09T08:35:01Z</time>
      </trkpt>
      <trkpt lat="45.91284" lon="4.74571">
        <ele>173</ele>
        <time>2018-09-09T08:35:02Z</time>
      </trkpt>
      <trkpt lat="45.91287" lon="4.74577">
        <ele>173</ele>
        <time>2018-09-09T08:35:03Z</time>
      </trkpt>
      <trkpt lat="45.91289" lon="4.74584">
        <ele>173</ele>
        <time>2018-09-09T08:35:04Z</time>
      </trkpt>
      <trkpt lat="45.91294" lon="4.74592">
        <ele>173</ele>
        <time>2018-09-09T08:35:05Z</time>
      </trkpt>
      <trkpt lat="45.91297" lon="4.746">
        <ele>173</ele>
        <time>2018-09-09T08:35:06Z</time>
      </trkpt>
      <trkpt lat="45.913" lon="4.74608">
        <ele>173</ele>
        <time>2018-09-09T08:35:07Z</time>
      </trkpt>
      <trkpt lat="45.91304" lon="4.74616">
        <ele>173</ele>
        <time>2018-09-09T08:35:08Z</time>
      </trkpt>
      <trkpt lat="45.91308" lon="4.74626">
        <ele>173</ele>
        <time>2018-09-09T08:35:09Z</time>
      </trkpt>
      <trkpt lat="45.91311" lon="4.74634">
        <ele>173</ele>
        <time>2018-09-09T08:35:10Z</time>
      </trkpt>
      <trkpt lat="45.91313" lon="4.7464">
        <ele>173</ele>
        <time>2018-09-09T08:35:11Z</time>
      </trkpt>
      <trkpt lat="45.91316" lon="4.74648">
        <ele>173</ele>
        <time>2018-09-09T08:35:12Z</time>
      </trkpt>
      <trkpt lat="45.9132" lon="4.74656">
        <ele>173</ele>
        <time>2018-09-09T08:35:13Z</time>
      </trkpt>
      <trkpt lat="45.91321" lon="4.7466">
        <ele>173</ele>
        <time>2018-09-09T08:35:14Z</time>
      </trkpt>
      <trkpt lat="45.91322" lon="4.74666">
        <ele>173</ele>
        <time>2018-09-09T08:35:15Z</time>
      </trkpt>
      <trkpt lat="45.91325" lon="4.74673">
        <ele>173</ele>
        <time>2018-09-09T08:35:16Z</time>
      </trkpt>
      <trkpt lat="45.9133" lon="4.74683">
        <ele>173</ele>
        <time>2018-09-09T08:35:17Z</time>
      </trkpt>
      <trkpt lat="45.91332" lon="4.7469">
        <ele>173</ele>
        <time>2018-09-09T08:35:18Z</time>
      </trkpt>
      <trkpt lat="45.91333" lon="4.74698">
        <ele>173</ele>
        <time>2018-09-09T08:35:19Z</time>
      </trkpt>
      <trkpt lat="45.91332" lon="4.74705">
        <ele>173</ele>
        <time>2018-09-09T08:35:20Z</time>
      </trkpt>
      <trkpt lat="45.91332" lon="4.74712">
        <ele>173</ele>
        <time>2018-09-09T08:35:21Z</time>
      </trkpt>
      <trkpt lat="45.91331" lon="4.7472">
        <ele>173</ele>
        <time>2018-09-09T08:35:22Z</time>
      </trkpt>
      <trkpt lat="45.9133" lon="4.74728">
        <ele>173</ele>
        <time>2018-09-09T08:35:23Z</time>
      </trkpt>
      <trkpt lat="45.91328" lon="4.74741">
        <ele>173</ele>
        <time>2018-09-09T08:35:24Z</time>
      </trkpt>
      <trkpt lat="45.91325" lon="4.74752">
        <ele>173</ele>
        <time>2018-09-09T08:35:26Z</time>
      </trkpt>
      <trkpt lat="45.91322" lon="4.74759">
        <ele>174</ele>
        <time>2018-09-09T08:35:27Z</time>
      </trkpt>
      <trkpt lat="45.9132" lon="4.74766">
        <ele>174</ele>
        <time>2018-09-09T08:35:28Z</time>
      </trkpt>
      <trkpt lat="45.91321" lon="4.74773">
        <ele>174</ele>
        <time>2018-09-09T08:35:29Z</time>
      </trkpt>
      <trkpt lat="45.91318" lon="4.74779">
        <ele>174</ele>
        <time>2018-09-09T08:35:30Z</time>
      </trkpt>
      <trkpt lat="45.91316" lon="4.74784">
        <ele>174</ele>
        <time>2018-09-09T08:35:31Z</time>
      </trkpt>
      <trkpt lat="45.91315" lon="4.74793">
        <ele>174</ele>
        <time>2018-09-09T08:35:32Z</time>
      </trkpt>
      <trkpt lat="45.91315" lon="4.74802">
        <ele>175</ele>
        <time>2018-09-09T08:35:33Z</time>
      </trkpt>
      <trkpt lat="45.91315" lon="4.74811">
        <ele>175</ele>
        <time>2018-09-09T08:35:34Z</time>
      </trkpt>
      <trkpt lat="45.91315" lon="4.7482">
        <ele>175</ele>
        <time>2018-09-09T08:35:35Z</time>
      </trkpt>
      <trkpt lat="45.91315" lon="4.74829">
        <ele>175</ele>
        <time>2018-09-09T08:35:36Z</time>
      </trkpt>
      <trkpt lat="45.91314" lon="4.74837">
        <ele>176</ele>
        <time>2018-09-09T08:35:37Z</time>
      </trkpt>
      <trkpt lat="45.91315" lon="4.74845">
        <ele>176</ele>
        <time>2018-09-09T08:35:38Z</time>
      </trkpt>
      <trkpt lat="45.91315" lon="4.74852">
        <ele>176</ele>
        <time>2018-09-09T08:35:39Z</time>
      </trkpt>
      <trkpt lat="45.91316" lon="4.74861">
        <ele>176</ele>
        <time>2018-09-09T08:35:40Z</time>
      </trkpt>
      <trkpt lat="45.91315" lon="4.74869">
        <ele>176</ele>
        <time>2018-09-09T08:35:41Z</time>
      </trkpt>
      <trkpt lat="45.91314" lon="4.74876">
        <ele>176</ele>
        <time>2018-09-09T08:35:42Z</time>
      </trkpt>
      <trkpt lat="45.91312" lon="4.74884">
        <ele>176</ele>
        <time>2018-09-09T08:35:43Z</time>
      </trkpt>
      <trkpt lat="45.91312" lon="4.74893">
        <ele>176</ele>
        <time>2018-09-09T08:35:44Z</time>
      </trkpt>
      <trkpt lat="45.91312" lon="4.74901">
        <ele>176</ele>
        <time>2018-09-09T08:35:45Z</time>
      </trkpt>
      <trkpt lat="45.9131" lon="4.74907">
        <ele>176</ele>
        <time>2018-09-09T08:35:46Z</time>
      </trkpt>
      <trkpt lat="45.91309" lon="4.74914">
        <ele>176</ele>
        <time>2018-09-09T08:35:47Z</time>
      </trkpt>
      <trkpt lat="45.91307" lon="4.74922">
        <ele>177</ele>
        <time>2018-09-09T08:35:48Z</time>
      </trkpt>
      <trkpt lat="45.91307" lon="4.74929">
        <ele>177</ele>
        <time>2018-09-09T08:35:49Z</time>
      </trkpt>
      <trkpt lat="45.91305" lon="4.74936">
        <ele>177</ele>
        <time>2018-09-09T08:35:50Z</time>
      </trkpt>
      <trkpt lat="45.91304" lon="4.74944">
        <ele>177</ele>
        <time>2018-09-09T08:35:51Z</time>
      </trkpt>
      <trkpt lat="45.91303" lon="4.74953">
        <ele>177</ele>
        <time>2018-09-09T08:35:52Z</time>
      </trkpt>
      <trkpt lat="45.91304" lon="4.74963">
        <ele>177</ele>
        <time>2018-09-09T08:35:53Z</time>
      </trkpt>
      <trkpt lat="45.91304" lon="4.74972">
        <ele>177</ele>
        <time>2018-09-09T08:35:54Z</time>
      </trkpt>
      <trkpt lat="45.91303" lon="4.74979">
        <ele>177</ele>
        <time>2018-09-09T08:35:55Z</time>
      </trkpt>
      <trkpt lat="45.91303" lon="4.74986">
        <ele>177</ele>
        <time>2018-09-09T08:35:56Z</time>
      </trkpt>
      <trkpt lat="45.91301" lon="4.74992">
        <ele>177</ele>
        <time>2018-09-09T08:35:57Z</time>
      </trkpt>
      <trkpt lat="45.913" lon="4.75">
        <ele>177</ele>
        <time>2018-09-09T08:35:58Z</time>
      </trkpt>
      <trkpt lat="45.91299" lon="4.75007">
        <ele>177</ele>
        <time>2018-09-09T08:35:59Z</time>
      </trkpt>
      <trkpt lat="45.91298" lon="4.75015">
        <ele>177</ele>
        <time>2018-09-09T08:36:00Z</time>
      </trkpt>
      <trkpt lat="45.91297" lon="4.7502">
        <ele>177</ele>
        <time>2018-09-09T08:36:01Z</time>
      </trkpt>
      <trkpt lat="45.91299" lon="4.75029">
        <ele>177</ele>
        <time>2018-09-09T08:36:02Z</time>
      </trkpt>
      <trkpt lat="45.91299" lon="4.75036">
        <ele>177</ele>
        <time>2018-09-09T08:36:03Z</time>
      </trkpt>
      <trkpt lat="45.913" lon="4.75044">
        <ele>177</ele>
        <time>2018-09-09T08:36:04Z</time>
      </trkpt>
      <trkpt lat="45.91301" lon="4.75051">
        <ele>177</ele>
        <time>2018-09-09T08:36:05Z</time>
      </trkpt>
      <trkpt lat="45.91302" lon="4.75059">
        <ele>177</ele>
        <time>2018-09-09T08:36:06Z</time>
      </trkpt>
      <trkpt lat="45.91302" lon="4.75068">
        <ele>177</ele>
        <time>2018-09-09T08:36:07Z</time>
      </trkpt>
      <trkpt lat="45.91303" lon="4.75078">
        <ele>177</ele>
        <time>2018-09-09T08:36:08Z</time>
      </trkpt>
      <trkpt lat="45.91304" lon="4.75086">
        <ele>177</ele>
        <time>2018-09-09T08:36:09Z</time>
      </trkpt>
      <trkpt lat="45.91304" lon="4.75094">
        <ele>177</ele>
        <time>2018-09-09T08:36:10Z</time>
      </trkpt>
      <trkpt lat="45.91305" lon="4.75103">
        <ele>177</ele>
        <time>2018-09-09T08:36:11Z</time>
      </trkpt>
      <trkpt lat="45.91307" lon="4.75112">
        <ele>177</ele>
        <time>2018-09-09T08:36:12Z</time>
      </trkpt>
      <trkpt lat="45.91308" lon="4.75119">
        <ele>177</ele>
        <time>2018-09-09T08:36:13Z</time>
      </trkpt>
      <trkpt lat="45.91308" lon="4.75125">
        <ele>177</ele>
        <time>2018-09-09T08:36:14Z</time>
      </trkpt>
      <trkpt lat="45.9131" lon="4.75132">
        <ele>177</ele>
        <time>2018-09-09T08:36:15Z</time>
      </trkpt>
      <trkpt lat="45.9131" lon="4.75137">
        <ele>177</ele>
        <time>2018-09-09T08:36:16Z</time>
      </trkpt>
      <trkpt lat="45.91311" lon="4.75147">
        <ele>177</ele>
        <time>2018-09-09T08:36:17Z</time>
      </trkpt>
      <trkpt lat="45.91305" lon="4.75155">
        <ele>177</ele>
        <time>2018-09-09T08:36:22Z</time>
      </trkpt>
      <trkpt lat="45.91303" lon="4.75155">
        <ele>177</ele>
        <time>2018-09-09T08:36:23Z</time>
      </trkpt>
      <trkpt lat="45.91294" lon="4.75153">
        <ele>177</ele>
        <time>2018-09-09T08:36:24Z</time>
      </trkpt>
      <trkpt lat="45.9129" lon="4.75151">
        <ele>177</ele>
        <time>2018-09-09T08:36:25Z</time>
      </trkpt>
      <trkpt lat="45.91285" lon="4.75149">
        <ele>177</ele>
        <time>2018-09-09T08:36:26Z</time>
      </trkpt>
      <trkpt lat="45.91281" lon="4.75147">
        <ele>177</ele>
        <time>2018-09-09T08:36:27Z</time>
      </trkpt>
      <trkpt lat="45.91275" lon="4.75143">
        <ele>177</ele>
        <time>2018-09-09T08:36:28Z</time>
      </trkpt>
      <trkpt lat="45.91271" lon="4.75141">
        <ele>177</ele>
        <time>2018-09-09T08:36:29Z</time>
      </trkpt>
      <trkpt lat="45.91265" lon="4.75137">
        <ele>177</ele>
        <time>2018-09-09T08:36:30Z</time>
      </trkpt>
      <trkpt lat="45.91261" lon="4.75135">
        <ele>177</ele>
        <time>2018-09-09T08:36:31Z</time>
      </trkpt>
      <trkpt lat="45.91256" lon="4.75133">
        <ele>177</ele>
        <time>2018-09-09T08:36:32Z</time>
      </trkpt>
      <trkpt lat="45.91251" lon="4.75132">
        <ele>177</ele>
        <time>2018-09-09T08:36:33Z</time>
      </trkpt>
      <trkpt lat="45.91247" lon="4.7513">
        <ele>177</ele>
        <time>2018-09-09T08:36:34Z</time>
      </trkpt>
      <trkpt lat="45.91243" lon="4.75128">
        <ele>177</ele>
        <time>2018-09-09T08:36:35Z</time>
      </trkpt>
      <trkpt lat="45.91238" lon="4.75126">
        <ele>177</ele>
        <time>2018-09-09T08:36:36Z</time>
      </trkpt>
      <trkpt lat="45.91233" lon="4.75124">
        <ele>177</ele>
        <time>2018-09-09T08:36:37Z</time>
      </trkpt>
      <trkpt lat="45.91228" lon="4.75123">
        <ele>177</ele>
        <time>2018-09-09T08:36:38Z</time>
      </trkpt>
      <trkpt lat="45.91223" lon="4.75123">
        <ele>177</ele>
        <time>2018-09-09T08:36:39Z</time>
      </trkpt>
      <trkpt lat="45.91219" lon="4.75122">
        <ele>177</ele>
        <time>2018-09-09T08:36:40Z</time>
      </trkpt>
      <trkpt lat="45.91212" lon="4.7512">
        <ele>177</ele>
        <time>2018-09-09T08:36:41Z</time>
      </trkpt>
      <trkpt lat="45.91208" lon="4.7512">
        <ele>178</ele>
        <time>2018-09-09T08:36:42Z</time>
      </trkpt>
      <trkpt lat="45.91203" lon="4.75118">
        <ele>178</ele>
        <time>2018-09-09T08:36:43Z</time>
      </trkpt>
      <trkpt lat="45.91197" lon="4.75117">
        <ele>178</ele>
        <time>2018-09-09T08:36:44Z</time>
      </trkpt>
      <trkpt lat="45.91191" lon="4.75116">
        <ele>178</ele>
        <time>2018-09-09T08:36:45Z</time>
      </trkpt>
      <trkpt lat="45.91185" lon="4.75114">
        <ele>178</ele>
        <time>2018-09-09T08:36:46Z</time>
      </trkpt>
      <trkpt lat="45.91179" lon="4.75113">
        <ele>178</ele>
        <time>2018-09-09T08:36:47Z</time>
      </trkpt>
      <trkpt lat="45.91173" lon="4.75112">
        <ele>178</ele>
        <time>2018-09-09T08:36:48Z</time>
      </trkpt>
      <trkpt lat="45.91166" lon="4.7511">
        <ele>179</ele>
        <time>2018-09-09T08:36:49Z</time>
      </trkpt>
      <trkpt lat="45.91161" lon="4.75108">
        <ele>179</ele>
        <time>2018-09-09T08:36:50Z</time>
      </trkpt>
      <trkpt lat="45.91156" lon="4.75107">
        <ele>179</ele>
        <time>2018-09-09T08:36:51Z</time>
      </trkpt>
      <trkpt lat="45.91151" lon="4.75107">
        <ele>179</ele>
        <time>2018-09-09T08:36:52Z</time>
      </trkpt>
      <trkpt lat="45.91147" lon="4.75104">
        <ele>179</ele>
        <time>2018-09-09T08:36:53Z</time>
      </trkpt>
      <trkpt lat="45.91142" lon="4.75102">
        <ele>179</ele>
        <time>2018-09-09T08:36:54Z</time>
      </trkpt>
      <trkpt lat="45.91136" lon="4.75099">
        <ele>179</ele>
        <time>2018-09-09T08:36:55Z</time>
      </trkpt>
      <trkpt lat="45.91131" lon="4.75097">
        <ele>179</ele>
        <time>2018-09-09T08:36:56Z</time>
      </trkpt>
      <trkpt lat="45.91126" lon="4.75097">
        <ele>179</ele>
        <time>2018-09-09T08:36:57Z</time>
      </trkpt>
      <trkpt lat="45.91121" lon="4.75095">
        <ele>179</ele>
        <time>2018-09-09T08:36:58Z</time>
      </trkpt>
      <trkpt lat="45.91115" lon="4.75093">
        <ele>179</ele>
        <time>2018-09-09T08:36:59Z</time>
      </trkpt>
      <trkpt lat="45.91107" lon="4.75091">
        <ele>180</ele>
        <time>2018-09-09T08:37:01Z</time>
      </trkpt>
      <trkpt lat="45.91102" lon="4.75089">
        <ele>180</ele>
        <time>2018-09-09T08:37:02Z</time>
      </trkpt>
      <trkpt lat="45.91097" lon="4.75087">
        <ele>180</ele>
        <time>2018-09-09T08:37:03Z</time>
      </trkpt>
      <trkpt lat="45.91091" lon="4.75084">
        <ele>180</ele>
        <time>2018-09-09T08:37:04Z</time>
      </trkpt>
      <trkpt lat="45.91085" lon="4.75081">
        <ele>180</ele>
        <time>2018-09-09T08:37:05Z</time>
      </trkpt>
      <trkpt lat="45.91079" lon="4.75078">
        <ele>180</ele>
        <time>2018-09-09T08:37:06Z</time>
      </trkpt>
      <trkpt lat="45.91073" lon="4.75076">
        <ele>179</ele>
        <time>2018-09-09T08:37:07Z</time>
      </trkpt>
      <trkpt lat="45.91068" lon="4.75074">
        <ele>179</ele>
        <time>2018-09-09T08:37:08Z</time>
      </trkpt>
      <trkpt lat="45.91063" lon="4.75072">
        <ele>179</ele>
        <time>2018-09-09T08:37:09Z</time>
      </trkpt>
      <trkpt lat="45.91059" lon="4.7507">
        <ele>179</ele>
        <time>2018-09-09T08:37:10Z</time>
      </trkpt>
      <trkpt lat="45.91051" lon="4.75068">
        <ele>179</ele>
        <time>2018-09-09T08:37:12Z</time>
      </trkpt>
      <trkpt lat="45.91049" lon="4.75067">
        <ele>179</ele>
        <time>2018-09-09T08:37:13Z</time>
      </trkpt>
      <trkpt lat="45.91042" lon="4.75065">
        <ele>179</ele>
        <time>2018-09-09T08:37:14Z</time>
      </trkpt>
      <trkpt lat="45.91039" lon="4.75064">
        <ele>179</ele>
        <time>2018-09-09T08:37:15Z</time>
      </trkpt>
      <trkpt lat="45.91031" lon="4.75061">
        <ele>179</ele>
        <time>2018-09-09T08:37:18Z</time>
      </trkpt>
      <trkpt lat="45.91025" lon="4.75059">
        <ele>179</ele>
        <time>2018-09-09T08:37:19Z</time>
      </trkpt>
      <trkpt lat="45.91018" lon="4.75056">
        <ele>179</ele>
        <time>2018-09-09T08:37:21Z</time>
      </trkpt>
      <trkpt lat="45.91016" lon="4.75056">
        <ele>179</ele>
        <time>2018-09-09T08:37:22Z</time>
      </trkpt>
      <trkpt lat="45.91008" lon="4.75055">
        <ele>179</ele>
        <time>2018-09-09T08:37:24Z</time>
      </trkpt>
      <trkpt lat="45.91004" lon="4.75054">
        <ele>179</ele>
        <time>2018-09-09T08:37:25Z</time>
      </trkpt>
      <trkpt lat="45.91" lon="4.75053">
        <ele>179</ele>
        <time>2018-09-09T08:37:26Z</time>
      </trkpt>
      <trkpt lat="45.90995" lon="4.75051">
        <ele>179</ele>
        <time>2018-09-09T08:37:27Z</time>
      </trkpt>
      <trkpt lat="45.90991" lon="4.7505">
        <ele>179</ele>
        <time>2018-09-09T08:37:28Z</time>
      </trkpt>
      <trkpt lat="45.90986" lon="4.75048">
        <ele>179</ele>
        <time>2018-09-09T08:37:29Z</time>
      </trkpt>
      <trkpt lat="45.90981" lon="4.75045">
        <ele>179</ele>
        <time>2018-09-09T08:37:30Z</time>
      </trkpt>
      <trkpt lat="45.90976" lon="4.75043">
        <ele>179</ele>
        <time>2018-09-09T08:37:31Z</time>
      </trkpt>
      <trkpt lat="45.9097" lon="4.7504">
        <ele>179</ele>
        <time>2018-09-09T08:37:32Z</time>
      </trkpt>
      <trkpt lat="45.90966" lon="4.75037">
        <ele>179</ele>
        <time>2018-09-09T08:37:33Z</time>
      </trkpt>
      <trkpt lat="45.90959" lon="4.75036">
        <ele>179</ele>
        <time>2018-09-09T08:37:34Z</time>
      </trkpt>
      <trkpt lat="45.90954" lon="4.75034">
        <ele>179</ele>
        <time>2018-09-09T08:37:35Z</time>
      </trkpt>
      <trkpt lat="45.90948" lon="4.75033">
        <ele>179</ele>
        <time>2018-09-09T08:37:36Z</time>
      </trkpt>
      <trkpt lat="45.90944" lon="4.75031">
        <ele>179</ele>
        <time>2018-09-09T08:37:37Z</time>
      </trkpt>
      <trkpt lat="45.90938" lon="4.75026">
        <ele>179</ele>
        <time>2018-09-09T08:37:39Z</time>
      </trkpt>
      <trkpt lat="45.90933" lon="4.75024">
        <ele>179</ele>
        <time>2018-09-09T08:37:40Z</time>
      </trkpt>
      <trkpt lat="45.90927" lon="4.75021">
        <ele>179</ele>
        <time>2018-09-09T08:37:41Z</time>
      </trkpt>
      <trkpt lat="45.90923" lon="4.75019">
        <ele>178</ele>
        <time>2018-09-09T08:37:42Z</time>
      </trkpt>
      <trkpt lat="45.90918" lon="4.75017">
        <ele>178</ele>
        <time>2018-09-09T08:37:43Z</time>
      </trkpt>
      <trkpt lat="45.90913" lon="4.75014">
        <ele>179</ele>
        <time>2018-09-09T08:37:44Z</time>
      </trkpt>
      <trkpt lat="45.90907" lon="4.75014">
        <ele>179</ele>
        <time>2018-09-09T08:37:45Z</time>
      </trkpt>
      <trkpt lat="45.90901" lon="4.75011">
        <ele>179</ele>
        <time>2018-09-09T08:37:46Z</time>
      </trkpt>
      <trkpt lat="45.90896" lon="4.75009">
        <ele>179</ele>
        <time>2018-09-09T08:37:47Z</time>
      </trkpt>
      <trkpt lat="45.90891" lon="4.75009">
        <ele>179</ele>
        <time>2018-09-09T08:37:48Z</time>
      </trkpt>
      <trkpt lat="45.90886" lon="4.75007">
        <ele>179</ele>
        <time>2018-09-09T08:37:49Z</time>
      </trkpt>
      <trkpt lat="45.90882" lon="4.75004">
        <ele>179</ele>
        <time>2018-09-09T08:37:50Z</time>
      </trkpt>
      <trkpt lat="45.90877" lon="4.75005">
        <ele>179</ele>
        <time>2018-09-09T08:37:51Z</time>
      </trkpt>
      <trkpt lat="45.90873" lon="4.75003">
        <ele>179</ele>
        <time>2018-09-09T08:37:52Z</time>
      </trkpt>
      <trkpt lat="45.90868" lon="4.75001">
        <ele>179</ele>
        <time>2018-09-09T08:37:53Z</time>
      </trkpt>
      <trkpt lat="45.90863" lon="4.74999">
        <ele>179</ele>
        <time>2018-09-09T08:37:54Z</time>
      </trkpt>
      <trkpt lat="45.90859" lon="4.74998">
        <ele>179</ele>
        <time>2018-09-09T08:37:55Z</time>
      </trkpt>
      <trkpt lat="45.90852" lon="4.74995">
        <ele>179</ele>
        <time>2018-09-09T08:37:56Z</time>
      </trkpt>
      <trkpt lat="45.90846" lon="4.74994">
        <ele>179</ele>
        <time>2018-09-09T08:37:57Z</time>
      </trkpt>
      <trkpt lat="45.9084" lon="4.74989">
        <ele>179</ele>
        <time>2018-09-09T08:37:58Z</time>
      </trkpt>
      <trkpt lat="45.90834" lon="4.74987">
        <ele>179</ele>
        <time>2018-09-09T08:37:59Z</time>
      </trkpt>
      <trkpt lat="45.9083" lon="4.74984">
        <ele>179</ele>
        <time>2018-09-09T08:38:00Z</time>
      </trkpt>
      <trkpt lat="45.90825" lon="4.74982">
        <ele>179</ele>
        <time>2018-09-09T08:38:01Z</time>
      </trkpt>
      <trkpt lat="45.9082" lon="4.74979">
        <ele>179</ele>
        <time>2018-09-09T08:38:02Z</time>
      </trkpt>
      <trkpt lat="45.90815" lon="4.74977">
        <ele>179</ele>
        <time>2018-09-09T08:38:03Z</time>
      </trkpt>
      <trkpt lat="45.90811" lon="4.74975">
        <ele>179</ele>
        <time>2018-09-09T08:38:04Z</time>
      </trkpt>
      <trkpt lat="45.90803" lon="4.74972">
        <ele>179</ele>
        <time>2018-09-09T08:38:06Z</time>
      </trkpt>
      <trkpt lat="45.90798" lon="4.7497">
        <ele>179</ele>
        <time>2018-09-09T08:38:07Z</time>
      </trkpt>
      <trkpt lat="45.90794" lon="4.74971">
        <ele>179</ele>
        <time>2018-09-09T08:38:08Z</time>
      </trkpt>
      <trkpt lat="45.90789" lon="4.7497">
        <ele>180</ele>
        <time>2018-09-09T08:38:09Z</time>
      </trkpt>
      <trkpt lat="45.90784" lon="4.74967">
        <ele>180</ele>
        <time>2018-09-09T08:38:10Z</time>
      </trkpt>
      <trkpt lat="45.90779" lon="4.74963">
        <ele>180</ele>
        <time>2018-09-09T08:38:11Z</time>
      </trkpt>
      <trkpt lat="45.90774" lon="4.74961">
        <ele>180</ele>
        <time>2018-09-09T08:38:12Z</time>
      </trkpt>
      <trkpt lat="45.9077" lon="4.74958">
        <ele>180</ele>
        <time>2018-09-09T08:38:13Z</time>
      </trkpt>
      <trkpt lat="45.90764" lon="4.74956">
        <ele>180</ele>
        <time>2018-09-09T08:38:14Z</time>
      </trkpt>
      <trkpt lat="45.90758" lon="4.74954">
        <ele>180</ele>
        <time>2018-09-09T08:38:15Z</time>
      </trkpt>
      <trkpt lat="45.90752" lon="4.74952">
        <ele>180</ele>
        <time>2018-09-09T08:38:16Z</time>
      </trkpt>
      <trkpt lat="45.90746" lon="4.74949">
        <ele>181</ele>
        <time>2018-09-09T08:38:17Z</time>
      </trkpt>
      <trkpt lat="45.90741" lon="4.74946">
        <ele>181</ele>
        <time>2018-09-09T08:38:18Z</time>
      </trkpt>
      <trkpt lat="45.90735" lon="4.74944">
        <ele>181</ele>
        <time>2018-09-09T08:38:19Z</time>
      </trkpt>
      <trkpt lat="45.90731" lon="4.7494">
        <ele>181</ele>
        <time>2018-09-09T08:38:20Z</time>
      </trkpt>
      <trkpt lat="45.90726" lon="4.74939">
        <ele>181</ele>
        <time>2018-09-09T08:38:21Z</time>
      </trkpt>
      <trkpt lat="45.9072" lon="4.74937">
        <ele>181</ele>
        <time>2018-09-09T08:38:23Z</time>
      </trkpt>
      <trkpt lat="45.90716" lon="4.74935">
        <ele>181</ele>
        <time>2018-09-09T08:38:24Z</time>
      </trkpt>
      <trkpt lat="45.90712" lon="4.74937">
        <ele>181</ele>
        <time>2018-09-09T08:38:25Z</time>
      </trkpt>
      <trkpt lat="45.90707" lon="4.7494">
        <ele>181</ele>
        <time>2018-09-09T08:38:26Z</time>
      </trkpt>
      <trkpt lat="45.90703" lon="4.74943">
        <ele>181</ele>
        <time>2018-09-09T08:38:27Z</time>
      </trkpt>
      <trkpt lat="45.90698" lon="4.74944">
        <ele>181</ele>
        <time>2018-09-09T08:38:28Z</time>
      </trkpt>
      <trkpt lat="45.90693" lon="4.74946">
        <ele>181</ele>
        <time>2018-09-09T08:38:29Z</time>
      </trkpt>
      <trkpt lat="45.90688" lon="4.74947">
        <ele>181</ele>
        <time>2018-09-09T08:38:30Z</time>
      </trkpt>
      <trkpt lat="45.90684" lon="4.7495">
        <ele>181</ele>
        <time>2018-09-09T08:38:31Z</time>
      </trkpt>
      <trkpt lat="45.9068" lon="4.7495">
        <ele>181</ele>
        <time>2018-09-09T08:38:32Z</time>
      </trkpt>
      <trkpt lat="45.90675" lon="4.74953">
        <ele>182</ele>
        <time>2018-09-09T08:38:33Z</time>
      </trkpt>
      <trkpt lat="45.9067" lon="4.74954">
        <ele>182</ele>
        <time>2018-09-09T08:38:34Z</time>
      </trkpt>
      <trkpt lat="45.90665" lon="4.74957">
        <ele>183</ele>
        <time>2018-09-09T08:38:35Z</time>
      </trkpt>
      <trkpt lat="45.9066" lon="4.74961">
        <ele>183</ele>
        <time>2018-09-09T08:38:36Z</time>
      </trkpt>
      <trkpt lat="45.90655" lon="4.74962">
        <ele>183</ele>
        <time>2018-09-09T08:38:37Z</time>
      </trkpt>
      <trkpt lat="45.90651" lon="4.74965">
        <ele>183</ele>
        <time>2018-09-09T08:38:38Z</time>
      </trkpt>
      <trkpt lat="45.90646" lon="4.74967">
        <ele>183</ele>
        <time>2018-09-09T08:38:39Z</time>
      </trkpt>
      <trkpt lat="45.90641" lon="4.74969">
        <ele>183</ele>
        <time>2018-09-09T08:38:40Z</time>
      </trkpt>
      <trkpt lat="45.90636" lon="4.7497">
        <ele>183</ele>
        <time>2018-09-09T08:38:41Z</time>
      </trkpt>
      <trkpt lat="45.90632" lon="4.74972">
        <ele>183</ele>
        <time>2018-09-09T08:38:42Z</time>
      </trkpt>
      <trkpt lat="45.90626" lon="4.74972">
        <ele>183</ele>
        <time>2018-09-09T08:38:43Z</time>
      </trkpt>
      <trkpt lat="45.90622" lon="4.74974">
        <ele>184</ele>
        <time>2018-09-09T08:38:44Z</time>
      </trkpt>
      <trkpt lat="45.90614" lon="4.74978">
        <ele>184</ele>
        <time>2018-09-09T08:38:46Z</time>
      </trkpt>
      <trkpt lat="45.90608" lon="4.74977">
        <ele>184</ele>
        <time>2018-09-09T08:38:47Z</time>
      </trkpt>
      <trkpt lat="45.90603" lon="4.74978">
        <ele>184</ele>
        <time>2018-09-09T08:38:48Z</time>
      </trkpt>
      <trkpt lat="45.90598" lon="4.74978">
        <ele>184</ele>
        <time>2018-09-09T08:38:49Z</time>
      </trkpt>
      <trkpt lat="45.90591" lon="4.74981">
        <ele>184</ele>
        <time>2018-09-09T08:38:51Z</time>
      </trkpt>
      <trkpt lat="45.90585" lon="4.7498">
        <ele>184</ele>
        <time>2018-09-09T08:38:52Z</time>
      </trkpt>
      <trkpt lat="45.90581" lon="4.74983">
        <ele>185</ele>
        <time>2018-09-09T08:38:53Z</time>
      </trkpt>
      <trkpt lat="45.90576" lon="4.74983">
        <ele>185</ele>
        <time>2018-09-09T08:38:54Z</time>
      </trkpt>
      <trkpt lat="45.90571" lon="4.74984">
        <ele>185</ele>
        <time>2018-09-09T08:38:55Z</time>
      </trkpt>
      <trkpt lat="45.90565" lon="4.74984">
        <ele>185</ele>
        <time>2018-09-09T08:38:56Z</time>
      </trkpt>
      <trkpt lat="45.9056" lon="4.74985">
        <ele>185</ele>
        <time>2018-09-09T08:38:57Z</time>
      </trkpt>
      <trkpt lat="45.90555" lon="4.74986">
        <ele>185</ele>
        <time>2018-09-09T08:38:58Z</time>
      </trkpt>
      <trkpt lat="45.90549" lon="4.74987">
        <ele>185</ele>
        <time>2018-09-09T08:38:59Z</time>
      </trkpt>
      <trkpt lat="45.90544" lon="4.74987">
        <ele>185</ele>
        <time>2018-09-09T08:39:00Z</time>
      </trkpt>
      <trkpt lat="45.90535" lon="4.74987">
        <ele>185</ele>
        <time>2018-09-09T08:39:02Z</time>
      </trkpt>
      <trkpt lat="45.90533" lon="4.74992">
        <ele>185</ele>
        <time>2018-09-09T08:39:03Z</time>
      </trkpt>
      <trkpt lat="45.90528" lon="4.74993">
        <ele>185</ele>
        <time>2018-09-09T08:39:04Z</time>
      </trkpt>
      <trkpt lat="45.90523" lon="4.74993">
        <ele>185</ele>
        <time>2018-09-09T08:39:05Z</time>
      </trkpt>
      <trkpt lat="45.90514" lon="4.74995">
        <ele>185</ele>
        <time>2018-09-09T08:39:07Z</time>
      </trkpt>
      <trkpt lat="45.90508" lon="4.74996">
        <ele>185</ele>
        <time>2018-09-09T08:39:08Z</time>
      </trkpt>
      <trkpt lat="45.90503" lon="4.74996">
        <ele>186</ele>
        <time>2018-09-09T08:39:09Z</time>
      </trkpt>
      <trkpt lat="45.90498" lon="4.74997">
        <ele>186</ele>
        <time>2018-09-09T08:39:10Z</time>
      </trkpt>
      <trkpt lat="45.90493" lon="4.74996">
        <ele>186</ele>
        <time>2018-09-09T08:39:11Z</time>
      </trkpt>
      <trkpt lat="45.90485" lon="4.74995">
        <ele>186</ele>
        <time>2018-09-09T08:39:12Z</time>
      </trkpt>
      <trkpt lat="45.90479" lon="4.75">
        <ele>187</ele>
        <time>2018-09-09T08:39:14Z</time>
      </trkpt>
      <trkpt lat="45.90476" lon="4.75003">
        <ele>187</ele>
        <time>2018-09-09T08:39:15Z</time>
      </trkpt>
      <trkpt lat="45.90469" lon="4.75003">
        <ele>187</ele>
        <time>2018-09-09T08:39:17Z</time>
      </trkpt>
      <trkpt lat="45.90464" lon="4.75004">
        <ele>187</ele>
        <time>2018-09-09T08:39:18Z</time>
      </trkpt>
      <trkpt lat="45.90459" lon="4.75002">
        <ele>187</ele>
        <time>2018-09-09T08:39:19Z</time>
      </trkpt>
      <trkpt lat="45.90454" lon="4.75003">
        <ele>187</ele>
        <time>2018-09-09T08:39:20Z</time>
      </trkpt>
      <trkpt lat="45.90449" lon="4.75002">
        <ele>187</ele>
        <time>2018-09-09T08:39:21Z</time>
      </trkpt>
      <trkpt lat="45.90445" lon="4.75003">
        <ele>188</ele>
        <time>2018-09-09T08:39:22Z</time>
      </trkpt>
      <trkpt lat="45.90438" lon="4.75001">
        <ele>188</ele>
        <time>2018-09-09T08:39:23Z</time>
      </trkpt>
      <trkpt lat="45.90433" lon="4.75002">
        <ele>188</ele>
        <time>2018-09-09T08:39:24Z</time>
      </trkpt>
      <trkpt lat="45.90425" lon="4.75003">
        <ele>188</ele>
        <time>2018-09-09T08:39:26Z</time>
      </trkpt>
      <trkpt lat="45.9042" lon="4.75004">
        <ele>188</ele>
        <time>2018-09-09T08:39:27Z</time>
      </trkpt>
      <trkpt lat="45.90416" lon="4.75005">
        <ele>188</ele>
        <time>2018-09-09T08:39:28Z</time>
      </trkpt>
      <trkpt lat="45.90411" lon="4.75007">
        <ele>188</ele>
        <time>2018-09-09T08:39:29Z</time>
      </trkpt>
      <trkpt lat="45.90407" lon="4.75011">
        <ele>188</ele>
        <time>2018-09-09T08:39:30Z</time>
      </trkpt>
      <trkpt lat="45.90402" lon="4.75012">
        <ele>188</ele>
        <time>2018-09-09T08:39:31Z</time>
      </trkpt>
      <trkpt lat="45.90397" lon="4.75014">
        <ele>188</ele>
        <time>2018-09-09T08:39:32Z</time>
      </trkpt>
      <trkpt lat="45.90393" lon="4.75015">
        <ele>188</ele>
        <time>2018-09-09T08:39:33Z</time>
      </trkpt>
      <trkpt lat="45.90388" lon="4.75017">
        <ele>188</ele>
        <time>2018-09-09T08:39:34Z</time>
      </trkpt>
      <trkpt lat="45.90383" lon="4.75016">
        <ele>188</ele>
        <time>2018-09-09T08:39:35Z</time>
      </trkpt>
      <trkpt lat="45.90375" lon="4.75017">
        <ele>188</ele>
        <time>2018-09-09T08:39:37Z</time>
      </trkpt>
      <trkpt lat="45.90373" lon="4.75022">
        <ele>188</ele>
        <time>2018-09-09T08:39:38Z</time>
      </trkpt>
      <trkpt lat="45.90368" lon="4.75022">
        <ele>188</ele>
        <time>2018-09-09T08:39:39Z</time>
      </trkpt>
      <trkpt lat="45.90362" lon="4.75023">
        <ele>188</ele>
        <time>2018-09-09T08:39:40Z</time>
      </trkpt>
      <trkpt lat="45.90358" lon="4.75023">
        <ele>188</ele>
        <time>2018-09-09T08:39:41Z</time>
      </trkpt>
      <trkpt lat="45.90353" lon="4.75025">
        <ele>188</ele>
        <time>2018-09-09T08:39:42Z</time>
      </trkpt>
      <trkpt lat="45.90345" lon="4.75028">
        <ele>188</ele>
        <time>2018-09-09T08:39:44Z</time>
      </trkpt>
      <trkpt lat="45.9034" lon="4.7503">
        <ele>188</ele>
        <time>2018-09-09T08:39:45Z</time>
      </trkpt>
      <trkpt lat="45.90332" lon="4.75033">
        <ele>189</ele>
        <time>2018-09-09T08:39:47Z</time>
      </trkpt>
      <trkpt lat="45.90327" lon="4.75035">
        <ele>189</ele>
        <time>2018-09-09T08:39:48Z</time>
      </trkpt>
      <trkpt lat="45.90319" lon="4.75038">
        <ele>189</ele>
        <time>2018-09-09T08:39:50Z</time>
      </trkpt>
      <trkpt lat="45.90316" lon="4.75042">
        <ele>189</ele>
        <time>2018-09-09T08:39:51Z</time>
      </trkpt>
      <trkpt lat="45.90311" lon="4.75044">
        <ele>189</ele>
        <time>2018-09-09T08:39:52Z</time>
      </trkpt>
      <trkpt lat="45.90306" lon="4.75044">
        <ele>189</ele>
        <time>2018-09-09T08:39:53Z</time>
      </trkpt>
      <trkpt lat="45.90298" lon="4.75047">
        <ele>189</ele>
        <time>2018-09-09T08:39:55Z</time>
      </trkpt>
      <trkpt lat="45.9029" lon="4.75045">
        <ele>190</ele>
        <time>2018-09-09T08:39:56Z</time>
      </trkpt>
      <trkpt lat="45.90286" lon="4.75048">
        <ele>190</ele>
        <time>2018-09-09T08:39:57Z</time>
      </trkpt>
      <trkpt lat="45.90281" lon="4.75049">
        <ele>190</ele>
        <time>2018-09-09T08:39:58Z</time>
      </trkpt>
      <trkpt lat="45.90276" lon="4.7505">
        <ele>190</ele>
        <time>2018-09-09T08:39:59Z</time>
      </trkpt>
      <trkpt lat="45.90272" lon="4.75051">
        <ele>190</ele>
        <time>2018-09-09T08:40:00Z</time>
      </trkpt>
      <trkpt lat="45.90268" lon="4.75054">
        <ele>190</ele>
        <time>2018-09-09T08:40:01Z</time>
      </trkpt>
      <trkpt lat="45.90263" lon="4.75054">
        <ele>190</ele>
        <time>2018-09-09T08:40:02Z</time>
      </trkpt>
      <trkpt lat="45.90258" lon="4.75055">
        <ele>190</ele>
        <time>2018-09-09T08:40:03Z</time>
      </trkpt>
      <trkpt lat="45.90253" lon="4.75055">
        <ele>190</ele>
        <time>2018-09-09T08:40:04Z</time>
      </trkpt>
      <trkpt lat="45.90247" lon="4.75056">
        <ele>191</ele>
        <time>2018-09-09T08:40:05Z</time>
      </trkpt>
      <trkpt lat="45.90242" lon="4.75057">
        <ele>191</ele>
        <time>2018-09-09T08:40:06Z</time>
      </trkpt>
      <trkpt lat="45.90237" lon="4.75057">
        <ele>191</ele>
        <time>2018-09-09T08:40:07Z</time>
      </trkpt>
      <trkpt lat="45.90233" lon="4.75058">
        <ele>191</ele>
        <time>2018-09-09T08:40:08Z</time>
      </trkpt>
      <trkpt lat="45.90229" lon="4.75059">
        <ele>191</ele>
        <time>2018-09-09T08:40:09Z</time>
      </trkpt>
      <trkpt lat="45.90223" lon="4.7506">
        <ele>191</ele>
        <time>2018-09-09T08:40:10Z</time>
      </trkpt>
      <trkpt lat="45.90219" lon="4.75061">
        <ele>191</ele>
        <time>2018-09-09T08:40:11Z</time>
      </trkpt>
      <trkpt lat="45.90215" lon="4.75063">
        <ele>191</ele>
        <time>2018-09-09T08:40:12Z</time>
      </trkpt>
      <trkpt lat="45.90206" lon="4.75065">
        <ele>191</ele>
        <time>2018-09-09T08:40:14Z</time>
      </trkpt>
      <trkpt lat="45.90202" lon="4.75065">
        <ele>191</ele>
        <time>2018-09-09T08:40:15Z</time>
      </trkpt>
      <trkpt lat="45.90195" lon="4.75068">
        <ele>191</ele>
        <time>2018-09-09T08:40:17Z</time>
      </trkpt>
      <trkpt lat="45.90192" lon="4.75071">
        <ele>191</ele>
        <time>2018-09-09T08:40:18Z</time>
      </trkpt>
      <trkpt lat="45.90185" lon="4.75076">
        <ele>191</ele>
        <time>2018-09-09T08:40:20Z</time>
      </trkpt>
      <trkpt lat="45.90181" lon="4.75079">
        <ele>191</ele>
        <time>2018-09-09T08:40:21Z</time>
      </trkpt>
      <trkpt lat="45.90176" lon="4.75081">
        <ele>191</ele>
        <time>2018-09-09T08:40:22Z</time>
      </trkpt>
      <trkpt lat="45.90172" lon="4.75084">
        <ele>191</ele>
        <time>2018-09-09T08:40:23Z</time>
      </trkpt>
      <trkpt lat="45.90164" lon="4.75087">
        <ele>191</ele>
        <time>2018-09-09T08:40:25Z</time>
      </trkpt>
      <trkpt lat="45.9016" lon="4.75087">
        <ele>192</ele>
        <time>2018-09-09T08:40:26Z</time>
      </trkpt>
      <trkpt lat="45.90156" lon="4.75086">
        <ele>192</ele>
        <time>2018-09-09T08:40:27Z</time>
      </trkpt>
      <trkpt lat="45.90151" lon="4.75082">
        <ele>191</ele>
        <time>2018-09-09T08:40:28Z</time>
      </trkpt>
      <trkpt lat="45.90147" lon="4.75078">
        <ele>192</ele>
        <time>2018-09-09T08:40:29Z</time>
      </trkpt>
      <trkpt lat="45.90141" lon="4.7507">
        <ele>192</ele>
        <time>2018-09-09T08:40:30Z</time>
      </trkpt>
      <trkpt lat="45.90137" lon="4.75066">
        <ele>192</ele>
        <time>2018-09-09T08:40:31Z</time>
      </trkpt>
      <trkpt lat="45.90132" lon="4.75063">
        <ele>192</ele>
        <time>2018-09-09T08:40:32Z</time>
      </trkpt>
      <trkpt lat="45.90127" lon="4.7506">
        <ele>192</ele>
        <time>2018-09-09T08:40:33Z</time>
      </trkpt>
      <trkpt lat="45.90122" lon="4.7506">
        <ele>192</ele>
        <time>2018-09-09T08:40:34Z</time>
      </trkpt>
      <trkpt lat="45.90117" lon="4.75061">
        <ele>192</ele>
        <time>2018-09-09T08:40:35Z</time>
      </trkpt>
      <trkpt lat="45.9011" lon="4.7506">
        <ele>192</ele>
        <time>2018-09-09T08:40:36Z</time>
      </trkpt>
      <trkpt lat="45.90103" lon="4.75054">
        <ele>192</ele>
        <time>2018-09-09T08:40:38Z</time>
      </trkpt>
      <trkpt lat="45.90099" lon="4.75051">
        <ele>192</ele>
        <time>2018-09-09T08:40:39Z</time>
      </trkpt>
      <trkpt lat="45.90093" lon="4.75049">
        <ele>192</ele>
        <time>2018-09-09T08:40:40Z</time>
      </trkpt>
      <trkpt lat="45.9009" lon="4.75047">
        <ele>192</ele>
        <time>2018-09-09T08:40:41Z</time>
      </trkpt>
      <trkpt lat="45.90085" lon="4.75046">
        <ele>192</ele>
        <time>2018-09-09T08:40:42Z</time>
      </trkpt>
      <trkpt lat="45.90079" lon="4.75043">
        <ele>193</ele>
        <time>2018-09-09T08:40:43Z</time>
      </trkpt>
      <trkpt lat="45.90074" lon="4.7504">
        <ele>193</ele>
        <time>2018-09-09T08:40:44Z</time>
      </trkpt>
      <trkpt lat="45.90069" lon="4.75038">
        <ele>193</ele>
        <time>2018-09-09T08:40:45Z</time>
      </trkpt>
      <trkpt lat="45.90064" lon="4.75036">
        <ele>193</ele>
        <time>2018-09-09T08:40:46Z</time>
      </trkpt>
      <trkpt lat="45.90059" lon="4.75035">
        <ele>193</ele>
        <time>2018-09-09T08:40:47Z</time>
      </trkpt>
      <trkpt lat="45.90051" lon="4.75029">
        <ele>193</ele>
        <time>2018-09-09T08:40:49Z</time>
      </trkpt>
      <trkpt lat="45.90044" lon="4.75024">
        <ele>193</ele>
        <time>2018-09-09T08:40:50Z</time>
      </trkpt>
      <trkpt lat="45.90036" lon="4.7502">
        <ele>193</ele>
        <time>2018-09-09T08:40:52Z</time>
      </trkpt>
      <trkpt lat="45.90032" lon="4.75018">
        <ele>193</ele>
        <time>2018-09-09T08:40:53Z</time>
      </trkpt>
      <trkpt lat="45.90024" lon="4.75016">
        <ele>193</ele>
        <time>2018-09-09T08:40:55Z</time>
      </trkpt>
      <trkpt lat="45.9002" lon="4.75015">
        <ele>193</ele>
        <time>2018-09-09T08:40:56Z</time>
      </trkpt>
      <trkpt lat="45.90012" lon="4.75011">
        <ele>193</ele>
        <time>2018-09-09T08:40:58Z</time>
      </trkpt>
      <trkpt lat="45.90008" lon="4.75009">
        <ele>192</ele>
        <time>2018-09-09T08:40:59Z</time>
      </trkpt>
      <trkpt lat="45.90003" lon="4.75008">
        <ele>192</ele>
        <time>2018-09-09T08:41:00Z</time>
      </trkpt>
      <trkpt lat="45.89998" lon="4.75005">
        <ele>192</ele>
        <time>2018-09-09T08:41:01Z</time>
      </trkpt>
      <trkpt lat="45.89991" lon="4.75004">
        <ele>193</ele>
        <time>2018-09-09T08:41:02Z</time>
      </trkpt>
      <trkpt lat="45.89987" lon="4.75002">
        <ele>193</ele>
        <time>2018-09-09T08:41:03Z</time>
      </trkpt>
      <trkpt lat="45.89982" lon="4.75">
        <ele>193</ele>
        <time>2018-09-09T08:41:04Z</time>
      </trkpt>
      <trkpt lat="45.89978" lon="4.75">
        <ele>193</ele>
        <time>2018-09-09T08:41:05Z</time>
      </trkpt>
      <trkpt lat="45.89973" lon="4.74999">
        <ele>193</ele>
        <time>2018-09-09T08:41:06Z</time>
      </trkpt>
      <trkpt lat="45.89968" lon="4.74997">
        <ele>193</ele>
        <time>2018-09-09T08:41:07Z</time>
      </trkpt>
      <trkpt lat="45.89964" lon="4.74994">
        <ele>193</ele>
        <time>2018-09-09T08:41:08Z</time>
      </trkpt>
      <trkpt lat="45.89959" lon="4.74993">
        <ele>193</ele>
        <time>2018-09-09T08:41:09Z</time>
      </trkpt>
      <trkpt lat="45.89953" lon="4.74996">
        <ele>193</ele>
        <time>2018-09-09T08:41:10Z</time>
      </trkpt>
      <trkpt lat="45.89947" lon="4.74995">
        <ele>193</ele>
        <time>2018-09-09T08:41:11Z</time>
      </trkpt>
      <trkpt lat="45.89942" lon="4.74994">
        <ele>193</ele>
        <time>2018-09-09T08:41:12Z</time>
      </trkpt>
      <trkpt lat="45.89938" lon="4.74993">
        <ele>193</ele>
        <time>2018-09-09T08:41:13Z</time>
      </trkpt>
      <trkpt lat="45.89933" lon="4.74992">
        <ele>193</ele>
        <time>2018-09-09T08:41:14Z</time>
      </trkpt>
      <trkpt lat="45.89928" lon="4.74988">
        <ele>193</ele>
        <time>2018-09-09T08:41:15Z</time>
      </trkpt>
      <trkpt lat="45.89919" lon="4.74985">
        <ele>193</ele>
        <time>2018-09-09T08:41:17Z</time>
      </trkpt>
      <trkpt lat="45.89914" lon="4.74984">
        <ele>194</ele>
        <time>2018-09-09T08:41:18Z</time>
      </trkpt>
      <trkpt lat="45.89909" lon="4.74983">
        <ele>194</ele>
        <time>2018-09-09T08:41:19Z</time>
      </trkpt>
      <trkpt lat="45.89905" lon="4.74982">
        <ele>194</ele>
        <time>2018-09-09T08:41:20Z</time>
      </trkpt>
      <trkpt lat="45.89901" lon="4.74981">
        <ele>194</ele>
        <time>2018-09-09T08:41:21Z</time>
      </trkpt>
      <trkpt lat="45.89894" lon="4.7498">
        <ele>194</ele>
        <time>2018-09-09T08:41:22Z</time>
      </trkpt>
      <trkpt lat="45.89889" lon="4.74978">
        <ele>194</ele>
        <time>2018-09-09T08:41:23Z</time>
      </trkpt>
      <trkpt lat="45.89884" lon="4.74977">
        <ele>194</ele>
        <time>2018-09-09T08:41:24Z</time>
      </trkpt>
      <trkpt lat="45.89878" lon="4.74977">
        <ele>194</ele>
        <time>2018-09-09T08:41:25Z</time>
      </trkpt>
      <trkpt lat="45.89874" lon="4.74975">
        <ele>194</ele>
        <time>2018-09-09T08:41:26Z</time>
      </trkpt>
      <trkpt lat="45.89869" lon="4.74974">
        <ele>194</ele>
        <time>2018-09-09T08:41:27Z</time>
      </trkpt>
      <trkpt lat="45.89864" lon="4.74972">
        <ele>194</ele>
        <time>2018-09-09T08:41:28Z</time>
      </trkpt>
      <trkpt lat="45.89859" lon="4.74973">
        <ele>194</ele>
        <time>2018-09-09T08:41:29Z</time>
      </trkpt>
      <trkpt lat="45.89854" lon="4.74974">
        <ele>194</ele>
        <time>2018-09-09T08:41:30Z</time>
      </trkpt>
      <trkpt lat="45.89849" lon="4.74973">
        <ele>194</ele>
        <time>2018-09-09T08:41:31Z</time>
      </trkpt>
      <trkpt lat="45.89844" lon="4.74973">
        <ele>194</ele>
        <time>2018-09-09T08:41:32Z</time>
      </trkpt>
      <trkpt lat="45.89839" lon="4.74971">
        <ele>194</ele>
        <time>2018-09-09T08:41:33Z</time>
      </trkpt>
      <trkpt lat="45.89833" lon="4.74969">
        <ele>194</ele>
        <time>2018-09-09T08:41:34Z</time>
      </trkpt>
      <trkpt lat="45.89826" lon="4.74966">
        <ele>194</ele>
        <time>2018-09-09T08:41:35Z</time>
      </trkpt>
      <trkpt lat="45.89821" lon="4.74964">
        <ele>195</ele>
        <time>2018-09-09T08:41:36Z</time>
      </trkpt>
      <trkpt lat="45.89816" lon="4.74963">
        <ele>195</ele>
        <time>2018-09-09T08:41:37Z</time>
      </trkpt>
      <trkpt lat="45.89811" lon="4.7496">
        <ele>195</ele>
        <time>2018-09-09T08:41:38Z</time>
      </trkpt>
      <trkpt lat="45.89806" lon="4.74958">
        <ele>195</ele>
        <time>2018-09-09T08:41:39Z</time>
      </trkpt>
      <trkpt lat="45.898" lon="4.74957">
        <ele>195</ele>
        <time>2018-09-09T08:41:40Z</time>
      </trkpt>
      <trkpt lat="45.89794" lon="4.74954">
        <ele>195</ele>
        <time>2018-09-09T08:41:41Z</time>
      </trkpt>
      <trkpt lat="45.89789" lon="4.74952">
        <ele>195</ele>
        <time>2018-09-09T08:41:42Z</time>
      </trkpt>
      <trkpt lat="45.89784" lon="4.7495">
        <ele>195</ele>
        <time>2018-09-09T08:41:43Z</time>
      </trkpt>
      <trkpt lat="45.8978" lon="4.74947">
        <ele>195</ele>
        <time>2018-09-09T08:41:44Z</time>
      </trkpt>
      <trkpt lat="45.89774" lon="4.74944">
        <ele>195</ele>
        <time>2018-09-09T08:41:45Z</time>
      </trkpt>
      <trkpt lat="45.89769" lon="4.74942">
        <ele>195</ele>
        <time>2018-09-09T08:41:46Z</time>
      </trkpt>
      <trkpt lat="45.89765" lon="4.74937">
        <ele>195</ele>
        <time>2018-09-09T08:41:47Z</time>
      </trkpt>
      <trkpt lat="45.89759" lon="4.74934">
        <ele>195</ele>
        <time>2018-09-09T08:41:48Z</time>
      </trkpt>
      <trkpt lat="45.89754" lon="4.74931">
        <ele>195</ele>
        <time>2018-09-09T08:41:49Z</time>
      </trkpt>
      <trkpt lat="45.89747" lon="4.7493">
        <ele>195</ele>
        <time>2018-09-09T08:41:50Z</time>
      </trkpt>
      <trkpt lat="45.89741" lon="4.74928">
        <ele>196</ele>
        <time>2018-09-09T08:41:51Z</time>
      </trkpt>
      <trkpt lat="45.89736" lon="4.74924">
        <ele>196</ele>
        <time>2018-09-09T08:41:52Z</time>
      </trkpt>
      <trkpt lat="45.8973" lon="4.74925">
        <ele>196</ele>
        <time>2018-09-09T08:41:53Z</time>
      </trkpt>
      <trkpt lat="45.89724" lon="4.74922">
        <ele>196</ele>
        <time>2018-09-09T08:41:54Z</time>
      </trkpt>
      <trkpt lat="45.89718" lon="4.7492">
        <ele>196</ele>
        <time>2018-09-09T08:41:55Z</time>
      </trkpt>
      <trkpt lat="45.89712" lon="4.74919">
        <ele>196</ele>
        <time>2018-09-09T08:41:56Z</time>
      </trkpt>
      <trkpt lat="45.89707" lon="4.74918">
        <ele>196</ele>
        <time>2018-09-09T08:41:57Z</time>
      </trkpt>
      <trkpt lat="45.89701" lon="4.74917">
        <ele>195</ele>
        <time>2018-09-09T08:41:58Z</time>
      </trkpt>
      <trkpt lat="45.89695" lon="4.74917">
        <ele>196</ele>
        <time>2018-09-09T08:41:59Z</time>
      </trkpt>
      <trkpt lat="45.89691" lon="4.74916">
        <ele>195</ele>
        <time>2018-09-09T08:42:00Z</time>
      </trkpt>
      <trkpt lat="45.89684" lon="4.74915">
        <ele>195</ele>
        <time>2018-09-09T08:42:01Z</time>
      </trkpt>
      <trkpt lat="45.89679" lon="4.74915">
        <ele>196</ele>
        <time>2018-09-09T08:42:02Z</time>
      </trkpt>
      <trkpt lat="45.89672" lon="4.74914">
        <ele>196</ele>
        <time>2018-09-09T08:42:03Z</time>
      </trkpt>
      <trkpt lat="45.89667" lon="4.74913">
        <ele>196</ele>
        <time>2018-09-09T08:42:04Z</time>
      </trkpt>
      <trkpt lat="45.89662" lon="4.74917">
        <ele>196</ele>
        <time>2018-09-09T08:42:05Z</time>
      </trkpt>
      <trkpt lat="45.89656" lon="4.74918">
        <ele>197</ele>
        <time>2018-09-09T08:42:06Z</time>
      </trkpt>
      <trkpt lat="45.89651" lon="4.74918">
        <ele>197</ele>
        <time>2018-09-09T08:42:07Z</time>
      </trkpt>
      <trkpt lat="45.89645" lon="4.74917">
        <ele>197</ele>
        <time>2018-09-09T08:42:08Z</time>
      </trkpt>
      <trkpt lat="45.8964" lon="4.74917">
        <ele>197</ele>
        <time>2018-09-09T08:42:09Z</time>
      </trkpt>
      <trkpt lat="45.89634" lon="4.74916">
        <ele>196</ele>
        <time>2018-09-09T08:42:10Z</time>
      </trkpt>
      <trkpt lat="45.89625" lon="4.74915">
        <ele>197</ele>
        <time>2018-09-09T08:42:12Z</time>
      </trkpt>
      <trkpt lat="45.8962" lon="4.74912">
        <ele>197</ele>
        <time>2018-09-09T08:42:13Z</time>
      </trkpt>
      <trkpt lat="45.89614" lon="4.74912">
        <ele>197</ele>
        <time>2018-09-09T08:42:14Z</time>
      </trkpt>
      <trkpt lat="45.89608" lon="4.74911">
        <ele>197</ele>
        <time>2018-09-09T08:42:15Z</time>
      </trkpt>
      <trkpt lat="45.89601" lon="4.74909">
        <ele>197</ele>
        <time>2018-09-09T08:42:16Z</time>
      </trkpt>
      <trkpt lat="45.89595" lon="4.74908">
        <ele>197</ele>
        <time>2018-09-09T08:42:17Z</time>
      </trkpt>
      <trkpt lat="45.89589" lon="4.74906">
        <ele>197</ele>
        <time>2018-09-09T08:42:18Z</time>
      </trkpt>
      <trkpt lat="45.89585" lon="4.74907">
        <ele>197</ele>
        <time>2018-09-09T08:42:19Z</time>
      </trkpt>
      <trkpt lat="45.89579" lon="4.74907">
        <ele>198</ele>
        <time>2018-09-09T08:42:20Z</time>
      </trkpt>
      <trkpt lat="45.89575" lon="4.74907">
        <ele>198</ele>
        <time>2018-09-09T08:42:21Z</time>
      </trkpt>
      <trkpt lat="45.89568" lon="4.74906">
        <ele>198</ele>
        <time>2018-09-09T08:42:22Z</time>
      </trkpt>
      <trkpt lat="45.89564" lon="4.74904">
        <ele>198</ele>
        <time>2018-09-09T08:42:23Z</time>
      </trkpt>
      <trkpt lat="45.89555" lon="4.74902">
        <ele>198</ele>
        <time>2018-09-09T08:42:25Z</time>
      </trkpt>
      <trkpt lat="45.89549" lon="4.749">
        <ele>198</ele>
        <time>2018-09-09T08:42:26Z</time>
      </trkpt>
      <trkpt lat="45.89544" lon="4.749">
        <ele>198</ele>
        <time>2018-09-09T08:42:27Z</time>
      </trkpt>
      <trkpt lat="45.89539" lon="4.74899">
        <ele>198</ele>
        <time>2018-09-09T08:42:28Z</time>
      </trkpt>
      <trkpt lat="45.89534" lon="4.74899">
        <ele>198</ele>
        <time>2018-09-09T08:42:29Z</time>
      </trkpt>
      <trkpt lat="45.8953" lon="4.74896">
        <ele>198</ele>
        <time>2018-09-09T08:42:30Z</time>
      </trkpt>
      <trkpt lat="45.89525" lon="4.74895">
        <ele>198</ele>
        <time>2018-09-09T08:42:31Z</time>
      </trkpt>
      <trkpt lat="45.8952" lon="4.74894">
        <ele>198</ele>
        <time>2018-09-09T08:42:32Z</time>
      </trkpt>
      <trkpt lat="45.89515" lon="4.74893">
        <ele>198</ele>
        <time>2018-09-09T08:42:33Z</time>
      </trkpt>
      <trkpt lat="45.8951" lon="4.74893">
        <ele>198</ele>
        <time>2018-09-09T08:42:34Z</time>
      </trkpt>
      <trkpt lat="45.89503" lon="4.74889">
        <ele>198</ele>
        <time>2018-09-09T08:42:35Z</time>
      </trkpt>
      <trkpt lat="45.89498" lon="4.74887">
        <ele>199</ele>
        <time>2018-09-09T08:42:36Z</time>
      </trkpt>
      <trkpt lat="45.89491" lon="4.74887">
        <ele>198</ele>
        <time>2018-09-09T08:42:38Z</time>
      </trkpt>
      <trkpt lat="45.89487" lon="4.74886">
        <ele>198</ele>
        <time>2018-09-09T08:42:39Z</time>
      </trkpt>
      <trkpt lat="45.89478" lon="4.74884">
        <ele>198</ele>
        <time>2018-09-09T08:42:41Z</time>
      </trkpt>
      <trkpt lat="45.89472" lon="4.74885">
        <ele>199</ele>
        <time>2018-09-09T08:42:42Z</time>
      </trkpt>
      <trkpt lat="45.89467" lon="4.74884">
        <ele>199</ele>
        <time>2018-09-09T08:42:43Z</time>
      </trkpt>
      <trkpt lat="45.89461" lon="4.74882">
        <ele>199</ele>
        <time>2018-09-09T08:42:44Z</time>
      </trkpt>
      <trkpt lat="45.89455" lon="4.7488">
        <ele>199</ele>
        <time>2018-09-09T08:42:45Z</time>
      </trkpt>
      <trkpt lat="45.8945" lon="4.74879">
        <ele>199</ele>
        <time>2018-09-09T08:42:46Z</time>
      </trkpt>
      <trkpt lat="45.89445" lon="4.74878">
        <ele>199</ele>
        <time>2018-09-09T08:42:47Z</time>
      </trkpt>
      <trkpt lat="45.89439" lon="4.74876">
        <ele>199</ele>
        <time>2018-09-09T08:42:48Z</time>
      </trkpt>
      <trkpt lat="45.89435" lon="4.74876">
        <ele>199</ele>
        <time>2018-09-09T08:42:49Z</time>
      </trkpt>
      <trkpt lat="45.8943" lon="4.74876">
        <ele>199</ele>
        <time>2018-09-09T08:42:50Z</time>
      </trkpt>
      <trkpt lat="45.89425" lon="4.74877">
        <ele>199</ele>
        <time>2018-09-09T08:42:51Z</time>
      </trkpt>
      <trkpt lat="45.8942" lon="4.74876">
        <ele>199</ele>
        <time>2018-09-09T08:42:52Z</time>
      </trkpt>
      <trkpt lat="45.89416" lon="4.74875">
        <ele>199</ele>
        <time>2018-09-09T08:42:53Z</time>
      </trkpt>
      <trkpt lat="45.8941" lon="4.74873">
        <ele>199</ele>
        <time>2018-09-09T08:42:54Z</time>
      </trkpt>
      <trkpt lat="45.89403" lon="4.74874">
        <ele>199</ele>
        <time>2018-09-09T08:42:56Z</time>
      </trkpt>
      <trkpt lat="45.89398" lon="4.74874">
        <ele>199</ele>
        <time>2018-09-09T08:42:57Z</time>
      </trkpt>
      <trkpt lat="45.8939" lon="4.74874">
        <ele>199</ele>
        <time>2018-09-09T08:42:59Z</time>
      </trkpt>
      <trkpt lat="45.89387" lon="4.74871">
        <ele>199</ele>
        <time>2018-09-09T08:43:00Z</time>
      </trkpt>
      <trkpt lat="45.8938" lon="4.74871">
        <ele>199</ele>
        <time>2018-09-09T08:43:01Z</time>
      </trkpt>
      <trkpt lat="45.89375" lon="4.74871">
        <ele>199</ele>
        <time>2018-09-09T08:43:02Z</time>
      </trkpt>
      <trkpt lat="45.8937" lon="4.74871">
        <ele>199</ele>
        <time>2018-09-09T08:43:03Z</time>
      </trkpt>
      <trkpt lat="45.89363" lon="4.74868">
        <ele>199</ele>
        <time>2018-09-09T08:43:04Z</time>
      </trkpt>
      <trkpt lat="45.89357" lon="4.74868">
        <ele>199</ele>
        <time>2018-09-09T08:43:05Z</time>
      </trkpt>
      <trkpt lat="45.89352" lon="4.74869">
        <ele>199</ele>
        <time>2018-09-09T08:43:06Z</time>
      </trkpt>
      <trkpt lat="45.89346" lon="4.74867">
        <ele>199</ele>
        <time>2018-09-09T08:43:07Z</time>
      </trkpt>
      <trkpt lat="45.89341" lon="4.74869">
        <ele>199</ele>
        <time>2018-09-09T08:43:08Z</time>
      </trkpt>
      <trkpt lat="45.89337" lon="4.74869">
        <ele>199</ele>
        <time>2018-09-09T08:43:09Z</time>
      </trkpt>
      <trkpt lat="45.89331" lon="4.74868">
        <ele>198</ele>
        <time>2018-09-09T08:43:10Z</time>
      </trkpt>
      <trkpt lat="45.89325" lon="4.74867">
        <ele>198</ele>
        <time>2018-09-09T08:43:11Z</time>
      </trkpt>
      <trkpt lat="45.8932" lon="4.74865">
        <ele>198</ele>
        <time>2018-09-09T08:43:12Z</time>
      </trkpt>
      <trkpt lat="45.89312" lon="4.7486">
        <ele>198</ele>
        <time>2018-09-09T08:43:13Z</time>
      </trkpt>
      <trkpt lat="45.89305" lon="4.7486">
        <ele>198</ele>
        <time>2018-09-09T08:43:14Z</time>
      </trkpt>
      <trkpt lat="45.89299" lon="4.7486">
        <ele>198</ele>
        <time>2018-09-09T08:43:15Z</time>
      </trkpt>
      <trkpt lat="45.89292" lon="4.7486">
        <ele>198</ele>
        <time>2018-09-09T08:43:16Z</time>
      </trkpt>
      <trkpt lat="45.89287" lon="4.74858">
        <ele>198</ele>
        <time>2018-09-09T08:43:17Z</time>
      </trkpt>
      <trkpt lat="45.89279" lon="4.74858">
        <ele>198</ele>
        <time>2018-09-09T08:43:18Z</time>
      </trkpt>
      <trkpt lat="45.89273" lon="4.74859">
        <ele>198</ele>
        <time>2018-09-09T08:43:19Z</time>
      </trkpt>
      <trkpt lat="45.89266" lon="4.74861">
        <ele>198</ele>
        <time>2018-09-09T08:43:20Z</time>
      </trkpt>
      <trkpt lat="45.89259" lon="4.74859">
        <ele>198</ele>
        <time>2018-09-09T08:43:21Z</time>
      </trkpt>
      <trkpt lat="45.89254" lon="4.74861">
        <ele>198</ele>
        <time>2018-09-09T08:43:22Z</time>
      </trkpt>
      <trkpt lat="45.89249" lon="4.74856">
        <ele>198</ele>
        <time>2018-09-09T08:43:23Z</time>
      </trkpt>
      <trkpt lat="45.89241" lon="4.74851">
        <ele>198</ele>
        <time>2018-09-09T08:43:24Z</time>
      </trkpt>
      <trkpt lat="45.89234" lon="4.7485">
        <ele>198</ele>
        <time>2018-09-09T08:43:25Z</time>
      </trkpt>
      <trkpt lat="45.89228" lon="4.74852">
        <ele>198</ele>
        <time>2018-09-09T08:43:26Z</time>
      </trkpt>
      <trkpt lat="45.89222" lon="4.74852">
        <ele>198</ele>
        <time>2018-09-09T08:43:27Z</time>
      </trkpt>
      <trkpt lat="45.89217" lon="4.74852">
        <ele>198</ele>
        <time>2018-09-09T08:43:28Z</time>
      </trkpt>
      <trkpt lat="45.89211" lon="4.7485">
        <ele>198</ele>
        <time>2018-09-09T08:43:29Z</time>
      </trkpt>
      <trkpt lat="45.89205" lon="4.7485">
        <ele>198</ele>
        <time>2018-09-09T08:43:30Z</time>
      </trkpt>
      <trkpt lat="45.89201" lon="4.74852">
        <ele>198</ele>
        <time>2018-09-09T08:43:31Z</time>
      </trkpt>
      <trkpt lat="45.89195" lon="4.74851">
        <ele>198</ele>
        <time>2018-09-09T08:43:32Z</time>
      </trkpt>
      <trkpt lat="45.89189" lon="4.74852">
        <ele>198</ele>
        <time>2018-09-09T08:43:33Z</time>
      </trkpt>
      <trkpt lat="45.89184" lon="4.74854">
        <ele>198</ele>
        <time>2018-09-09T08:43:34Z</time>
      </trkpt>
      <trkpt lat="45.89178" lon="4.74853">
        <ele>198</ele>
        <time>2018-09-09T08:43:35Z</time>
      </trkpt>
      <trkpt lat="45.89173" lon="4.74852">
        <ele>198</ele>
        <time>2018-09-09T08:43:36Z</time>
      </trkpt>
      <trkpt lat="45.89169" lon="4.74853">
        <ele>198</ele>
        <time>2018-09-09T08:43:37Z</time>
      </trkpt>
      <trkpt lat="45.89163" lon="4.74852">
        <ele>198</ele>
        <time>2018-09-09T08:43:38Z</time>
      </trkpt>
      <trkpt lat="45.89159" lon="4.74854">
        <ele>198</ele>
        <time>2018-09-09T08:43:39Z</time>
      </trkpt>
      <trkpt lat="45.89154" lon="4.74853">
        <ele>198</ele>
        <time>2018-09-09T08:43:40Z</time>
      </trkpt>
      <trkpt lat="45.89145" lon="4.74852">
        <ele>199</ele>
        <time>2018-09-09T08:43:42Z</time>
      </trkpt>
      <trkpt lat="45.8914" lon="4.74852">
        <ele>199</ele>
        <time>2018-09-09T08:43:43Z</time>
      </trkpt>
      <trkpt lat="45.89132" lon="4.74855">
        <ele>199</ele>
        <time>2018-09-09T08:43:45Z</time>
      </trkpt>
      <trkpt lat="45.89127" lon="4.74855">
        <ele>199</ele>
        <time>2018-09-09T08:43:46Z</time>
      </trkpt>
      <trkpt lat="45.89118" lon="4.74856">
        <ele>199</ele>
        <time>2018-09-09T08:43:48Z</time>
      </trkpt>
      <trkpt lat="45.89114" lon="4.74856">
        <ele>199</ele>
        <time>2018-09-09T08:43:49Z</time>
      </trkpt>
      <trkpt lat="45.8911" lon="4.74858">
        <ele>199</ele>
        <time>2018-09-09T08:43:50Z</time>
      </trkpt>
      <trkpt lat="45.89105" lon="4.74858">
        <ele>199</ele>
        <time>2018-09-09T08:43:51Z</time>
      </trkpt>
      <trkpt lat="45.891" lon="4.7486">
        <ele>199</ele>
        <time>2018-09-09T08:43:52Z</time>
      </trkpt>
      <trkpt lat="45.89096" lon="4.74861">
        <ele>199</ele>
        <time>2018-09-09T08:43:53Z</time>
      </trkpt>
      <trkpt lat="45.8909" lon="4.74863">
        <ele>199</ele>
        <time>2018-09-09T08:43:55Z</time>
      </trkpt>
      <trkpt lat="45.89084" lon="4.74864">
        <ele>199</ele>
        <time>2018-09-09T08:43:56Z</time>
      </trkpt>
      <trkpt lat="45.89077" lon="4.74865">
        <ele>199</ele>
        <time>2018-09-09T08:43:58Z</time>
      </trkpt>
      <trkpt lat="45.89071" lon="4.74867">
        <ele>199</ele>
        <time>2018-09-09T08:43:59Z</time>
      </trkpt>
      <trkpt lat="45.89064" lon="4.7487">
        <ele>199</ele>
        <time>2018-09-09T08:44:01Z</time>
      </trkpt>
      <trkpt lat="45.89061" lon="4.74871">
        <ele>199</ele>
        <time>2018-09-09T08:44:02Z</time>
      </trkpt>
      <trkpt lat="45.89053" lon="4.74873">
        <ele>199</ele>
        <time>2018-09-09T08:44:04Z</time>
      </trkpt>
      <trkpt lat="45.89049" lon="4.74875">
        <ele>199</ele>
        <time>2018-09-09T08:44:05Z</time>
      </trkpt>
      <trkpt lat="45.89041" lon="4.74881">
        <ele>199</ele>
        <time>2018-09-09T08:44:07Z</time>
      </trkpt>
      <trkpt lat="45.89038" lon="4.74887">
        <ele>199</ele>
        <time>2018-09-09T08:44:08Z</time>
      </trkpt>
      <trkpt lat="45.89034" lon="4.74889">
        <ele>199</ele>
        <time>2018-09-09T08:44:09Z</time>
      </trkpt>
      <trkpt lat="45.8903" lon="4.74892">
        <ele>199</ele>
        <time>2018-09-09T08:44:10Z</time>
      </trkpt>
      <trkpt lat="45.89025" lon="4.74896">
        <ele>199</ele>
        <time>2018-09-09T08:44:11Z</time>
      </trkpt>
      <trkpt lat="45.89018" lon="4.74901">
        <ele>199</ele>
        <time>2018-09-09T08:44:12Z</time>
      </trkpt>
      <trkpt lat="45.89013" lon="4.74907">
        <ele>199</ele>
        <time>2018-09-09T08:44:13Z</time>
      </trkpt>
      <trkpt lat="45.89009" lon="4.74912">
        <ele>199</ele>
        <time>2018-09-09T08:44:14Z</time>
      </trkpt>
      <trkpt lat="45.89002" lon="4.74914">
        <ele>199</ele>
        <time>2018-09-09T08:44:16Z</time>
      </trkpt>
      <trkpt lat="45.88998" lon="4.74916">
        <ele>199</ele>
        <time>2018-09-09T08:44:17Z</time>
      </trkpt>
      <trkpt lat="45.88993" lon="4.7492">
        <ele>199</ele>
        <time>2018-09-09T08:44:18Z</time>
      </trkpt>
      <trkpt lat="45.88988" lon="4.7492">
        <ele>199</ele>
        <time>2018-09-09T08:44:19Z</time>
      </trkpt>
      <trkpt lat="45.88982" lon="4.74922">
        <ele>199</ele>
        <time>2018-09-09T08:44:20Z</time>
      </trkpt>
      <trkpt lat="45.88978" lon="4.74924">
        <ele>199</ele>
        <time>2018-09-09T08:44:21Z</time>
      </trkpt>
      <trkpt lat="45.88974" lon="4.7493">
        <ele>200</ele>
        <time>2018-09-09T08:44:22Z</time>
      </trkpt>
      <trkpt lat="45.88968" lon="4.74931">
        <ele>200</ele>
        <time>2018-09-09T08:44:23Z</time>
      </trkpt>
      <trkpt lat="45.88965" lon="4.74933">
        <ele>200</ele>
        <time>2018-09-09T08:44:24Z</time>
      </trkpt>
      <trkpt lat="45.8896" lon="4.74935">
        <ele>200</ele>
        <time>2018-09-09T08:44:25Z</time>
      </trkpt>
      <trkpt lat="45.88955" lon="4.74938">
        <ele>200</ele>
        <time>2018-09-09T08:44:26Z</time>
      </trkpt>
      <trkpt lat="45.88949" lon="4.74935">
        <ele>200</ele>
        <time>2018-09-09T08:44:27Z</time>
      </trkpt>
      <trkpt lat="45.88945" lon="4.7494">
        <ele>200</ele>
        <time>2018-09-09T08:44:28Z</time>
      </trkpt>
      <trkpt lat="45.8894" lon="4.74939">
        <ele>200</ele>
        <time>2018-09-09T08:44:29Z</time>
      </trkpt>
      <trkpt lat="45.88934" lon="4.74944">
        <ele>200</ele>
        <time>2018-09-09T08:44:30Z</time>
      </trkpt>
      <trkpt lat="45.8893" lon="4.74947">
        <ele>200</ele>
        <time>2018-09-09T08:44:31Z</time>
      </trkpt>
      <trkpt lat="45.88926" lon="4.7495">
        <ele>200</ele>
        <time>2018-09-09T08:44:32Z</time>
      </trkpt>
      <trkpt lat="45.88921" lon="4.7495">
        <ele>200</ele>
        <time>2018-09-09T08:44:33Z</time>
      </trkpt>
      <trkpt lat="45.88916" lon="4.74952">
        <ele>201</ele>
        <time>2018-09-09T08:44:34Z</time>
      </trkpt>
      <trkpt lat="45.88911" lon="4.74955">
        <ele>201</ele>
        <time>2018-09-09T08:44:35Z</time>
      </trkpt>
      <trkpt lat="45.88907" lon="4.74958">
        <ele>201</ele>
        <time>2018-09-09T08:44:36Z</time>
      </trkpt>
      <trkpt lat="45.88902" lon="4.74959">
        <ele>201</ele>
        <time>2018-09-09T08:44:37Z</time>
      </trkpt>
      <trkpt lat="45.88896" lon="4.74959">
        <ele>201</ele>
        <time>2018-09-09T08:44:38Z</time>
      </trkpt>
      <trkpt lat="45.8889" lon="4.74959">
        <ele>201</ele>
        <time>2018-09-09T08:44:39Z</time>
      </trkpt>
      <trkpt lat="45.88885" lon="4.74961">
        <ele>201</ele>
        <time>2018-09-09T08:44:40Z</time>
      </trkpt>
      <trkpt lat="45.88878" lon="4.7496">
        <ele>201</ele>
        <time>2018-09-09T08:44:41Z</time>
      </trkpt>
      <trkpt lat="45.88873" lon="4.74959">
        <ele>201</ele>
        <time>2018-09-09T08:44:42Z</time>
      </trkpt>
      <trkpt lat="45.88868" lon="4.7496">
        <ele>201</ele>
        <time>2018-09-09T08:44:43Z</time>
      </trkpt>
      <trkpt lat="45.88863" lon="4.74958">
        <ele>201</ele>
        <time>2018-09-09T08:44:44Z</time>
      </trkpt>
      <trkpt lat="45.88858" lon="4.74957">
        <ele>201</ele>
        <time>2018-09-09T08:44:45Z</time>
      </trkpt>
      <trkpt lat="45.8885" lon="4.74957">
        <ele>201</ele>
        <time>2018-09-09T08:44:47Z</time>
      </trkpt>
      <trkpt lat="45.88848" lon="4.74956">
        <ele>201</ele>
        <time>2018-09-09T08:44:48Z</time>
      </trkpt>
      <trkpt lat="45.88842" lon="4.74953">
        <ele>201</ele>
        <time>2018-09-09T08:44:49Z</time>
      </trkpt>
      <trkpt lat="45.88838" lon="4.74951">
        <ele>201</ele>
        <time>2018-09-09T08:44:50Z</time>
      </trkpt>
      <trkpt lat="45.88831" lon="4.74946">
        <ele>201</ele>
        <time>2018-09-09T08:44:52Z</time>
      </trkpt>
      <trkpt lat="45.88825" lon="4.74946">
        <ele>201</ele>
        <time>2018-09-09T08:44:53Z</time>
      </trkpt>
      <trkpt lat="45.8882" lon="4.74946">
        <ele>201</ele>
        <time>2018-09-09T08:44:54Z</time>
      </trkpt>
      <trkpt lat="45.88815" lon="4.74945">
        <ele>201</ele>
        <time>2018-09-09T08:44:55Z</time>
      </trkpt>
      <trkpt lat="45.88807" lon="4.74947">
        <ele>201</ele>
        <time>2018-09-09T08:44:57Z</time>
      </trkpt>
      <trkpt lat="45.88801" lon="4.74947">
        <ele>201</ele>
        <time>2018-09-09T08:44:58Z</time>
      </trkpt>
      <trkpt lat="45.88796" lon="4.74945">
        <ele>201</ele>
        <time>2018-09-09T08:44:59Z</time>
      </trkpt>
      <trkpt lat="45.88792" lon="4.74944">
        <ele>201</ele>
        <time>2018-09-09T08:45:00Z</time>
      </trkpt>
      <trkpt lat="45.88787" lon="4.74942">
        <ele>201</ele>
        <time>2018-09-09T08:45:01Z</time>
      </trkpt>
      <trkpt lat="45.88781" lon="4.74941">
        <ele>201</ele>
        <time>2018-09-09T08:45:02Z</time>
      </trkpt>
      <trkpt lat="45.88773" lon="4.7494">
        <ele>201</ele>
        <time>2018-09-09T08:45:04Z</time>
      </trkpt>
      <trkpt lat="45.88768" lon="4.74938">
        <ele>201</ele>
        <time>2018-09-09T08:45:05Z</time>
      </trkpt>
      <trkpt lat="45.88759" lon="4.74937">
        <ele>201</ele>
        <time>2018-09-09T08:45:07Z</time>
      </trkpt>
      <trkpt lat="45.88755" lon="4.74936">
        <ele>201</ele>
        <time>2018-09-09T08:45:08Z</time>
      </trkpt>
      <trkpt lat="45.88748" lon="4.74935">
        <ele>201</ele>
        <time>2018-09-09T08:45:09Z</time>
      </trkpt>
      <trkpt lat="45.88744" lon="4.74934">
        <ele>201</ele>
        <time>2018-09-09T08:45:10Z</time>
      </trkpt>
      <trkpt lat="45.88739" lon="4.74935">
        <ele>201</ele>
        <time>2018-09-09T08:45:11Z</time>
      </trkpt>
      <trkpt lat="45.88734" lon="4.74933">
        <ele>201</ele>
        <time>2018-09-09T08:45:12Z</time>
      </trkpt>
      <trkpt lat="45.88727" lon="4.74932">
        <ele>201</ele>
        <time>2018-09-09T08:45:13Z</time>
      </trkpt>
      <trkpt lat="45.88722" lon="4.7493">
        <ele>201</ele>
        <time>2018-09-09T08:45:14Z</time>
      </trkpt>
      <trkpt lat="45.88715" lon="4.74927">
        <ele>201</ele>
        <time>2018-09-09T08:45:16Z</time>
      </trkpt>
      <trkpt lat="45.88709" lon="4.74926">
        <ele>201</ele>
        <time>2018-09-09T08:45:17Z</time>
      </trkpt>
      <trkpt lat="45.88701" lon="4.74926">
        <ele>202</ele>
        <time>2018-09-09T08:45:19Z</time>
      </trkpt>
      <trkpt lat="45.88696" lon="4.74925">
        <ele>202</ele>
        <time>2018-09-09T08:45:20Z</time>
      </trkpt>
      <trkpt lat="45.88688" lon="4.74921">
        <ele>202</ele>
        <time>2018-09-09T08:45:22Z</time>
      </trkpt>
      <trkpt lat="45.88683" lon="4.7492">
        <ele>202</ele>
        <time>2018-09-09T08:45:23Z</time>
      </trkpt>
      <trkpt lat="45.88675" lon="4.74916">
        <ele>202</ele>
        <time>2018-09-09T08:45:26Z</time>
      </trkpt>
      <trkpt lat="45.88673" lon="4.74915">
        <ele>202</ele>
        <time>2018-09-09T08:45:27Z</time>
      </trkpt>
      <trkpt lat="45.88671" lon="4.74914">
        <ele>202</ele>
        <time>2018-09-09T08:45:28Z</time>
      </trkpt>
      <trkpt lat="45.88663" lon="4.74914">
        <ele>202</ele>
        <time>2018-09-09T08:45:29Z</time>
      </trkpt>
      <trkpt lat="45.88655" lon="4.74917">
        <ele>202</ele>
        <time>2018-09-09T08:45:31Z</time>
      </trkpt>
      <trkpt lat="45.88652" lon="4.74922">
        <ele>202</ele>
        <time>2018-09-09T08:45:32Z</time>
      </trkpt>
      <trkpt lat="45.88645" lon="4.74929">
        <ele>202</ele>
        <time>2018-09-09T08:45:34Z</time>
      </trkpt>
      <trkpt lat="45.88642" lon="4.74932">
        <ele>201</ele>
        <time>2018-09-09T08:45:35Z</time>
      </trkpt>
      <trkpt lat="45.8864" lon="4.74941">
        <ele>201</ele>
        <time>2018-09-09T08:45:36Z</time>
      </trkpt>
      <trkpt lat="45.88639" lon="4.74948">
        <ele>201</ele>
        <time>2018-09-09T08:45:37Z</time>
      </trkpt>
      <trkpt lat="45.88636" lon="4.74954">
        <ele>201</ele>
        <time>2018-09-09T08:45:38Z</time>
      </trkpt>
      <trkpt lat="45.88634" lon="4.74961">
        <ele>201</ele>
        <time>2018-09-09T08:45:39Z</time>
      </trkpt>
      <trkpt lat="45.88632" lon="4.74972">
        <ele>201</ele>
        <time>2018-09-09T08:45:41Z</time>
      </trkpt>
      <trkpt lat="45.8863" lon="4.74977">
        <ele>201</ele>
        <time>2018-09-09T08:45:42Z</time>
      </trkpt>
      <trkpt lat="45.88628" lon="4.74989">
        <ele>201</ele>
        <time>2018-09-09T08:45:44Z</time>
      </trkpt>
      <trkpt lat="45.88626" lon="4.74995">
        <ele>201</ele>
        <time>2018-09-09T08:45:45Z</time>
      </trkpt>
      <trkpt lat="45.88623" lon="4.75006">
        <ele>201</ele>
        <time>2018-09-09T08:45:47Z</time>
      </trkpt>
      <trkpt lat="45.88622" lon="4.75013">
        <ele>201</ele>
        <time>2018-09-09T08:45:48Z</time>
      </trkpt>
      <trkpt lat="45.88619" lon="4.75018">
        <ele>201</ele>
        <time>2018-09-09T08:45:49Z</time>
      </trkpt>
      <trkpt lat="45.88618" lon="4.75026">
        <ele>202</ele>
        <time>2018-09-09T08:45:50Z</time>
      </trkpt>
      <trkpt lat="45.88617" lon="4.75034">
        <ele>202</ele>
        <time>2018-09-09T08:45:51Z</time>
      </trkpt>
      <trkpt lat="45.88616" lon="4.75041">
        <ele>202</ele>
        <time>2018-09-09T08:45:52Z</time>
      </trkpt>
      <trkpt lat="45.88614" lon="4.75047">
        <ele>202</ele>
        <time>2018-09-09T08:45:53Z</time>
      </trkpt>
      <trkpt lat="45.88613" lon="4.75054">
        <ele>202</ele>
        <time>2018-09-09T08:45:54Z</time>
      </trkpt>
      <trkpt lat="45.88613" lon="4.75061">
        <ele>202</ele>
        <time>2018-09-09T08:45:55Z</time>
      </trkpt>
      <trkpt lat="45.88611" lon="4.75068">
        <ele>202</ele>
        <time>2018-09-09T08:45:56Z</time>
      </trkpt>
      <trkpt lat="45.88608" lon="4.75073">
        <ele>202</ele>
        <time>2018-09-09T08:45:57Z</time>
      </trkpt>
      <trkpt lat="45.88605" lon="4.75079">
        <ele>202</ele>
        <time>2018-09-09T08:45:58Z</time>
      </trkpt>
      <trkpt lat="45.88601" lon="4.75085">
        <ele>202</ele>
        <time>2018-09-09T08:45:59Z</time>
      </trkpt>
      <trkpt lat="45.88597" lon="4.7509">
        <ele>202</ele>
        <time>2018-09-09T08:46:00Z</time>
      </trkpt>
      <trkpt lat="45.88592" lon="4.75093">
        <ele>202</ele>
        <time>2018-09-09T08:46:01Z</time>
      </trkpt>
      <trkpt lat="45.88588" lon="4.75097">
        <ele>202</ele>
        <time>2018-09-09T08:46:02Z</time>
      </trkpt>
      <trkpt lat="45.88583" lon="4.75101">
        <ele>201</ele>
        <time>2018-09-09T08:46:03Z</time>
      </trkpt>
      <trkpt lat="45.88579" lon="4.75105">
        <ele>201</ele>
        <time>2018-09-09T08:46:04Z</time>
      </trkpt>
      <trkpt lat="45.88575" lon="4.75108">
        <ele>201</ele>
        <time>2018-09-09T08:46:05Z</time>
      </trkpt>
      <trkpt lat="45.88572" lon="4.75114">
        <ele>201</ele>
        <time>2018-09-09T08:46:06Z</time>
      </trkpt>
      <trkpt lat="45.88569" lon="4.75119">
        <ele>201</ele>
        <time>2018-09-09T08:46:07Z</time>
      </trkpt>
      <trkpt lat="45.88566" lon="4.75124">
        <ele>201</ele>
        <time>2018-09-09T08:46:08Z</time>
      </trkpt>
      <trkpt lat="45.88563" lon="4.75129">
        <ele>201</ele>
        <time>2018-09-09T08:46:09Z</time>
      </trkpt>
      <trkpt lat="45.88558" lon="4.75132">
        <ele>201</ele>
        <time>2018-09-09T08:46:10Z</time>
      </trkpt>
      <trkpt lat="45.88554" lon="4.75136">
        <ele>201</ele>
        <time>2018-09-09T08:46:11Z</time>
      </trkpt>
      <trkpt lat="45.88552" lon="4.75142">
        <ele>201</ele>
        <time>2018-09-09T08:46:12Z</time>
      </trkpt>
      <trkpt lat="45.88549" lon="4.75148">
        <ele>201</ele>
        <time>2018-09-09T08:46:13Z</time>
      </trkpt>
      <trkpt lat="45.88546" lon="4.75155">
        <ele>201</ele>
        <time>2018-09-09T08:46:14Z</time>
      </trkpt>
      <trkpt lat="45.88544" lon="4.75163">
        <ele>201</ele>
        <time>2018-09-09T08:46:15Z</time>
      </trkpt>
      <trkpt lat="45.88542" lon="4.75172">
        <ele>201</ele>
        <time>2018-09-09T08:46:16Z</time>
      </trkpt>
      <trkpt lat="45.8854" lon="4.7518">
        <ele>201</ele>
        <time>2018-09-09T08:46:17Z</time>
      </trkpt>
      <trkpt lat="45.88538" lon="4.75186">
        <ele>201</ele>
        <time>2018-09-09T08:46:18Z</time>
      </trkpt>
      <trkpt lat="45.88535" lon="4.75193">
        <ele>201</ele>
        <time>2018-09-09T08:46:19Z</time>
      </trkpt>
      <trkpt lat="45.88532" lon="4.75198">
        <ele>201</ele>
        <time>2018-09-09T08:46:20Z</time>
      </trkpt>
      <trkpt lat="45.88529" lon="4.75204">
        <ele>201</ele>
        <time>2018-09-09T08:46:21Z</time>
      </trkpt>
      <trkpt lat="45.88528" lon="4.75211">
        <ele>201</ele>
        <time>2018-09-09T08:46:22Z</time>
      </trkpt>
      <trkpt lat="45.88524" lon="4.75217">
        <ele>201</ele>
        <time>2018-09-09T08:46:23Z</time>
      </trkpt>
      <trkpt lat="45.8852" lon="4.75221">
        <ele>201</ele>
        <time>2018-09-09T08:46:24Z</time>
      </trkpt>
      <trkpt lat="45.88516" lon="4.75229">
        <ele>201</ele>
        <time>2018-09-09T08:46:25Z</time>
      </trkpt>
      <trkpt lat="45.88512" lon="4.75234">
        <ele>201</ele>
        <time>2018-09-09T08:46:26Z</time>
      </trkpt>
      <trkpt lat="45.88507" lon="4.75238">
        <ele>201</ele>
        <time>2018-09-09T08:46:27Z</time>
      </trkpt>
      <trkpt lat="45.88503" lon="4.75242">
        <ele>201</ele>
        <time>2018-09-09T08:46:28Z</time>
      </trkpt>
      <trkpt lat="45.88498" lon="4.75246">
        <ele>201</ele>
        <time>2018-09-09T08:46:29Z</time>
      </trkpt>
      <trkpt lat="45.88493" lon="4.7525">
        <ele>201</ele>
        <time>2018-09-09T08:46:30Z</time>
      </trkpt>
      <trkpt lat="45.88488" lon="4.75252">
        <ele>201</ele>
        <time>2018-09-09T08:46:31Z</time>
      </trkpt>
      <trkpt lat="45.88484" lon="4.75254">
        <ele>201</ele>
        <time>2018-09-09T08:46:32Z</time>
      </trkpt>
      <trkpt lat="45.8848" lon="4.75257">
        <ele>201</ele>
        <time>2018-09-09T08:46:33Z</time>
      </trkpt>
      <trkpt lat="45.88476" lon="4.75261">
        <ele>201</ele>
        <time>2018-09-09T08:46:34Z</time>
      </trkpt>
      <trkpt lat="45.88472" lon="4.75265">
        <ele>201</ele>
        <time>2018-09-09T08:46:35Z</time>
      </trkpt>
      <trkpt lat="45.88467" lon="4.75269">
        <ele>201</ele>
        <time>2018-09-09T08:46:36Z</time>
      </trkpt>
      <trkpt lat="45.88462" lon="4.75272">
        <ele>201</ele>
        <time>2018-09-09T08:46:37Z</time>
      </trkpt>
      <trkpt lat="45.88456" lon="4.75275">
        <ele>201</ele>
        <time>2018-09-09T08:46:38Z</time>
      </trkpt>
      <trkpt lat="45.88452" lon="4.75279">
        <ele>201</ele>
        <time>2018-09-09T08:46:39Z</time>
      </trkpt>
      <trkpt lat="45.88447" lon="4.75282">
        <ele>201</ele>
        <time>2018-09-09T08:46:40Z</time>
      </trkpt>
      <trkpt lat="45.88442" lon="4.75283">
        <ele>201</ele>
        <time>2018-09-09T08:46:41Z</time>
      </trkpt>
      <trkpt lat="45.88438" lon="4.75286">
        <ele>201</ele>
        <time>2018-09-09T08:46:42Z</time>
      </trkpt>
      <trkpt lat="45.88433" lon="4.75289">
        <ele>201</ele>
        <time>2018-09-09T08:46:43Z</time>
      </trkpt>
      <trkpt lat="45.88429" lon="4.75294">
        <ele>201</ele>
        <time>2018-09-09T08:46:44Z</time>
      </trkpt>
      <trkpt lat="45.88425" lon="4.75298">
        <ele>201</ele>
        <time>2018-09-09T08:46:45Z</time>
      </trkpt>
      <trkpt lat="45.88422" lon="4.75304">
        <ele>201</ele>
        <time>2018-09-09T08:46:46Z</time>
      </trkpt>
      <trkpt lat="45.88418" lon="4.75311">
        <ele>200</ele>
        <time>2018-09-09T08:46:47Z</time>
      </trkpt>
      <trkpt lat="45.88414" lon="4.75317">
        <ele>200</ele>
        <time>2018-09-09T08:46:48Z</time>
      </trkpt>
      <trkpt lat="45.8841" lon="4.75323">
        <ele>200</ele>
        <time>2018-09-09T08:46:49Z</time>
      </trkpt>
      <trkpt lat="45.88407" lon="4.7533">
        <ele>200</ele>
        <time>2018-09-09T08:46:50Z</time>
      </trkpt>
      <trkpt lat="45.88404" lon="4.75337">
        <ele>200</ele>
        <time>2018-09-09T08:46:51Z</time>
      </trkpt>
      <trkpt lat="45.88401" lon="4.75343">
        <ele>201</ele>
        <time>2018-09-09T08:46:52Z</time>
      </trkpt>
      <trkpt lat="45.88398" lon="4.75352">
        <ele>201</ele>
        <time>2018-09-09T08:46:53Z</time>
      </trkpt>
      <trkpt lat="45.88393" lon="4.75356">
        <ele>201</ele>
        <time>2018-09-09T08:46:54Z</time>
      </trkpt>
      <trkpt lat="45.88388" lon="4.7536">
        <ele>201</ele>
        <time>2018-09-09T08:46:55Z</time>
      </trkpt>
      <trkpt lat="45.88385" lon="4.75367">
        <ele>201</ele>
        <time>2018-09-09T08:46:56Z</time>
      </trkpt>
      <trkpt lat="45.88383" lon="4.75377">
        <ele>201</ele>
        <time>2018-09-09T08:46:57Z</time>
      </trkpt>
      <trkpt lat="45.8838" lon="4.75383">
        <ele>201</ele>
        <time>2018-09-09T08:46:58Z</time>
      </trkpt>
      <trkpt lat="45.88378" lon="4.75391">
        <ele>201</ele>
        <time>2018-09-09T08:46:59Z</time>
      </trkpt>
      <trkpt lat="45.88376" lon="4.75396">
        <ele>202</ele>
        <time>2018-09-09T08:47:00Z</time>
      </trkpt>
      <trkpt lat="45.88375" lon="4.75404">
        <ele>202</ele>
        <time>2018-09-09T08:47:01Z</time>
      </trkpt>
      <trkpt lat="45.88373" lon="4.75412">
        <ele>202</ele>
        <time>2018-09-09T08:47:02Z</time>
      </trkpt>
      <trkpt lat="45.88369" lon="4.75423">
        <ele>203</ele>
        <time>2018-09-09T08:47:04Z</time>
      </trkpt>
      <trkpt lat="45.88369" lon="4.75433">
        <ele>203</ele>
        <time>2018-09-09T08:47:05Z</time>
      </trkpt>
      <trkpt lat="45.88368" lon="4.75438">
        <ele>203</ele>
        <time>2018-09-09T08:47:06Z</time>
      </trkpt>
      <trkpt lat="45.88368" lon="4.75446">
        <ele>203</ele>
        <time>2018-09-09T08:47:07Z</time>
      </trkpt>
      <trkpt lat="45.88368" lon="4.75454">
        <ele>203</ele>
        <time>2018-09-09T08:47:08Z</time>
      </trkpt>
      <trkpt lat="45.88367" lon="4.75462">
        <ele>203</ele>
        <time>2018-09-09T08:47:09Z</time>
      </trkpt>
      <trkpt lat="45.88365" lon="4.75469">
        <ele>203</ele>
        <time>2018-09-09T08:47:10Z</time>
      </trkpt>
      <trkpt lat="45.88365" lon="4.75477">
        <ele>203</ele>
        <time>2018-09-09T08:47:11Z</time>
      </trkpt>
      <trkpt lat="45.88364" lon="4.75485">
        <ele>203</ele>
        <time>2018-09-09T08:47:12Z</time>
      </trkpt>
      <trkpt lat="45.88364" lon="4.75492">
        <ele>203</ele>
        <time>2018-09-09T08:47:13Z</time>
      </trkpt>
      <trkpt lat="45.88363" lon="4.75501">
        <ele>204</ele>
        <time>2018-09-09T08:47:14Z</time>
      </trkpt>
      <trkpt lat="45.88363" lon="4.75509">
        <ele>204</ele>
        <time>2018-09-09T08:47:15Z</time>
      </trkpt>
      <trkpt lat="45.88363" lon="4.75516">
        <ele>204</ele>
        <time>2018-09-09T08:47:16Z</time>
      </trkpt>
      <trkpt lat="45.88362" lon="4.75524">
        <ele>204</ele>
        <time>2018-09-09T08:47:17Z</time>
      </trkpt>
      <trkpt lat="45.88362" lon="4.75532">
        <ele>204</ele>
        <time>2018-09-09T08:47:18Z</time>
      </trkpt>
      <trkpt lat="45.88362" lon="4.7554">
        <ele>204</ele>
        <time>2018-09-09T08:47:19Z</time>
      </trkpt>
      <trkpt lat="45.88362" lon="4.75552">
        <ele>204</ele>
        <time>2018-09-09T08:47:21Z</time>
      </trkpt>
      <trkpt lat="45.88362" lon="4.7556">
        <ele>204</ele>
        <time>2018-09-09T08:47:22Z</time>
      </trkpt>
      <trkpt lat="45.88363" lon="4.75567">
        <ele>204</ele>
        <time>2018-09-09T08:47:23Z</time>
      </trkpt>
      <trkpt lat="45.88363" lon="4.75575">
        <ele>204</ele>
        <time>2018-09-09T08:47:24Z</time>
      </trkpt>
      <trkpt lat="45.88362" lon="4.75583">
        <ele>204</ele>
        <time>2018-09-09T08:47:25Z</time>
      </trkpt>
      <trkpt lat="45.88362" lon="4.7559">
        <ele>204</ele>
        <time>2018-09-09T08:47:26Z</time>
      </trkpt>
      <trkpt lat="45.88362" lon="4.75598">
        <ele>204</ele>
        <time>2018-09-09T08:47:27Z</time>
      </trkpt>
      <trkpt lat="45.88363" lon="4.75606">
        <ele>204</ele>
        <time>2018-09-09T08:47:28Z</time>
      </trkpt>
      <trkpt lat="45.88362" lon="4.75613">
        <ele>204</ele>
        <time>2018-09-09T08:47:29Z</time>
      </trkpt>
      <trkpt lat="45.88362" lon="4.75621">
        <ele>204</ele>
        <time>2018-09-09T08:47:30Z</time>
      </trkpt>
      <trkpt lat="45.88361" lon="4.75627">
        <ele>204</ele>
        <time>2018-09-09T08:47:31Z</time>
      </trkpt>
      <trkpt lat="45.88362" lon="4.75636">
        <ele>204</ele>
        <time>2018-09-09T08:47:32Z</time>
      </trkpt>
      <trkpt lat="45.88363" lon="4.75643">
        <ele>204</ele>
        <time>2018-09-09T08:47:33Z</time>
      </trkpt>
      <trkpt lat="45.88362" lon="4.7565">
        <ele>204</ele>
        <time>2018-09-09T08:47:34Z</time>
      </trkpt>
      <trkpt lat="45.88363" lon="4.75658">
        <ele>204</ele>
        <time>2018-09-09T08:47:35Z</time>
      </trkpt>
      <trkpt lat="45.88363" lon="4.75666">
        <ele>204</ele>
        <time>2018-09-09T08:47:36Z</time>
      </trkpt>
      <trkpt lat="45.88362" lon="4.75672">
        <ele>204</ele>
        <time>2018-09-09T08:47:37Z</time>
      </trkpt>
      <trkpt lat="45.88361" lon="4.75678">
        <ele>204</ele>
        <time>2018-09-09T08:47:38Z</time>
      </trkpt>
      <trkpt lat="45.8836" lon="4.75684">
        <ele>204</ele>
        <time>2018-09-09T08:47:39Z</time>
      </trkpt>
      <trkpt lat="45.88358" lon="4.75691">
        <ele>204</ele>
        <time>2018-09-09T08:47:40Z</time>
      </trkpt>
      <trkpt lat="45.88356" lon="4.75697">
        <ele>204</ele>
        <time>2018-09-09T08:47:41Z</time>
      </trkpt>
      <trkpt lat="45.88355" lon="4.75705">
        <ele>204</ele>
        <time>2018-09-09T08:47:42Z</time>
      </trkpt>
      <trkpt lat="45.88354" lon="4.75712">
        <ele>204</ele>
        <time>2018-09-09T08:47:43Z</time>
      </trkpt>
      <trkpt lat="45.88353" lon="4.75718">
        <ele>204</ele>
        <time>2018-09-09T08:47:44Z</time>
      </trkpt>
      <trkpt lat="45.88349" lon="4.75729">
        <ele>203</ele>
        <time>2018-09-09T08:47:46Z</time>
      </trkpt>
      <trkpt lat="45.88348" lon="4.75734">
        <ele>203</ele>
        <time>2018-09-09T08:47:47Z</time>
      </trkpt>
      <trkpt lat="45.88347" lon="4.75741">
        <ele>203</ele>
        <time>2018-09-09T08:47:48Z</time>
      </trkpt>
      <trkpt lat="45.88346" lon="4.75748">
        <ele>203</ele>
        <time>2018-09-09T08:47:49Z</time>
      </trkpt>
      <trkpt lat="45.88344" lon="4.75755">
        <ele>203</ele>
        <time>2018-09-09T08:47:50Z</time>
      </trkpt>
      <trkpt lat="45.88342" lon="4.75762">
        <ele>203</ele>
        <time>2018-09-09T08:47:51Z</time>
      </trkpt>
      <trkpt lat="45.88341" lon="4.75768">
        <ele>203</ele>
        <time>2018-09-09T08:47:52Z</time>
      </trkpt>
      <trkpt lat="45.88341" lon="4.75776">
        <ele>203</ele>
        <time>2018-09-09T08:47:53Z</time>
      </trkpt>
      <trkpt lat="45.88339" lon="4.75788">
        <ele>203</ele>
        <time>2018-09-09T08:47:55Z</time>
      </trkpt>
      <trkpt lat="45.88339" lon="4.75796">
        <ele>203</ele>
        <time>2018-09-09T08:47:56Z</time>
      </trkpt>
      <trkpt lat="45.88339" lon="4.75803">
        <ele>203</ele>
        <time>2018-09-09T08:47:57Z</time>
      </trkpt>
      <trkpt lat="45.88339" lon="4.7581">
        <ele>203</ele>
        <time>2018-09-09T08:47:58Z</time>
      </trkpt>
      <trkpt lat="45.88338" lon="4.75817">
        <ele>203</ele>
        <time>2018-09-09T08:47:59Z</time>
      </trkpt>
      <trkpt lat="45.88339" lon="4.75826">
        <ele>203</ele>
        <time>2018-09-09T08:48:00Z</time>
      </trkpt>
      <trkpt lat="45.88339" lon="4.75833">
        <ele>203</ele>
        <time>2018-09-09T08:48:01Z</time>
      </trkpt>
      <trkpt lat="45.88338" lon="4.7584">
        <ele>203</ele>
        <time>2018-09-09T08:48:02Z</time>
      </trkpt>
      <trkpt lat="45.88337" lon="4.75851">
        <ele>204</ele>
        <time>2018-09-09T08:48:04Z</time>
      </trkpt>
      <trkpt lat="45.88337" lon="4.75859">
        <ele>204</ele>
        <time>2018-09-09T08:48:05Z</time>
      </trkpt>
      <trkpt lat="45.88336" lon="4.75866">
        <ele>204</ele>
        <time>2018-09-09T08:48:06Z</time>
      </trkpt>
      <trkpt lat="45.88335" lon="4.75874">
        <ele>204</ele>
        <time>2018-09-09T08:48:07Z</time>
      </trkpt>
      <trkpt lat="45.88336" lon="4.75883">
        <ele>204</ele>
        <time>2018-09-09T08:48:08Z</time>
      </trkpt>
      <trkpt lat="45.88333" lon="4.75888">
        <ele>205</ele>
        <time>2018-09-09T08:48:09Z</time>
      </trkpt>
      <trkpt lat="45.88332" lon="4.75895">
        <ele>205</ele>
        <time>2018-09-09T08:48:10Z</time>
      </trkpt>
      <trkpt lat="45.8833" lon="4.75901">
        <ele>205</ele>
        <time>2018-09-09T08:48:11Z</time>
      </trkpt>
      <trkpt lat="45.88329" lon="4.75909">
        <ele>205</ele>
        <time>2018-09-09T08:48:12Z</time>
      </trkpt>
      <trkpt lat="45.88327" lon="4.75916">
        <ele>205</ele>
        <time>2018-09-09T08:48:13Z</time>
      </trkpt>
      <trkpt lat="45.88325" lon="4.75923">
        <ele>205</ele>
        <time>2018-09-09T08:48:14Z</time>
      </trkpt>
      <trkpt lat="45.88324" lon="4.75928">
        <ele>205</ele>
        <time>2018-09-09T08:48:15Z</time>
      </trkpt>
      <trkpt lat="45.88323" lon="4.75934">
        <ele>205</ele>
        <time>2018-09-09T08:48:16Z</time>
      </trkpt>
      <trkpt lat="45.88322" lon="4.75941">
        <ele>206</ele>
        <time>2018-09-09T08:48:17Z</time>
      </trkpt>
      <trkpt lat="45.88319" lon="4.75947">
        <ele>206</ele>
        <time>2018-09-09T08:48:18Z</time>
      </trkpt>
      <trkpt lat="45.88317" lon="4.75953">
        <ele>206</ele>
        <time>2018-09-09T08:48:19Z</time>
      </trkpt>
      <trkpt lat="45.88314" lon="4.75964">
        <ele>206</ele>
        <time>2018-09-09T08:48:21Z</time>
      </trkpt>
      <trkpt lat="45.88312" lon="4.7597">
        <ele>206</ele>
        <time>2018-09-09T08:48:22Z</time>
      </trkpt>
      <trkpt lat="45.88308" lon="4.75982">
        <ele>206</ele>
        <time>2018-09-09T08:48:24Z</time>
      </trkpt>
      <trkpt lat="45.88306" lon="4.75986">
        <ele>206</ele>
        <time>2018-09-09T08:48:25Z</time>
      </trkpt>
      <trkpt lat="45.88304" lon="4.75993">
        <ele>206</ele>
        <time>2018-09-09T08:48:26Z</time>
      </trkpt>
      <trkpt lat="45.88302" lon="4.75999">
        <ele>206</ele>
        <time>2018-09-09T08:48:27Z</time>
      </trkpt>
      <trkpt lat="45.88299" lon="4.76009">
        <ele>207</ele>
        <time>2018-09-09T08:48:29Z</time>
      </trkpt>
      <trkpt lat="45.88298" lon="4.76015">
        <ele>207</ele>
        <time>2018-09-09T08:48:30Z</time>
      </trkpt>
      <trkpt lat="45.88297" lon="4.76027">
        <ele>207</ele>
        <time>2018-09-09T08:48:32Z</time>
      </trkpt>
      <trkpt lat="45.88296" lon="4.76033">
        <ele>207</ele>
        <time>2018-09-09T08:48:33Z</time>
      </trkpt>
      <trkpt lat="45.88295" lon="4.76044">
        <ele>207</ele>
        <time>2018-09-09T08:48:35Z</time>
      </trkpt>
      <trkpt lat="45.88295" lon="4.76049">
        <ele>208</ele>
        <time>2018-09-09T08:48:36Z</time>
      </trkpt>
      <trkpt lat="45.88293" lon="4.76061">
        <ele>208</ele>
        <time>2018-09-09T08:48:38Z</time>
      </trkpt>
      <trkpt lat="45.88292" lon="4.76067">
        <ele>208</ele>
        <time>2018-09-09T08:48:39Z</time>
      </trkpt>
      <trkpt lat="45.88291" lon="4.76078">
        <ele>208</ele>
        <time>2018-09-09T08:48:41Z</time>
      </trkpt>
      <trkpt lat="45.8829" lon="4.76084">
        <ele>209</ele>
        <time>2018-09-09T08:48:42Z</time>
      </trkpt>
      <trkpt lat="45.8829" lon="4.76095">
        <ele>210</ele>
        <time>2018-09-09T08:48:44Z</time>
      </trkpt>
      <trkpt lat="45.88289" lon="4.76098">
        <ele>210</ele>
        <time>2018-09-09T08:48:45Z</time>
      </trkpt>
      <trkpt lat="45.88289" lon="4.76108">
        <ele>210</ele>
        <time>2018-09-09T08:48:48Z</time>
      </trkpt>
      <trkpt lat="45.88289" lon="4.76111">
        <ele>210</ele>
        <time>2018-09-09T08:48:49Z</time>
      </trkpt>
      <trkpt lat="45.88289" lon="4.76123">
        <ele>210</ele>
        <time>2018-09-09T08:48:52Z</time>
      </trkpt>
      <trkpt lat="45.88289" lon="4.76128">
        <ele>210</ele>
        <time>2018-09-09T08:48:53Z</time>
      </trkpt>
      <trkpt lat="45.88288" lon="4.76138">
        <ele>210</ele>
        <time>2018-09-09T08:48:55Z</time>
      </trkpt>
      <trkpt lat="45.88288" lon="4.76143">
        <ele>210</ele>
        <time>2018-09-09T08:48:56Z</time>
      </trkpt>
      <trkpt lat="45.88288" lon="4.7616">
        <ele>211</ele>
        <time>2018-09-09T08:48:57Z</time>
      </trkpt>
      <trkpt lat="45.88287" lon="4.76171">
        <ele>212</ele>
        <time>2018-09-09T08:48:59Z</time>
      </trkpt>
      <trkpt lat="45.88287" lon="4.76177">
        <ele>212</ele>
        <time>2018-09-09T08:49:00Z</time>
      </trkpt>
      <trkpt lat="45.88287" lon="4.76188">
        <ele>212</ele>
        <time>2018-09-09T08:49:02Z</time>
      </trkpt>
      <trkpt lat="45.88286" lon="4.76193">
        <ele>212</ele>
        <time>2018-09-09T08:49:03Z</time>
      </trkpt>
      <trkpt lat="45.88286" lon="4.76203">
        <ele>213</ele>
        <time>2018-09-09T08:49:05Z</time>
      </trkpt>
      <trkpt lat="45.88285" lon="4.76208">
        <ele>213</ele>
        <time>2018-09-09T08:49:06Z</time>
      </trkpt>
      <trkpt lat="45.88285" lon="4.76219">
        <ele>213</ele>
        <time>2018-09-09T08:49:08Z</time>
      </trkpt>
      <trkpt lat="45.88284" lon="4.76224">
        <ele>213</ele>
        <time>2018-09-09T08:49:09Z</time>
      </trkpt>
      <trkpt lat="45.88283" lon="4.76235">
        <ele>213</ele>
        <time>2018-09-09T08:49:11Z</time>
      </trkpt>
      <trkpt lat="45.88282" lon="4.76241">
        <ele>213</ele>
        <time>2018-09-09T08:49:12Z</time>
      </trkpt>
      <trkpt lat="45.88281" lon="4.76252">
        <ele>214</ele>
        <time>2018-09-09T08:49:14Z</time>
      </trkpt>
      <trkpt lat="45.88281" lon="4.76258">
        <ele>214</ele>
        <time>2018-09-09T08:49:15Z</time>
      </trkpt>
      <trkpt lat="45.88279" lon="4.7627">
        <ele>214</ele>
        <time>2018-09-09T08:49:17Z</time>
      </trkpt>
      <trkpt lat="45.88279" lon="4.76277">
        <ele>214</ele>
        <time>2018-09-09T08:49:18Z</time>
      </trkpt>
      <trkpt lat="45.88278" lon="4.76284">
        <ele>214</ele>
        <time>2018-09-09T08:49:19Z</time>
      </trkpt>
      <trkpt lat="45.88277" lon="4.76291">
        <ele>214</ele>
        <time>2018-09-09T08:49:20Z</time>
      </trkpt>
      <trkpt lat="45.88274" lon="4.76302">
        <ele>214</ele>
        <time>2018-09-09T08:49:22Z</time>
      </trkpt>
      <trkpt lat="45.88274" lon="4.76305">
        <ele>214</ele>
        <time>2018-09-09T08:49:23Z</time>
      </trkpt>
      <trkpt lat="45.88273" lon="4.76312">
        <ele>214</ele>
        <time>2018-09-09T08:49:24Z</time>
      </trkpt>
      <trkpt lat="45.88272" lon="4.76318">
        <ele>214</ele>
        <time>2018-09-09T08:49:25Z</time>
      </trkpt>
      <trkpt lat="45.88269" lon="4.76327">
        <ele>214</ele>
        <time>2018-09-09T08:49:27Z</time>
      </trkpt>
      <trkpt lat="45.88268" lon="4.76332">
        <ele>214</ele>
        <time>2018-09-09T08:49:28Z</time>
      </trkpt>
      <trkpt lat="45.88263" lon="4.76342">
        <ele>214</ele>
        <time>2018-09-09T08:49:30Z</time>
      </trkpt>
      <trkpt lat="45.88261" lon="4.76346">
        <ele>214</ele>
        <time>2018-09-09T08:49:31Z</time>
      </trkpt>
      <trkpt lat="45.88257" lon="4.76357">
        <ele>214</ele>
        <time>2018-09-09T08:49:33Z</time>
      </trkpt>
      <trkpt lat="45.88255" lon="4.76362">
        <ele>214</ele>
        <time>2018-09-09T08:49:34Z</time>
      </trkpt>
      <trkpt lat="45.88251" lon="4.7637">
        <ele>214</ele>
        <time>2018-09-09T08:49:36Z</time>
      </trkpt>
      <trkpt lat="45.88247" lon="4.76378">
        <ele>215</ele>
        <time>2018-09-09T08:49:37Z</time>
      </trkpt>
      <trkpt lat="45.88243" lon="4.76388">
        <ele>215</ele>
        <time>2018-09-09T08:49:39Z</time>
      </trkpt>
      <trkpt lat="45.88241" lon="4.76394">
        <ele>215</ele>
        <time>2018-09-09T08:49:40Z</time>
      </trkpt>
      <trkpt lat="45.88237" lon="4.76405">
        <ele>215</ele>
        <time>2018-09-09T08:49:42Z</time>
      </trkpt>
      <trkpt lat="45.88234" lon="4.76411">
        <ele>214</ele>
        <time>2018-09-09T08:49:43Z</time>
      </trkpt>
      <trkpt lat="45.8823" lon="4.76415">
        <ele>215</ele>
        <time>2018-09-09T08:49:44Z</time>
      </trkpt>
      <trkpt lat="45.88228" lon="4.76421">
        <ele>214</ele>
        <time>2018-09-09T08:49:45Z</time>
      </trkpt>
      <trkpt lat="45.88223" lon="4.76429">
        <ele>214</ele>
        <time>2018-09-09T08:49:47Z</time>
      </trkpt>
      <trkpt lat="45.88222" lon="4.76436">
        <ele>214</ele>
        <time>2018-09-09T08:49:48Z</time>
      </trkpt>
      <trkpt lat="45.88219" lon="4.76446">
        <ele>214</ele>
        <time>2018-09-09T08:49:50Z</time>
      </trkpt>
      <trkpt lat="45.88217" lon="4.76451">
        <ele>214</ele>
        <time>2018-09-09T08:49:51Z</time>
      </trkpt>
      <trkpt lat="45.88214" lon="4.76457">
        <ele>214</ele>
        <time>2018-09-09T08:49:52Z</time>
      </trkpt>
      <trkpt lat="45.88212" lon="4.76464">
        <ele>214</ele>
        <time>2018-09-09T08:49:53Z</time>
      </trkpt>
      <trkpt lat="45.8821" lon="4.7647">
        <ele>214</ele>
        <time>2018-09-09T08:49:54Z</time>
      </trkpt>
      <trkpt lat="45.88209" lon="4.76479">
        <ele>214</ele>
        <time>2018-09-09T08:49:55Z</time>
      </trkpt>
      <trkpt lat="45.88206" lon="4.76486">
        <ele>214</ele>
        <time>2018-09-09T08:49:56Z</time>
      </trkpt>
      <trkpt lat="45.88204" lon="4.76494">
        <ele>214</ele>
        <time>2018-09-09T08:49:57Z</time>
      </trkpt>
      <trkpt lat="45.88201" lon="4.76501">
        <ele>214</ele>
        <time>2018-09-09T08:49:58Z</time>
      </trkpt>
      <trkpt lat="45.88199" lon="4.76507">
        <ele>214</ele>
        <time>2018-09-09T08:49:59Z</time>
      </trkpt>
      <trkpt lat="45.88198" lon="4.76516">
        <ele>214</ele>
        <time>2018-09-09T08:50:00Z</time>
      </trkpt>
      <trkpt lat="45.88194" lon="4.76521">
        <ele>214</ele>
        <time>2018-09-09T08:50:01Z</time>
      </trkpt>
      <trkpt lat="45.88193" lon="4.76528">
        <ele>214</ele>
        <time>2018-09-09T08:50:02Z</time>
      </trkpt>
      <trkpt lat="45.88191" lon="4.76536">
        <ele>214</ele>
        <time>2018-09-09T08:50:03Z</time>
      </trkpt>
      <trkpt lat="45.88189" lon="4.76543">
        <ele>214</ele>
        <time>2018-09-09T08:50:04Z</time>
      </trkpt>
      <trkpt lat="45.88187" lon="4.7655">
        <ele>214</ele>
        <time>2018-09-09T08:50:05Z</time>
      </trkpt>
      <trkpt lat="45.88185" lon="4.76557">
        <ele>214</ele>
        <time>2018-09-09T08:50:06Z</time>
      </trkpt>
      <trkpt lat="45.88183" lon="4.76563">
        <ele>214</ele>
        <time>2018-09-09T08:50:07Z</time>
      </trkpt>
      <trkpt lat="45.8818" lon="4.76568">
        <ele>214</ele>
        <time>2018-09-09T08:50:08Z</time>
      </trkpt>
      <trkpt lat="45.88179" lon="4.76575">
        <ele>215</ele>
        <time>2018-09-09T08:50:09Z</time>
      </trkpt>
      <trkpt lat="45.88177" lon="4.76581">
        <ele>215</ele>
        <time>2018-09-09T08:50:10Z</time>
      </trkpt>
      <trkpt lat="45.88176" lon="4.7659">
        <ele>214</ele>
        <time>2018-09-09T08:50:11Z</time>
      </trkpt>
      <trkpt lat="45.88174" lon="4.76599">
        <ele>214</ele>
        <time>2018-09-09T08:50:12Z</time>
      </trkpt>
      <trkpt lat="45.88172" lon="4.76604">
        <ele>214</ele>
        <time>2018-09-09T08:50:13Z</time>
      </trkpt>
      <trkpt lat="45.8817" lon="4.76611">
        <ele>214</ele>
        <time>2018-09-09T08:50:14Z</time>
      </trkpt>
      <trkpt lat="45.88168" lon="4.76617">
        <ele>214</ele>
        <time>2018-09-09T08:50:15Z</time>
      </trkpt>
      <trkpt lat="45.88165" lon="4.76625">
        <ele>215</ele>
        <time>2018-09-09T08:50:16Z</time>
      </trkpt>
      <trkpt lat="45.88161" lon="4.7663">
        <ele>215</ele>
        <time>2018-09-09T08:50:17Z</time>
      </trkpt>
      <trkpt lat="45.88159" lon="4.76638">
        <ele>215</ele>
        <time>2018-09-09T08:50:18Z</time>
      </trkpt>
      <trkpt lat="45.88157" lon="4.76642">
        <ele>215</ele>
        <time>2018-09-09T08:50:19Z</time>
      </trkpt>
      <trkpt lat="45.88155" lon="4.76649">
        <ele>214</ele>
        <time>2018-09-09T08:50:20Z</time>
      </trkpt>
      <trkpt lat="45.88153" lon="4.76656">
        <ele>214</ele>
        <time>2018-09-09T08:50:21Z</time>
      </trkpt>
      <trkpt lat="45.8815" lon="4.76663">
        <ele>214</ele>
        <time>2018-09-09T08:50:22Z</time>
      </trkpt>
      <trkpt lat="45.88147" lon="4.76668">
        <ele>214</ele>
        <time>2018-09-09T08:50:23Z</time>
      </trkpt>
      <trkpt lat="45.88144" lon="4.76675">
        <ele>214</ele>
        <time>2018-09-09T08:50:24Z</time>
      </trkpt>
      <trkpt lat="45.88141" lon="4.7668">
        <ele>214</ele>
        <time>2018-09-09T08:50:25Z</time>
      </trkpt>
      <trkpt lat="45.88137" lon="4.76686">
        <ele>214</ele>
        <time>2018-09-09T08:50:26Z</time>
      </trkpt>
      <trkpt lat="45.88135" lon="4.76692">
        <ele>214</ele>
        <time>2018-09-09T08:50:27Z</time>
      </trkpt>
      <trkpt lat="45.88132" lon="4.76702">
        <ele>214</ele>
        <time>2018-09-09T08:50:28Z</time>
      </trkpt>
      <trkpt lat="45.88128" lon="4.76706">
        <ele>214</ele>
        <time>2018-09-09T08:50:29Z</time>
      </trkpt>
      <trkpt lat="45.88124" lon="4.76711">
        <ele>214</ele>
        <time>2018-09-09T08:50:30Z</time>
      </trkpt>
      <trkpt lat="45.88118" lon="4.76713">
        <ele>214</ele>
        <time>2018-09-09T08:50:31Z</time>
      </trkpt>
      <trkpt lat="45.88113" lon="4.7672">
        <ele>214</ele>
        <time>2018-09-09T08:50:32Z</time>
      </trkpt>
      <trkpt lat="45.8811" lon="4.76722">
        <ele>214</ele>
        <time>2018-09-09T08:50:33Z</time>
      </trkpt>
      <trkpt lat="45.88108" lon="4.76734">
        <ele>214</ele>
        <time>2018-09-09T08:50:35Z</time>
      </trkpt>
      <trkpt lat="45.88107" lon="4.76739">
        <ele>214</ele>
        <time>2018-09-09T08:50:36Z</time>
      </trkpt>
      <trkpt lat="45.88106" lon="4.76747">
        <ele>214</ele>
        <time>2018-09-09T08:50:37Z</time>
      </trkpt>
      <trkpt lat="45.88106" lon="4.76756">
        <ele>213</ele>
        <time>2018-09-09T08:50:38Z</time>
      </trkpt>
      <trkpt lat="45.88106" lon="4.76764">
        <ele>213</ele>
        <time>2018-09-09T08:50:39Z</time>
      </trkpt>
      <trkpt lat="45.88106" lon="4.76773">
        <ele>213</ele>
        <time>2018-09-09T08:50:40Z</time>
      </trkpt>
      <trkpt lat="45.88104" lon="4.76781">
        <ele>213</ele>
        <time>2018-09-09T08:50:41Z</time>
      </trkpt>
      <trkpt lat="45.88104" lon="4.7679">
        <ele>213</ele>
        <time>2018-09-09T08:50:42Z</time>
      </trkpt>
      <trkpt lat="45.88103" lon="4.76798">
        <ele>213</ele>
        <time>2018-09-09T08:50:43Z</time>
      </trkpt>
      <trkpt lat="45.88102" lon="4.76804">
        <ele>213</ele>
        <time>2018-09-09T08:50:44Z</time>
      </trkpt>
      <trkpt lat="45.881" lon="4.76811">
        <ele>213</ele>
        <time>2018-09-09T08:50:45Z</time>
      </trkpt>
      <trkpt lat="45.881" lon="4.7682">
        <ele>213</ele>
        <time>2018-09-09T08:50:46Z</time>
      </trkpt>
      <trkpt lat="45.88099" lon="4.76827">
        <ele>213</ele>
        <time>2018-09-09T08:50:47Z</time>
      </trkpt>
      <trkpt lat="45.88099" lon="4.76835">
        <ele>212</ele>
        <time>2018-09-09T08:50:48Z</time>
      </trkpt>
      <trkpt lat="45.88098" lon="4.76843">
        <ele>212</ele>
        <time>2018-09-09T08:50:49Z</time>
      </trkpt>
      <trkpt lat="45.88097" lon="4.76852">
        <ele>212</ele>
        <time>2018-09-09T08:50:50Z</time>
      </trkpt>
      <trkpt lat="45.88095" lon="4.7686">
        <ele>212</ele>
        <time>2018-09-09T08:50:51Z</time>
      </trkpt>
      <trkpt lat="45.88094" lon="4.76868">
        <ele>212</ele>
        <time>2018-09-09T08:50:52Z</time>
      </trkpt>
      <trkpt lat="45.88092" lon="4.76874">
        <ele>212</ele>
        <time>2018-09-09T08:50:53Z</time>
      </trkpt>
      <trkpt lat="45.8809" lon="4.76881">
        <ele>212</ele>
        <time>2018-09-09T08:50:54Z</time>
      </trkpt>
      <trkpt lat="45.88089" lon="4.76888">
        <ele>212</ele>
        <time>2018-09-09T08:50:55Z</time>
      </trkpt>
      <trkpt lat="45.88089" lon="4.76894">
        <ele>212</ele>
        <time>2018-09-09T08:50:56Z</time>
      </trkpt>
      <trkpt lat="45.88087" lon="4.76901">
        <ele>212</ele>
        <time>2018-09-09T08:50:57Z</time>
      </trkpt>
      <trkpt lat="45.88088" lon="4.76911">
        <ele>213</ele>
        <time>2018-09-09T08:50:58Z</time>
      </trkpt>
      <trkpt lat="45.88086" lon="4.76922">
        <ele>213</ele>
        <time>2018-09-09T08:51:00Z</time>
      </trkpt>
      <trkpt lat="45.88085" lon="4.7693">
        <ele>213</ele>
        <time>2018-09-09T08:51:01Z</time>
      </trkpt>
      <trkpt lat="45.88085" lon="4.76938">
        <ele>212</ele>
        <time>2018-09-09T08:51:02Z</time>
      </trkpt>
      <trkpt lat="45.88084" lon="4.76945">
        <ele>212</ele>
        <time>2018-09-09T08:51:03Z</time>
      </trkpt>
      <trkpt lat="45.8808" lon="4.76957">
        <ele>213</ele>
        <time>2018-09-09T08:51:05Z</time>
      </trkpt>
      <trkpt lat="45.88079" lon="4.76964">
        <ele>213</ele>
        <time>2018-09-09T08:51:06Z</time>
      </trkpt>
      <trkpt lat="45.88076" lon="4.76971">
        <ele>213</ele>
        <time>2018-09-09T08:51:07Z</time>
      </trkpt>
      <trkpt lat="45.88075" lon="4.76978">
        <ele>213</ele>
        <time>2018-09-09T08:51:08Z</time>
      </trkpt>
      <trkpt lat="45.88073" lon="4.76987">
        <ele>213</ele>
        <time>2018-09-09T08:51:09Z</time>
      </trkpt>
      <trkpt lat="45.88072" lon="4.76994">
        <ele>213</ele>
        <time>2018-09-09T08:51:10Z</time>
      </trkpt>
      <trkpt lat="45.88068" lon="4.77005">
        <ele>213</ele>
        <time>2018-09-09T08:51:12Z</time>
      </trkpt>
      <trkpt lat="45.88067" lon="4.77012">
        <ele>214</ele>
        <time>2018-09-09T08:51:13Z</time>
      </trkpt>
      <trkpt lat="45.88067" lon="4.77022">
        <ele>214</ele>
        <time>2018-09-09T08:51:14Z</time>
      </trkpt>
      <trkpt lat="45.88066" lon="4.7703">
        <ele>214</ele>
        <time>2018-09-09T08:51:15Z</time>
      </trkpt>
      <trkpt lat="45.88061" lon="4.7704">
        <ele>214</ele>
        <time>2018-09-09T08:51:17Z</time>
      </trkpt>
      <trkpt lat="45.8806" lon="4.77047">
        <ele>214</ele>
        <time>2018-09-09T08:51:18Z</time>
      </trkpt>
      <trkpt lat="45.88058" lon="4.77054">
        <ele>214</ele>
        <time>2018-09-09T08:51:19Z</time>
      </trkpt>
      <trkpt lat="45.88057" lon="4.7706">
        <ele>214</ele>
        <time>2018-09-09T08:51:20Z</time>
      </trkpt>
      <trkpt lat="45.88056" lon="4.77068">
        <ele>214</ele>
        <time>2018-09-09T08:51:21Z</time>
      </trkpt>
      <trkpt lat="45.88054" lon="4.77073">
        <ele>214</ele>
        <time>2018-09-09T08:51:22Z</time>
      </trkpt>
      <trkpt lat="45.88052" lon="4.77079">
        <ele>214</ele>
        <time>2018-09-09T08:51:23Z</time>
      </trkpt>
      <trkpt lat="45.8805" lon="4.77085">
        <ele>215</ele>
        <time>2018-09-09T08:51:24Z</time>
      </trkpt>
      <trkpt lat="45.88048" lon="4.7709">
        <ele>215</ele>
        <time>2018-09-09T08:51:25Z</time>
      </trkpt>
      <trkpt lat="45.88046" lon="4.77098">
        <ele>215</ele>
        <time>2018-09-09T08:51:26Z</time>
      </trkpt>
      <trkpt lat="45.88045" lon="4.77104">
        <ele>215</ele>
        <time>2018-09-09T08:51:27Z</time>
      </trkpt>
      <trkpt lat="45.88044" lon="4.7711">
        <ele>215</ele>
        <time>2018-09-09T08:51:28Z</time>
      </trkpt>
      <trkpt lat="45.88042" lon="4.77121">
        <ele>215</ele>
        <time>2018-09-09T08:51:30Z</time>
      </trkpt>
      <trkpt lat="45.88041" lon="4.77126">
        <ele>215</ele>
        <time>2018-09-09T08:51:31Z</time>
      </trkpt>
      <trkpt lat="45.88036" lon="4.77136">
        <ele>215</ele>
        <time>2018-09-09T08:51:33Z</time>
      </trkpt>
      <trkpt lat="45.88035" lon="4.77142">
        <ele>215</ele>
        <time>2018-09-09T08:51:34Z</time>
      </trkpt>
      <trkpt lat="45.88034" lon="4.77147">
        <ele>215</ele>
        <time>2018-09-09T08:51:35Z</time>
      </trkpt>
      <trkpt lat="45.88033" lon="4.77155">
        <ele>215</ele>
        <time>2018-09-09T08:51:36Z</time>
      </trkpt>
      <trkpt lat="45.88035" lon="4.77163">
        <ele>215</ele>
        <time>2018-09-09T08:51:37Z</time>
      </trkpt>
      <trkpt lat="45.88035" lon="4.77171">
        <ele>216</ele>
        <time>2018-09-09T08:51:38Z</time>
      </trkpt>
      <trkpt lat="45.88035" lon="4.77179">
        <ele>216</ele>
        <time>2018-09-09T08:51:39Z</time>
      </trkpt>
      <trkpt lat="45.88035" lon="4.77187">
        <ele>216</ele>
        <time>2018-09-09T08:51:40Z</time>
      </trkpt>
      <trkpt lat="45.88034" lon="4.77194">
        <ele>216</ele>
        <time>2018-09-09T08:51:41Z</time>
      </trkpt>
      <trkpt lat="45.88033" lon="4.77201">
        <ele>216</ele>
        <time>2018-09-09T08:51:42Z</time>
      </trkpt>
      <trkpt lat="45.88031" lon="4.77214">
        <ele>216</ele>
        <time>2018-09-09T08:51:44Z</time>
      </trkpt>
      <trkpt lat="45.8803" lon="4.77221">
        <ele>216</ele>
        <time>2018-09-09T08:51:45Z</time>
      </trkpt>
      <trkpt lat="45.8803" lon="4.77229">
        <ele>216</ele>
        <time>2018-09-09T08:51:46Z</time>
      </trkpt>
      <trkpt lat="45.88029" lon="4.77236">
        <ele>216</ele>
        <time>2018-09-09T08:51:47Z</time>
      </trkpt>
      <trkpt lat="45.8803" lon="4.77244">
        <ele>216</ele>
        <time>2018-09-09T08:51:48Z</time>
      </trkpt>
      <trkpt lat="45.88028" lon="4.7725">
        <ele>216</ele>
        <time>2018-09-09T08:51:49Z</time>
      </trkpt>
      <trkpt lat="45.88026" lon="4.77255">
        <ele>216</ele>
        <time>2018-09-09T08:51:50Z</time>
      </trkpt>
      <trkpt lat="45.88026" lon="4.77265">
        <ele>216</ele>
        <time>2018-09-09T08:51:51Z</time>
      </trkpt>
      <trkpt lat="45.88025" lon="4.77272">
        <ele>215</ele>
        <time>2018-09-09T08:51:52Z</time>
      </trkpt>
      <trkpt lat="45.88024" lon="4.77279">
        <ele>215</ele>
        <time>2018-09-09T08:51:53Z</time>
      </trkpt>
      <trkpt lat="45.88023" lon="4.77286">
        <ele>215</ele>
        <time>2018-09-09T08:51:54Z</time>
      </trkpt>
      <trkpt lat="45.88021" lon="4.77293">
        <ele>215</ele>
        <time>2018-09-09T08:51:55Z</time>
      </trkpt>
      <trkpt lat="45.8802" lon="4.77301">
        <ele>215</ele>
        <time>2018-09-09T08:51:56Z</time>
      </trkpt>
      <trkpt lat="45.88019" lon="4.77309">
        <ele>215</ele>
        <time>2018-09-09T08:51:57Z</time>
      </trkpt>
      <trkpt lat="45.88017" lon="4.77318">
        <ele>215</ele>
        <time>2018-09-09T08:51:58Z</time>
      </trkpt>
      <trkpt lat="45.88016" lon="4.77325">
        <ele>215</ele>
        <time>2018-09-09T08:51:59Z</time>
      </trkpt>
      <trkpt lat="45.88015" lon="4.77333">
        <ele>216</ele>
        <time>2018-09-09T08:52:00Z</time>
      </trkpt>
      <trkpt lat="45.88014" lon="4.7734">
        <ele>215</ele>
        <time>2018-09-09T08:52:01Z</time>
      </trkpt>
      <trkpt lat="45.88013" lon="4.77347">
        <ele>215</ele>
        <time>2018-09-09T08:52:02Z</time>
      </trkpt>
      <trkpt lat="45.88013" lon="4.77355">
        <ele>215</ele>
        <time>2018-09-09T08:52:03Z</time>
      </trkpt>
      <trkpt lat="45.88011" lon="4.77362">
        <ele>215</ele>
        <time>2018-09-09T08:52:04Z</time>
      </trkpt>
      <trkpt lat="45.8801" lon="4.77369">
        <ele>215</ele>
        <time>2018-09-09T08:52:05Z</time>
      </trkpt>
      <trkpt lat="45.88011" lon="4.77379">
        <ele>215</ele>
        <time>2018-09-09T08:52:06Z</time>
      </trkpt>
      <trkpt lat="45.88009" lon="4.77384">
        <ele>215</ele>
        <time>2018-09-09T08:52:07Z</time>
      </trkpt>
      <trkpt lat="45.88005" lon="4.77394">
        <ele>215</ele>
        <time>2018-09-09T08:52:09Z</time>
      </trkpt>
      <trkpt lat="45.88002" lon="4.77398">
        <ele>215</ele>
        <time>2018-09-09T08:52:10Z</time>
      </trkpt>
      <trkpt lat="45.88003" lon="4.77408">
        <ele>215</ele>
        <time>2018-09-09T08:52:11Z</time>
      </trkpt>
      <trkpt lat="45.88003" lon="4.77416">
        <ele>215</ele>
        <time>2018-09-09T08:52:12Z</time>
      </trkpt>
      <trkpt lat="45.88002" lon="4.77425">
        <ele>215</ele>
        <time>2018-09-09T08:52:13Z</time>
      </trkpt>
      <trkpt lat="45.88002" lon="4.77433">
        <ele>215</ele>
        <time>2018-09-09T08:52:14Z</time>
      </trkpt>
      <trkpt lat="45.88001" lon="4.7744">
        <ele>215</ele>
        <time>2018-09-09T08:52:15Z</time>
      </trkpt>
      <trkpt lat="45.88" lon="4.77446">
        <ele>216</ele>
        <time>2018-09-09T08:52:16Z</time>
      </trkpt>
      <trkpt lat="45.87999" lon="4.77453">
        <ele>217</ele>
        <time>2018-09-09T08:52:17Z</time>
      </trkpt>
      <trkpt lat="45.87997" lon="4.7746">
        <ele>217</ele>
        <time>2018-09-09T08:52:18Z</time>
      </trkpt>
      <trkpt lat="45.87997" lon="4.77468">
        <ele>217</ele>
        <time>2018-09-09T08:52:19Z</time>
      </trkpt>
      <trkpt lat="45.87997" lon="4.77476">
        <ele>217</ele>
        <time>2018-09-09T08:52:20Z</time>
      </trkpt>
      <trkpt lat="45.87996" lon="4.77483">
        <ele>217</ele>
        <time>2018-09-09T08:52:21Z</time>
      </trkpt>
      <trkpt lat="45.87995" lon="4.77491">
        <ele>216</ele>
        <time>2018-09-09T08:52:22Z</time>
      </trkpt>
      <trkpt lat="45.87994" lon="4.77499">
        <ele>216</ele>
        <time>2018-09-09T08:52:23Z</time>
      </trkpt>
      <trkpt lat="45.87993" lon="4.77507">
        <ele>217</ele>
        <time>2018-09-09T08:52:24Z</time>
      </trkpt>
      <trkpt lat="45.87992" lon="4.77515">
        <ele>217</ele>
        <time>2018-09-09T08:52:25Z</time>
      </trkpt>
      <trkpt lat="45.87991" lon="4.77521">
        <ele>217</ele>
        <time>2018-09-09T08:52:26Z</time>
      </trkpt>
      <trkpt lat="45.8799" lon="4.77528">
        <ele>217</ele>
        <time>2018-09-09T08:52:27Z</time>
      </trkpt>
      <trkpt lat="45.8799" lon="4.77535">
        <ele>217</ele>
        <time>2018-09-09T08:52:28Z</time>
      </trkpt>
      <trkpt lat="45.87987" lon="4.77546">
        <ele>217</ele>
        <time>2018-09-09T08:52:30Z</time>
      </trkpt>
      <trkpt lat="45.87986" lon="4.77552">
        <ele>217</ele>
        <time>2018-09-09T08:52:31Z</time>
      </trkpt>
      <trkpt lat="45.87986" lon="4.7756">
        <ele>217</ele>
        <time>2018-09-09T08:52:32Z</time>
      </trkpt>
      <trkpt lat="45.87986" lon="4.77569">
        <ele>217</ele>
        <time>2018-09-09T08:52:33Z</time>
      </trkpt>
      <trkpt lat="45.87984" lon="4.77575">
        <ele>217</ele>
        <time>2018-09-09T08:52:34Z</time>
      </trkpt>
      <trkpt lat="45.87983" lon="4.77582">
        <ele>217</ele>
        <time>2018-09-09T08:52:35Z</time>
      </trkpt>
      <trkpt lat="45.87981" lon="4.77589">
        <ele>218</ele>
        <time>2018-09-09T08:52:36Z</time>
      </trkpt>
      <trkpt lat="45.8798" lon="4.77596">
        <ele>218</ele>
        <time>2018-09-09T08:52:37Z</time>
      </trkpt>
      <trkpt lat="45.87978" lon="4.77603">
        <ele>218</ele>
        <time>2018-09-09T08:52:38Z</time>
      </trkpt>
      <trkpt lat="45.87976" lon="4.77609">
        <ele>218</ele>
        <time>2018-09-09T08:52:39Z</time>
      </trkpt>
      <trkpt lat="45.87975" lon="4.77616">
        <ele>218</ele>
        <time>2018-09-09T08:52:40Z</time>
      </trkpt>
      <trkpt lat="45.87973" lon="4.77622">
        <ele>218</ele>
        <time>2018-09-09T08:52:41Z</time>
      </trkpt>
      <trkpt lat="45.87972" lon="4.77628">
        <ele>218</ele>
        <time>2018-09-09T08:52:42Z</time>
      </trkpt>
      <trkpt lat="45.8797" lon="4.77635">
        <ele>218</ele>
        <time>2018-09-09T08:52:43Z</time>
      </trkpt>
      <trkpt lat="45.87967" lon="4.77646">
        <ele>218</ele>
        <time>2018-09-09T08:52:45Z</time>
      </trkpt>
      <trkpt lat="45.87964" lon="4.77652">
        <ele>218</ele>
        <time>2018-09-09T08:52:46Z</time>
      </trkpt>
      <trkpt lat="45.87961" lon="4.77657">
        <ele>218</ele>
        <time>2018-09-09T08:52:47Z</time>
      </trkpt>
      <trkpt lat="45.87958" lon="4.77662">
        <ele>218</ele>
        <time>2018-09-09T08:52:48Z</time>
      </trkpt>
      <trkpt lat="45.87956" lon="4.77669">
        <ele>218</ele>
        <time>2018-09-09T08:52:49Z</time>
      </trkpt>
      <trkpt lat="45.87954" lon="4.77674">
        <ele>218</ele>
        <time>2018-09-09T08:52:50Z</time>
      </trkpt>
      <trkpt lat="45.87954" lon="4.77682">
        <ele>218</ele>
        <time>2018-09-09T08:52:51Z</time>
      </trkpt>
      <trkpt lat="45.87953" lon="4.77689">
        <ele>218</ele>
        <time>2018-09-09T08:52:52Z</time>
      </trkpt>
      <trkpt lat="45.87951" lon="4.77696">
        <ele>218</ele>
        <time>2018-09-09T08:52:53Z</time>
      </trkpt>
      <trkpt lat="45.87951" lon="4.77705">
        <ele>218</ele>
        <time>2018-09-09T08:52:54Z</time>
      </trkpt>
      <trkpt lat="45.8795" lon="4.77712">
        <ele>218</ele>
        <time>2018-09-09T08:52:55Z</time>
      </trkpt>
      <trkpt lat="45.87951" lon="4.7772">
        <ele>219</ele>
        <time>2018-09-09T08:52:56Z</time>
      </trkpt>
      <trkpt lat="45.87952" lon="4.77727">
        <ele>219</ele>
        <time>2018-09-09T08:52:57Z</time>
      </trkpt>
      <trkpt lat="45.87953" lon="4.77736">
        <ele>219</ele>
        <time>2018-09-09T08:52:58Z</time>
      </trkpt>
      <trkpt lat="45.87954" lon="4.77748">
        <ele>219</ele>
        <time>2018-09-09T08:53:00Z</time>
      </trkpt>
      <trkpt lat="45.87955" lon="4.77755">
        <ele>219</ele>
        <time>2018-09-09T08:53:01Z</time>
      </trkpt>
      <trkpt lat="45.87957" lon="4.77763">
        <ele>219</ele>
        <time>2018-09-09T08:53:02Z</time>
      </trkpt>
      <trkpt lat="45.87957" lon="4.7777">
        <ele>219</ele>
        <time>2018-09-09T08:53:03Z</time>
      </trkpt>
      <trkpt lat="45.87959" lon="4.77778">
        <ele>219</ele>
        <time>2018-09-09T08:53:04Z</time>
      </trkpt>
      <trkpt lat="45.87961" lon="4.77785">
        <ele>219</ele>
        <time>2018-09-09T08:53:05Z</time>
      </trkpt>
      <trkpt lat="45.87963" lon="4.77798">
        <ele>219</ele>
        <time>2018-09-09T08:53:07Z</time>
      </trkpt>
      <trkpt lat="45.87965" lon="4.77805">
        <ele>219</ele>
        <time>2018-09-09T08:53:08Z</time>
      </trkpt>
      <trkpt lat="45.87967" lon="4.77817">
        <ele>218</ele>
        <time>2018-09-09T08:53:10Z</time>
      </trkpt>
      <trkpt lat="45.87968" lon="4.77823">
        <ele>218</ele>
        <time>2018-09-09T08:53:11Z</time>
      </trkpt>
      <trkpt lat="45.87967" lon="4.77832">
        <ele>218</ele>
        <time>2018-09-09T08:53:13Z</time>
      </trkpt>
      <trkpt lat="45.87966" lon="4.77838">
        <ele>219</ele>
        <time>2018-09-09T08:53:14Z</time>
      </trkpt>
      <trkpt lat="45.87965" lon="4.77851">
        <ele>219</ele>
        <time>2018-09-09T08:53:16Z</time>
      </trkpt>
      <trkpt lat="45.87965" lon="4.77858">
        <ele>219</ele>
        <time>2018-09-09T08:53:17Z</time>
      </trkpt>
      <trkpt lat="45.87966" lon="4.77866">
        <ele>219</ele>
        <time>2018-09-09T08:53:18Z</time>
      </trkpt>
      <trkpt lat="45.87965" lon="4.77874">
        <ele>219</ele>
        <time>2018-09-09T08:53:19Z</time>
      </trkpt>
      <trkpt lat="45.87965" lon="4.77881">
        <ele>220</ele>
        <time>2018-09-09T08:53:20Z</time>
      </trkpt>
      <trkpt lat="45.87965" lon="4.77888">
        <ele>220</ele>
        <time>2018-09-09T08:53:21Z</time>
      </trkpt>
      <trkpt lat="45.87966" lon="4.77897">
        <ele>220</ele>
        <time>2018-09-09T08:53:22Z</time>
      </trkpt>
      <trkpt lat="45.87967" lon="4.77905">
        <ele>219</ele>
        <time>2018-09-09T08:53:23Z</time>
      </trkpt>
      <trkpt lat="45.87967" lon="4.77917">
        <ele>220</ele>
        <time>2018-09-09T08:53:25Z</time>
      </trkpt>
      <trkpt lat="45.87966" lon="4.77918">
        <ele>220</ele>
        <time>2018-09-09T08:53:26Z</time>
      </trkpt>
      <trkpt lat="45.87967" lon="4.77923">
        <ele>220</ele>
        <time>2018-09-09T08:53:28Z</time>
      </trkpt>
      <trkpt lat="45.8797" lon="4.77934">
        <ele>220</ele>
        <time>2018-09-09T08:53:29Z</time>
      </trkpt>
      <trkpt lat="45.87972" lon="4.77941">
        <ele>220</ele>
        <time>2018-09-09T08:53:30Z</time>
      </trkpt>
      <trkpt lat="45.87977" lon="4.77945">
        <ele>219</ele>
        <time>2018-09-09T08:53:31Z</time>
      </trkpt>
      <trkpt lat="45.87976" lon="4.77957">
        <ele>219</ele>
        <time>2018-09-09T08:53:33Z</time>
      </trkpt>
      <trkpt lat="45.87977" lon="4.77965">
        <ele>219</ele>
        <time>2018-09-09T08:53:34Z</time>
      </trkpt>
      <trkpt lat="45.87977" lon="4.77971">
        <ele>219</ele>
        <time>2018-09-09T08:53:35Z</time>
      </trkpt>
      <trkpt lat="45.87979" lon="4.77979">
        <ele>219</ele>
        <time>2018-09-09T08:53:36Z</time>
      </trkpt>
      <trkpt lat="45.87982" lon="4.77988">
        <ele>219</ele>
        <time>2018-09-09T08:53:37Z</time>
      </trkpt>
      <trkpt lat="45.87984" lon="4.77996">
        <ele>218</ele>
        <time>2018-09-09T08:53:38Z</time>
      </trkpt>
      <trkpt lat="45.87985" lon="4.78004">
        <ele>218</ele>
        <time>2018-09-09T08:53:39Z</time>
      </trkpt>
      <trkpt lat="45.87986" lon="4.78012">
        <ele>218</ele>
        <time>2018-09-09T08:53:40Z</time>
      </trkpt>
      <trkpt lat="45.87988" lon="4.78019">
        <ele>218</ele>
        <time>2018-09-09T08:53:41Z</time>
      </trkpt>
      <trkpt lat="45.87991" lon="4.78025">
        <ele>218</ele>
        <time>2018-09-09T08:53:42Z</time>
      </trkpt>
      <trkpt lat="45.87991" lon="4.78034">
        <ele>217</ele>
        <time>2018-09-09T08:53:43Z</time>
      </trkpt>
      <trkpt lat="45.87993" lon="4.78042">
        <ele>217</ele>
        <time>2018-09-09T08:53:44Z</time>
      </trkpt>
      <trkpt lat="45.87993" lon="4.7805">
        <ele>217</ele>
        <time>2018-09-09T08:53:45Z</time>
      </trkpt>
      <trkpt lat="45.87993" lon="4.78059">
        <ele>217</ele>
        <time>2018-09-09T08:53:46Z</time>
      </trkpt>
      <trkpt lat="45.87993" lon="4.78067">
        <ele>216</ele>
        <time>2018-09-09T08:53:47Z</time>
      </trkpt>
      <trkpt lat="45.87994" lon="4.78075">
        <ele>216</ele>
        <time>2018-09-09T08:53:48Z</time>
      </trkpt>
      <trkpt lat="45.87995" lon="4.78082">
        <ele>216</ele>
        <time>2018-09-09T08:53:49Z</time>
      </trkpt>
      <trkpt lat="45.87997" lon="4.78091">
        <ele>215</ele>
        <time>2018-09-09T08:53:50Z</time>
      </trkpt>
      <trkpt lat="45.87998" lon="4.78097">
        <ele>216</ele>
        <time>2018-09-09T08:53:51Z</time>
      </trkpt>
      <trkpt lat="45.88" lon="4.78104">
        <ele>214</ele>
        <time>2018-09-09T08:53:52Z</time>
      </trkpt>
      <trkpt lat="45.88001" lon="4.78113">
        <ele>214</ele>
        <time>2018-09-09T08:53:53Z</time>
      </trkpt>
      <trkpt lat="45.88002" lon="4.78123">
        <ele>214</ele>
        <time>2018-09-09T08:53:54Z</time>
      </trkpt>
      <trkpt lat="45.88002" lon="4.7813">
        <ele>214</ele>
        <time>2018-09-09T08:53:55Z</time>
      </trkpt>
      <trkpt lat="45.88003" lon="4.78139">
        <ele>214</ele>
        <time>2018-09-09T08:53:56Z</time>
      </trkpt>
      <trkpt lat="45.88005" lon="4.78147">
        <ele>214</ele>
        <time>2018-09-09T08:53:57Z</time>
      </trkpt>
      <trkpt lat="45.88004" lon="4.78156">
        <ele>214</ele>
        <time>2018-09-09T08:53:58Z</time>
      </trkpt>
      <trkpt lat="45.88004" lon="4.78167">
        <ele>215</ele>
        <time>2018-09-09T08:53:59Z</time>
      </trkpt>
      <trkpt lat="45.88005" lon="4.78175">
        <ele>214</ele>
        <time>2018-09-09T08:54:00Z</time>
      </trkpt>
      <trkpt lat="45.88005" lon="4.78185">
        <ele>214</ele>
        <time>2018-09-09T08:54:01Z</time>
      </trkpt>
      <trkpt lat="45.88004" lon="4.78194">
        <ele>214</ele>
        <time>2018-09-09T08:54:02Z</time>
      </trkpt>
      <trkpt lat="45.88004" lon="4.78202">
        <ele>214</ele>
        <time>2018-09-09T08:54:03Z</time>
      </trkpt>
      <trkpt lat="45.88003" lon="4.78211">
        <ele>214</ele>
        <time>2018-09-09T08:54:04Z</time>
      </trkpt>
      <trkpt lat="45.88002" lon="4.78219">
        <ele>214</ele>
        <time>2018-09-09T08:54:05Z</time>
      </trkpt>
      <trkpt lat="45.88" lon="4.78228">
        <ele>214</ele>
        <time>2018-09-09T08:54:06Z</time>
      </trkpt>
      <trkpt lat="45.87999" lon="4.78236">
        <ele>215</ele>
        <time>2018-09-09T08:54:07Z</time>
      </trkpt>
      <trkpt lat="45.87998" lon="4.78243">
        <ele>215</ele>
        <time>2018-09-09T08:54:08Z</time>
      </trkpt>
      <trkpt lat="45.87998" lon="4.78251">
        <ele>214</ele>
        <time>2018-09-09T08:54:09Z</time>
      </trkpt>
      <trkpt lat="45.87997" lon="4.78258">
        <ele>214</ele>
        <time>2018-09-09T08:54:10Z</time>
      </trkpt>
      <trkpt lat="45.87995" lon="4.78266">
        <ele>215</ele>
        <time>2018-09-09T08:54:11Z</time>
      </trkpt>
      <trkpt lat="45.87994" lon="4.78274">
        <ele>215</ele>
        <time>2018-09-09T08:54:12Z</time>
      </trkpt>
      <trkpt lat="45.87993" lon="4.7828">
        <ele>215</ele>
        <time>2018-09-09T08:54:13Z</time>
      </trkpt>
      <trkpt lat="45.87992" lon="4.78288">
        <ele>215</ele>
        <time>2018-09-09T08:54:14Z</time>
      </trkpt>
      <trkpt lat="45.87992" lon="4.78296">
        <ele>215</ele>
        <time>2018-09-09T08:54:15Z</time>
      </trkpt>
      <trkpt lat="45.87991" lon="4.78304">
        <ele>215</ele>
        <time>2018-09-09T08:54:16Z</time>
      </trkpt>
      <trkpt lat="45.87986" lon="4.78307">
        <ele>215</ele>
        <time>2018-09-09T08:54:17Z</time>
      </trkpt>
      <trkpt lat="45.87985" lon="4.78315">
        <ele>215</ele>
        <time>2018-09-09T08:54:18Z</time>
      </trkpt>
      <trkpt lat="45.87985" lon="4.78323">
        <ele>215</ele>
        <time>2018-09-09T08:54:19Z</time>
      </trkpt>
      <trkpt lat="45.87985" lon="4.78332">
        <ele>215</ele>
        <time>2018-09-09T08:54:20Z</time>
      </trkpt>
      <trkpt lat="45.87985" lon="4.7834">
        <ele>215</ele>
        <time>2018-09-09T08:54:21Z</time>
      </trkpt>
      <trkpt lat="45.87985" lon="4.78348">
        <ele>215</ele>
        <time>2018-09-09T08:54:22Z</time>
      </trkpt>
      <trkpt lat="45.87985" lon="4.78355">
        <ele>215</ele>
        <time>2018-09-09T08:54:23Z</time>
      </trkpt>
      <trkpt lat="45.87985" lon="4.78363">
        <ele>215</ele>
        <time>2018-09-09T08:54:24Z</time>
      </trkpt>
      <trkpt lat="45.87985" lon="4.78371">
        <ele>215</ele>
        <time>2018-09-09T08:54:25Z</time>
      </trkpt>
      <trkpt lat="45.87986" lon="4.78377">
        <ele>215</ele>
        <time>2018-09-09T08:54:26Z</time>
      </trkpt>
      <trkpt lat="45.87986" lon="4.78389">
        <ele>215</ele>
        <time>2018-09-09T08:54:28Z</time>
      </trkpt>
      <trkpt lat="45.87988" lon="4.78395">
        <ele>214</ele>
        <time>2018-09-09T08:54:29Z</time>
      </trkpt>
      <trkpt lat="45.87989" lon="4.78402">
        <ele>214</ele>
        <time>2018-09-09T08:54:30Z</time>
      </trkpt>
      <trkpt lat="45.8799" lon="4.78408">
        <ele>214</ele>
        <time>2018-09-09T08:54:31Z</time>
      </trkpt>
      <trkpt lat="45.87986" lon="4.78413">
        <ele>214</ele>
        <time>2018-09-09T08:54:34Z</time>
      </trkpt>
      <trkpt lat="45.8798" lon="4.78417">
        <ele>214</ele>
        <time>2018-09-09T08:54:35Z</time>
      </trkpt>
      <trkpt lat="45.87972" lon="4.78418">
        <ele>215</ele>
        <time>2018-09-09T08:54:37Z</time>
      </trkpt>
      <trkpt lat="45.87971" lon="4.78419">
        <ele>215</ele>
        <time>2018-09-09T08:54:38Z</time>
      </trkpt>
      <trkpt lat="45.87966" lon="4.78422">
        <ele>215</ele>
        <time>2018-09-09T08:54:40Z</time>
      </trkpt>
      <trkpt lat="45.87959" lon="4.78425">
        <ele>215</ele>
        <time>2018-09-09T08:54:41Z</time>
      </trkpt>
      <trkpt lat="45.87952" lon="4.78428">
        <ele>216</ele>
        <time>2018-09-09T08:54:43Z</time>
      </trkpt>
      <trkpt lat="45.8795" lon="4.78428">
        <ele>216</ele>
        <time>2018-09-09T08:54:44Z</time>
      </trkpt>
      <trkpt lat="45.87944" lon="4.7843">
        <ele>216</ele>
        <time>2018-09-09T08:54:45Z</time>
      </trkpt>
      <trkpt lat="45.8794" lon="4.78432">
        <ele>216</ele>
        <time>2018-09-09T08:54:46Z</time>
      </trkpt>
      <trkpt lat="45.87933" lon="4.78435">
        <ele>216</ele>
        <time>2018-09-09T08:54:48Z</time>
      </trkpt>
      <trkpt lat="45.87929" lon="4.78437">
        <ele>216</ele>
        <time>2018-09-09T08:54:49Z</time>
      </trkpt>
      <trkpt lat="45.87921" lon="4.78439">
        <ele>216</ele>
        <time>2018-09-09T08:54:52Z</time>
      </trkpt>
      <trkpt lat="45.87919" lon="4.7844">
        <ele>216</ele>
        <time>2018-09-09T08:54:53Z</time>
      </trkpt>
      <trkpt lat="45.87911" lon="4.78441">
        <ele>220</ele>
        <time>2018-09-09T08:54:54Z</time>
      </trkpt>
      <trkpt lat="45.87909" lon="4.78442">
        <ele>220</ele>
        <time>2018-09-09T08:54:55Z</time>
      </trkpt>
      <trkpt lat="45.87902" lon="4.78443">
        <ele>220</ele>
        <time>2018-09-09T08:54:58Z</time>
      </trkpt>
      <trkpt lat="45.87899" lon="4.78444">
        <ele>220</ele>
        <time>2018-09-09T08:54:59Z</time>
      </trkpt>
      <trkpt lat="45.87893" lon="4.78446">
        <ele>220</ele>
        <time>2018-09-09T08:55:01Z</time>
      </trkpt>
      <trkpt lat="45.8789" lon="4.78447">
        <ele>220</ele>
        <time>2018-09-09T08:55:02Z</time>
      </trkpt>
      <trkpt lat="45.87884" lon="4.78449">
        <ele>221</ele>
        <time>2018-09-09T08:55:04Z</time>
      </trkpt>
      <trkpt lat="45.87881" lon="4.7845">
        <ele>221</ele>
        <time>2018-09-09T08:55:05Z</time>
      </trkpt>
      <trkpt lat="45.87875" lon="4.78453">
        <ele>221</ele>
        <time>2018-09-09T08:55:07Z</time>
      </trkpt>
      <trkpt lat="45.87865" lon="4.78457">
        <ele>222</ele>
        <time>2018-09-09T08:55:08Z</time>
      </trkpt>
      <trkpt lat="45.87861" lon="4.78458">
        <ele>222</ele>
        <time>2018-09-09T08:55:10Z</time>
      </trkpt>
      <trkpt lat="45.87854" lon="4.78459">
        <ele>222</ele>
        <time>2018-09-09T08:55:11Z</time>
      </trkpt>
      <trkpt lat="45.87845" lon="4.7846">
        <ele>222</ele>
        <time>2018-09-09T08:55:13Z</time>
      </trkpt>
      <trkpt lat="45.87841" lon="4.78461">
        <ele>222</ele>
        <time>2018-09-09T08:55:14Z</time>
      </trkpt>
      <trkpt lat="45.87833" lon="4.78461">
        <ele>226</ele>
        <time>2018-09-09T08:55:16Z</time>
      </trkpt>
      <trkpt lat="45.87831" lon="4.78461">
        <ele>226</ele>
        <time>2018-09-09T08:55:17Z</time>
      </trkpt>
      <trkpt lat="45.87824" lon="4.7846">
        <ele>226</ele>
        <time>2018-09-09T08:55:20Z</time>
      </trkpt>
      <trkpt lat="45.87821" lon="4.7846">
        <ele>226</ele>
        <time>2018-09-09T08:55:21Z</time>
      </trkpt>
      <trkpt lat="45.87815" lon="4.78458">
        <ele>226</ele>
        <time>2018-09-09T08:55:23Z</time>
      </trkpt>
      <trkpt lat="45.87808" lon="4.78464">
        <ele>226</ele>
        <time>2018-09-09T08:55:24Z</time>
      </trkpt>
      <trkpt lat="45.87806" lon="4.78476">
        <ele>226</ele>
        <time>2018-09-09T08:55:27Z</time>
      </trkpt>
      <trkpt lat="45.87807" lon="4.78483">
        <ele>226</ele>
        <time>2018-09-09T08:55:28Z</time>
      </trkpt>
      <trkpt lat="45.87809" lon="4.78486">
        <ele>226</ele>
        <time>2018-09-09T08:55:29Z</time>
      </trkpt>
      <trkpt lat="45.87812" lon="4.78496">
        <ele>226</ele>
        <time>2018-09-09T08:55:30Z</time>
      </trkpt>
      <trkpt lat="45.87815" lon="4.78503">
        <ele>227</ele>
        <time>2018-09-09T08:55:32Z</time>
      </trkpt>
      <trkpt lat="45.87816" lon="4.78507">
        <ele>227</ele>
        <time>2018-09-09T08:55:33Z</time>
      </trkpt>
      <trkpt lat="45.87818" lon="4.78518">
        <ele>228</ele>
        <time>2018-09-09T08:55:35Z</time>
      </trkpt>
      <trkpt lat="45.87819" lon="4.78524">
        <ele>228</ele>
        <time>2018-09-09T08:55:36Z</time>
      </trkpt>
      <trkpt lat="45.87822" lon="4.7853">
        <ele>228</ele>
        <time>2018-09-09T08:55:37Z</time>
      </trkpt>
      <trkpt lat="45.87823" lon="4.78536">
        <ele>228</ele>
        <time>2018-09-09T08:55:38Z</time>
      </trkpt>
      <trkpt lat="45.87825" lon="4.78547">
        <ele>228</ele>
        <time>2018-09-09T08:55:40Z</time>
      </trkpt>
      <trkpt lat="45.87826" lon="4.78553">
        <ele>228</ele>
        <time>2018-09-09T08:55:41Z</time>
      </trkpt>
      <trkpt lat="45.87828" lon="4.78563">
        <ele>228</ele>
        <time>2018-09-09T08:55:44Z</time>
      </trkpt>
      <trkpt lat="45.8783" lon="4.78571">
        <ele>228</ele>
        <time>2018-09-09T08:55:45Z</time>
      </trkpt>
      <trkpt lat="45.87832" lon="4.78583">
        <ele>228</ele>
        <time>2018-09-09T08:55:47Z</time>
      </trkpt>
      <trkpt lat="45.87833" lon="4.7859">
        <ele>229</ele>
        <time>2018-09-09T08:55:48Z</time>
      </trkpt>
      <trkpt lat="45.87834" lon="4.78596">
        <ele>227</ele>
        <time>2018-09-09T08:55:49Z</time>
      </trkpt>
      <trkpt lat="45.87834" lon="4.78606">
        <ele>226</ele>
        <time>2018-09-09T08:55:50Z</time>
      </trkpt>
      <trkpt lat="45.87837" lon="4.78618">
        <ele>226</ele>
        <time>2018-09-09T08:55:52Z</time>
      </trkpt>
      <trkpt lat="45.87837" lon="4.7862">
        <ele>226</ele>
        <time>2018-09-09T08:55:53Z</time>
      </trkpt>
      <trkpt lat="45.87837" lon="4.78628">
        <ele>226</ele>
        <time>2018-09-09T08:55:54Z</time>
      </trkpt>
      <trkpt lat="45.87839" lon="4.78637">
        <ele>226</ele>
        <time>2018-09-09T08:55:55Z</time>
      </trkpt>
      <trkpt lat="45.8784" lon="4.78645">
        <ele>226</ele>
        <time>2018-09-09T08:55:56Z</time>
      </trkpt>
      <trkpt lat="45.87841" lon="4.78651">
        <ele>226</ele>
        <time>2018-09-09T08:55:57Z</time>
      </trkpt>
      <trkpt lat="45.87843" lon="4.78657">
        <ele>227</ele>
        <time>2018-09-09T08:55:58Z</time>
      </trkpt>
      <trkpt lat="45.87845" lon="4.78663">
        <ele>227</ele>
        <time>2018-09-09T08:55:59Z</time>
      </trkpt>
      <trkpt lat="45.87846" lon="4.78673">
        <ele>226</ele>
        <time>2018-09-09T08:56:01Z</time>
      </trkpt>
      <trkpt lat="45.87847" lon="4.78678">
        <ele>226</ele>
        <time>2018-09-09T08:56:02Z</time>
      </trkpt>
      <trkpt lat="45.87847" lon="4.78685">
        <ele>226</ele>
        <time>2018-09-09T08:56:03Z</time>
      </trkpt>
      <trkpt lat="45.87849" lon="4.78692">
        <ele>226</ele>
        <time>2018-09-09T08:56:04Z</time>
      </trkpt>
      <trkpt lat="45.87849" lon="4.78699">
        <ele>226</ele>
        <time>2018-09-09T08:56:05Z</time>
      </trkpt>
      <trkpt lat="45.8785" lon="4.78706">
        <ele>225</ele>
        <time>2018-09-09T08:56:06Z</time>
      </trkpt>
      <trkpt lat="45.87851" lon="4.78713">
        <ele>225</ele>
        <time>2018-09-09T08:56:07Z</time>
      </trkpt>
      <trkpt lat="45.87852" lon="4.7872">
        <ele>225</ele>
        <time>2018-09-09T08:56:08Z</time>
      </trkpt>
      <trkpt lat="45.87851" lon="4.78728">
        <ele>226</ele>
        <time>2018-09-09T08:56:09Z</time>
      </trkpt>
      <trkpt lat="45.87852" lon="4.78735">
        <ele>226</ele>
        <time>2018-09-09T08:56:10Z</time>
      </trkpt>
      <trkpt lat="45.87853" lon="4.78748">
        <ele>226</ele>
        <time>2018-09-09T08:56:12Z</time>
      </trkpt>
      <trkpt lat="45.87853" lon="4.78754">
        <ele>226</ele>
        <time>2018-09-09T08:56:13Z</time>
      </trkpt>
      <trkpt lat="45.87853" lon="4.78761">
        <ele>226</ele>
        <time>2018-09-09T08:56:14Z</time>
      </trkpt>
      <trkpt lat="45.87855" lon="4.78771">
        <ele>226</ele>
        <time>2018-09-09T08:56:15Z</time>
      </trkpt>
      <trkpt lat="45.87856" lon="4.78783">
        <ele>226</ele>
        <time>2018-09-09T08:56:17Z</time>
      </trkpt>
      <trkpt lat="45.87855" lon="4.78785">
        <ele>226</ele>
        <time>2018-09-09T08:56:18Z</time>
      </trkpt>
      <trkpt lat="45.87854" lon="4.78798">
        <ele>226</ele>
        <time>2018-09-09T08:56:22Z</time>
      </trkpt>
      <trkpt lat="45.87852" lon="4.7881">
        <ele>226</ele>
        <time>2018-09-09T08:56:23Z</time>
      </trkpt>
      <trkpt lat="45.87853" lon="4.78817">
        <ele>226</ele>
        <time>2018-09-09T08:56:24Z</time>
      </trkpt>
      <trkpt lat="45.87853" lon="4.78824">
        <ele>227</ele>
        <time>2018-09-09T08:56:25Z</time>
      </trkpt>
      <trkpt lat="45.87851" lon="4.78835">
        <ele>227</ele>
        <time>2018-09-09T08:56:27Z</time>
      </trkpt>
      <trkpt lat="45.8785" lon="4.78839">
        <ele>227</ele>
        <time>2018-09-09T08:56:28Z</time>
      </trkpt>
      <trkpt lat="45.87846" lon="4.78848">
        <ele>226</ele>
        <time>2018-09-09T08:56:30Z</time>
      </trkpt>
      <trkpt lat="45.87846" lon="4.78851">
        <ele>226</ele>
        <time>2018-09-09T08:56:31Z</time>
      </trkpt>
      <trkpt lat="45.87843" lon="4.78859">
        <ele>226</ele>
        <time>2018-09-09T08:56:32Z</time>
      </trkpt>
      <trkpt lat="45.87842" lon="4.78864">
        <ele>226</ele>
        <time>2018-09-09T08:56:33Z</time>
      </trkpt>
      <trkpt lat="45.87838" lon="4.78874">
        <ele>226</ele>
        <time>2018-09-09T08:56:35Z</time>
      </trkpt>
      <trkpt lat="45.87837" lon="4.78879">
        <ele>226</ele>
        <time>2018-09-09T08:56:36Z</time>
      </trkpt>
      <trkpt lat="45.87836" lon="4.78889">
        <ele>226</ele>
        <time>2018-09-09T08:56:39Z</time>
      </trkpt>
      <trkpt lat="45.87835" lon="4.78893">
        <ele>226</ele>
        <time>2018-09-09T08:56:40Z</time>
      </trkpt>
      <trkpt lat="45.87833" lon="4.78901">
        <ele>231</ele>
        <time>2018-09-09T08:56:42Z</time>
      </trkpt>
      <trkpt lat="45.87831" lon="4.78915">
        <ele>228</ele>
        <time>2018-09-09T08:56:43Z</time>
      </trkpt>
      <trkpt lat="45.8783" lon="4.78922">
        <ele>229</ele>
        <time>2018-09-09T08:56:45Z</time>
      </trkpt>
      <trkpt lat="45.87828" lon="4.78931">
        <ele>230</ele>
        <time>2018-09-09T08:56:46Z</time>
      </trkpt>
      <trkpt lat="45.87828" lon="4.78938">
        <ele>231</ele>
        <time>2018-09-09T08:56:47Z</time>
      </trkpt>
      <trkpt lat="45.87828" lon="4.78946">
        <ele>231</ele>
        <time>2018-09-09T08:56:48Z</time>
      </trkpt>
      <trkpt lat="45.87828" lon="4.78949">
        <ele>231</ele>
        <time>2018-09-09T08:56:49Z</time>
      </trkpt>
      <trkpt lat="45.8783" lon="4.78959">
        <ele>232</ele>
        <time>2018-09-09T08:56:50Z</time>
      </trkpt>
      <trkpt lat="45.8783" lon="4.78966">
        <ele>232</ele>
        <time>2018-09-09T08:56:52Z</time>
      </trkpt>
      <trkpt lat="45.87832" lon="4.78976">
        <ele>231</ele>
        <time>2018-09-09T08:56:53Z</time>
      </trkpt>
      <trkpt lat="45.87833" lon="4.78983">
        <ele>231</ele>
        <time>2018-09-09T08:56:54Z</time>
      </trkpt>
      <trkpt lat="45.87837" lon="4.78991">
        <ele>227</ele>
        <time>2018-09-09T08:56:55Z</time>
      </trkpt>
      <trkpt lat="45.87838" lon="4.79002">
        <ele>229</ele>
        <time>2018-09-09T08:56:57Z</time>
      </trkpt>
      <trkpt lat="45.8784" lon="4.79008">
        <ele>228</ele>
        <time>2018-09-09T08:56:58Z</time>
      </trkpt>
      <trkpt lat="45.87841" lon="4.79015">
        <ele>228</ele>
        <time>2018-09-09T08:56:59Z</time>
      </trkpt>
      <trkpt lat="45.87842" lon="4.79021">
        <ele>228</ele>
        <time>2018-09-09T08:57:00Z</time>
      </trkpt>
      <trkpt lat="45.87842" lon="4.79032">
        <ele>228</ele>
        <time>2018-09-09T08:57:02Z</time>
      </trkpt>
      <trkpt lat="45.87843" lon="4.79038">
        <ele>228</ele>
        <time>2018-09-09T08:57:03Z</time>
      </trkpt>
      <trkpt lat="45.87844" lon="4.79049">
        <ele>228</ele>
        <time>2018-09-09T08:57:05Z</time>
      </trkpt>
      <trkpt lat="45.87845" lon="4.79055">
        <ele>228</ele>
        <time>2018-09-09T08:57:06Z</time>
      </trkpt>
      <trkpt lat="45.87846" lon="4.79066">
        <ele>229</ele>
        <time>2018-09-09T08:57:08Z</time>
      </trkpt>
      <trkpt lat="45.87846" lon="4.79068">
        <ele>229</ele>
        <time>2018-09-09T08:57:09Z</time>
      </trkpt>
      <trkpt lat="45.87847" lon="4.79076">
        <ele>229</ele>
        <time>2018-09-09T08:57:10Z</time>
      </trkpt>
      <trkpt lat="45.87848" lon="4.79082">
        <ele>230</ele>
        <time>2018-09-09T08:57:11Z</time>
      </trkpt>
      <trkpt lat="45.87849" lon="4.79093">
        <ele>230</ele>
        <time>2018-09-09T08:57:13Z</time>
      </trkpt>
      <trkpt lat="45.8785" lon="4.79099">
        <ele>230</ele>
        <time>2018-09-09T08:57:14Z</time>
      </trkpt>
      <trkpt lat="45.87852" lon="4.7911">
        <ele>230</ele>
        <time>2018-09-09T08:57:16Z</time>
      </trkpt>
      <trkpt lat="45.87853" lon="4.79115">
        <ele>230</ele>
        <time>2018-09-09T08:57:17Z</time>
      </trkpt>
      <trkpt lat="45.87855" lon="4.79126">
        <ele>230</ele>
        <time>2018-09-09T08:57:19Z</time>
      </trkpt>
      <trkpt lat="45.87856" lon="4.79128">
        <ele>230</ele>
        <time>2018-09-09T08:57:20Z</time>
      </trkpt>
      <trkpt lat="45.87858" lon="4.79139">
        <ele>230</ele>
        <time>2018-09-09T08:57:22Z</time>
      </trkpt>
      <trkpt lat="45.8786" lon="4.79146">
        <ele>231</ele>
        <time>2018-09-09T08:57:23Z</time>
      </trkpt>
      <trkpt lat="45.87861" lon="4.79152">
        <ele>231</ele>
        <time>2018-09-09T08:57:25Z</time>
      </trkpt>
      <trkpt lat="45.87862" lon="4.79162">
        <ele>231</ele>
        <time>2018-09-09T08:57:26Z</time>
      </trkpt>
      <trkpt lat="45.87863" lon="4.79174">
        <ele>233</ele>
        <time>2018-09-09T08:57:29Z</time>
      </trkpt>
      <trkpt lat="45.87864" lon="4.79183">
        <ele>233</ele>
        <time>2018-09-09T08:57:30Z</time>
      </trkpt>
      <trkpt lat="45.87866" lon="4.79194">
        <ele>233</ele>
        <time>2018-09-09T08:57:32Z</time>
      </trkpt>
      <trkpt lat="45.87867" lon="4.792">
        <ele>233</ele>
        <time>2018-09-09T08:57:33Z</time>
      </trkpt>
      <trkpt lat="45.87869" lon="4.79212">
        <ele>233</ele>
        <time>2018-09-09T08:57:35Z</time>
      </trkpt>
      <trkpt lat="45.8787" lon="4.79218">
        <ele>233</ele>
        <time>2018-09-09T08:57:36Z</time>
      </trkpt>
      <trkpt lat="45.87874" lon="4.79229">
        <ele>233</ele>
        <time>2018-09-09T08:57:38Z</time>
      </trkpt>
      <trkpt lat="45.87875" lon="4.79235">
        <ele>233</ele>
        <time>2018-09-09T08:57:39Z</time>
      </trkpt>
      <trkpt lat="45.87876" lon="4.79244">
        <ele>233</ele>
        <time>2018-09-09T08:57:42Z</time>
      </trkpt>
      <trkpt lat="45.87877" lon="4.79248">
        <ele>233</ele>
        <time>2018-09-09T08:57:43Z</time>
      </trkpt>
      <trkpt lat="45.87877" lon="4.79252">
        <ele>236</ele>
        <time>2018-09-09T08:57:44Z</time>
      </trkpt>
      <trkpt lat="45.87879" lon="4.79264">
        <ele>236</ele>
        <time>2018-09-09T08:57:45Z</time>
      </trkpt>
      <trkpt lat="45.8788" lon="4.7927">
        <ele>236</ele>
        <time>2018-09-09T08:57:47Z</time>
      </trkpt>
      <trkpt lat="45.87881" lon="4.79279">
        <ele>236</ele>
        <time>2018-09-09T08:57:48Z</time>
      </trkpt>
      <trkpt lat="45.87881" lon="4.79291">
        <ele>237</ele>
        <time>2018-09-09T08:57:51Z</time>
      </trkpt>
      <trkpt lat="45.87882" lon="4.79294">
        <ele>237</ele>
        <time>2018-09-09T08:57:52Z</time>
      </trkpt>
      <trkpt lat="45.87883" lon="4.79305">
        <ele>237</ele>
        <time>2018-09-09T08:57:53Z</time>
      </trkpt>
      <trkpt lat="45.87884" lon="4.79311">
        <ele>237</ele>
        <time>2018-09-09T08:57:54Z</time>
      </trkpt>
      <trkpt lat="45.87886" lon="4.79319">
        <ele>237</ele>
        <time>2018-09-09T08:57:56Z</time>
      </trkpt>
      <trkpt lat="45.87887" lon="4.79326">
        <ele>237</ele>
        <time>2018-09-09T08:57:57Z</time>
      </trkpt>
      <trkpt lat="45.87888" lon="4.79336">
        <ele>240</ele>
        <time>2018-09-09T08:58:00Z</time>
      </trkpt>
      <trkpt lat="45.87888" lon="4.7934">
        <ele>240</ele>
        <time>2018-09-09T08:58:01Z</time>
      </trkpt>
      <trkpt lat="45.87888" lon="4.79343">
        <ele>240</ele>
        <time>2018-09-09T08:58:02Z</time>
      </trkpt>
      <trkpt lat="45.8789" lon="4.79355">
        <ele>240</ele>
        <time>2018-09-09T08:58:03Z</time>
      </trkpt>
      <trkpt lat="45.87891" lon="4.79361">
        <ele>240</ele>
        <time>2018-09-09T08:58:05Z</time>
      </trkpt>
      <trkpt lat="45.87893" lon="4.79369">
        <ele>241</ele>
        <time>2018-09-09T08:58:06Z</time>
      </trkpt>
      <trkpt lat="45.87893" lon="4.79377">
        <ele>241</ele>
        <time>2018-09-09T08:58:09Z</time>
      </trkpt>
      <trkpt lat="45.87896" lon="4.79388">
        <ele>241</ele>
        <time>2018-09-09T08:58:10Z</time>
      </trkpt>
      <trkpt lat="45.87897" lon="4.79396">
        <ele>241</ele>
        <time>2018-09-09T08:58:12Z</time>
      </trkpt>
      <trkpt lat="45.87899" lon="4.79404">
        <ele>241</ele>
        <time>2018-09-09T08:58:13Z</time>
      </trkpt>
      <trkpt lat="45.879" lon="4.79415">
        <ele>240</ele>
        <time>2018-09-09T08:58:16Z</time>
      </trkpt>
      <trkpt lat="45.879" lon="4.79419">
        <ele>243</ele>
        <time>2018-09-09T08:58:17Z</time>
      </trkpt>
      <trkpt lat="45.87903" lon="4.7943">
        <ele>243</ele>
        <time>2018-09-09T08:58:20Z</time>
      </trkpt>
      <trkpt lat="45.87905" lon="4.79443">
        <ele>245</ele>
        <time>2018-09-09T08:58:21Z</time>
      </trkpt>
      <trkpt lat="45.87907" lon="4.79453">
        <ele>246</ele>
        <time>2018-09-09T08:58:23Z</time>
      </trkpt>
      <trkpt lat="45.87909" lon="4.79458">
        <ele>246</ele>
        <time>2018-09-09T08:58:24Z</time>
      </trkpt>
      <trkpt lat="45.87912" lon="4.7947">
        <ele>246</ele>
        <time>2018-09-09T08:58:26Z</time>
      </trkpt>
      <trkpt lat="45.87914" lon="4.79475">
        <ele>246</ele>
        <time>2018-09-09T08:58:27Z</time>
      </trkpt>
      <trkpt lat="45.87918" lon="4.79487">
        <ele>241</ele>
        <time>2018-09-09T08:58:29Z</time>
      </trkpt>
      <trkpt lat="45.8792" lon="4.79492">
        <ele>242</ele>
        <time>2018-09-09T08:58:30Z</time>
      </trkpt>
      <trkpt lat="45.87922" lon="4.79503">
        <ele>244</ele>
        <time>2018-09-09T08:58:32Z</time>
      </trkpt>
      <trkpt lat="45.87923" lon="4.79505">
        <ele>243</ele>
        <time>2018-09-09T08:58:33Z</time>
      </trkpt>
      <trkpt lat="45.87925" lon="4.79514">
        <ele>242</ele>
        <time>2018-09-09T08:58:34Z</time>
      </trkpt>
      <trkpt lat="45.87927" lon="4.79519">
        <ele>242</ele>
        <time>2018-09-09T08:58:35Z</time>
      </trkpt>
      <trkpt lat="45.8793" lon="4.79531">
        <ele>241</ele>
        <time>2018-09-09T08:58:37Z</time>
      </trkpt>
      <trkpt lat="45.87933" lon="4.79536">
        <ele>241</ele>
        <time>2018-09-09T08:58:38Z</time>
      </trkpt>
      <trkpt lat="45.87936" lon="4.79544">
        <ele>240</ele>
        <time>2018-09-09T08:58:39Z</time>
      </trkpt>
      <trkpt lat="45.87939" lon="4.79555">
        <ele>241</ele>
        <time>2018-09-09T08:58:40Z</time>
      </trkpt>
      <trkpt lat="45.87942" lon="4.79562">
        <ele>240</ele>
        <time>2018-09-09T08:58:41Z</time>
      </trkpt>
      <trkpt lat="45.87944" lon="4.79569">
        <ele>241</ele>
        <time>2018-09-09T08:58:42Z</time>
      </trkpt>
      <trkpt lat="45.87948" lon="4.79579">
        <ele>240</ele>
        <time>2018-09-09T08:58:43Z</time>
      </trkpt>
      <trkpt lat="45.87949" lon="4.79588">
        <ele>241</ele>
        <time>2018-09-09T08:58:44Z</time>
      </trkpt>
      <trkpt lat="45.87951" lon="4.79595">
        <ele>240</ele>
        <time>2018-09-09T08:58:45Z</time>
      </trkpt>
      <trkpt lat="45.87954" lon="4.79605">
        <ele>240</ele>
        <time>2018-09-09T08:58:46Z</time>
      </trkpt>
      <trkpt lat="45.87957" lon="4.79612">
        <ele>240</ele>
        <time>2018-09-09T08:58:47Z</time>
      </trkpt>
      <trkpt lat="45.87962" lon="4.79622">
        <ele>239</ele>
        <time>2018-09-09T08:58:48Z</time>
      </trkpt>
      <trkpt lat="45.87968" lon="4.79634">
        <ele>239</ele>
        <time>2018-09-09T08:58:49Z</time>
      </trkpt>
      <trkpt lat="45.8797" lon="4.79649">
        <ele>239</ele>
        <time>2018-09-09T08:58:50Z</time>
      </trkpt>
      <trkpt lat="45.87976" lon="4.79664">
        <ele>238</ele>
        <time>2018-09-09T08:58:51Z</time>
      </trkpt>
      <trkpt lat="45.8798" lon="4.79669">
        <ele>240</ele>
        <time>2018-09-09T08:58:53Z</time>
      </trkpt>
      <trkpt lat="45.87982" lon="4.7968">
        <ele>240</ele>
        <time>2018-09-09T08:58:54Z</time>
      </trkpt>
      <trkpt lat="45.87985" lon="4.79683">
        <ele>240</ele>
        <time>2018-09-09T08:58:55Z</time>
      </trkpt>
      <trkpt lat="45.87992" lon="4.79694">
        <ele>240</ele>
        <time>2018-09-09T08:58:56Z</time>
      </trkpt>
      <trkpt lat="45.87996" lon="4.797">
        <ele>241</ele>
        <time>2018-09-09T08:58:57Z</time>
      </trkpt>
      <trkpt lat="45.87998" lon="4.79704">
        <ele>241</ele>
        <time>2018-09-09T08:58:58Z</time>
      </trkpt>
      <trkpt lat="45.88002" lon="4.79708">
        <ele>236</ele>
        <time>2018-09-09T08:58:59Z</time>
      </trkpt>
      <trkpt lat="45.88005" lon="4.79714">
        <ele>236</ele>
        <time>2018-09-09T08:59:00Z</time>
      </trkpt>
      <trkpt lat="45.88007" lon="4.7972">
        <ele>237</ele>
        <time>2018-09-09T08:59:01Z</time>
      </trkpt>
      <trkpt lat="45.8801" lon="4.79724">
        <ele>237</ele>
        <time>2018-09-09T08:59:02Z</time>
      </trkpt>
      <trkpt lat="45.88013" lon="4.79733">
        <ele>238</ele>
        <time>2018-09-09T08:59:05Z</time>
      </trkpt>
      <trkpt lat="45.88014" lon="4.79736">
        <ele>238</ele>
        <time>2018-09-09T08:59:06Z</time>
      </trkpt>
      <trkpt lat="45.88018" lon="4.79746">
        <ele>238</ele>
        <time>2018-09-09T08:59:09Z</time>
      </trkpt>
      <trkpt lat="45.88019" lon="4.7975">
        <ele>238</ele>
        <time>2018-09-09T08:59:10Z</time>
      </trkpt>
      <trkpt lat="45.88022" lon="4.79758">
        <ele>241</ele>
        <time>2018-09-09T08:59:12Z</time>
      </trkpt>
      <trkpt lat="45.88023" lon="4.79762">
        <ele>241</ele>
        <time>2018-09-09T08:59:13Z</time>
      </trkpt>
      <trkpt lat="45.88025" lon="4.79771">
        <ele>241</ele>
        <time>2018-09-09T08:59:15Z</time>
      </trkpt>
      <trkpt lat="45.88026" lon="4.79775">
        <ele>242</ele>
        <time>2018-09-09T08:59:16Z</time>
      </trkpt>
      <trkpt lat="45.88027" lon="4.79784">
        <ele>242</ele>
        <time>2018-09-09T08:59:18Z</time>
      </trkpt>
      <trkpt lat="45.88028" lon="4.79789">
        <ele>242</ele>
        <time>2018-09-09T08:59:19Z</time>
      </trkpt>
      <trkpt lat="45.88029" lon="4.79798">
        <ele>242</ele>
        <time>2018-09-09T08:59:21Z</time>
      </trkpt>
      <trkpt lat="45.8803" lon="4.79802">
        <ele>242</ele>
        <time>2018-09-09T08:59:22Z</time>
      </trkpt>
      <trkpt lat="45.88031" lon="4.79811">
        <ele>243</ele>
        <time>2018-09-09T08:59:24Z</time>
      </trkpt>
      <trkpt lat="45.88032" lon="4.79815">
        <ele>243</ele>
        <time>2018-09-09T08:59:25Z</time>
      </trkpt>
      <trkpt lat="45.88032" lon="4.79824">
        <ele>243</ele>
        <time>2018-09-09T08:59:27Z</time>
      </trkpt>
      <trkpt lat="45.88033" lon="4.7984">
        <ele>247</ele>
        <time>2018-09-09T08:59:28Z</time>
      </trkpt>
      <trkpt lat="45.88033" lon="4.79853">
        <ele>247</ele>
        <time>2018-09-09T08:59:32Z</time>
      </trkpt>
      <trkpt lat="45.88032" lon="4.79856">
        <ele>247</ele>
        <time>2018-09-09T08:59:33Z</time>
      </trkpt>
      <trkpt lat="45.88031" lon="4.79868">
        <ele>247</ele>
        <time>2018-09-09T08:59:36Z</time>
      </trkpt>
      <trkpt lat="45.8803" lon="4.79872">
        <ele>247</ele>
        <time>2018-09-09T08:59:37Z</time>
      </trkpt>
      <trkpt lat="45.88029" lon="4.7988">
        <ele>247</ele>
        <time>2018-09-09T08:59:39Z</time>
      </trkpt>
      <trkpt lat="45.88027" lon="4.79893">
        <ele>248</ele>
        <time>2018-09-09T08:59:40Z</time>
      </trkpt>
      <trkpt lat="45.88025" lon="4.79899">
        <ele>248</ele>
        <time>2018-09-09T08:59:42Z</time>
      </trkpt>
      <trkpt lat="45.88023" lon="4.79907">
        <ele>248</ele>
        <time>2018-09-09T08:59:43Z</time>
      </trkpt>
      <trkpt lat="45.88019" lon="4.79917">
        <ele>250</ele>
        <time>2018-09-09T08:59:47Z</time>
      </trkpt>
      <trkpt lat="45.88018" lon="4.7992">
        <ele>250</ele>
        <time>2018-09-09T08:59:48Z</time>
      </trkpt>
      <trkpt lat="45.88015" lon="4.79931">
        <ele>250</ele>
        <time>2018-09-09T08:59:51Z</time>
      </trkpt>
      <trkpt lat="45.88013" lon="4.79935">
        <ele>250</ele>
        <time>2018-09-09T08:59:52Z</time>
      </trkpt>
      <trkpt lat="45.8801" lon="4.79946">
        <ele>250</ele>
        <time>2018-09-09T08:59:55Z</time>
      </trkpt>
      <trkpt lat="45.88009" lon="4.7995">
        <ele>250</ele>
        <time>2018-09-09T08:59:56Z</time>
      </trkpt>
      <trkpt lat="45.88006" lon="4.7996">
        <ele>250</ele>
        <time>2018-09-09T08:59:59Z</time>
      </trkpt>
      <trkpt lat="45.88004" lon="4.79965">
        <ele>250</ele>
        <time>2018-09-09T09:00:00Z</time>
      </trkpt>
      <trkpt lat="45.88002" lon="4.79973">
        <ele>250</ele>
        <time>2018-09-09T09:00:02Z</time>
      </trkpt>
      <trkpt lat="45.88001" lon="4.79977">
        <ele>250</ele>
        <time>2018-09-09T09:00:03Z</time>
      </trkpt>
      <trkpt lat="45.87998" lon="4.79988">
        <ele>253</ele>
        <time>2018-09-09T09:00:06Z</time>
      </trkpt>
      <trkpt lat="45.87997" lon="4.79992">
        <ele>252</ele>
        <time>2018-09-09T09:00:07Z</time>
      </trkpt>
      <trkpt lat="45.87993" lon="4.80001">
        <ele>253</ele>
        <time>2018-09-09T09:00:10Z</time>
      </trkpt>
      <trkpt lat="45.87991" lon="4.80004">
        <ele>253</ele>
        <time>2018-09-09T09:00:11Z</time>
      </trkpt>
      <trkpt lat="45.87987" lon="4.80014">
        <ele>254</ele>
        <time>2018-09-09T09:00:14Z</time>
      </trkpt>
      <trkpt lat="45.87985" lon="4.80018">
        <ele>255</ele>
        <time>2018-09-09T09:00:15Z</time>
      </trkpt>
      <trkpt lat="45.87981" lon="4.80026">
        <ele>255</ele>
        <time>2018-09-09T09:00:17Z</time>
      </trkpt>
      <trkpt lat="45.87979" lon="4.80029">
        <ele>256</ele>
        <time>2018-09-09T09:00:18Z</time>
      </trkpt>
      <trkpt lat="45.87973" lon="4.80038">
        <ele>256</ele>
        <time>2018-09-09T09:00:21Z</time>
      </trkpt>
      <trkpt lat="45.87971" lon="4.80041">
        <ele>256</ele>
        <time>2018-09-09T09:00:22Z</time>
      </trkpt>
      <trkpt lat="45.87965" lon="4.80049">
        <ele>257</ele>
        <time>2018-09-09T09:00:25Z</time>
      </trkpt>
      <trkpt lat="45.87962" lon="4.80052">
        <ele>257</ele>
        <time>2018-09-09T09:00:26Z</time>
      </trkpt>
      <trkpt lat="45.87955" lon="4.80063">
        <ele>257</ele>
        <time>2018-09-09T09:00:27Z</time>
      </trkpt>
      <trkpt lat="45.87949" lon="4.8007">
        <ele>258</ele>
        <time>2018-09-09T09:00:31Z</time>
      </trkpt>
      <trkpt lat="45.87947" lon="4.80071">
        <ele>258</ele>
        <time>2018-09-09T09:00:32Z</time>
      </trkpt>
      <trkpt lat="45.8794" lon="4.80075">
        <ele>259</ele>
        <time>2018-09-09T09:00:33Z</time>
      </trkpt>
      <trkpt lat="45.87938" lon="4.80076">
        <ele>259</ele>
        <time>2018-09-09T09:00:34Z</time>
      </trkpt>
      <trkpt lat="45.87931" lon="4.80079">
        <ele>260</ele>
        <time>2018-09-09T09:00:37Z</time>
      </trkpt>
      <trkpt lat="45.87929" lon="4.8008">
        <ele>260</ele>
        <time>2018-09-09T09:00:38Z</time>
      </trkpt>
      <trkpt lat="45.87922" lon="4.80084">
        <ele>261</ele>
        <time>2018-09-09T09:00:41Z</time>
      </trkpt>
      <trkpt lat="45.87919" lon="4.80086">
        <ele>261</ele>
        <time>2018-09-09T09:00:42Z</time>
      </trkpt>
      <trkpt lat="45.87913" lon="4.8009">
        <ele>262</ele>
        <time>2018-09-09T09:00:44Z</time>
      </trkpt>
      <trkpt lat="45.8791" lon="4.80092">
        <ele>262</ele>
        <time>2018-09-09T09:00:45Z</time>
      </trkpt>
      <trkpt lat="45.87907" lon="4.80094">
        <ele>262</ele>
        <time>2018-09-09T09:00:46Z</time>
      </trkpt>
      <trkpt lat="45.87899" lon="4.80103">
        <ele>263</ele>
        <time>2018-09-09T09:00:47Z</time>
      </trkpt>
      <trkpt lat="45.87894" lon="4.80113">
        <ele>262</ele>
        <time>2018-09-09T09:00:49Z</time>
      </trkpt>
      <trkpt lat="45.87892" lon="4.80118">
        <ele>262</ele>
        <time>2018-09-09T09:00:50Z</time>
      </trkpt>
      <trkpt lat="45.8789" lon="4.80124">
        <ele>262</ele>
        <time>2018-09-09T09:00:51Z</time>
      </trkpt>
      <trkpt lat="45.87891" lon="4.80133">
        <ele>262</ele>
        <time>2018-09-09T09:00:52Z</time>
      </trkpt>
      <trkpt lat="45.87891" lon="4.80143">
        <ele>262</ele>
        <time>2018-09-09T09:00:53Z</time>
      </trkpt>
      <trkpt lat="45.87892" lon="4.8015">
        <ele>261</ele>
        <time>2018-09-09T09:00:54Z</time>
      </trkpt>
      <trkpt lat="45.87891" lon="4.80159">
        <ele>261</ele>
        <time>2018-09-09T09:00:55Z</time>
      </trkpt>
      <trkpt lat="45.87891" lon="4.80169">
        <ele>258</ele>
        <time>2018-09-09T09:00:56Z</time>
      </trkpt>
      <trkpt lat="45.8789" lon="4.80176">
        <ele>257</ele>
        <time>2018-09-09T09:00:57Z</time>
      </trkpt>
      <trkpt lat="45.87891" lon="4.80189">
        <ele>257</ele>
        <time>2018-09-09T09:00:58Z</time>
      </trkpt>
      <trkpt lat="45.8789" lon="4.802">
        <ele>257</ele>
        <time>2018-09-09T09:00:59Z</time>
      </trkpt>
      <trkpt lat="45.8789" lon="4.8021">
        <ele>256</ele>
        <time>2018-09-09T09:01:00Z</time>
      </trkpt>
      <trkpt lat="45.8789" lon="4.80223">
        <ele>256</ele>
        <time>2018-09-09T09:01:01Z</time>
      </trkpt>
      <trkpt lat="45.87891" lon="4.80233">
        <ele>255</ele>
        <time>2018-09-09T09:01:02Z</time>
      </trkpt>
      <trkpt lat="45.87891" lon="4.80247">
        <ele>255</ele>
        <time>2018-09-09T09:01:03Z</time>
      </trkpt>
      <trkpt lat="45.8789" lon="4.80257">
        <ele>252</ele>
        <time>2018-09-09T09:01:04Z</time>
      </trkpt>
      <trkpt lat="45.87888" lon="4.80269">
        <ele>252</ele>
        <time>2018-09-09T09:01:05Z</time>
      </trkpt>
      <trkpt lat="45.87886" lon="4.80282">
        <ele>252</ele>
        <time>2018-09-09T09:01:06Z</time>
      </trkpt>
      <trkpt lat="45.87884" lon="4.80296">
        <ele>252</ele>
        <time>2018-09-09T09:01:07Z</time>
      </trkpt>
      <trkpt lat="45.87882" lon="4.80312">
        <ele>252</ele>
        <time>2018-09-09T09:01:08Z</time>
      </trkpt>
      <trkpt lat="45.87882" lon="4.80322">
        <ele>252</ele>
        <time>2018-09-09T09:01:09Z</time>
      </trkpt>
      <trkpt lat="45.8788" lon="4.80333">
        <ele>252</ele>
        <time>2018-09-09T09:01:10Z</time>
      </trkpt>
      <trkpt lat="45.87881" lon="4.80343">
        <ele>249</ele>
        <time>2018-09-09T09:01:11Z</time>
      </trkpt>
      <trkpt lat="45.87881" lon="4.80354">
        <ele>249</ele>
        <time>2018-09-09T09:01:12Z</time>
      </trkpt>
      <trkpt lat="45.8788" lon="4.80363">
        <ele>249</ele>
        <time>2018-09-09T09:01:13Z</time>
      </trkpt>
      <trkpt lat="45.8788" lon="4.80372">
        <ele>249</ele>
        <time>2018-09-09T09:01:14Z</time>
      </trkpt>
      <trkpt lat="45.87879" lon="4.80378">
        <ele>249</ele>
        <time>2018-09-09T09:01:15Z</time>
      </trkpt>
      <trkpt lat="45.87878" lon="4.80386">
        <ele>249</ele>
        <time>2018-09-09T09:01:16Z</time>
      </trkpt>
      <trkpt lat="45.87877" lon="4.80394">
        <ele>248</ele>
        <time>2018-09-09T09:01:17Z</time>
      </trkpt>
      <trkpt lat="45.87876" lon="4.80401">
        <ele>248</ele>
        <time>2018-09-09T09:01:18Z</time>
      </trkpt>
      <trkpt lat="45.87875" lon="4.80408">
        <ele>248</ele>
        <time>2018-09-09T09:01:19Z</time>
      </trkpt>
      <trkpt lat="45.87875" lon="4.80416">
        <ele>248</ele>
        <time>2018-09-09T09:01:20Z</time>
      </trkpt>
      <trkpt lat="45.87875" lon="4.80427">
        <ele>247</ele>
        <time>2018-09-09T09:01:23Z</time>
      </trkpt>
      <trkpt lat="45.87874" lon="4.80436">
        <ele>248</ele>
        <time>2018-09-09T09:01:24Z</time>
      </trkpt>
      <trkpt lat="45.87874" lon="4.80447">
        <ele>248</ele>
        <time>2018-09-09T09:01:26Z</time>
      </trkpt>
      <trkpt lat="45.87874" lon="4.80453">
        <ele>248</ele>
        <time>2018-09-09T09:01:27Z</time>
      </trkpt>
      <trkpt lat="45.87873" lon="4.80464">
        <ele>248</ele>
        <time>2018-09-09T09:01:29Z</time>
      </trkpt>
      <trkpt lat="45.87873" lon="4.8047">
        <ele>248</ele>
        <time>2018-09-09T09:01:30Z</time>
      </trkpt>
      <trkpt lat="45.87873" lon="4.80482">
        <ele>248</ele>
        <time>2018-09-09T09:01:32Z</time>
      </trkpt>
      <trkpt lat="45.87872" lon="4.80484">
        <ele>248</ele>
        <time>2018-09-09T09:01:33Z</time>
      </trkpt>
      <trkpt lat="45.8787" lon="4.80496">
        <ele>249</ele>
        <time>2018-09-09T09:01:36Z</time>
      </trkpt>
      <trkpt lat="45.8787" lon="4.805">
        <ele>249</ele>
        <time>2018-09-09T09:01:37Z</time>
      </trkpt>
      <trkpt lat="45.87869" lon="4.8051">
        <ele>251</ele>
        <time>2018-09-09T09:01:40Z</time>
      </trkpt>
      <trkpt lat="45.87869" lon="4.80514">
        <ele>251</ele>
        <time>2018-09-09T09:01:41Z</time>
      </trkpt>
      <trkpt lat="45.87868" lon="4.80525">
        <ele>251</ele>
        <time>2018-09-09T09:01:44Z</time>
      </trkpt>
      <trkpt lat="45.87867" lon="4.8053">
        <ele>251</ele>
        <time>2018-09-09T09:01:45Z</time>
      </trkpt>
      <trkpt lat="45.87866" lon="4.80542">
        <ele>251</ele>
        <time>2018-09-09T09:01:48Z</time>
      </trkpt>
      <trkpt lat="45.87865" lon="4.80546">
        <ele>251</ele>
        <time>2018-09-09T09:01:49Z</time>
      </trkpt>
      <trkpt lat="45.87864" lon="4.80555">
        <ele>251</ele>
        <time>2018-09-09T09:01:51Z</time>
      </trkpt>
      <trkpt lat="45.87864" lon="4.8056">
        <ele>251</ele>
        <time>2018-09-09T09:01:52Z</time>
      </trkpt>
      <trkpt lat="45.87863" lon="4.80569">
        <ele>252</ele>
        <time>2018-09-09T09:01:54Z</time>
      </trkpt>
      <trkpt lat="45.87862" lon="4.80574">
        <ele>252</ele>
        <time>2018-09-09T09:01:55Z</time>
      </trkpt>
      <trkpt lat="45.87861" lon="4.80583">
        <ele>252</ele>
        <time>2018-09-09T09:01:57Z</time>
      </trkpt>
      <trkpt lat="45.87861" lon="4.80587">
        <ele>254</ele>
        <time>2018-09-09T09:01:58Z</time>
      </trkpt>
      <trkpt lat="45.87861" lon="4.80596">
        <ele>254</ele>
        <time>2018-09-09T09:02:00Z</time>
      </trkpt>
      <trkpt lat="45.87861" lon="4.806">
        <ele>254</ele>
        <time>2018-09-09T09:02:01Z</time>
      </trkpt>
      <trkpt lat="45.8786" lon="4.80613">
        <ele>255</ele>
        <time>2018-09-09T09:02:04Z</time>
      </trkpt>
      <trkpt lat="45.87861" lon="4.80618">
        <ele>255</ele>
        <time>2018-09-09T09:02:05Z</time>
      </trkpt>
      <trkpt lat="45.87861" lon="4.80627">
        <ele>255</ele>
        <time>2018-09-09T09:02:07Z</time>
      </trkpt>
      <trkpt lat="45.87861" lon="4.80631">
        <ele>255</ele>
        <time>2018-09-09T09:02:08Z</time>
      </trkpt>
      <trkpt lat="45.87861" lon="4.80643">
        <ele>256</ele>
        <time>2018-09-09T09:02:11Z</time>
      </trkpt>
      <trkpt lat="45.87861" lon="4.80647">
        <ele>256</ele>
        <time>2018-09-09T09:02:12Z</time>
      </trkpt>
      <trkpt lat="45.87861" lon="4.8066">
        <ele>256</ele>
        <time>2018-09-09T09:02:15Z</time>
      </trkpt>
      <trkpt lat="45.87862" lon="4.80664">
        <ele>256</ele>
        <time>2018-09-09T09:02:16Z</time>
      </trkpt>
      <trkpt lat="45.87862" lon="4.80673">
        <ele>257</ele>
        <time>2018-09-09T09:02:18Z</time>
      </trkpt>
      <trkpt lat="45.87862" lon="4.80678">
        <ele>257</ele>
        <time>2018-09-09T09:02:19Z</time>
      </trkpt>
      <trkpt lat="45.87862" lon="4.80687">
        <ele>257</ele>
        <time>2018-09-09T09:02:21Z</time>
      </trkpt>
      <trkpt lat="45.87863" lon="4.80692">
        <ele>257</ele>
        <time>2018-09-09T09:02:22Z</time>
      </trkpt>
      <trkpt lat="45.87864" lon="4.80709">
        <ele>257</ele>
        <time>2018-09-09T09:02:23Z</time>
      </trkpt>
      <trkpt lat="45.87863" lon="4.80718">
        <ele>257</ele>
        <time>2018-09-09T09:02:26Z</time>
      </trkpt>
      <trkpt lat="45.87863" lon="4.80722">
        <ele>257</ele>
        <time>2018-09-09T09:02:27Z</time>
      </trkpt>
      <trkpt lat="45.87862" lon="4.80726">
        <ele>257</ele>
        <time>2018-09-09T09:02:28Z</time>
      </trkpt>
      <trkpt lat="45.87858" lon="4.80738">
        <ele>257</ele>
        <time>2018-09-09T09:02:29Z</time>
      </trkpt>
      <trkpt lat="45.87855" lon="4.80749">
        <ele>257</ele>
        <time>2018-09-09T09:02:31Z</time>
      </trkpt>
      <trkpt lat="45.87854" lon="4.80751">
        <ele>256</ele>
        <time>2018-09-09T09:02:32Z</time>
      </trkpt>
      <trkpt lat="45.87853" lon="4.80758">
        <ele>256</ele>
        <time>2018-09-09T09:02:34Z</time>
      </trkpt>
      <trkpt lat="45.87849" lon="4.80768">
        <ele>256</ele>
        <time>2018-09-09T09:02:35Z</time>
      </trkpt>
      <trkpt lat="45.87844" lon="4.80777">
        <ele>256</ele>
        <time>2018-09-09T09:02:37Z</time>
      </trkpt>
      <trkpt lat="45.87841" lon="4.80781">
        <ele>256</ele>
        <time>2018-09-09T09:02:38Z</time>
      </trkpt>
      <trkpt lat="45.87838" lon="4.80786">
        <ele>255</ele>
        <time>2018-09-09T09:02:39Z</time>
      </trkpt>
      <trkpt lat="45.87834" lon="4.8079">
        <ele>255</ele>
        <time>2018-09-09T09:02:40Z</time>
      </trkpt>
      <trkpt lat="45.87831" lon="4.80795">
        <ele>257</ele>
        <time>2018-09-09T09:02:41Z</time>
      </trkpt>
      <trkpt lat="45.87826" lon="4.80798">
        <ele>256</ele>
        <time>2018-09-09T09:02:42Z</time>
      </trkpt>
      <trkpt lat="45.87825" lon="4.8081">
        <ele>256</ele>
        <time>2018-09-09T09:02:43Z</time>
      </trkpt>
      <trkpt lat="45.87822" lon="4.80817">
        <ele>256</ele>
        <time>2018-09-09T09:02:44Z</time>
      </trkpt>
      <trkpt lat="45.87817" lon="4.80818">
        <ele>256</ele>
        <time>2018-09-09T09:02:45Z</time>
      </trkpt>
      <trkpt lat="45.87812" lon="4.80821">
        <ele>256</ele>
        <time>2018-09-09T09:02:46Z</time>
      </trkpt>
      <trkpt lat="45.87809" lon="4.80831">
        <ele>256</ele>
        <time>2018-09-09T09:02:47Z</time>
      </trkpt>
      <trkpt lat="45.87803" lon="4.80834">
        <ele>254</ele>
        <time>2018-09-09T09:02:48Z</time>
      </trkpt>
      <trkpt lat="45.87799" lon="4.80841">
        <ele>254</ele>
        <time>2018-09-09T09:02:49Z</time>
      </trkpt>
      <trkpt lat="45.87793" lon="4.80842">
        <ele>254</ele>
        <time>2018-09-09T09:02:50Z</time>
      </trkpt>
      <trkpt lat="45.87788" lon="4.80842">
        <ele>254</ele>
        <time>2018-09-09T09:02:51Z</time>
      </trkpt>
      <trkpt lat="45.87784" lon="4.80854">
        <ele>254</ele>
        <time>2018-09-09T09:02:52Z</time>
      </trkpt>
      <trkpt lat="45.87779" lon="4.8086">
        <ele>253</ele>
        <time>2018-09-09T09:02:53Z</time>
      </trkpt>
      <trkpt lat="45.87775" lon="4.80869">
        <ele>253</ele>
        <time>2018-09-09T09:02:54Z</time>
      </trkpt>
      <trkpt lat="45.87773" lon="4.80881">
        <ele>253</ele>
        <time>2018-09-09T09:02:55Z</time>
      </trkpt>
      <trkpt lat="45.8777" lon="4.80893">
        <ele>252</ele>
        <time>2018-09-09T09:02:56Z</time>
      </trkpt>
      <trkpt lat="45.87766" lon="4.809">
        <ele>252</ele>
        <time>2018-09-09T09:02:57Z</time>
      </trkpt>
      <trkpt lat="45.87762" lon="4.8091">
        <ele>251</ele>
        <time>2018-09-09T09:02:58Z</time>
      </trkpt>
      <trkpt lat="45.87758" lon="4.80916">
        <ele>251</ele>
        <time>2018-09-09T09:02:59Z</time>
      </trkpt>
      <trkpt lat="45.87755" lon="4.80928">
        <ele>249</ele>
        <time>2018-09-09T09:03:00Z</time>
      </trkpt>
      <trkpt lat="45.87754" lon="4.80941">
        <ele>249</ele>
        <time>2018-09-09T09:03:01Z</time>
      </trkpt>
      <trkpt lat="45.87752" lon="4.80953">
        <ele>249</ele>
        <time>2018-09-09T09:03:02Z</time>
      </trkpt>
      <trkpt lat="45.87752" lon="4.80965">
        <ele>249</ele>
        <time>2018-09-09T09:03:03Z</time>
      </trkpt>
      <trkpt lat="45.87752" lon="4.80974">
        <ele>249</ele>
        <time>2018-09-09T09:03:04Z</time>
      </trkpt>
      <trkpt lat="45.87752" lon="4.80986">
        <ele>249</ele>
        <time>2018-09-09T09:03:05Z</time>
      </trkpt>
      <trkpt lat="45.87752" lon="4.80996">
        <ele>249</ele>
        <time>2018-09-09T09:03:06Z</time>
      </trkpt>
      <trkpt lat="45.87752" lon="4.81005">
        <ele>248</ele>
        <time>2018-09-09T09:03:07Z</time>
      </trkpt>
      <trkpt lat="45.87751" lon="4.81015">
        <ele>247</ele>
        <time>2018-09-09T09:03:08Z</time>
      </trkpt>
      <trkpt lat="45.87751" lon="4.81025">
        <ele>246</ele>
        <time>2018-09-09T09:03:09Z</time>
      </trkpt>
      <trkpt lat="45.87749" lon="4.81037">
        <ele>249</ele>
        <time>2018-09-09T09:03:10Z</time>
      </trkpt>
      <trkpt lat="45.87748" lon="4.81046">
        <ele>249</ele>
        <time>2018-09-09T09:03:11Z</time>
      </trkpt>
      <trkpt lat="45.87748" lon="4.81058">
        <ele>248</ele>
        <time>2018-09-09T09:03:12Z</time>
      </trkpt>
      <trkpt lat="45.87748" lon="4.81072">
        <ele>247</ele>
        <time>2018-09-09T09:03:13Z</time>
      </trkpt>
      <trkpt lat="45.87746" lon="4.81087">
        <ele>246</ele>
        <time>2018-09-09T09:03:14Z</time>
      </trkpt>
      <trkpt lat="45.87746" lon="4.81098">
        <ele>246</ele>
        <time>2018-09-09T09:03:15Z</time>
      </trkpt>
      <trkpt lat="45.87742" lon="4.81117">
        <ele>245</ele>
        <time>2018-09-09T09:03:16Z</time>
      </trkpt>
      <trkpt lat="45.87732" lon="4.81109">
        <ele>246</ele>
        <time>2018-09-09T09:03:17Z</time>
      </trkpt>
      <trkpt lat="45.87726" lon="4.81115">
        <ele>246</ele>
        <time>2018-09-09T09:03:18Z</time>
      </trkpt>
      <trkpt lat="45.87722" lon="4.81123">
        <ele>246</ele>
        <time>2018-09-09T09:03:19Z</time>
      </trkpt>
      <trkpt lat="45.87717" lon="4.81128">
        <ele>246</ele>
        <time>2018-09-09T09:03:20Z</time>
      </trkpt>
      <trkpt lat="45.87712" lon="4.81133">
        <ele>246</ele>
        <time>2018-09-09T09:03:21Z</time>
      </trkpt>
      <trkpt lat="45.87705" lon="4.81136">
        <ele>246</ele>
        <time>2018-09-09T09:03:22Z</time>
      </trkpt>
      <trkpt lat="45.87699" lon="4.81138">
        <ele>246</ele>
        <time>2018-09-09T09:03:23Z</time>
      </trkpt>
      <trkpt lat="45.87694" lon="4.81142">
        <ele>246</ele>
        <time>2018-09-09T09:03:24Z</time>
      </trkpt>
      <trkpt lat="45.87689" lon="4.81146">
        <ele>246</ele>
        <time>2018-09-09T09:03:25Z</time>
      </trkpt>
      <trkpt lat="45.87683" lon="4.81147">
        <ele>246</ele>
        <time>2018-09-09T09:03:26Z</time>
      </trkpt>
      <trkpt lat="45.8768" lon="4.81151">
        <ele>246</ele>
        <time>2018-09-09T09:03:27Z</time>
      </trkpt>
      <trkpt lat="45.87676" lon="4.81158">
        <ele>247</ele>
        <time>2018-09-09T09:03:28Z</time>
      </trkpt>
      <trkpt lat="45.87669" lon="4.81161">
        <ele>247</ele>
        <time>2018-09-09T09:03:29Z</time>
      </trkpt>
      <trkpt lat="45.87664" lon="4.81166">
        <ele>248</ele>
        <time>2018-09-09T09:03:30Z</time>
      </trkpt>
      <trkpt lat="45.87661" lon="4.81173">
        <ele>247</ele>
        <time>2018-09-09T09:03:31Z</time>
      </trkpt>
      <trkpt lat="45.87657" lon="4.81179">
        <ele>247</ele>
        <time>2018-09-09T09:03:32Z</time>
      </trkpt>
      <trkpt lat="45.87652" lon="4.81183">
        <ele>247</ele>
        <time>2018-09-09T09:03:33Z</time>
      </trkpt>
      <trkpt lat="45.87645" lon="4.81187">
        <ele>247</ele>
        <time>2018-09-09T09:03:34Z</time>
      </trkpt>
      <trkpt lat="45.8764" lon="4.81192">
        <ele>247</ele>
        <time>2018-09-09T09:03:35Z</time>
      </trkpt>
      <trkpt lat="45.87635" lon="4.81196">
        <ele>247</ele>
        <time>2018-09-09T09:03:36Z</time>
      </trkpt>
      <trkpt lat="45.87629" lon="4.81199">
        <ele>247</ele>
        <time>2018-09-09T09:03:37Z</time>
      </trkpt>
      <trkpt lat="45.87624" lon="4.81202">
        <ele>247</ele>
        <time>2018-09-09T09:03:38Z</time>
      </trkpt>
      <trkpt lat="45.87619" lon="4.81204">
        <ele>247</ele>
        <time>2018-09-09T09:03:39Z</time>
      </trkpt>
      <trkpt lat="45.87615" lon="4.81208">
        <ele>247</ele>
        <time>2018-09-09T09:03:40Z</time>
      </trkpt>
      <trkpt lat="45.87609" lon="4.8121">
        <ele>247</ele>
        <time>2018-09-09T09:03:41Z</time>
      </trkpt>
      <trkpt lat="45.87606" lon="4.81213">
        <ele>247</ele>
        <time>2018-09-09T09:03:42Z</time>
      </trkpt>
      <trkpt lat="45.876" lon="4.81213">
        <ele>247</ele>
        <time>2018-09-09T09:03:43Z</time>
      </trkpt>
      <trkpt lat="45.87594" lon="4.81213">
        <ele>247</ele>
        <time>2018-09-09T09:03:44Z</time>
      </trkpt>
      <trkpt lat="45.87588" lon="4.81212">
        <ele>247</ele>
        <time>2018-09-09T09:03:45Z</time>
      </trkpt>
      <trkpt lat="45.8758" lon="4.81215">
        <ele>251</ele>
        <time>2018-09-09T09:03:47Z</time>
      </trkpt>
      <trkpt lat="45.87574" lon="4.8122">
        <ele>251</ele>
        <time>2018-09-09T09:03:48Z</time>
      </trkpt>
      <trkpt lat="45.87569" lon="4.8122">
        <ele>251</ele>
        <time>2018-09-09T09:03:49Z</time>
      </trkpt>
      <trkpt lat="45.87564" lon="4.81224">
        <ele>251</ele>
        <time>2018-09-09T09:03:50Z</time>
      </trkpt>
      <trkpt lat="45.87556" lon="4.81227">
        <ele>251</ele>
        <time>2018-09-09T09:03:52Z</time>
      </trkpt>
      <trkpt lat="45.87553" lon="4.81232">
        <ele>251</ele>
        <time>2018-09-09T09:03:53Z</time>
      </trkpt>
      <trkpt lat="45.87547" lon="4.81231">
        <ele>252</ele>
        <time>2018-09-09T09:03:54Z</time>
      </trkpt>
      <trkpt lat="45.87542" lon="4.81231">
        <ele>252</ele>
        <time>2018-09-09T09:03:55Z</time>
      </trkpt>
      <trkpt lat="45.87536" lon="4.8123">
        <ele>252</ele>
        <time>2018-09-09T09:03:56Z</time>
      </trkpt>
      <trkpt lat="45.8753" lon="4.81229">
        <ele>253</ele>
        <time>2018-09-09T09:03:57Z</time>
      </trkpt>
      <trkpt lat="45.87524" lon="4.81229">
        <ele>253</ele>
        <time>2018-09-09T09:03:58Z</time>
      </trkpt>
      <trkpt lat="45.87519" lon="4.81233">
        <ele>253</ele>
        <time>2018-09-09T09:03:59Z</time>
      </trkpt>
      <trkpt lat="45.87515" lon="4.81237">
        <ele>253</ele>
        <time>2018-09-09T09:04:00Z</time>
      </trkpt>
      <trkpt lat="45.87511" lon="4.81242">
        <ele>253</ele>
        <time>2018-09-09T09:04:01Z</time>
      </trkpt>
      <trkpt lat="45.87508" lon="4.81248">
        <ele>253</ele>
        <time>2018-09-09T09:04:02Z</time>
      </trkpt>
      <trkpt lat="45.87505" lon="4.81255">
        <ele>251</ele>
        <time>2018-09-09T09:04:03Z</time>
      </trkpt>
      <trkpt lat="45.875" lon="4.81265">
        <ele>250</ele>
        <time>2018-09-09T09:04:05Z</time>
      </trkpt>
      <trkpt lat="45.875" lon="4.81273">
        <ele>254</ele>
        <time>2018-09-09T09:04:06Z</time>
      </trkpt>
      <trkpt lat="45.87498" lon="4.81279">
        <ele>254</ele>
        <time>2018-09-09T09:04:07Z</time>
      </trkpt>
      <trkpt lat="45.87497" lon="4.81287">
        <ele>254</ele>
        <time>2018-09-09T09:04:08Z</time>
      </trkpt>
      <trkpt lat="45.87496" lon="4.81295">
        <ele>254</ele>
        <time>2018-09-09T09:04:09Z</time>
      </trkpt>
      <trkpt lat="45.87495" lon="4.81305">
        <ele>253</ele>
        <time>2018-09-09T09:04:10Z</time>
      </trkpt>
      <trkpt lat="45.87493" lon="4.81313">
        <ele>252</ele>
        <time>2018-09-09T09:04:11Z</time>
      </trkpt>
      <trkpt lat="45.8749" lon="4.8132">
        <ele>252</ele>
        <time>2018-09-09T09:04:12Z</time>
      </trkpt>
      <trkpt lat="45.87488" lon="4.81327">
        <ele>251</ele>
        <time>2018-09-09T09:04:13Z</time>
      </trkpt>
      <trkpt lat="45.87486" lon="4.81339">
        <ele>248</ele>
        <time>2018-09-09T09:04:14Z</time>
      </trkpt>
      <trkpt lat="45.87483" lon="4.81347">
        <ele>248</ele>
        <time>2018-09-09T09:04:15Z</time>
      </trkpt>
      <trkpt lat="45.87479" lon="4.81355">
        <ele>248</ele>
        <time>2018-09-09T09:04:16Z</time>
      </trkpt>
      <trkpt lat="45.87473" lon="4.81366">
        <ele>248</ele>
        <time>2018-09-09T09:04:17Z</time>
      </trkpt>
      <trkpt lat="45.87468" lon="4.81376">
        <ele>248</ele>
        <time>2018-09-09T09:04:18Z</time>
      </trkpt>
      <trkpt lat="45.87464" lon="4.81386">
        <ele>248</ele>
        <time>2018-09-09T09:04:19Z</time>
      </trkpt>
      <trkpt lat="45.87458" lon="4.81389">
        <ele>248</ele>
        <time>2018-09-09T09:04:20Z</time>
      </trkpt>
      <trkpt lat="45.87454" lon="4.81397">
        <ele>248</ele>
        <time>2018-09-09T09:04:21Z</time>
      </trkpt>
      <trkpt lat="45.87448" lon="4.81404">
        <ele>248</ele>
        <time>2018-09-09T09:04:22Z</time>
      </trkpt>
      <trkpt lat="45.87443" lon="4.81411">
        <ele>248</ele>
        <time>2018-09-09T09:04:23Z</time>
      </trkpt>
      <trkpt lat="45.8744" lon="4.81423">
        <ele>244</ele>
        <time>2018-09-09T09:04:24Z</time>
      </trkpt>
      <trkpt lat="45.87436" lon="4.81433">
        <ele>243</ele>
        <time>2018-09-09T09:04:25Z</time>
      </trkpt>
      <trkpt lat="45.8743" lon="4.81442">
        <ele>243</ele>
        <time>2018-09-09T09:04:26Z</time>
      </trkpt>
      <trkpt lat="45.87426" lon="4.81455">
        <ele>242</ele>
        <time>2018-09-09T09:04:27Z</time>
      </trkpt>
      <trkpt lat="45.87422" lon="4.81465">
        <ele>242</ele>
        <time>2018-09-09T09:04:28Z</time>
      </trkpt>
      <trkpt lat="45.87417" lon="4.81476">
        <ele>242</ele>
        <time>2018-09-09T09:04:29Z</time>
      </trkpt>
      <trkpt lat="45.87414" lon="4.81488">
        <ele>245</ele>
        <time>2018-09-09T09:04:30Z</time>
      </trkpt>
      <trkpt lat="45.8741" lon="4.81498">
        <ele>244</ele>
        <time>2018-09-09T09:04:31Z</time>
      </trkpt>
      <trkpt lat="45.87406" lon="4.81505">
        <ele>243</ele>
        <time>2018-09-09T09:04:32Z</time>
      </trkpt>
      <trkpt lat="45.874" lon="4.81514">
        <ele>244</ele>
        <time>2018-09-09T09:04:33Z</time>
      </trkpt>
      <trkpt lat="45.87396" lon="4.81523">
        <ele>244</ele>
        <time>2018-09-09T09:04:34Z</time>
      </trkpt>
      <trkpt lat="45.87393" lon="4.81533">
        <ele>244</ele>
        <time>2018-09-09T09:04:35Z</time>
      </trkpt>
      <trkpt lat="45.87391" lon="4.81543">
        <ele>244</ele>
        <time>2018-09-09T09:04:36Z</time>
      </trkpt>
      <trkpt lat="45.87387" lon="4.81552">
        <ele>244</ele>
        <time>2018-09-09T09:04:37Z</time>
      </trkpt>
      <trkpt lat="45.87386" lon="4.81566">
        <ele>243</ele>
        <time>2018-09-09T09:04:38Z</time>
      </trkpt>
      <trkpt lat="45.87384" lon="4.81578">
        <ele>243</ele>
        <time>2018-09-09T09:04:39Z</time>
      </trkpt>
      <trkpt lat="45.87381" lon="4.81589">
        <ele>240</ele>
        <time>2018-09-09T09:04:40Z</time>
      </trkpt>
      <trkpt lat="45.8738" lon="4.81603">
        <ele>240</ele>
        <time>2018-09-09T09:04:41Z</time>
      </trkpt>
      <trkpt lat="45.87377" lon="4.81613">
        <ele>240</ele>
        <time>2018-09-09T09:04:42Z</time>
      </trkpt>
      <trkpt lat="45.87375" lon="4.81624">
        <ele>239</ele>
        <time>2018-09-09T09:04:43Z</time>
      </trkpt>
      <trkpt lat="45.87372" lon="4.81632">
        <ele>239</ele>
        <time>2018-09-09T09:04:44Z</time>
      </trkpt>
      <trkpt lat="45.87368" lon="4.81641">
        <ele>239</ele>
        <time>2018-09-09T09:04:45Z</time>
      </trkpt>
      <trkpt lat="45.87366" lon="4.81648">
        <ele>239</ele>
        <time>2018-09-09T09:04:46Z</time>
      </trkpt>
      <trkpt lat="45.87362" lon="4.81657">
        <ele>239</ele>
        <time>2018-09-09T09:04:47Z</time>
      </trkpt>
      <trkpt lat="45.87359" lon="4.81667">
        <ele>237</ele>
        <time>2018-09-09T09:04:48Z</time>
      </trkpt>
      <trkpt lat="45.87357" lon="4.81676">
        <ele>237</ele>
        <time>2018-09-09T09:04:49Z</time>
      </trkpt>
      <trkpt lat="45.87353" lon="4.81684">
        <ele>237</ele>
        <time>2018-09-09T09:04:50Z</time>
      </trkpt>
      <trkpt lat="45.87349" lon="4.81691">
        <ele>237</ele>
        <time>2018-09-09T09:04:51Z</time>
      </trkpt>
      <trkpt lat="45.87345" lon="4.81699">
        <ele>237</ele>
        <time>2018-09-09T09:04:52Z</time>
      </trkpt>
      <trkpt lat="45.87341" lon="4.81708">
        <ele>236</ele>
        <time>2018-09-09T09:04:53Z</time>
      </trkpt>
      <trkpt lat="45.87339" lon="4.81718">
        <ele>236</ele>
        <time>2018-09-09T09:04:54Z</time>
      </trkpt>
      <trkpt lat="45.87338" lon="4.81727">
        <ele>236</ele>
        <time>2018-09-09T09:04:55Z</time>
      </trkpt>
      <trkpt lat="45.87334" lon="4.81736">
        <ele>237</ele>
        <time>2018-09-09T09:04:56Z</time>
      </trkpt>
      <trkpt lat="45.87332" lon="4.81744">
        <ele>239</ele>
        <time>2018-09-09T09:04:57Z</time>
      </trkpt>
      <trkpt lat="45.87329" lon="4.81753">
        <ele>238</ele>
        <time>2018-09-09T09:04:58Z</time>
      </trkpt>
      <trkpt lat="45.87327" lon="4.81762">
        <ele>238</ele>
        <time>2018-09-09T09:04:59Z</time>
      </trkpt>
      <trkpt lat="45.87325" lon="4.81772">
        <ele>239</ele>
        <time>2018-09-09T09:05:00Z</time>
      </trkpt>
      <trkpt lat="45.87323" lon="4.8178">
        <ele>239</ele>
        <time>2018-09-09T09:05:01Z</time>
      </trkpt>
      <trkpt lat="45.87319" lon="4.81788">
        <ele>238</ele>
        <time>2018-09-09T09:05:02Z</time>
      </trkpt>
      <trkpt lat="45.87315" lon="4.81795">
        <ele>238</ele>
        <time>2018-09-09T09:05:03Z</time>
      </trkpt>
      <trkpt lat="45.87313" lon="4.81804">
        <ele>238</ele>
        <time>2018-09-09T09:05:04Z</time>
      </trkpt>
      <trkpt lat="45.87309" lon="4.81813">
        <ele>238</ele>
        <time>2018-09-09T09:05:05Z</time>
      </trkpt>
      <trkpt lat="45.87306" lon="4.81824">
        <ele>238</ele>
        <time>2018-09-09T09:05:06Z</time>
      </trkpt>
      <trkpt lat="45.87305" lon="4.81835">
        <ele>236</ele>
        <time>2018-09-09T09:05:07Z</time>
      </trkpt>
      <trkpt lat="45.87302" lon="4.81845">
        <ele>236</ele>
        <time>2018-09-09T09:05:08Z</time>
      </trkpt>
      <trkpt lat="45.873" lon="4.81854">
        <ele>236</ele>
        <time>2018-09-09T09:05:09Z</time>
      </trkpt>
      <trkpt lat="45.87299" lon="4.81864">
        <ele>235</ele>
        <time>2018-09-09T09:05:10Z</time>
      </trkpt>
      <trkpt lat="45.87296" lon="4.81875">
        <ele>235</ele>
        <time>2018-09-09T09:05:11Z</time>
      </trkpt>
      <trkpt lat="45.87296" lon="4.81887">
        <ele>235</ele>
        <time>2018-09-09T09:05:12Z</time>
      </trkpt>
      <trkpt lat="45.87292" lon="4.81896">
        <ele>235</ele>
        <time>2018-09-09T09:05:13Z</time>
      </trkpt>
      <trkpt lat="45.87288" lon="4.81902">
        <ele>235</ele>
        <time>2018-09-09T09:05:14Z</time>
      </trkpt>
      <trkpt lat="45.87282" lon="4.81905">
        <ele>235</ele>
        <time>2018-09-09T09:05:15Z</time>
      </trkpt>
      <trkpt lat="45.87275" lon="4.81908">
        <ele>235</ele>
        <time>2018-09-09T09:05:16Z</time>
      </trkpt>
      <trkpt lat="45.8727" lon="4.81912">
        <ele>235</ele>
        <time>2018-09-09T09:05:17Z</time>
      </trkpt>
      <trkpt lat="45.87264" lon="4.81916">
        <ele>234</ele>
        <time>2018-09-09T09:05:18Z</time>
      </trkpt>
      <trkpt lat="45.87259" lon="4.81922">
        <ele>232</ele>
        <time>2018-09-09T09:05:19Z</time>
      </trkpt>
      <trkpt lat="45.87255" lon="4.81926">
        <ele>232</ele>
        <time>2018-09-09T09:05:20Z</time>
      </trkpt>
      <trkpt lat="45.8725" lon="4.81929">
        <ele>233</ele>
        <time>2018-09-09T09:05:21Z</time>
      </trkpt>
      <trkpt lat="45.87246" lon="4.81931">
        <ele>233</ele>
        <time>2018-09-09T09:05:22Z</time>
      </trkpt>
      <trkpt lat="45.8724" lon="4.81933">
        <ele>232</ele>
        <time>2018-09-09T09:05:23Z</time>
      </trkpt>
      <trkpt lat="45.87236" lon="4.81937">
        <ele>232</ele>
        <time>2018-09-09T09:05:24Z</time>
      </trkpt>
      <trkpt lat="45.8723" lon="4.8194">
        <ele>232</ele>
        <time>2018-09-09T09:05:25Z</time>
      </trkpt>
      <trkpt lat="45.87225" lon="4.81943">
        <ele>232</ele>
        <time>2018-09-09T09:05:26Z</time>
      </trkpt>
      <trkpt lat="45.87221" lon="4.81946">
        <ele>232</ele>
        <time>2018-09-09T09:05:27Z</time>
      </trkpt>
      <trkpt lat="45.87215" lon="4.81947">
        <ele>232</ele>
        <time>2018-09-09T09:05:28Z</time>
      </trkpt>
      <trkpt lat="45.87207" lon="4.81949">
        <ele>232</ele>
        <time>2018-09-09T09:05:29Z</time>
      </trkpt>
      <trkpt lat="45.87201" lon="4.81952">
        <ele>232</ele>
        <time>2018-09-09T09:05:30Z</time>
      </trkpt>
      <trkpt lat="45.87193" lon="4.81954">
        <ele>232</ele>
        <time>2018-09-09T09:05:31Z</time>
      </trkpt>
      <trkpt lat="45.87186" lon="4.81958">
        <ele>231</ele>
        <time>2018-09-09T09:05:32Z</time>
      </trkpt>
      <trkpt lat="45.87178" lon="4.81957">
        <ele>232</ele>
        <time>2018-09-09T09:05:33Z</time>
      </trkpt>
      <trkpt lat="45.8717" lon="4.81964">
        <ele>231</ele>
        <time>2018-09-09T09:05:34Z</time>
      </trkpt>
      <trkpt lat="45.87164" lon="4.81965">
        <ele>231</ele>
        <time>2018-09-09T09:05:35Z</time>
      </trkpt>
      <trkpt lat="45.87155" lon="4.81964">
        <ele>231</ele>
        <time>2018-09-09T09:05:36Z</time>
      </trkpt>
      <trkpt lat="45.87147" lon="4.81963">
        <ele>232</ele>
        <time>2018-09-09T09:05:37Z</time>
      </trkpt>
      <trkpt lat="45.87139" lon="4.81961">
        <ele>232</ele>
        <time>2018-09-09T09:05:38Z</time>
      </trkpt>
      <trkpt lat="45.87132" lon="4.81966">
        <ele>231</ele>
        <time>2018-09-09T09:05:39Z</time>
      </trkpt>
      <trkpt lat="45.87124" lon="4.81964">
        <ele>231</ele>
        <time>2018-09-09T09:05:40Z</time>
      </trkpt>
      <trkpt lat="45.87115" lon="4.81967">
        <ele>231</ele>
        <time>2018-09-09T09:05:41Z</time>
      </trkpt>
      <trkpt lat="45.87105" lon="4.81966">
        <ele>231</ele>
        <time>2018-09-09T09:05:42Z</time>
      </trkpt>
      <trkpt lat="45.87096" lon="4.81967">
        <ele>230</ele>
        <time>2018-09-09T09:05:43Z</time>
      </trkpt>
      <trkpt lat="45.87089" lon="4.81961">
        <ele>231</ele>
        <time>2018-09-09T09:05:44Z</time>
      </trkpt>
      <trkpt lat="45.8708" lon="4.81959">
        <ele>229</ele>
        <time>2018-09-09T09:05:45Z</time>
      </trkpt>
      <trkpt lat="45.87072" lon="4.81954">
        <ele>230</ele>
        <time>2018-09-09T09:05:46Z</time>
      </trkpt>
      <trkpt lat="45.87062" lon="4.8195">
        <ele>230</ele>
        <time>2018-09-09T09:05:47Z</time>
      </trkpt>
      <trkpt lat="45.87053" lon="4.81945">
        <ele>231</ele>
        <time>2018-09-09T09:05:48Z</time>
      </trkpt>
      <trkpt lat="45.87043" lon="4.81943">
        <ele>230</ele>
        <time>2018-09-09T09:05:49Z</time>
      </trkpt>
      <trkpt lat="45.87033" lon="4.8194">
        <ele>230</ele>
        <time>2018-09-09T09:05:50Z</time>
      </trkpt>
      <trkpt lat="45.87023" lon="4.81936">
        <ele>230</ele>
        <time>2018-09-09T09:05:51Z</time>
      </trkpt>
      <trkpt lat="45.87015" lon="4.81934">
        <ele>230</ele>
        <time>2018-09-09T09:05:52Z</time>
      </trkpt>
      <trkpt lat="45.87007" lon="4.81934">
        <ele>230</ele>
        <time>2018-09-09T09:05:53Z</time>
      </trkpt>
      <trkpt lat="45.86999" lon="4.81934">
        <ele>229</ele>
        <time>2018-09-09T09:05:54Z</time>
      </trkpt>
      <trkpt lat="45.86991" lon="4.81937">
        <ele>228</ele>
        <time>2018-09-09T09:05:55Z</time>
      </trkpt>
      <trkpt lat="45.86985" lon="4.81937">
        <ele>228</ele>
        <time>2018-09-09T09:05:56Z</time>
      </trkpt>
      <trkpt lat="45.86985" lon="4.81949">
        <ele>227</ele>
        <time>2018-09-09T09:05:57Z</time>
      </trkpt>
      <trkpt lat="45.86983" lon="4.81961">
        <ele>226</ele>
        <time>2018-09-09T09:05:58Z</time>
      </trkpt>
      <trkpt lat="45.86984" lon="4.81967">
        <ele>225</ele>
        <time>2018-09-09T09:05:59Z</time>
      </trkpt>
      <trkpt lat="45.86983" lon="4.81977">
        <ele>224</ele>
        <time>2018-09-09T09:06:02Z</time>
      </trkpt>
      <trkpt lat="45.86983" lon="4.81981">
        <ele>224</ele>
        <time>2018-09-09T09:06:03Z</time>
      </trkpt>
      <trkpt lat="45.86982" lon="4.81991">
        <ele>223</ele>
        <time>2018-09-09T09:06:06Z</time>
      </trkpt>
      <trkpt lat="45.86982" lon="4.81993">
        <ele>223</ele>
        <time>2018-09-09T09:06:07Z</time>
      </trkpt>
      <trkpt lat="45.86982" lon="4.82005">
        <ele>222</ele>
        <time>2018-09-09T09:06:19Z</time>
      </trkpt>
      <trkpt lat="45.86982" lon="4.82007">
        <ele>222</ele>
        <time>2018-09-09T09:06:20Z</time>
      </trkpt>
      <trkpt lat="45.86984" lon="4.82013">
        <ele>222</ele>
        <time>2018-09-09T09:06:22Z</time>
      </trkpt>
      <trkpt lat="45.86988" lon="4.82023">
        <ele>223</ele>
        <time>2018-09-09T09:06:23Z</time>
      </trkpt>
      <trkpt lat="45.86997" lon="4.82027">
        <ele>222</ele>
        <time>2018-09-09T09:06:24Z</time>
      </trkpt>
      <trkpt lat="45.87002" lon="4.82028">
        <ele>218</ele>
        <time>2018-09-09T09:06:25Z</time>
      </trkpt>
      <trkpt lat="45.87008" lon="4.82032">
        <ele>218</ele>
        <time>2018-09-09T09:06:26Z</time>
      </trkpt>
      <trkpt lat="45.87014" lon="4.82037">
        <ele>218</ele>
        <time>2018-09-09T09:06:27Z</time>
      </trkpt>
      <trkpt lat="45.8702" lon="4.82042">
        <ele>218</ele>
        <time>2018-09-09T09:06:28Z</time>
      </trkpt>
      <trkpt lat="45.87025" lon="4.82045">
        <ele>218</ele>
        <time>2018-09-09T09:06:29Z</time>
      </trkpt>
      <trkpt lat="45.87033" lon="4.82049">
        <ele>218</ele>
        <time>2018-09-09T09:06:30Z</time>
      </trkpt>
      <trkpt lat="45.87039" lon="4.82054">
        <ele>218</ele>
        <time>2018-09-09T09:06:31Z</time>
      </trkpt>
      <trkpt lat="45.87046" lon="4.82059">
        <ele>218</ele>
        <time>2018-09-09T09:06:32Z</time>
      </trkpt>
      <trkpt lat="45.87052" lon="4.82063">
        <ele>218</ele>
        <time>2018-09-09T09:06:33Z</time>
      </trkpt>
      <trkpt lat="45.8706" lon="4.82068">
        <ele>217</ele>
        <time>2018-09-09T09:06:34Z</time>
      </trkpt>
      <trkpt lat="45.87067" lon="4.82074">
        <ele>216</ele>
        <time>2018-09-09T09:06:35Z</time>
      </trkpt>
      <trkpt lat="45.87074" lon="4.82077">
        <ele>216</ele>
        <time>2018-09-09T09:06:36Z</time>
      </trkpt>
      <trkpt lat="45.87083" lon="4.82083">
        <ele>214</ele>
        <time>2018-09-09T09:06:37Z</time>
      </trkpt>
      <trkpt lat="45.8709" lon="4.82088">
        <ele>214</ele>
        <time>2018-09-09T09:06:38Z</time>
      </trkpt>
      <trkpt lat="45.87099" lon="4.82093">
        <ele>213</ele>
        <time>2018-09-09T09:06:39Z</time>
      </trkpt>
      <trkpt lat="45.87107" lon="4.82098">
        <ele>213</ele>
        <time>2018-09-09T09:06:40Z</time>
      </trkpt>
      <trkpt lat="45.87116" lon="4.82103">
        <ele>213</ele>
        <time>2018-09-09T09:06:41Z</time>
      </trkpt>
      <trkpt lat="45.87122" lon="4.82107">
        <ele>212</ele>
        <time>2018-09-09T09:06:42Z</time>
      </trkpt>
      <trkpt lat="45.8713" lon="4.82114">
        <ele>212</ele>
        <time>2018-09-09T09:06:43Z</time>
      </trkpt>
      <trkpt lat="45.87137" lon="4.8212">
        <ele>212</ele>
        <time>2018-09-09T09:06:44Z</time>
      </trkpt>
      <trkpt lat="45.87145" lon="4.82127">
        <ele>212</ele>
        <time>2018-09-09T09:06:45Z</time>
      </trkpt>
      <trkpt lat="45.87152" lon="4.82135">
        <ele>211</ele>
        <time>2018-09-09T09:06:46Z</time>
      </trkpt>
      <trkpt lat="45.87158" lon="4.82147">
        <ele>210</ele>
        <time>2018-09-09T09:06:47Z</time>
      </trkpt>
      <trkpt lat="45.87163" lon="4.82161">
        <ele>209</ele>
        <time>2018-09-09T09:06:48Z</time>
      </trkpt>
      <trkpt lat="45.87169" lon="4.82173">
        <ele>208</ele>
        <time>2018-09-09T09:06:49Z</time>
      </trkpt>
      <trkpt lat="45.87173" lon="4.82185">
        <ele>208</ele>
        <time>2018-09-09T09:06:50Z</time>
      </trkpt>
      <trkpt lat="45.87177" lon="4.82197">
        <ele>208</ele>
        <time>2018-09-09T09:06:51Z</time>
      </trkpt>
      <trkpt lat="45.8718" lon="4.82206">
        <ele>208</ele>
        <time>2018-09-09T09:06:52Z</time>
      </trkpt>
      <trkpt lat="45.87185" lon="4.82218">
        <ele>208</ele>
        <time>2018-09-09T09:06:53Z</time>
      </trkpt>
      <trkpt lat="45.87189" lon="4.8223">
        <ele>208</ele>
        <time>2018-09-09T09:06:54Z</time>
      </trkpt>
      <trkpt lat="45.87193" lon="4.82241">
        <ele>208</ele>
        <time>2018-09-09T09:06:55Z</time>
      </trkpt>
      <trkpt lat="45.87196" lon="4.8225">
        <ele>209</ele>
        <time>2018-09-09T09:06:56Z</time>
      </trkpt>
      <trkpt lat="45.87201" lon="4.82261">
        <ele>209</ele>
        <time>2018-09-09T09:06:57Z</time>
      </trkpt>
      <trkpt lat="45.87203" lon="4.82271">
        <ele>209</ele>
        <time>2018-09-09T09:06:58Z</time>
      </trkpt>
      <trkpt lat="45.87206" lon="4.8228">
        <ele>210</ele>
        <time>2018-09-09T09:06:59Z</time>
      </trkpt>
      <trkpt lat="45.87209" lon="4.82288">
        <ele>210</ele>
        <time>2018-09-09T09:07:00Z</time>
      </trkpt>
      <trkpt lat="45.87211" lon="4.82294">
        <ele>210</ele>
        <time>2018-09-09T09:07:01Z</time>
      </trkpt>
      <trkpt lat="45.87215" lon="4.82302">
        <ele>210</ele>
        <time>2018-09-09T09:07:02Z</time>
      </trkpt>
      <trkpt lat="45.87217" lon="4.82308">
        <ele>210</ele>
        <time>2018-09-09T09:07:03Z</time>
      </trkpt>
      <trkpt lat="45.87221" lon="4.82316">
        <ele>210</ele>
        <time>2018-09-09T09:07:05Z</time>
      </trkpt>
      <trkpt lat="45.87223" lon="4.82323">
        <ele>210</ele>
        <time>2018-09-09T09:07:06Z</time>
      </trkpt>
      <trkpt lat="45.87229" lon="4.82332">
        <ele>210</ele>
        <time>2018-09-09T09:07:08Z</time>
      </trkpt>
      <trkpt lat="45.8723" lon="4.82334">
        <ele>213</ele>
        <time>2018-09-09T09:07:09Z</time>
      </trkpt>
      <trkpt lat="45.87232" lon="4.82336">
        <ele>213</ele>
        <time>2018-09-09T09:07:10Z</time>
      </trkpt>
      <trkpt lat="45.87236" lon="4.82344">
        <ele>213</ele>
        <time>2018-09-09T09:07:11Z</time>
      </trkpt>
      <trkpt lat="45.87242" lon="4.82354">
        <ele>213</ele>
        <time>2018-09-09T09:07:14Z</time>
      </trkpt>
      <trkpt lat="45.87246" lon="4.8236">
        <ele>214</ele>
        <time>2018-09-09T09:07:15Z</time>
      </trkpt>
      <trkpt lat="45.8725" lon="4.82367">
        <ele>208</ele>
        <time>2018-09-09T09:07:17Z</time>
      </trkpt>
      <trkpt lat="45.87253" lon="4.82372">
        <ele>209</ele>
        <time>2018-09-09T09:07:18Z</time>
      </trkpt>
      <trkpt lat="45.87257" lon="4.8238">
        <ele>209</ele>
        <time>2018-09-09T09:07:20Z</time>
      </trkpt>
      <trkpt lat="45.87258" lon="4.82382">
        <ele>209</ele>
        <time>2018-09-09T09:07:21Z</time>
      </trkpt>
      <trkpt lat="45.87264" lon="4.82392">
        <ele>210</ele>
        <time>2018-09-09T09:07:23Z</time>
      </trkpt>
      <trkpt lat="45.87266" lon="4.82396">
        <ele>210</ele>
        <time>2018-09-09T09:07:24Z</time>
      </trkpt>
      <trkpt lat="45.87271" lon="4.82404">
        <ele>210</ele>
        <time>2018-09-09T09:07:27Z</time>
      </trkpt>
      <trkpt lat="45.87272" lon="4.82407">
        <ele>210</ele>
        <time>2018-09-09T09:07:28Z</time>
      </trkpt>
      <trkpt lat="45.87277" lon="4.82416">
        <ele>210</ele>
        <time>2018-09-09T09:07:31Z</time>
      </trkpt>
      <trkpt lat="45.87283" lon="4.82426">
        <ele>213</ele>
        <time>2018-09-09T09:07:32Z</time>
      </trkpt>
      <trkpt lat="45.87288" lon="4.82434">
        <ele>213</ele>
        <time>2018-09-09T09:07:35Z</time>
      </trkpt>
      <trkpt lat="45.87289" lon="4.82436">
        <ele>213</ele>
        <time>2018-09-09T09:07:36Z</time>
      </trkpt>
      <trkpt lat="45.87293" lon="4.82443">
        <ele>212</ele>
        <time>2018-09-09T09:07:38Z</time>
      </trkpt>
      <trkpt lat="45.87295" lon="4.82447">
        <ele>212</ele>
        <time>2018-09-09T09:07:39Z</time>
      </trkpt>
      <trkpt lat="45.87299" lon="4.82455">
        <ele>212</ele>
        <time>2018-09-09T09:07:41Z</time>
      </trkpt>
      <trkpt lat="45.87301" lon="4.82459">
        <ele>212</ele>
        <time>2018-09-09T09:07:42Z</time>
      </trkpt>
      <trkpt lat="45.87307" lon="4.82471">
        <ele>212</ele>
        <time>2018-09-09T09:07:43Z</time>
      </trkpt>
      <trkpt lat="45.8731" lon="4.82476">
        <ele>212</ele>
        <time>2018-09-09T09:07:44Z</time>
      </trkpt>
      <trkpt lat="45.87314" lon="4.82482">
        <ele>212</ele>
        <time>2018-09-09T09:07:45Z</time>
      </trkpt>
      <trkpt lat="45.87317" lon="4.82486">
        <ele>211</ele>
        <time>2018-09-09T09:07:46Z</time>
      </trkpt>
      <trkpt lat="45.87321" lon="4.82491">
        <ele>211</ele>
        <time>2018-09-09T09:07:47Z</time>
      </trkpt>
      <trkpt lat="45.87324" lon="4.82496">
        <ele>211</ele>
        <time>2018-09-09T09:07:48Z</time>
      </trkpt>
      <trkpt lat="45.87328" lon="4.82501">
        <ele>211</ele>
        <time>2018-09-09T09:07:49Z</time>
      </trkpt>
      <trkpt lat="45.8733" lon="4.82507">
        <ele>211</ele>
        <time>2018-09-09T09:07:50Z</time>
      </trkpt>
      <trkpt lat="45.87333" lon="4.82513">
        <ele>208</ele>
        <time>2018-09-09T09:07:51Z</time>
      </trkpt>
      <trkpt lat="45.87337" lon="4.82524">
        <ele>208</ele>
        <time>2018-09-09T09:07:53Z</time>
      </trkpt>
      <trkpt lat="45.87338" lon="4.82528">
        <ele>208</ele>
        <time>2018-09-09T09:07:54Z</time>
      </trkpt>
      <trkpt lat="45.8734" lon="4.82533">
        <ele>208</ele>
        <time>2018-09-09T09:07:55Z</time>
      </trkpt>
      <trkpt lat="45.87343" lon="4.8254">
        <ele>209</ele>
        <time>2018-09-09T09:07:56Z</time>
      </trkpt>
      <trkpt lat="45.87346" lon="4.82544">
        <ele>209</ele>
        <time>2018-09-09T09:07:57Z</time>
      </trkpt>
      <trkpt lat="45.87349" lon="4.8255">
        <ele>209</ele>
        <time>2018-09-09T09:07:58Z</time>
      </trkpt>
      <trkpt lat="45.87351" lon="4.82556">
        <ele>209</ele>
        <time>2018-09-09T09:07:59Z</time>
      </trkpt>
      <trkpt lat="45.87353" lon="4.82562">
        <ele>210</ele>
        <time>2018-09-09T09:08:00Z</time>
      </trkpt>
      <trkpt lat="45.87358" lon="4.82572">
        <ele>210</ele>
        <time>2018-09-09T09:08:02Z</time>
      </trkpt>
      <trkpt lat="45.8736" lon="4.82578">
        <ele>210</ele>
        <time>2018-09-09T09:08:03Z</time>
      </trkpt>
      <trkpt lat="45.87363" lon="4.82583">
        <ele>210</ele>
        <time>2018-09-09T09:08:04Z</time>
      </trkpt>
      <trkpt lat="45.87366" lon="4.82589">
        <ele>213</ele>
        <time>2018-09-09T09:08:05Z</time>
      </trkpt>
      <trkpt lat="45.87368" lon="4.82596">
        <ele>213</ele>
        <time>2018-09-09T09:08:06Z</time>
      </trkpt>
      <trkpt lat="45.87371" lon="4.82602">
        <ele>213</ele>
        <time>2018-09-09T09:08:07Z</time>
      </trkpt>
      <trkpt lat="45.87373" lon="4.82608">
        <ele>213</ele>
        <time>2018-09-09T09:08:08Z</time>
      </trkpt>
      <trkpt lat="45.87375" lon="4.82615">
        <ele>213</ele>
        <time>2018-09-09T09:08:09Z</time>
      </trkpt>
      <trkpt lat="45.87379" lon="4.82622">
        <ele>213</ele>
        <time>2018-09-09T09:08:10Z</time>
      </trkpt>
      <trkpt lat="45.87382" lon="4.82628">
        <ele>213</ele>
        <time>2018-09-09T09:08:11Z</time>
      </trkpt>
      <trkpt lat="45.87385" lon="4.82635">
        <ele>213</ele>
        <time>2018-09-09T09:08:12Z</time>
      </trkpt>
      <trkpt lat="45.87389" lon="4.82642">
        <ele>213</ele>
        <time>2018-09-09T09:08:13Z</time>
      </trkpt>
      <trkpt lat="45.87393" lon="4.82649">
        <ele>213</ele>
        <time>2018-09-09T09:08:14Z</time>
      </trkpt>
      <trkpt lat="45.87395" lon="4.82653">
        <ele>212</ele>
        <time>2018-09-09T09:08:15Z</time>
      </trkpt>
      <trkpt lat="45.87399" lon="4.82661">
        <ele>212</ele>
        <time>2018-09-09T09:08:16Z</time>
      </trkpt>
      <trkpt lat="45.874" lon="4.82668">
        <ele>214</ele>
        <time>2018-09-09T09:08:17Z</time>
      </trkpt>
      <trkpt lat="45.87402" lon="4.82676">
        <ele>214</ele>
        <time>2018-09-09T09:08:18Z</time>
      </trkpt>
      <trkpt lat="45.87405" lon="4.82683">
        <ele>214</ele>
        <time>2018-09-09T09:08:19Z</time>
      </trkpt>
      <trkpt lat="45.87408" lon="4.82691">
        <ele>215</ele>
        <time>2018-09-09T09:08:20Z</time>
      </trkpt>
      <trkpt lat="45.87412" lon="4.82698">
        <ele>215</ele>
        <time>2018-09-09T09:08:21Z</time>
      </trkpt>
      <trkpt lat="45.87416" lon="4.82705">
        <ele>215</ele>
        <time>2018-09-09T09:08:22Z</time>
      </trkpt>
      <trkpt lat="45.87421" lon="4.8271">
        <ele>208</ele>
        <time>2018-09-09T09:08:23Z</time>
      </trkpt>
      <trkpt lat="45.87423" lon="4.8272">
        <ele>209</ele>
        <time>2018-09-09T09:08:24Z</time>
      </trkpt>
      <trkpt lat="45.87427" lon="4.82728">
        <ele>209</ele>
        <time>2018-09-09T09:08:25Z</time>
      </trkpt>
      <trkpt lat="45.87432" lon="4.82736">
        <ele>210</ele>
        <time>2018-09-09T09:08:26Z</time>
      </trkpt>
      <trkpt lat="45.87435" lon="4.82744">
        <ele>210</ele>
        <time>2018-09-09T09:08:27Z</time>
      </trkpt>
      <trkpt lat="45.87438" lon="4.82751">
        <ele>211</ele>
        <time>2018-09-09T09:08:28Z</time>
      </trkpt>
      <trkpt lat="45.87441" lon="4.82757">
        <ele>211</ele>
        <time>2018-09-09T09:08:29Z</time>
      </trkpt>
      <trkpt lat="45.87444" lon="4.82766">
        <ele>210</ele>
        <time>2018-09-09T09:08:30Z</time>
      </trkpt>
      <trkpt lat="45.87449" lon="4.82771">
        <ele>210</ele>
        <time>2018-09-09T09:08:31Z</time>
      </trkpt>
      <trkpt lat="45.87451" lon="4.82779">
        <ele>210</ele>
        <time>2018-09-09T09:08:32Z</time>
      </trkpt>
      <trkpt lat="45.87456" lon="4.82786">
        <ele>210</ele>
        <time>2018-09-09T09:08:33Z</time>
      </trkpt>
      <trkpt lat="45.87459" lon="4.82792">
        <ele>209</ele>
        <time>2018-09-09T09:08:34Z</time>
      </trkpt>
      <trkpt lat="45.87462" lon="4.828">
        <ele>209</ele>
        <time>2018-09-09T09:08:35Z</time>
      </trkpt>
      <trkpt lat="45.87465" lon="4.82808">
        <ele>209</ele>
        <time>2018-09-09T09:08:36Z</time>
      </trkpt>
      <trkpt lat="45.87469" lon="4.82815">
        <ele>209</ele>
        <time>2018-09-09T09:08:37Z</time>
      </trkpt>
      <trkpt lat="45.87473" lon="4.82823">
        <ele>209</ele>
        <time>2018-09-09T09:08:38Z</time>
      </trkpt>
      <trkpt lat="45.87475" lon="4.82829">
        <ele>209</ele>
        <time>2018-09-09T09:08:39Z</time>
      </trkpt>
      <trkpt lat="45.8748" lon="4.82837">
        <ele>210</ele>
        <time>2018-09-09T09:08:40Z</time>
      </trkpt>
      <trkpt lat="45.87483" lon="4.82849">
        <ele>210</ele>
        <time>2018-09-09T09:08:41Z</time>
      </trkpt>
      <trkpt lat="45.87486" lon="4.82857">
        <ele>210</ele>
        <time>2018-09-09T09:08:42Z</time>
      </trkpt>
      <trkpt lat="45.8749" lon="4.82865">
        <ele>210</ele>
        <time>2018-09-09T09:08:43Z</time>
      </trkpt>
      <trkpt lat="45.87494" lon="4.82875">
        <ele>210</ele>
        <time>2018-09-09T09:08:44Z</time>
      </trkpt>
      <trkpt lat="45.87498" lon="4.82885">
        <ele>210</ele>
        <time>2018-09-09T09:08:45Z</time>
      </trkpt>
      <trkpt lat="45.87502" lon="4.82895">
        <ele>206</ele>
        <time>2018-09-09T09:08:46Z</time>
      </trkpt>
      <trkpt lat="45.87506" lon="4.82905">
        <ele>207</ele>
        <time>2018-09-09T09:08:47Z</time>
      </trkpt>
      <trkpt lat="45.8751" lon="4.82915">
        <ele>208</ele>
        <time>2018-09-09T09:08:48Z</time>
      </trkpt>
      <trkpt lat="45.87513" lon="4.82928">
        <ele>208</ele>
        <time>2018-09-09T09:08:49Z</time>
      </trkpt>
      <trkpt lat="45.87517" lon="4.8294">
        <ele>207</ele>
        <time>2018-09-09T09:08:50Z</time>
      </trkpt>
      <trkpt lat="45.87519" lon="4.82951">
        <ele>207</ele>
        <time>2018-09-09T09:08:51Z</time>
      </trkpt>
      <trkpt lat="45.87522" lon="4.82964">
        <ele>206</ele>
        <time>2018-09-09T09:08:52Z</time>
      </trkpt>
      <trkpt lat="45.87526" lon="4.82978">
        <ele>206</ele>
        <time>2018-09-09T09:08:53Z</time>
      </trkpt>
      <trkpt lat="45.87529" lon="4.82989">
        <ele>206</ele>
        <time>2018-09-09T09:08:54Z</time>
      </trkpt>
      <trkpt lat="45.87531" lon="4.83003">
        <ele>203</ele>
        <time>2018-09-09T09:08:55Z</time>
      </trkpt>
      <trkpt lat="45.87533" lon="4.83015">
        <ele>202</ele>
        <time>2018-09-09T09:08:56Z</time>
      </trkpt>
      <trkpt lat="45.87533" lon="4.83027">
        <ele>201</ele>
        <time>2018-09-09T09:08:57Z</time>
      </trkpt>
      <trkpt lat="45.87533" lon="4.83042">
        <ele>201</ele>
        <time>2018-09-09T09:08:58Z</time>
      </trkpt>
      <trkpt lat="45.87531" lon="4.83051">
        <ele>200</ele>
        <time>2018-09-09T09:08:59Z</time>
      </trkpt>
      <trkpt lat="45.8753" lon="4.83062">
        <ele>200</ele>
        <time>2018-09-09T09:09:00Z</time>
      </trkpt>
      <trkpt lat="45.87526" lon="4.83073">
        <ele>200</ele>
        <time>2018-09-09T09:09:01Z</time>
      </trkpt>
      <trkpt lat="45.87522" lon="4.83084">
        <ele>195</ele>
        <time>2018-09-09T09:09:02Z</time>
      </trkpt>
      <trkpt lat="45.87513" lon="4.8309">
        <ele>196</ele>
        <time>2018-09-09T09:09:03Z</time>
      </trkpt>
      <trkpt lat="45.87506" lon="4.83098">
        <ele>195</ele>
        <time>2018-09-09T09:09:04Z</time>
      </trkpt>
      <trkpt lat="45.87502" lon="4.83107">
        <ele>194</ele>
        <time>2018-09-09T09:09:05Z</time>
      </trkpt>
      <trkpt lat="45.87496" lon="4.83115">
        <ele>196</ele>
        <time>2018-09-09T09:09:06Z</time>
      </trkpt>
      <trkpt lat="45.8749" lon="4.83121">
        <ele>195</ele>
        <time>2018-09-09T09:09:07Z</time>
      </trkpt>
      <trkpt lat="45.87485" lon="4.83126">
        <ele>195</ele>
        <time>2018-09-09T09:09:08Z</time>
      </trkpt>
      <trkpt lat="45.87478" lon="4.83133">
        <ele>194</ele>
        <time>2018-09-09T09:09:09Z</time>
      </trkpt>
      <trkpt lat="45.87476" lon="4.83138">
        <ele>194</ele>
        <time>2018-09-09T09:09:10Z</time>
      </trkpt>
      <trkpt lat="45.87481" lon="4.8315">
        <ele>193</ele>
        <time>2018-09-09T09:09:11Z</time>
      </trkpt>
      <trkpt lat="45.87483" lon="4.83158">
        <ele>193</ele>
        <time>2018-09-09T09:09:12Z</time>
      </trkpt>
      <trkpt lat="45.87488" lon="4.83165">
        <ele>192</ele>
        <time>2018-09-09T09:09:13Z</time>
      </trkpt>
      <trkpt lat="45.87494" lon="4.83168">
        <ele>189</ele>
        <time>2018-09-09T09:09:14Z</time>
      </trkpt>
      <trkpt lat="45.875" lon="4.83171">
        <ele>189</ele>
        <time>2018-09-09T09:09:15Z</time>
      </trkpt>
      <trkpt lat="45.87508" lon="4.83168">
        <ele>188</ele>
        <time>2018-09-09T09:09:16Z</time>
      </trkpt>
      <trkpt lat="45.87512" lon="4.83162">
        <ele>190</ele>
        <time>2018-09-09T09:09:17Z</time>
      </trkpt>
      <trkpt lat="45.87519" lon="4.83164">
        <ele>190</ele>
        <time>2018-09-09T09:09:18Z</time>
      </trkpt>
      <trkpt lat="45.87526" lon="4.83163">
        <ele>190</ele>
        <time>2018-09-09T09:09:19Z</time>
      </trkpt>
      <trkpt lat="45.87534" lon="4.83166">
        <ele>190</ele>
        <time>2018-09-09T09:09:20Z</time>
      </trkpt>
      <trkpt lat="45.87539" lon="4.83173">
        <ele>184</ele>
        <time>2018-09-09T09:09:21Z</time>
      </trkpt>
      <trkpt lat="45.87544" lon="4.83181">
        <ele>183</ele>
        <time>2018-09-09T09:09:22Z</time>
      </trkpt>
      <trkpt lat="45.87549" lon="4.83188">
        <ele>183</ele>
        <time>2018-09-09T09:09:23Z</time>
      </trkpt>
      <trkpt lat="45.87555" lon="4.83197">
        <ele>183</ele>
        <time>2018-09-09T09:09:24Z</time>
      </trkpt>
      <trkpt lat="45.87559" lon="4.83206">
        <ele>182</ele>
        <time>2018-09-09T09:09:25Z</time>
      </trkpt>
      <trkpt lat="45.87563" lon="4.83214">
        <ele>182</ele>
        <time>2018-09-09T09:09:26Z</time>
      </trkpt>
      <trkpt lat="45.87567" lon="4.83222">
        <ele>181</ele>
        <time>2018-09-09T09:09:27Z</time>
      </trkpt>
      <trkpt lat="45.87568" lon="4.8323">
        <ele>181</ele>
        <time>2018-09-09T09:09:28Z</time>
      </trkpt>
      <trkpt lat="45.87565" lon="4.83237">
        <ele>181</ele>
        <time>2018-09-09T09:09:29Z</time>
      </trkpt>
      <trkpt lat="45.87563" lon="4.83244">
        <ele>180</ele>
        <time>2018-09-09T09:09:30Z</time>
      </trkpt>
      <trkpt lat="45.87556" lon="4.83248">
        <ele>181</ele>
        <time>2018-09-09T09:09:31Z</time>
      </trkpt>
      <trkpt lat="45.87552" lon="4.83254">
        <ele>178</ele>
        <time>2018-09-09T09:09:32Z</time>
      </trkpt>
      <trkpt lat="45.87547" lon="4.8326">
        <ele>178</ele>
        <time>2018-09-09T09:09:33Z</time>
      </trkpt>
      <trkpt lat="45.87541" lon="4.83265">
        <ele>178</ele>
        <time>2018-09-09T09:09:34Z</time>
      </trkpt>
      <trkpt lat="45.87535" lon="4.8327">
        <ele>178</ele>
        <time>2018-09-09T09:09:35Z</time>
      </trkpt>
      <trkpt lat="45.87535" lon="4.83282">
        <ele>178</ele>
        <time>2018-09-09T09:09:36Z</time>
      </trkpt>
      <trkpt lat="45.87535" lon="4.83292">
        <ele>178</ele>
        <time>2018-09-09T09:09:37Z</time>
      </trkpt>
      <trkpt lat="45.87539" lon="4.83302">
        <ele>177</ele>
        <time>2018-09-09T09:09:38Z</time>
      </trkpt>
      <trkpt lat="45.87544" lon="4.83312">
        <ele>177</ele>
        <time>2018-09-09T09:09:39Z</time>
      </trkpt>
      <trkpt lat="45.87548" lon="4.83322">
        <ele>177</ele>
        <time>2018-09-09T09:09:40Z</time>
      </trkpt>
      <trkpt lat="45.87553" lon="4.83331">
        <ele>177</ele>
        <time>2018-09-09T09:09:41Z</time>
      </trkpt>
      <trkpt lat="45.87559" lon="4.83344">
        <ele>176</ele>
        <time>2018-09-09T09:09:42Z</time>
      </trkpt>
      <trkpt lat="45.87563" lon="4.83353">
        <ele>175</ele>
        <time>2018-09-09T09:09:43Z</time>
      </trkpt>
      <trkpt lat="45.87569" lon="4.83361">
        <ele>175</ele>
        <time>2018-09-09T09:09:44Z</time>
      </trkpt>
      <trkpt lat="45.87575" lon="4.8337">
        <ele>175</ele>
        <time>2018-09-09T09:09:45Z</time>
      </trkpt>
      <trkpt lat="45.87582" lon="4.83378">
        <ele>175</ele>
        <time>2018-09-09T09:09:46Z</time>
      </trkpt>
      <trkpt lat="45.87588" lon="4.83385">
        <ele>174</ele>
        <time>2018-09-09T09:09:47Z</time>
      </trkpt>
      <trkpt lat="45.87596" lon="4.8339">
        <ele>174</ele>
        <time>2018-09-09T09:09:48Z</time>
      </trkpt>
      <trkpt lat="45.87603" lon="4.83398">
        <ele>174</ele>
        <time>2018-09-09T09:09:49Z</time>
      </trkpt>
      <trkpt lat="45.87611" lon="4.83405">
        <ele>174</ele>
        <time>2018-09-09T09:09:50Z</time>
      </trkpt>
      <trkpt lat="45.87618" lon="4.83412">
        <ele>174</ele>
        <time>2018-09-09T09:09:51Z</time>
      </trkpt>
      <trkpt lat="45.87625" lon="4.83417">
        <ele>172</ele>
        <time>2018-09-09T09:09:52Z</time>
      </trkpt>
      <trkpt lat="45.87632" lon="4.83424">
        <ele>172</ele>
        <time>2018-09-09T09:09:53Z</time>
      </trkpt>
      <trkpt lat="45.87638" lon="4.8343">
        <ele>172</ele>
        <time>2018-09-09T09:09:54Z</time>
      </trkpt>
      <trkpt lat="45.87645" lon="4.83437">
        <ele>172</ele>
        <time>2018-09-09T09:09:55Z</time>
      </trkpt>
      <trkpt lat="45.87651" lon="4.83444">
        <ele>172</ele>
        <time>2018-09-09T09:09:56Z</time>
      </trkpt>
      <trkpt lat="45.87656" lon="4.83455">
        <ele>172</ele>
        <time>2018-09-09T09:09:57Z</time>
      </trkpt>
      <trkpt lat="45.8766" lon="4.83464">
        <ele>172</ele>
        <time>2018-09-09T09:09:58Z</time>
      </trkpt>
      <trkpt lat="45.87664" lon="4.83473">
        <ele>171</ele>
        <time>2018-09-09T09:09:59Z</time>
      </trkpt>
      <trkpt lat="45.87667" lon="4.83481">
        <ele>172</ele>
        <time>2018-09-09T09:10:00Z</time>
      </trkpt>
      <trkpt lat="45.87669" lon="4.8349">
        <ele>171</ele>
        <time>2018-09-09T09:10:01Z</time>
      </trkpt>
      <trkpt lat="45.8767" lon="4.83498">
        <ele>171</ele>
        <time>2018-09-09T09:10:02Z</time>
      </trkpt>
      <trkpt lat="45.8767" lon="4.83505">
        <ele>170</ele>
        <time>2018-09-09T09:10:03Z</time>
      </trkpt>
      <trkpt lat="45.87671" lon="4.83517">
        <ele>170</ele>
        <time>2018-09-09T09:10:06Z</time>
      </trkpt>
      <trkpt lat="45.87672" lon="4.83521">
        <ele>169</ele>
        <time>2018-09-09T09:10:07Z</time>
      </trkpt>
      <trkpt lat="45.87672" lon="4.83532">
        <ele>169</ele>
        <time>2018-09-09T09:10:08Z</time>
      </trkpt>
      <trkpt lat="45.87673" lon="4.83534">
        <ele>169</ele>
        <time>2018-09-09T09:10:09Z</time>
      </trkpt>
      <trkpt lat="45.87673" lon="4.83546">
        <ele>168</ele>
        <time>2018-09-09T09:10:11Z</time>
      </trkpt>
      <trkpt lat="45.87675" lon="4.8355">
        <ele>168</ele>
        <time>2018-09-09T09:10:12Z</time>
      </trkpt>
      <trkpt lat="45.87679" lon="4.83559">
        <ele>167</ele>
        <time>2018-09-09T09:10:14Z</time>
      </trkpt>
      <trkpt lat="45.8768" lon="4.83565">
        <ele>167</ele>
        <time>2018-09-09T09:10:15Z</time>
      </trkpt>
      <trkpt lat="45.87681" lon="4.83577">
        <ele>167</ele>
        <time>2018-09-09T09:10:17Z</time>
      </trkpt>
      <trkpt lat="45.87681" lon="4.83583">
        <ele>166</ele>
        <time>2018-09-09T09:10:18Z</time>
      </trkpt>
      <trkpt lat="45.8768" lon="4.8359">
        <ele>165</ele>
        <time>2018-09-09T09:10:19Z</time>
      </trkpt>
      <trkpt lat="45.87681" lon="4.83598">
        <ele>165</ele>
        <time>2018-09-09T09:10:20Z</time>
      </trkpt>
      <trkpt lat="45.87683" lon="4.83608">
        <ele>165</ele>
        <time>2018-09-09T09:10:22Z</time>
      </trkpt>
      <trkpt lat="45.87683" lon="4.83613">
        <ele>165</ele>
        <time>2018-09-09T09:10:23Z</time>
      </trkpt>
      <trkpt lat="45.87683" lon="4.83619">
        <ele>165</ele>
        <time>2018-09-09T09:10:24Z</time>
      </trkpt>
      <trkpt lat="45.87682" lon="4.83626">
        <ele>165</ele>
        <time>2018-09-09T09:10:25Z</time>
      </trkpt>
      <trkpt lat="45.87682" lon="4.83633">
        <ele>165</ele>
        <time>2018-09-09T09:10:26Z</time>
      </trkpt>
      <trkpt lat="45.87683" lon="4.83641">
        <ele>165</ele>
        <time>2018-09-09T09:10:27Z</time>
      </trkpt>
      <trkpt lat="45.87683" lon="4.83649">
        <ele>165</ele>
        <time>2018-09-09T09:10:28Z</time>
      </trkpt>
      <trkpt lat="45.87685" lon="4.83654">
        <ele>165</ele>
        <time>2018-09-09T09:10:29Z</time>
      </trkpt>
      <trkpt lat="45.87684" lon="4.83665">
        <ele>165</ele>
        <time>2018-09-09T09:10:31Z</time>
      </trkpt>
      <trkpt lat="45.87684" lon="4.83671">
        <ele>165</ele>
        <time>2018-09-09T09:10:32Z</time>
      </trkpt>
      <trkpt lat="45.87684" lon="4.83679">
        <ele>165</ele>
        <time>2018-09-09T09:10:33Z</time>
      </trkpt>
      <trkpt lat="45.87684" lon="4.83685">
        <ele>165</ele>
        <time>2018-09-09T09:10:34Z</time>
      </trkpt>
      <trkpt lat="45.87685" lon="4.83692">
        <ele>165</ele>
        <time>2018-09-09T09:10:35Z</time>
      </trkpt>
      <trkpt lat="45.87686" lon="4.83699">
        <ele>165</ele>
        <time>2018-09-09T09:10:36Z</time>
      </trkpt>
      <trkpt lat="45.87686" lon="4.83705">
        <ele>165</ele>
        <time>2018-09-09T09:10:37Z</time>
      </trkpt>
      <trkpt lat="45.87687" lon="4.83715">
        <ele>165</ele>
        <time>2018-09-09T09:10:38Z</time>
      </trkpt>
      <trkpt lat="45.87688" lon="4.83727">
        <ele>165</ele>
        <time>2018-09-09T09:10:40Z</time>
      </trkpt>
      <trkpt lat="45.87689" lon="4.83736">
        <ele>165</ele>
        <time>2018-09-09T09:10:41Z</time>
      </trkpt>
      <trkpt lat="45.87689" lon="4.83743">
        <ele>165</ele>
        <time>2018-09-09T09:10:42Z</time>
      </trkpt>
      <trkpt lat="45.87689" lon="4.83749">
        <ele>165</ele>
        <time>2018-09-09T09:10:43Z</time>
      </trkpt>
      <trkpt lat="45.87689" lon="4.83755">
        <ele>167</ele>
        <time>2018-09-09T09:10:44Z</time>
      </trkpt>
      <trkpt lat="45.8769" lon="4.83762">
        <ele>167</ele>
        <time>2018-09-09T09:10:45Z</time>
      </trkpt>
      <trkpt lat="45.87691" lon="4.83769">
        <ele>167</ele>
        <time>2018-09-09T09:10:46Z</time>
      </trkpt>
      <trkpt lat="45.87692" lon="4.83777">
        <ele>168</ele>
        <time>2018-09-09T09:10:47Z</time>
      </trkpt>
      <trkpt lat="45.87692" lon="4.83783">
        <ele>168</ele>
        <time>2018-09-09T09:10:48Z</time>
      </trkpt>
      <trkpt lat="45.87694" lon="4.83792">
        <ele>168</ele>
        <time>2018-09-09T09:10:49Z</time>
      </trkpt>
      <trkpt lat="45.87695" lon="4.838">
        <ele>169</ele>
        <time>2018-09-09T09:10:50Z</time>
      </trkpt>
      <trkpt lat="45.87696" lon="4.83812">
        <ele>169</ele>
        <time>2018-09-09T09:10:51Z</time>
      </trkpt>
      <trkpt lat="45.87696" lon="4.83819">
        <ele>169</ele>
        <time>2018-09-09T09:10:52Z</time>
      </trkpt>
      <trkpt lat="45.87695" lon="4.83827">
        <ele>170</ele>
        <time>2018-09-09T09:10:53Z</time>
      </trkpt>
      <trkpt lat="45.87697" lon="4.83835">
        <ele>172</ele>
        <time>2018-09-09T09:10:54Z</time>
      </trkpt>
      <trkpt lat="45.87699" lon="4.83844">
        <ele>172</ele>
        <time>2018-09-09T09:10:55Z</time>
      </trkpt>
      <trkpt lat="45.87704" lon="4.83853">
        <ele>172</ele>
        <time>2018-09-09T09:10:57Z</time>
      </trkpt>
      <trkpt lat="45.87709" lon="4.83852">
        <ele>172</ele>
        <time>2018-09-09T09:10:58Z</time>
      </trkpt>
      <trkpt lat="45.87714" lon="4.83853">
        <ele>172</ele>
        <time>2018-09-09T09:10:59Z</time>
      </trkpt>
      <trkpt lat="45.87719" lon="4.83851">
        <ele>172</ele>
        <time>2018-09-09T09:11:00Z</time>
      </trkpt>
      <trkpt lat="45.87724" lon="4.8385">
        <ele>172</ele>
        <time>2018-09-09T09:11:01Z</time>
      </trkpt>
      <trkpt lat="45.87729" lon="4.83848">
        <ele>172</ele>
        <time>2018-09-09T09:11:02Z</time>
      </trkpt>
      <trkpt lat="45.87736" lon="4.83847">
        <ele>172</ele>
        <time>2018-09-09T09:11:03Z</time>
      </trkpt>
      <trkpt lat="45.87742" lon="4.83845">
        <ele>172</ele>
        <time>2018-09-09T09:11:04Z</time>
      </trkpt>
      <trkpt lat="45.87748" lon="4.83843">
        <ele>171</ele>
        <time>2018-09-09T09:11:05Z</time>
      </trkpt>
      <trkpt lat="45.87754" lon="4.83843">
        <ele>171</ele>
        <time>2018-09-09T09:11:06Z</time>
      </trkpt>
      <trkpt lat="45.8776" lon="4.83839">
        <ele>171</ele>
        <time>2018-09-09T09:11:07Z</time>
      </trkpt>
      <trkpt lat="45.87766" lon="4.83837">
        <ele>172</ele>
        <time>2018-09-09T09:11:08Z</time>
      </trkpt>
      <trkpt lat="45.87771" lon="4.83832">
        <ele>170</ele>
        <time>2018-09-09T09:11:09Z</time>
      </trkpt>
      <trkpt lat="45.87775" lon="4.83828">
        <ele>170</ele>
        <time>2018-09-09T09:11:10Z</time>
      </trkpt>
      <trkpt lat="45.8778" lon="4.83822">
        <ele>170</ele>
        <time>2018-09-09T09:11:11Z</time>
      </trkpt>
      <trkpt lat="45.87785" lon="4.83816">
        <ele>169</ele>
        <time>2018-09-09T09:11:12Z</time>
      </trkpt>
      <trkpt lat="45.8779" lon="4.8381">
        <ele>169</ele>
        <time>2018-09-09T09:11:13Z</time>
      </trkpt>
      <trkpt lat="45.87796" lon="4.83806">
        <ele>169</ele>
        <time>2018-09-09T09:11:14Z</time>
      </trkpt>
      <trkpt lat="45.87801" lon="4.83801">
        <ele>169</ele>
        <time>2018-09-09T09:11:15Z</time>
      </trkpt>
      <trkpt lat="45.87806" lon="4.83797">
        <ele>169</ele>
        <time>2018-09-09T09:11:16Z</time>
      </trkpt>
      <trkpt lat="45.87811" lon="4.83793">
        <ele>169</ele>
        <time>2018-09-09T09:11:17Z</time>
      </trkpt>
      <trkpt lat="45.87816" lon="4.83787">
        <ele>168</ele>
        <time>2018-09-09T09:11:18Z</time>
      </trkpt>
      <trkpt lat="45.87821" lon="4.83783">
        <ele>168</ele>
        <time>2018-09-09T09:11:19Z</time>
      </trkpt>
      <trkpt lat="45.87826" lon="4.83779">
        <ele>168</ele>
        <time>2018-09-09T09:11:20Z</time>
      </trkpt>
      <trkpt lat="45.8783" lon="4.83775">
        <ele>168</ele>
        <time>2018-09-09T09:11:21Z</time>
      </trkpt>
      <trkpt lat="45.87833" lon="4.83772">
        <ele>167</ele>
        <time>2018-09-09T09:11:22Z</time>
      </trkpt>
      <trkpt lat="45.87837" lon="4.83768">
        <ele>168</ele>
        <time>2018-09-09T09:11:23Z</time>
      </trkpt>
      <trkpt lat="45.87841" lon="4.83765">
        <ele>168</ele>
        <time>2018-09-09T09:11:24Z</time>
      </trkpt>
      <trkpt lat="45.87845" lon="4.83759">
        <ele>168</ele>
        <time>2018-09-09T09:11:25Z</time>
      </trkpt>
      <trkpt lat="45.8785" lon="4.83755">
        <ele>168</ele>
        <time>2018-09-09T09:11:26Z</time>
      </trkpt>
      <trkpt lat="45.87854" lon="4.8375">
        <ele>167</ele>
        <time>2018-09-09T09:11:27Z</time>
      </trkpt>
      <trkpt lat="45.87859" lon="4.83744">
        <ele>168</ele>
        <time>2018-09-09T09:11:28Z</time>
      </trkpt>
      <trkpt lat="45.87864" lon="4.83738">
        <ele>168</ele>
        <time>2018-09-09T09:11:29Z</time>
      </trkpt>
      <trkpt lat="45.87869" lon="4.83732">
        <ele>168</ele>
        <time>2018-09-09T09:11:30Z</time>
      </trkpt>
      <trkpt lat="45.87874" lon="4.83727">
        <ele>169</ele>
        <time>2018-09-09T09:11:31Z</time>
      </trkpt>
      <trkpt lat="45.87879" lon="4.83723">
        <ele>169</ele>
        <time>2018-09-09T09:11:32Z</time>
      </trkpt>
      <trkpt lat="45.87884" lon="4.83717">
        <ele>169</ele>
        <time>2018-09-09T09:11:33Z</time>
      </trkpt>
      <trkpt lat="45.8789" lon="4.83711">
        <ele>169</ele>
        <time>2018-09-09T09:11:34Z</time>
      </trkpt>
      <trkpt lat="45.87894" lon="4.83707">
        <ele>169</ele>
        <time>2018-09-09T09:11:35Z</time>
      </trkpt>
      <trkpt lat="45.87899" lon="4.83703">
        <ele>169</ele>
        <time>2018-09-09T09:11:36Z</time>
      </trkpt>
      <trkpt lat="45.87904" lon="4.83699">
        <ele>169</ele>
        <time>2018-09-09T09:11:37Z</time>
      </trkpt>
      <trkpt lat="45.87908" lon="4.83695">
        <ele>170</ele>
        <time>2018-09-09T09:11:38Z</time>
      </trkpt>
      <trkpt lat="45.87912" lon="4.83689">
        <ele>170</ele>
        <time>2018-09-09T09:11:39Z</time>
      </trkpt>
      <trkpt lat="45.87916" lon="4.83685">
        <ele>170</ele>
        <time>2018-09-09T09:11:40Z</time>
      </trkpt>
      <trkpt lat="45.87922" lon="4.8368">
        <ele>171</ele>
        <time>2018-09-09T09:11:41Z</time>
      </trkpt>
      <trkpt lat="45.87926" lon="4.83677">
        <ele>171</ele>
        <time>2018-09-09T09:11:42Z</time>
      </trkpt>
      <trkpt lat="45.87932" lon="4.83672">
        <ele>171</ele>
        <time>2018-09-09T09:11:43Z</time>
      </trkpt>
      <trkpt lat="45.87937" lon="4.83667">
        <ele>171</ele>
        <time>2018-09-09T09:11:44Z</time>
      </trkpt>
      <trkpt lat="45.87945" lon="4.83663">
        <ele>171</ele>
        <time>2018-09-09T09:11:45Z</time>
      </trkpt>
      <trkpt lat="45.87945" lon="4.83657">
        <ele>171</ele>
        <time>2018-09-09T09:11:46Z</time>
      </trkpt>
      <trkpt lat="45.87949" lon="4.83657">
        <ele>171</ele>
        <time>2018-09-09T09:11:47Z</time>
      </trkpt>
      <trkpt lat="45.87955" lon="4.83653">
        <ele>171</ele>
        <time>2018-09-09T09:11:48Z</time>
      </trkpt>
      <trkpt lat="45.87958" lon="4.8365">
        <ele>171</ele>
        <time>2018-09-09T09:11:49Z</time>
      </trkpt>
      <trkpt lat="45.87964" lon="4.83644">
        <ele>171</ele>
        <time>2018-09-09T09:11:50Z</time>
      </trkpt>
      <trkpt lat="45.87969" lon="4.83638">
        <ele>171</ele>
        <time>2018-09-09T09:11:51Z</time>
      </trkpt>
      <trkpt lat="45.87976" lon="4.83632">
        <ele>171</ele>
        <time>2018-09-09T09:11:52Z</time>
      </trkpt>
      <trkpt lat="45.8798" lon="4.83625">
        <ele>171</ele>
        <time>2018-09-09T09:11:53Z</time>
      </trkpt>
      <trkpt lat="45.87984" lon="4.83623">
        <ele>171</ele>
        <time>2018-09-09T09:11:54Z</time>
      </trkpt>
      <trkpt lat="45.87987" lon="4.83619">
        <ele>171</ele>
        <time>2018-09-09T09:11:55Z</time>
      </trkpt>
      <trkpt lat="45.87991" lon="4.83614">
        <ele>171</ele>
        <time>2018-09-09T09:11:56Z</time>
      </trkpt>
      <trkpt lat="45.87995" lon="4.8361">
        <ele>171</ele>
        <time>2018-09-09T09:11:57Z</time>
      </trkpt>
      <trkpt lat="45.87999" lon="4.83607">
        <ele>171</ele>
        <time>2018-09-09T09:11:58Z</time>
      </trkpt>
      <trkpt lat="45.88002" lon="4.83601">
        <ele>171</ele>
        <time>2018-09-09T09:11:59Z</time>
      </trkpt>
      <trkpt lat="45.88006" lon="4.83595">
        <ele>171</ele>
        <time>2018-09-09T09:12:00Z</time>
      </trkpt>
      <trkpt lat="45.88011" lon="4.8359">
        <ele>171</ele>
        <time>2018-09-09T09:12:01Z</time>
      </trkpt>
      <trkpt lat="45.88015" lon="4.83587">
        <ele>171</ele>
        <time>2018-09-09T09:12:02Z</time>
      </trkpt>
      <trkpt lat="45.88021" lon="4.83582">
        <ele>172</ele>
        <time>2018-09-09T09:12:03Z</time>
      </trkpt>
      <trkpt lat="45.88025" lon="4.83577">
        <ele>172</ele>
        <time>2018-09-09T09:12:04Z</time>
      </trkpt>
      <trkpt lat="45.88028" lon="4.83569">
        <ele>172</ele>
        <time>2018-09-09T09:12:05Z</time>
      </trkpt>
      <trkpt lat="45.88034" lon="4.8357">
        <ele>172</ele>
        <time>2018-09-09T09:12:06Z</time>
      </trkpt>
      <trkpt lat="45.88036" lon="4.83554">
        <ele>172</ele>
        <time>2018-09-09T09:12:07Z</time>
      </trkpt>
      <trkpt lat="45.88042" lon="4.83554">
        <ele>172</ele>
        <time>2018-09-09T09:12:08Z</time>
      </trkpt>
      <trkpt lat="45.88048" lon="4.83546">
        <ele>173</ele>
        <time>2018-09-09T09:12:09Z</time>
      </trkpt>
      <trkpt lat="45.88051" lon="4.83542">
        <ele>173</ele>
        <time>2018-09-09T09:12:10Z</time>
      </trkpt>
      <trkpt lat="45.88056" lon="4.83537">
        <ele>173</ele>
        <time>2018-09-09T09:12:11Z</time>
      </trkpt>
      <trkpt lat="45.88061" lon="4.83533">
        <ele>173</ele>
        <time>2018-09-09T09:12:12Z</time>
      </trkpt>
      <trkpt lat="45.88066" lon="4.83532">
        <ele>173</ele>
        <time>2018-09-09T09:12:13Z</time>
      </trkpt>
      <trkpt lat="45.88072" lon="4.83525">
        <ele>173</ele>
        <time>2018-09-09T09:12:16Z</time>
      </trkpt>
      <trkpt lat="45.88074" lon="4.83524">
        <ele>173</ele>
        <time>2018-09-09T09:12:17Z</time>
      </trkpt>
      <trkpt lat="45.8808" lon="4.83515">
        <ele>173</ele>
        <time>2018-09-09T09:12:22Z</time>
      </trkpt>
      <trkpt lat="45.88081" lon="4.83513">
        <ele>173</ele>
        <time>2018-09-09T09:12:23Z</time>
      </trkpt>
      <trkpt lat="45.88087" lon="4.83509">
        <ele>173</ele>
        <time>2018-09-09T09:12:26Z</time>
      </trkpt>
      <trkpt lat="45.88089" lon="4.83507">
        <ele>173</ele>
        <time>2018-09-09T09:12:27Z</time>
      </trkpt>
      <trkpt lat="45.88098" lon="4.83501">
        <ele>173</ele>
        <time>2018-09-09T09:12:28Z</time>
      </trkpt>
      <trkpt lat="45.88102" lon="4.83498">
        <ele>172</ele>
        <time>2018-09-09T09:12:29Z</time>
      </trkpt>
      <trkpt lat="45.88107" lon="4.83494">
        <ele>172</ele>
        <time>2018-09-09T09:12:30Z</time>
      </trkpt>
      <trkpt lat="45.8811" lon="4.83489">
        <ele>172</ele>
        <time>2018-09-09T09:12:31Z</time>
      </trkpt>
      <trkpt lat="45.88115" lon="4.83487">
        <ele>172</ele>
        <time>2018-09-09T09:12:32Z</time>
      </trkpt>
      <trkpt lat="45.88119" lon="4.83482">
        <ele>172</ele>
        <time>2018-09-09T09:12:33Z</time>
      </trkpt>
      <trkpt lat="45.88124" lon="4.83478">
        <ele>172</ele>
        <time>2018-09-09T09:12:34Z</time>
      </trkpt>
      <trkpt lat="45.88131" lon="4.83472">
        <ele>172</ele>
        <time>2018-09-09T09:12:36Z</time>
      </trkpt>
      <trkpt lat="45.88135" lon="4.83469">
        <ele>172</ele>
        <time>2018-09-09T09:12:37Z</time>
      </trkpt>
      <trkpt lat="45.88142" lon="4.83462">
        <ele>171</ele>
        <time>2018-09-09T09:12:39Z</time>
      </trkpt>
      <trkpt lat="45.88147" lon="4.83459">
        <ele>171</ele>
        <time>2018-09-09T09:12:40Z</time>
      </trkpt>
      <trkpt lat="45.88151" lon="4.83455">
        <ele>171</ele>
        <time>2018-09-09T09:12:41Z</time>
      </trkpt>
      <trkpt lat="45.88156" lon="4.83449">
        <ele>171</ele>
        <time>2018-09-09T09:12:42Z</time>
      </trkpt>
      <trkpt lat="45.88162" lon="4.83446">
        <ele>171</ele>
        <time>2018-09-09T09:12:43Z</time>
      </trkpt>
      <trkpt lat="45.88165" lon="4.83443">
        <ele>171</ele>
        <time>2018-09-09T09:12:44Z</time>
      </trkpt>
      <trkpt lat="45.88173" lon="4.8344">
        <ele>171</ele>
        <time>2018-09-09T09:12:46Z</time>
      </trkpt>
      <trkpt lat="45.88176" lon="4.83438">
        <ele>171</ele>
        <time>2018-09-09T09:12:47Z</time>
      </trkpt>
      <trkpt lat="45.88183" lon="4.83432">
        <ele>171</ele>
        <time>2018-09-09T09:12:49Z</time>
      </trkpt>
      <trkpt lat="45.88188" lon="4.83429">
        <ele>171</ele>
        <time>2018-09-09T09:12:50Z</time>
      </trkpt>
      <trkpt lat="45.88193" lon="4.83424">
        <ele>171</ele>
        <time>2018-09-09T09:12:51Z</time>
      </trkpt>
      <trkpt lat="45.88199" lon="4.83422">
        <ele>171</ele>
        <time>2018-09-09T09:12:52Z</time>
      </trkpt>
      <trkpt lat="45.88205" lon="4.8342">
        <ele>171</ele>
        <time>2018-09-09T09:12:53Z</time>
      </trkpt>
      <trkpt lat="45.8821" lon="4.83417">
        <ele>171</ele>
        <time>2018-09-09T09:12:54Z</time>
      </trkpt>
      <trkpt lat="45.88215" lon="4.83413">
        <ele>171</ele>
        <time>2018-09-09T09:12:55Z</time>
      </trkpt>
      <trkpt lat="45.8822" lon="4.83411">
        <ele>171</ele>
        <time>2018-09-09T09:12:56Z</time>
      </trkpt>
      <trkpt lat="45.88226" lon="4.83409">
        <ele>171</ele>
        <time>2018-09-09T09:12:57Z</time>
      </trkpt>
      <trkpt lat="45.88232" lon="4.83408">
        <ele>171</ele>
        <time>2018-09-09T09:12:58Z</time>
      </trkpt>
      <trkpt lat="45.88239" lon="4.83405">
        <ele>172</ele>
        <time>2018-09-09T09:12:59Z</time>
      </trkpt>
      <trkpt lat="45.88245" lon="4.83405">
        <ele>172</ele>
        <time>2018-09-09T09:13:00Z</time>
      </trkpt>
      <trkpt lat="45.8825" lon="4.83403">
        <ele>172</ele>
        <time>2018-09-09T09:13:01Z</time>
      </trkpt>
      <trkpt lat="45.88256" lon="4.83401">
        <ele>172</ele>
        <time>2018-09-09T09:13:02Z</time>
      </trkpt>
      <trkpt lat="45.88261" lon="4.834">
        <ele>172</ele>
        <time>2018-09-09T09:13:03Z</time>
      </trkpt>
      <trkpt lat="45.88267" lon="4.83401">
        <ele>172</ele>
        <time>2018-09-09T09:13:04Z</time>
      </trkpt>
      <trkpt lat="45.88272" lon="4.83399">
        <ele>172</ele>
        <time>2018-09-09T09:13:05Z</time>
      </trkpt>
      <trkpt lat="45.88278" lon="4.83397">
        <ele>172</ele>
        <time>2018-09-09T09:13:06Z</time>
      </trkpt>
      <trkpt lat="45.88283" lon="4.83396">
        <ele>172</ele>
        <time>2018-09-09T09:13:07Z</time>
      </trkpt>
      <trkpt lat="45.88288" lon="4.83394">
        <ele>172</ele>
        <time>2018-09-09T09:13:08Z</time>
      </trkpt>
      <trkpt lat="45.88293" lon="4.83391">
        <ele>172</ele>
        <time>2018-09-09T09:13:09Z</time>
      </trkpt>
      <trkpt lat="45.88297" lon="4.83389">
        <ele>172</ele>
        <time>2018-09-09T09:13:10Z</time>
      </trkpt>
      <trkpt lat="45.88302" lon="4.83388">
        <ele>172</ele>
        <time>2018-09-09T09:13:11Z</time>
      </trkpt>
      <trkpt lat="45.88307" lon="4.83386">
        <ele>172</ele>
        <time>2018-09-09T09:13:12Z</time>
      </trkpt>
      <trkpt lat="45.88312" lon="4.83385">
        <ele>172</ele>
        <time>2018-09-09T09:13:13Z</time>
      </trkpt>
      <trkpt lat="45.88317" lon="4.83384">
        <ele>172</ele>
        <time>2018-09-09T09:13:14Z</time>
      </trkpt>
      <trkpt lat="45.88323" lon="4.83382">
        <ele>172</ele>
        <time>2018-09-09T09:13:15Z</time>
      </trkpt>
      <trkpt lat="45.88328" lon="4.83381">
        <ele>172</ele>
        <time>2018-09-09T09:13:16Z</time>
      </trkpt>
      <trkpt lat="45.88332" lon="4.8338">
        <ele>172</ele>
        <time>2018-09-09T09:13:17Z</time>
      </trkpt>
      <trkpt lat="45.88338" lon="4.83377">
        <ele>172</ele>
        <time>2018-09-09T09:13:18Z</time>
      </trkpt>
      <trkpt lat="45.88343" lon="4.83376">
        <ele>172</ele>
        <time>2018-09-09T09:13:19Z</time>
      </trkpt>
      <trkpt lat="45.88348" lon="4.83372">
        <ele>172</ele>
        <time>2018-09-09T09:13:20Z</time>
      </trkpt>
      <trkpt lat="45.88352" lon="4.8337">
        <ele>172</ele>
        <time>2018-09-09T09:13:21Z</time>
      </trkpt>
      <trkpt lat="45.88357" lon="4.83369">
        <ele>172</ele>
        <time>2018-09-09T09:13:22Z</time>
      </trkpt>
      <trkpt lat="45.88362" lon="4.83366">
        <ele>172</ele>
        <time>2018-09-09T09:13:23Z</time>
      </trkpt>
      <trkpt lat="45.88368" lon="4.83363">
        <ele>172</ele>
        <time>2018-09-09T09:13:24Z</time>
      </trkpt>
      <trkpt lat="45.88373" lon="4.8336">
        <ele>172</ele>
        <time>2018-09-09T09:13:25Z</time>
      </trkpt>
      <trkpt lat="45.88378" lon="4.83359">
        <ele>172</ele>
        <time>2018-09-09T09:13:26Z</time>
      </trkpt>
      <trkpt lat="45.88382" lon="4.83359">
        <ele>172</ele>
        <time>2018-09-09T09:13:27Z</time>
      </trkpt>
      <trkpt lat="45.88387" lon="4.83357">
        <ele>172</ele>
        <time>2018-09-09T09:13:28Z</time>
      </trkpt>
      <trkpt lat="45.88395" lon="4.83358">
        <ele>172</ele>
        <time>2018-09-09T09:13:30Z</time>
      </trkpt>
      <trkpt lat="45.88396" lon="4.83358">
        <ele>172</ele>
        <time>2018-09-09T09:13:31Z</time>
      </trkpt>
      <trkpt lat="45.88403" lon="4.83355">
        <ele>172</ele>
        <time>2018-09-09T09:13:32Z</time>
      </trkpt>
      <trkpt lat="45.88409" lon="4.83353">
        <ele>172</ele>
        <time>2018-09-09T09:13:33Z</time>
      </trkpt>
      <trkpt lat="45.88415" lon="4.83344">
        <ele>172</ele>
        <time>2018-09-09T09:13:34Z</time>
      </trkpt>
      <trkpt lat="45.8842" lon="4.83342">
        <ele>172</ele>
        <time>2018-09-09T09:13:35Z</time>
      </trkpt>
      <trkpt lat="45.88424" lon="4.8334">
        <ele>172</ele>
        <time>2018-09-09T09:13:36Z</time>
      </trkpt>
      <trkpt lat="45.88431" lon="4.83337">
        <ele>172</ele>
        <time>2018-09-09T09:13:37Z</time>
      </trkpt>
      <trkpt lat="45.88437" lon="4.83333">
        <ele>172</ele>
        <time>2018-09-09T09:13:38Z</time>
      </trkpt>
      <trkpt lat="45.88442" lon="4.8333">
        <ele>172</ele>
        <time>2018-09-09T09:13:39Z</time>
      </trkpt>
      <trkpt lat="45.88448" lon="4.83326">
        <ele>172</ele>
        <time>2018-09-09T09:13:40Z</time>
      </trkpt>
      <trkpt lat="45.88453" lon="4.83323">
        <ele>172</ele>
        <time>2018-09-09T09:13:41Z</time>
      </trkpt>
      <trkpt lat="45.88459" lon="4.83319">
        <ele>172</ele>
        <time>2018-09-09T09:13:42Z</time>
      </trkpt>
      <trkpt lat="45.88463" lon="4.83315">
        <ele>172</ele>
        <time>2018-09-09T09:13:43Z</time>
      </trkpt>
      <trkpt lat="45.88469" lon="4.83311">
        <ele>172</ele>
        <time>2018-09-09T09:13:44Z</time>
      </trkpt>
      <trkpt lat="45.88474" lon="4.83308">
        <ele>172</ele>
        <time>2018-09-09T09:13:45Z</time>
      </trkpt>
      <trkpt lat="45.88478" lon="4.83306">
        <ele>172</ele>
        <time>2018-09-09T09:13:46Z</time>
      </trkpt>
      <trkpt lat="45.88484" lon="4.83302">
        <ele>172</ele>
        <time>2018-09-09T09:13:47Z</time>
      </trkpt>
      <trkpt lat="45.88491" lon="4.83299">
        <ele>172</ele>
        <time>2018-09-09T09:13:49Z</time>
      </trkpt>
      <trkpt lat="45.88495" lon="4.83297">
        <ele>172</ele>
        <time>2018-09-09T09:13:50Z</time>
      </trkpt>
      <trkpt lat="45.885" lon="4.83294">
        <ele>172</ele>
        <time>2018-09-09T09:13:51Z</time>
      </trkpt>
      <trkpt lat="45.88505" lon="4.83291">
        <ele>172</ele>
        <time>2018-09-09T09:13:52Z</time>
      </trkpt>
      <trkpt lat="45.8851" lon="4.83287">
        <ele>172</ele>
        <time>2018-09-09T09:13:53Z</time>
      </trkpt>
      <trkpt lat="45.88514" lon="4.83284">
        <ele>172</ele>
        <time>2018-09-09T09:13:54Z</time>
      </trkpt>
      <trkpt lat="45.88518" lon="4.83281">
        <ele>172</ele>
        <time>2018-09-09T09:13:55Z</time>
      </trkpt>
      <trkpt lat="45.88523" lon="4.83279">
        <ele>172</ele>
        <time>2018-09-09T09:13:56Z</time>
      </trkpt>
      <trkpt lat="45.88527" lon="4.83275">
        <ele>172</ele>
        <time>2018-09-09T09:13:57Z</time>
      </trkpt>
      <trkpt lat="45.88532" lon="4.83272">
        <ele>172</ele>
        <time>2018-09-09T09:13:58Z</time>
      </trkpt>
      <trkpt lat="45.88536" lon="4.8327">
        <ele>172</ele>
        <time>2018-09-09T09:13:59Z</time>
      </trkpt>
      <trkpt lat="45.8854" lon="4.83265">
        <ele>172</ele>
        <time>2018-09-09T09:14:00Z</time>
      </trkpt>
      <trkpt lat="45.88547" lon="4.8326">
        <ele>172</ele>
        <time>2018-09-09T09:14:02Z</time>
      </trkpt>
      <trkpt lat="45.88552" lon="4.83256">
        <ele>172</ele>
        <time>2018-09-09T09:14:03Z</time>
      </trkpt>
      <trkpt lat="45.88555" lon="4.83251">
        <ele>172</ele>
        <time>2018-09-09T09:14:04Z</time>
      </trkpt>
      <trkpt lat="45.88558" lon="4.83246">
        <ele>172</ele>
        <time>2018-09-09T09:14:05Z</time>
      </trkpt>
      <trkpt lat="45.88562" lon="4.8324">
        <ele>172</ele>
        <time>2018-09-09T09:14:06Z</time>
      </trkpt>
      <trkpt lat="45.88566" lon="4.83234">
        <ele>172</ele>
        <time>2018-09-09T09:14:07Z</time>
      </trkpt>
      <trkpt lat="45.88569" lon="4.83229">
        <ele>172</ele>
        <time>2018-09-09T09:14:08Z</time>
      </trkpt>
      <trkpt lat="45.88573" lon="4.83224">
        <ele>172</ele>
        <time>2018-09-09T09:14:09Z</time>
      </trkpt>
      <trkpt lat="45.88577" lon="4.83219">
        <ele>172</ele>
        <time>2018-09-09T09:14:10Z</time>
      </trkpt>
      <trkpt lat="45.8858" lon="4.83214">
        <ele>172</ele>
        <time>2018-09-09T09:14:11Z</time>
      </trkpt>
      <trkpt lat="45.88584" lon="4.83209">
        <ele>172</ele>
        <time>2018-09-09T09:14:12Z</time>
      </trkpt>
      <trkpt lat="45.88587" lon="4.83203">
        <ele>172</ele>
        <time>2018-09-09T09:14:13Z</time>
      </trkpt>
      <trkpt lat="45.88591" lon="4.83199">
        <ele>172</ele>
        <time>2018-09-09T09:14:14Z</time>
      </trkpt>
      <trkpt lat="45.88596" lon="4.83195">
        <ele>172</ele>
        <time>2018-09-09T09:14:15Z</time>
      </trkpt>
      <trkpt lat="45.88601" lon="4.8319">
        <ele>172</ele>
        <time>2018-09-09T09:14:16Z</time>
      </trkpt>
      <trkpt lat="45.88606" lon="4.83185">
        <ele>172</ele>
        <time>2018-09-09T09:14:17Z</time>
      </trkpt>
      <trkpt lat="45.88611" lon="4.8318">
        <ele>172</ele>
        <time>2018-09-09T09:14:18Z</time>
      </trkpt>
      <trkpt lat="45.88615" lon="4.83176">
        <ele>172</ele>
        <time>2018-09-09T09:14:19Z</time>
      </trkpt>
      <trkpt lat="45.88619" lon="4.83171">
        <ele>172</ele>
        <time>2018-09-09T09:14:20Z</time>
      </trkpt>
      <trkpt lat="45.88622" lon="4.83167">
        <ele>172</ele>
        <time>2018-09-09T09:14:21Z</time>
      </trkpt>
      <trkpt lat="45.88626" lon="4.83162">
        <ele>172</ele>
        <time>2018-09-09T09:14:22Z</time>
      </trkpt>
      <trkpt lat="45.88629" lon="4.83158">
        <ele>173</ele>
        <time>2018-09-09T09:14:23Z</time>
      </trkpt>
      <trkpt lat="45.88636" lon="4.83151">
        <ele>173</ele>
        <time>2018-09-09T09:14:25Z</time>
      </trkpt>
      <trkpt lat="45.88639" lon="4.83148">
        <ele>173</ele>
        <time>2018-09-09T09:14:26Z</time>
      </trkpt>
      <trkpt lat="45.88645" lon="4.83138">
        <ele>173</ele>
        <time>2018-09-09T09:14:28Z</time>
      </trkpt>
      <trkpt lat="45.88649" lon="4.83133">
        <ele>173</ele>
        <time>2018-09-09T09:14:29Z</time>
      </trkpt>
      <trkpt lat="45.88655" lon="4.83125">
        <ele>173</ele>
        <time>2018-09-09T09:14:31Z</time>
      </trkpt>
      <trkpt lat="45.88659" lon="4.83121">
        <ele>173</ele>
        <time>2018-09-09T09:14:32Z</time>
      </trkpt>
      <trkpt lat="45.88665" lon="4.83113">
        <ele>174</ele>
        <time>2018-09-09T09:14:34Z</time>
      </trkpt>
      <trkpt lat="45.88668" lon="4.83108">
        <ele>174</ele>
        <time>2018-09-09T09:14:35Z</time>
      </trkpt>
      <trkpt lat="45.88672" lon="4.83103">
        <ele>174</ele>
        <time>2018-09-09T09:14:36Z</time>
      </trkpt>
      <trkpt lat="45.88676" lon="4.831">
        <ele>174</ele>
        <time>2018-09-09T09:14:37Z</time>
      </trkpt>
      <trkpt lat="45.88681" lon="4.83092">
        <ele>174</ele>
        <time>2018-09-09T09:14:39Z</time>
      </trkpt>
      <trkpt lat="45.88685" lon="4.83089">
        <ele>174</ele>
        <time>2018-09-09T09:14:40Z</time>
      </trkpt>
      <trkpt lat="45.88689" lon="4.83084">
        <ele>174</ele>
        <time>2018-09-09T09:14:41Z</time>
      </trkpt>
      <trkpt lat="45.88693" lon="4.83078">
        <ele>174</ele>
        <time>2018-09-09T09:14:42Z</time>
      </trkpt>
      <trkpt lat="45.88699" lon="4.83071">
        <ele>174</ele>
        <time>2018-09-09T09:14:44Z</time>
      </trkpt>
      <trkpt lat="45.88702" lon="4.83067">
        <ele>174</ele>
        <time>2018-09-09T09:14:45Z</time>
      </trkpt>
      <trkpt lat="45.88709" lon="4.8306">
        <ele>174</ele>
        <time>2018-09-09T09:14:47Z</time>
      </trkpt>
      <trkpt lat="45.88713" lon="4.83056">
        <ele>174</ele>
        <time>2018-09-09T09:14:48Z</time>
      </trkpt>
      <trkpt lat="45.88717" lon="4.83053">
        <ele>174</ele>
        <time>2018-09-09T09:14:49Z</time>
      </trkpt>
      <trkpt lat="45.8872" lon="4.83047">
        <ele>174</ele>
        <time>2018-09-09T09:14:50Z</time>
      </trkpt>
      <trkpt lat="45.88724" lon="4.83044">
        <ele>174</ele>
        <time>2018-09-09T09:14:51Z</time>
      </trkpt>
      <trkpt lat="45.88727" lon="4.83039">
        <ele>173</ele>
        <time>2018-09-09T09:14:52Z</time>
      </trkpt>
      <trkpt lat="45.88731" lon="4.83033">
        <ele>173</ele>
        <time>2018-09-09T09:14:53Z</time>
      </trkpt>
      <trkpt lat="45.88736" lon="4.83029">
        <ele>173</ele>
        <time>2018-09-09T09:14:54Z</time>
      </trkpt>
      <trkpt lat="45.88739" lon="4.83023">
        <ele>173</ele>
        <time>2018-09-09T09:14:55Z</time>
      </trkpt>
      <trkpt lat="45.88743" lon="4.83018">
        <ele>173</ele>
        <time>2018-09-09T09:14:56Z</time>
      </trkpt>
      <trkpt lat="45.8875" lon="4.83011">
        <ele>173</ele>
        <time>2018-09-09T09:14:58Z</time>
      </trkpt>
      <trkpt lat="45.88754" lon="4.83007">
        <ele>172</ele>
        <time>2018-09-09T09:14:59Z</time>
      </trkpt>
      <trkpt lat="45.8876" lon="4.83001">
        <ele>172</ele>
        <time>2018-09-09T09:15:01Z</time>
      </trkpt>
      <trkpt lat="45.88763" lon="4.82996">
        <ele>172</ele>
        <time>2018-09-09T09:15:02Z</time>
      </trkpt>
      <trkpt lat="45.88766" lon="4.82992">
        <ele>172</ele>
        <time>2018-09-09T09:15:03Z</time>
      </trkpt>
      <trkpt lat="45.8877" lon="4.82985">
        <ele>172</ele>
        <time>2018-09-09T09:15:04Z</time>
      </trkpt>
      <trkpt lat="45.88774" lon="4.82981">
        <ele>172</ele>
        <time>2018-09-09T09:15:05Z</time>
      </trkpt>
      <trkpt lat="45.88778" lon="4.82977">
        <ele>172</ele>
        <time>2018-09-09T09:15:06Z</time>
      </trkpt>
      <trkpt lat="45.88781" lon="4.82972">
        <ele>172</ele>
        <time>2018-09-09T09:15:07Z</time>
      </trkpt>
      <trkpt lat="45.88785" lon="4.82967">
        <ele>172</ele>
        <time>2018-09-09T09:15:08Z</time>
      </trkpt>
      <trkpt lat="45.88788" lon="4.82962">
        <ele>172</ele>
        <time>2018-09-09T09:15:09Z</time>
      </trkpt>
      <trkpt lat="45.88792" lon="4.82958">
        <ele>172</ele>
        <time>2018-09-09T09:15:10Z</time>
      </trkpt>
      <trkpt lat="45.88796" lon="4.82954">
        <ele>172</ele>
        <time>2018-09-09T09:15:11Z</time>
      </trkpt>
      <trkpt lat="45.88799" lon="4.82948">
        <ele>172</ele>
        <time>2018-09-09T09:15:12Z</time>
      </trkpt>
      <trkpt lat="45.88804" lon="4.82943">
        <ele>172</ele>
        <time>2018-09-09T09:15:13Z</time>
      </trkpt>
      <trkpt lat="45.88807" lon="4.82938">
        <ele>172</ele>
        <time>2018-09-09T09:15:14Z</time>
      </trkpt>
      <trkpt lat="45.88811" lon="4.82933">
        <ele>172</ele>
        <time>2018-09-09T09:15:15Z</time>
      </trkpt>
      <trkpt lat="45.88814" lon="4.82928">
        <ele>172</ele>
        <time>2018-09-09T09:15:16Z</time>
      </trkpt>
      <trkpt lat="45.88818" lon="4.82922">
        <ele>172</ele>
        <time>2018-09-09T09:15:17Z</time>
      </trkpt>
      <trkpt lat="45.88821" lon="4.82917">
        <ele>172</ele>
        <time>2018-09-09T09:15:18Z</time>
      </trkpt>
      <trkpt lat="45.88825" lon="4.82913">
        <ele>172</ele>
        <time>2018-09-09T09:15:19Z</time>
      </trkpt>
      <trkpt lat="45.88829" lon="4.8291">
        <ele>172</ele>
        <time>2018-09-09T09:15:20Z</time>
      </trkpt>
      <trkpt lat="45.88833" lon="4.82906">
        <ele>172</ele>
        <time>2018-09-09T09:15:21Z</time>
      </trkpt>
      <trkpt lat="45.88837" lon="4.82902">
        <ele>172</ele>
        <time>2018-09-09T09:15:22Z</time>
      </trkpt>
      <trkpt lat="45.88841" lon="4.82897">
        <ele>172</ele>
        <time>2018-09-09T09:15:23Z</time>
      </trkpt>
      <trkpt lat="45.88846" lon="4.82891">
        <ele>172</ele>
        <time>2018-09-09T09:15:24Z</time>
      </trkpt>
      <trkpt lat="45.8885" lon="4.82886">
        <ele>172</ele>
        <time>2018-09-09T09:15:25Z</time>
      </trkpt>
      <trkpt lat="45.88854" lon="4.82881">
        <ele>172</ele>
        <time>2018-09-09T09:15:26Z</time>
      </trkpt>
      <trkpt lat="45.88857" lon="4.82876">
        <ele>172</ele>
        <time>2018-09-09T09:15:27Z</time>
      </trkpt>
      <trkpt lat="45.88861" lon="4.8287">
        <ele>172</ele>
        <time>2018-09-09T09:15:28Z</time>
      </trkpt>
      <trkpt lat="45.88865" lon="4.82865">
        <ele>172</ele>
        <time>2018-09-09T09:15:29Z</time>
      </trkpt>
      <trkpt lat="45.8887" lon="4.8286">
        <ele>172</ele>
        <time>2018-09-09T09:15:30Z</time>
      </trkpt>
      <trkpt lat="45.88874" lon="4.82856">
        <ele>172</ele>
        <time>2018-09-09T09:15:31Z</time>
      </trkpt>
      <trkpt lat="45.88879" lon="4.82851">
        <ele>172</ele>
        <time>2018-09-09T09:15:32Z</time>
      </trkpt>
      <trkpt lat="45.88883" lon="4.82847">
        <ele>172</ele>
        <time>2018-09-09T09:15:33Z</time>
      </trkpt>
      <trkpt lat="45.88887" lon="4.82841">
        <ele>172</ele>
        <time>2018-09-09T09:15:34Z</time>
      </trkpt>
      <trkpt lat="45.88891" lon="4.82837">
        <ele>172</ele>
        <time>2018-09-09T09:15:35Z</time>
      </trkpt>
      <trkpt lat="45.88894" lon="4.82833">
        <ele>172</ele>
        <time>2018-09-09T09:15:36Z</time>
      </trkpt>
      <trkpt lat="45.88898" lon="4.82828">
        <ele>172</ele>
        <time>2018-09-09T09:15:37Z</time>
      </trkpt>
      <trkpt lat="45.88902" lon="4.82824">
        <ele>172</ele>
        <time>2018-09-09T09:15:38Z</time>
      </trkpt>
      <trkpt lat="45.88906" lon="4.82819">
        <ele>172</ele>
        <time>2018-09-09T09:15:39Z</time>
      </trkpt>
      <trkpt lat="45.8891" lon="4.82815">
        <ele>172</ele>
        <time>2018-09-09T09:15:40Z</time>
      </trkpt>
      <trkpt lat="45.88914" lon="4.82812">
        <ele>172</ele>
        <time>2018-09-09T09:15:41Z</time>
      </trkpt>
      <trkpt lat="45.88918" lon="4.82807">
        <ele>172</ele>
        <time>2018-09-09T09:15:42Z</time>
      </trkpt>
      <trkpt lat="45.88922" lon="4.82803">
        <ele>172</ele>
        <time>2018-09-09T09:15:43Z</time>
      </trkpt>
      <trkpt lat="45.88926" lon="4.82799">
        <ele>172</ele>
        <time>2018-09-09T09:15:44Z</time>
      </trkpt>
      <trkpt lat="45.8893" lon="4.82794">
        <ele>172</ele>
        <time>2018-09-09T09:15:45Z</time>
      </trkpt>
      <trkpt lat="45.88934" lon="4.8279">
        <ele>172</ele>
        <time>2018-09-09T09:15:46Z</time>
      </trkpt>
      <trkpt lat="45.88938" lon="4.82785">
        <ele>172</ele>
        <time>2018-09-09T09:15:47Z</time>
      </trkpt>
      <trkpt lat="45.88942" lon="4.82782">
        <ele>172</ele>
        <time>2018-09-09T09:15:48Z</time>
      </trkpt>
      <trkpt lat="45.88945" lon="4.82779">
        <ele>172</ele>
        <time>2018-09-09T09:15:49Z</time>
      </trkpt>
      <trkpt lat="45.88949" lon="4.82774">
        <ele>172</ele>
        <time>2018-09-09T09:15:50Z</time>
      </trkpt>
      <trkpt lat="45.88957" lon="4.82767">
        <ele>172</ele>
        <time>2018-09-09T09:15:52Z</time>
      </trkpt>
      <trkpt lat="45.8896" lon="4.82763">
        <ele>172</ele>
        <time>2018-09-09T09:15:53Z</time>
      </trkpt>
      <trkpt lat="45.88965" lon="4.82756">
        <ele>172</ele>
        <time>2018-09-09T09:15:55Z</time>
      </trkpt>
      <trkpt lat="45.88967" lon="4.82752">
        <ele>172</ele>
        <time>2018-09-09T09:15:56Z</time>
      </trkpt>
      <trkpt lat="45.88972" lon="4.82743">
        <ele>173</ele>
        <time>2018-09-09T09:15:58Z</time>
      </trkpt>
      <trkpt lat="45.88975" lon="4.82739">
        <ele>173</ele>
        <time>2018-09-09T09:15:59Z</time>
      </trkpt>
      <trkpt lat="45.88977" lon="4.82733">
        <ele>173</ele>
        <time>2018-09-09T09:16:00Z</time>
      </trkpt>
      <trkpt lat="45.8898" lon="4.82727">
        <ele>173</ele>
        <time>2018-09-09T09:16:01Z</time>
      </trkpt>
      <trkpt lat="45.88983" lon="4.82719">
        <ele>173</ele>
        <time>2018-09-09T09:16:02Z</time>
      </trkpt>
      <trkpt lat="45.88985" lon="4.82713">
        <ele>173</ele>
        <time>2018-09-09T09:16:03Z</time>
      </trkpt>
      <trkpt lat="45.88988" lon="4.82707">
        <ele>173</ele>
        <time>2018-09-09T09:16:04Z</time>
      </trkpt>
      <trkpt lat="45.88992" lon="4.82702">
        <ele>173</ele>
        <time>2018-09-09T09:16:05Z</time>
      </trkpt>
      <trkpt lat="45.88995" lon="4.82696">
        <ele>173</ele>
        <time>2018-09-09T09:16:06Z</time>
      </trkpt>
      <trkpt lat="45.88998" lon="4.8269">
        <ele>173</ele>
        <time>2018-09-09T09:16:07Z</time>
      </trkpt>
      <trkpt lat="45.89002" lon="4.8268">
        <ele>173</ele>
        <time>2018-09-09T09:16:09Z</time>
      </trkpt>
      <trkpt lat="45.89005" lon="4.82675">
        <ele>173</ele>
        <time>2018-09-09T09:16:10Z</time>
      </trkpt>
      <trkpt lat="45.89007" lon="4.82668">
        <ele>173</ele>
        <time>2018-09-09T09:16:11Z</time>
      </trkpt>
      <trkpt lat="45.89011" lon="4.82662">
        <ele>173</ele>
        <time>2018-09-09T09:16:12Z</time>
      </trkpt>
      <trkpt lat="45.89015" lon="4.82651">
        <ele>173</ele>
        <time>2018-09-09T09:16:14Z</time>
      </trkpt>
      <trkpt lat="45.89017" lon="4.82646">
        <ele>174</ele>
        <time>2018-09-09T09:16:15Z</time>
      </trkpt>
      <trkpt lat="45.89021" lon="4.82639">
        <ele>174</ele>
        <time>2018-09-09T09:16:17Z</time>
      </trkpt>
      <trkpt lat="45.89024" lon="4.82632">
        <ele>174</ele>
        <time>2018-09-09T09:16:18Z</time>
      </trkpt>
      <trkpt lat="45.89027" lon="4.82626">
        <ele>174</ele>
        <time>2018-09-09T09:16:19Z</time>
      </trkpt>
      <trkpt lat="45.8903" lon="4.82621">
        <ele>174</ele>
        <time>2018-09-09T09:16:20Z</time>
      </trkpt>
      <trkpt lat="45.89034" lon="4.82616">
        <ele>174</ele>
        <time>2018-09-09T09:16:21Z</time>
      </trkpt>
      <trkpt lat="45.89037" lon="4.82611">
        <ele>174</ele>
        <time>2018-09-09T09:16:22Z</time>
      </trkpt>
      <trkpt lat="45.89039" lon="4.82605">
        <ele>174</ele>
        <time>2018-09-09T09:16:23Z</time>
      </trkpt>
      <trkpt lat="45.89042" lon="4.82599">
        <ele>174</ele>
        <time>2018-09-09T09:16:24Z</time>
      </trkpt>
      <trkpt lat="45.89047" lon="4.8259">
        <ele>174</ele>
        <time>2018-09-09T09:16:26Z</time>
      </trkpt>
      <trkpt lat="45.89051" lon="4.82585">
        <ele>174</ele>
        <time>2018-09-09T09:16:27Z</time>
      </trkpt>
      <trkpt lat="45.89054" lon="4.82582">
        <ele>174</ele>
        <time>2018-09-09T09:16:29Z</time>
      </trkpt>
      <trkpt lat="45.89059" lon="4.82575">
        <ele>174</ele>
        <time>2018-09-09T09:16:30Z</time>
      </trkpt>
      <trkpt lat="45.89066" lon="4.8257">
        <ele>174</ele>
        <time>2018-09-09T09:16:33Z</time>
      </trkpt>
      <trkpt lat="45.89071" lon="4.82573">
        <ele>174</ele>
        <time>2018-09-09T09:16:34Z</time>
      </trkpt>
      <trkpt lat="45.89075" lon="4.82579">
        <ele>174</ele>
        <time>2018-09-09T09:16:36Z</time>
      </trkpt>
      <trkpt lat="45.89077" lon="4.82585">
        <ele>174</ele>
        <time>2018-09-09T09:16:37Z</time>
      </trkpt>
      <trkpt lat="45.89082" lon="4.82595">
        <ele>174</ele>
        <time>2018-09-09T09:16:39Z</time>
      </trkpt>
      <trkpt lat="45.89086" lon="4.826">
        <ele>174</ele>
        <time>2018-09-09T09:16:40Z</time>
      </trkpt>
      <trkpt lat="45.8909" lon="4.82603">
        <ele>174</ele>
        <time>2018-09-09T09:16:41Z</time>
      </trkpt>
      <trkpt lat="45.89094" lon="4.82606">
        <ele>174</ele>
        <time>2018-09-09T09:16:42Z</time>
      </trkpt>
      <trkpt lat="45.891" lon="4.82608">
        <ele>174</ele>
        <time>2018-09-09T09:16:43Z</time>
      </trkpt>
      <trkpt lat="45.89104" lon="4.8261">
        <ele>174</ele>
        <time>2018-09-09T09:16:44Z</time>
      </trkpt>
      <trkpt lat="45.89109" lon="4.82611">
        <ele>174</ele>
        <time>2018-09-09T09:16:45Z</time>
      </trkpt>
      <trkpt lat="45.89113" lon="4.82611">
        <ele>174</ele>
        <time>2018-09-09T09:16:46Z</time>
      </trkpt>
      <trkpt lat="45.89119" lon="4.82609">
        <ele>174</ele>
        <time>2018-09-09T09:16:47Z</time>
      </trkpt>
      <trkpt lat="45.89124" lon="4.82607">
        <ele>174</ele>
        <time>2018-09-09T09:16:48Z</time>
      </trkpt>
      <trkpt lat="45.89128" lon="4.82603">
        <ele>174</ele>
        <time>2018-09-09T09:16:49Z</time>
      </trkpt>
      <trkpt lat="45.89133" lon="4.82596">
        <ele>174</ele>
        <time>2018-09-09T09:16:50Z</time>
      </trkpt>
      <trkpt lat="45.89136" lon="4.82588">
        <ele>174</ele>
        <time>2018-09-09T09:16:51Z</time>
      </trkpt>
      <trkpt lat="45.89138" lon="4.82579">
        <ele>173</ele>
        <time>2018-09-09T09:16:52Z</time>
      </trkpt>
      <trkpt lat="45.8914" lon="4.82571">
        <ele>173</ele>
        <time>2018-09-09T09:16:53Z</time>
      </trkpt>
      <trkpt lat="45.89144" lon="4.82564">
        <ele>173</ele>
        <time>2018-09-09T09:16:54Z</time>
      </trkpt>
      <trkpt lat="45.89148" lon="4.82558">
        <ele>173</ele>
        <time>2018-09-09T09:16:55Z</time>
      </trkpt>
      <trkpt lat="45.89151" lon="4.82552">
        <ele>173</ele>
        <time>2018-09-09T09:16:56Z</time>
      </trkpt>
      <trkpt lat="45.89156" lon="4.82545">
        <ele>173</ele>
        <time>2018-09-09T09:16:57Z</time>
      </trkpt>
      <trkpt lat="45.8916" lon="4.82541">
        <ele>173</ele>
        <time>2018-09-09T09:16:58Z</time>
      </trkpt>
      <trkpt lat="45.89165" lon="4.82536">
        <ele>173</ele>
        <time>2018-09-09T09:16:59Z</time>
      </trkpt>
      <trkpt lat="45.89169" lon="4.8253">
        <ele>172</ele>
        <time>2018-09-09T09:17:00Z</time>
      </trkpt>
      <trkpt lat="45.89174" lon="4.82526">
        <ele>172</ele>
        <time>2018-09-09T09:17:01Z</time>
      </trkpt>
      <trkpt lat="45.89178" lon="4.82523">
        <ele>172</ele>
        <time>2018-09-09T09:17:02Z</time>
      </trkpt>
      <trkpt lat="45.89182" lon="4.8252">
        <ele>172</ele>
        <time>2018-09-09T09:17:03Z</time>
      </trkpt>
      <trkpt lat="45.89186" lon="4.82516">
        <ele>172</ele>
        <time>2018-09-09T09:17:04Z</time>
      </trkpt>
      <trkpt lat="45.8919" lon="4.82512">
        <ele>172</ele>
        <time>2018-09-09T09:17:05Z</time>
      </trkpt>
      <trkpt lat="45.89194" lon="4.82507">
        <ele>172</ele>
        <time>2018-09-09T09:17:06Z</time>
      </trkpt>
      <trkpt lat="45.89197" lon="4.82502">
        <ele>172</ele>
        <time>2018-09-09T09:17:07Z</time>
      </trkpt>
      <trkpt lat="45.89202" lon="4.82498">
        <ele>172</ele>
        <time>2018-09-09T09:17:08Z</time>
      </trkpt>
      <trkpt lat="45.89207" lon="4.82493">
        <ele>172</ele>
        <time>2018-09-09T09:17:09Z</time>
      </trkpt>
      <trkpt lat="45.89212" lon="4.82491">
        <ele>173</ele>
        <time>2018-09-09T09:17:10Z</time>
      </trkpt>
      <trkpt lat="45.89217" lon="4.82486">
        <ele>173</ele>
        <time>2018-09-09T09:17:11Z</time>
      </trkpt>
      <trkpt lat="45.89226" lon="4.82475">
        <ele>173</ele>
        <time>2018-09-09T09:17:12Z</time>
      </trkpt>
      <trkpt lat="45.89229" lon="4.8247">
        <ele>173</ele>
        <time>2018-09-09T09:17:13Z</time>
      </trkpt>
      <trkpt lat="45.89234" lon="4.82463">
        <ele>173</ele>
        <time>2018-09-09T09:17:14Z</time>
      </trkpt>
      <trkpt lat="45.89239" lon="4.82457">
        <ele>173</ele>
        <time>2018-09-09T09:17:15Z</time>
      </trkpt>
      <trkpt lat="45.89243" lon="4.82452">
        <ele>173</ele>
        <time>2018-09-09T09:17:16Z</time>
      </trkpt>
      <trkpt lat="45.89249" lon="4.82444">
        <ele>173</ele>
        <time>2018-09-09T09:17:17Z</time>
      </trkpt>
      <trkpt lat="45.89255" lon="4.82436">
        <ele>173</ele>
        <time>2018-09-09T09:17:18Z</time>
      </trkpt>
      <trkpt lat="45.89259" lon="4.82431">
        <ele>173</ele>
        <time>2018-09-09T09:17:19Z</time>
      </trkpt>
      <trkpt lat="45.89261" lon="4.82425">
        <ele>173</ele>
        <time>2018-09-09T09:17:20Z</time>
      </trkpt>
      <trkpt lat="45.89267" lon="4.82417">
        <ele>173</ele>
        <time>2018-09-09T09:17:22Z</time>
      </trkpt>
      <trkpt lat="45.89271" lon="4.82413">
        <ele>173</ele>
        <time>2018-09-09T09:17:23Z</time>
      </trkpt>
      <trkpt lat="45.89275" lon="4.82408">
        <ele>173</ele>
        <time>2018-09-09T09:17:24Z</time>
      </trkpt>
      <trkpt lat="45.89279" lon="4.82404">
        <ele>173</ele>
        <time>2018-09-09T09:17:25Z</time>
      </trkpt>
      <trkpt lat="45.89282" lon="4.82399">
        <ele>173</ele>
        <time>2018-09-09T09:17:26Z</time>
      </trkpt>
      <trkpt lat="45.89286" lon="4.82392">
        <ele>173</ele>
        <time>2018-09-09T09:17:27Z</time>
      </trkpt>
      <trkpt lat="45.89293" lon="4.82383">
        <ele>173</ele>
        <time>2018-09-09T09:17:29Z</time>
      </trkpt>
      <trkpt lat="45.89297" lon="4.82379">
        <ele>173</ele>
        <time>2018-09-09T09:17:30Z</time>
      </trkpt>
      <trkpt lat="45.89302" lon="4.82372">
        <ele>173</ele>
        <time>2018-09-09T09:17:32Z</time>
      </trkpt>
      <trkpt lat="45.89306" lon="4.82368">
        <ele>173</ele>
        <time>2018-09-09T09:17:33Z</time>
      </trkpt>
      <trkpt lat="45.89311" lon="4.82362">
        <ele>173</ele>
        <time>2018-09-09T09:17:34Z</time>
      </trkpt>
      <trkpt lat="45.89315" lon="4.82356">
        <ele>173</ele>
        <time>2018-09-09T09:17:35Z</time>
      </trkpt>
      <trkpt lat="45.89322" lon="4.8235">
        <ele>173</ele>
        <time>2018-09-09T09:17:37Z</time>
      </trkpt>
      <trkpt lat="45.89326" lon="4.82346">
        <ele>172</ele>
        <time>2018-09-09T09:17:38Z</time>
      </trkpt>
      <trkpt lat="45.89331" lon="4.82339">
        <ele>172</ele>
        <time>2018-09-09T09:17:39Z</time>
      </trkpt>
      <trkpt lat="45.89335" lon="4.82334">
        <ele>172</ele>
        <time>2018-09-09T09:17:40Z</time>
      </trkpt>
      <trkpt lat="45.89339" lon="4.82328">
        <ele>172</ele>
        <time>2018-09-09T09:17:41Z</time>
      </trkpt>
      <trkpt lat="45.89345" lon="4.8232">
        <ele>172</ele>
        <time>2018-09-09T09:17:42Z</time>
      </trkpt>
      <trkpt lat="45.8935" lon="4.82315">
        <ele>172</ele>
        <time>2018-09-09T09:17:43Z</time>
      </trkpt>
      <trkpt lat="45.89354" lon="4.82309">
        <ele>172</ele>
        <time>2018-09-09T09:17:44Z</time>
      </trkpt>
      <trkpt lat="45.89359" lon="4.82304">
        <ele>172</ele>
        <time>2018-09-09T09:17:45Z</time>
      </trkpt>
      <trkpt lat="45.89364" lon="4.82297">
        <ele>172</ele>
        <time>2018-09-09T09:17:46Z</time>
      </trkpt>
      <trkpt lat="45.8937" lon="4.82289">
        <ele>172</ele>
        <time>2018-09-09T09:17:48Z</time>
      </trkpt>
      <trkpt lat="45.89373" lon="4.82286">
        <ele>172</ele>
        <time>2018-09-09T09:17:49Z</time>
      </trkpt>
      <trkpt lat="45.89377" lon="4.82281">
        <ele>172</ele>
        <time>2018-09-09T09:17:50Z</time>
      </trkpt>
      <trkpt lat="45.89381" lon="4.82276">
        <ele>172</ele>
        <time>2018-09-09T09:17:51Z</time>
      </trkpt>
      <trkpt lat="45.89389" lon="4.82269">
        <ele>172</ele>
        <time>2018-09-09T09:17:53Z</time>
      </trkpt>
      <trkpt lat="45.89393" lon="4.82263">
        <ele>172</ele>
        <time>2018-09-09T09:17:54Z</time>
      </trkpt>
      <trkpt lat="45.89397" lon="4.82258">
        <ele>172</ele>
        <time>2018-09-09T09:17:55Z</time>
      </trkpt>
      <trkpt lat="45.89401" lon="4.82252">
        <ele>171</ele>
        <time>2018-09-09T09:17:56Z</time>
      </trkpt>
      <trkpt lat="45.89405" lon="4.82245">
        <ele>171</ele>
        <time>2018-09-09T09:17:57Z</time>
      </trkpt>
      <trkpt lat="45.8941" lon="4.82239">
        <ele>171</ele>
        <time>2018-09-09T09:17:58Z</time>
      </trkpt>
      <trkpt lat="45.89414" lon="4.82235">
        <ele>171</ele>
        <time>2018-09-09T09:17:59Z</time>
      </trkpt>
      <trkpt lat="45.89419" lon="4.8223">
        <ele>171</ele>
        <time>2018-09-09T09:18:00Z</time>
      </trkpt>
      <trkpt lat="45.89423" lon="4.82226">
        <ele>171</ele>
        <time>2018-09-09T09:18:01Z</time>
      </trkpt>
      <trkpt lat="45.89427" lon="4.82221">
        <ele>171</ele>
        <time>2018-09-09T09:18:02Z</time>
      </trkpt>
      <trkpt lat="45.8943" lon="4.82216">
        <ele>171</ele>
        <time>2018-09-09T09:18:03Z</time>
      </trkpt>
      <trkpt lat="45.89434" lon="4.82212">
        <ele>171</ele>
        <time>2018-09-09T09:18:04Z</time>
      </trkpt>
      <trkpt lat="45.89438" lon="4.82206">
        <ele>171</ele>
        <time>2018-09-09T09:18:05Z</time>
      </trkpt>
      <trkpt lat="45.89442" lon="4.822">
        <ele>171</ele>
        <time>2018-09-09T09:18:06Z</time>
      </trkpt>
      <trkpt lat="45.89447" lon="4.82195">
        <ele>171</ele>
        <time>2018-09-09T09:18:07Z</time>
      </trkpt>
      <trkpt lat="45.89452" lon="4.82192">
        <ele>171</ele>
        <time>2018-09-09T09:18:08Z</time>
      </trkpt>
      <trkpt lat="45.89457" lon="4.82189">
        <ele>171</ele>
        <time>2018-09-09T09:18:09Z</time>
      </trkpt>
      <trkpt lat="45.89461" lon="4.82185">
        <ele>171</ele>
        <time>2018-09-09T09:18:10Z</time>
      </trkpt>
      <trkpt lat="45.89466" lon="4.82181">
        <ele>171</ele>
        <time>2018-09-09T09:18:11Z</time>
      </trkpt>
      <trkpt lat="45.89472" lon="4.82178">
        <ele>171</ele>
        <time>2018-09-09T09:18:12Z</time>
      </trkpt>
      <trkpt lat="45.89476" lon="4.82173">
        <ele>171</ele>
        <time>2018-09-09T09:18:13Z</time>
      </trkpt>
      <trkpt lat="45.89481" lon="4.82168">
        <ele>171</ele>
        <time>2018-09-09T09:18:14Z</time>
      </trkpt>
      <trkpt lat="45.89488" lon="4.82161">
        <ele>171</ele>
        <time>2018-09-09T09:18:16Z</time>
      </trkpt>
      <trkpt lat="45.89493" lon="4.82158">
        <ele>171</ele>
        <time>2018-09-09T09:18:17Z</time>
      </trkpt>
      <trkpt lat="45.89499" lon="4.82151">
        <ele>171</ele>
        <time>2018-09-09T09:18:18Z</time>
      </trkpt>
      <trkpt lat="45.89504" lon="4.82147">
        <ele>172</ele>
        <time>2018-09-09T09:18:19Z</time>
      </trkpt>
      <trkpt lat="45.89507" lon="4.82142">
        <ele>172</ele>
        <time>2018-09-09T09:18:20Z</time>
      </trkpt>
      <trkpt lat="45.89511" lon="4.82138">
        <ele>172</ele>
        <time>2018-09-09T09:18:21Z</time>
      </trkpt>
      <trkpt lat="45.89516" lon="4.82134">
        <ele>172</ele>
        <time>2018-09-09T09:18:22Z</time>
      </trkpt>
      <trkpt lat="45.8952" lon="4.82132">
        <ele>172</ele>
        <time>2018-09-09T09:18:23Z</time>
      </trkpt>
      <trkpt lat="45.89524" lon="4.8213">
        <ele>172</ele>
        <time>2018-09-09T09:18:24Z</time>
      </trkpt>
      <trkpt lat="45.89529" lon="4.8213">
        <ele>172</ele>
        <time>2018-09-09T09:18:25Z</time>
      </trkpt>
      <trkpt lat="45.89534" lon="4.8213">
        <ele>172</ele>
        <time>2018-09-09T09:18:26Z</time>
      </trkpt>
      <trkpt lat="45.89539" lon="4.82129">
        <ele>172</ele>
        <time>2018-09-09T09:18:27Z</time>
      </trkpt>
      <trkpt lat="45.89544" lon="4.82125">
        <ele>173</ele>
        <time>2018-09-09T09:18:28Z</time>
      </trkpt>
      <trkpt lat="45.89548" lon="4.82122">
        <ele>173</ele>
        <time>2018-09-09T09:18:29Z</time>
      </trkpt>
      <trkpt lat="45.89552" lon="4.82113">
        <ele>173</ele>
        <time>2018-09-09T09:18:30Z</time>
      </trkpt>
      <trkpt lat="45.89555" lon="4.82106">
        <ele>173</ele>
        <time>2018-09-09T09:18:31Z</time>
      </trkpt>
      <trkpt lat="45.89557" lon="4.821">
        <ele>173</ele>
        <time>2018-09-09T09:18:32Z</time>
      </trkpt>
      <trkpt lat="45.89559" lon="4.82093">
        <ele>173</ele>
        <time>2018-09-09T09:18:33Z</time>
      </trkpt>
      <trkpt lat="45.89563" lon="4.8209">
        <ele>173</ele>
        <time>2018-09-09T09:18:34Z</time>
      </trkpt>
      <trkpt lat="45.89566" lon="4.82086">
        <ele>173</ele>
        <time>2018-09-09T09:18:35Z</time>
      </trkpt>
      <trkpt lat="45.8957" lon="4.8208">
        <ele>172</ele>
        <time>2018-09-09T09:18:36Z</time>
      </trkpt>
      <trkpt lat="45.89575" lon="4.82077">
        <ele>173</ele>
        <time>2018-09-09T09:18:37Z</time>
      </trkpt>
      <trkpt lat="45.89578" lon="4.82073">
        <ele>173</ele>
        <time>2018-09-09T09:18:38Z</time>
      </trkpt>
      <trkpt lat="45.89582" lon="4.82069">
        <ele>172</ele>
        <time>2018-09-09T09:18:39Z</time>
      </trkpt>
      <trkpt lat="45.89586" lon="4.82065">
        <ele>173</ele>
        <time>2018-09-09T09:18:40Z</time>
      </trkpt>
      <trkpt lat="45.8959" lon="4.82062">
        <ele>173</ele>
        <time>2018-09-09T09:18:41Z</time>
      </trkpt>
      <trkpt lat="45.89593" lon="4.82055">
        <ele>173</ele>
        <time>2018-09-09T09:18:42Z</time>
      </trkpt>
      <trkpt lat="45.89597" lon="4.82051">
        <ele>173</ele>
        <time>2018-09-09T09:18:43Z</time>
      </trkpt>
      <trkpt lat="45.89602" lon="4.82045">
        <ele>173</ele>
        <time>2018-09-09T09:18:44Z</time>
      </trkpt>
      <trkpt lat="45.89606" lon="4.82041">
        <ele>173</ele>
        <time>2018-09-09T09:18:45Z</time>
      </trkpt>
      <trkpt lat="45.8961" lon="4.82035">
        <ele>173</ele>
        <time>2018-09-09T09:18:46Z</time>
      </trkpt>
      <trkpt lat="45.89615" lon="4.8203">
        <ele>173</ele>
        <time>2018-09-09T09:18:47Z</time>
      </trkpt>
      <trkpt lat="45.8962" lon="4.82027">
        <ele>173</ele>
        <time>2018-09-09T09:18:48Z</time>
      </trkpt>
      <trkpt lat="45.89624" lon="4.82024">
        <ele>173</ele>
        <time>2018-09-09T09:18:49Z</time>
      </trkpt>
      <trkpt lat="45.89628" lon="4.8202">
        <ele>173</ele>
        <time>2018-09-09T09:18:50Z</time>
      </trkpt>
      <trkpt lat="45.89633" lon="4.82015">
        <ele>173</ele>
        <time>2018-09-09T09:18:51Z</time>
      </trkpt>
      <trkpt lat="45.89638" lon="4.8201">
        <ele>173</ele>
        <time>2018-09-09T09:18:52Z</time>
      </trkpt>
      <trkpt lat="45.89642" lon="4.82006">
        <ele>173</ele>
        <time>2018-09-09T09:18:53Z</time>
      </trkpt>
      <trkpt lat="45.89647" lon="4.82001">
        <ele>173</ele>
        <time>2018-09-09T09:18:54Z</time>
      </trkpt>
      <trkpt lat="45.89652" lon="4.81997">
        <ele>173</ele>
        <time>2018-09-09T09:18:55Z</time>
      </trkpt>
      <trkpt lat="45.89658" lon="4.81994">
        <ele>173</ele>
        <time>2018-09-09T09:18:56Z</time>
      </trkpt>
      <trkpt lat="45.89663" lon="4.81991">
        <ele>173</ele>
        <time>2018-09-09T09:18:57Z</time>
      </trkpt>
      <trkpt lat="45.89668" lon="4.81987">
        <ele>174</ele>
        <time>2018-09-09T09:18:58Z</time>
      </trkpt>
      <trkpt lat="45.89673" lon="4.81982">
        <ele>173</ele>
        <time>2018-09-09T09:18:59Z</time>
      </trkpt>
      <trkpt lat="45.8968" lon="4.81975">
        <ele>173</ele>
        <time>2018-09-09T09:19:01Z</time>
      </trkpt>
      <trkpt lat="45.89684" lon="4.81973">
        <ele>173</ele>
        <time>2018-09-09T09:19:02Z</time>
      </trkpt>
      <trkpt lat="45.89688" lon="4.81969">
        <ele>173</ele>
        <time>2018-09-09T09:19:03Z</time>
      </trkpt>
      <trkpt lat="45.89693" lon="4.81965">
        <ele>173</ele>
        <time>2018-09-09T09:19:04Z</time>
      </trkpt>
      <trkpt lat="45.89697" lon="4.81962">
        <ele>173</ele>
        <time>2018-09-09T09:19:05Z</time>
      </trkpt>
      <trkpt lat="45.89701" lon="4.81956">
        <ele>173</ele>
        <time>2018-09-09T09:19:06Z</time>
      </trkpt>
      <trkpt lat="45.89705" lon="4.8195">
        <ele>173</ele>
        <time>2018-09-09T09:19:07Z</time>
      </trkpt>
      <trkpt lat="45.89709" lon="4.81947">
        <ele>173</ele>
        <time>2018-09-09T09:19:08Z</time>
      </trkpt>
      <trkpt lat="45.89714" lon="4.81944">
        <ele>173</ele>
        <time>2018-09-09T09:19:09Z</time>
      </trkpt>
      <trkpt lat="45.89719" lon="4.81942">
        <ele>173</ele>
        <time>2018-09-09T09:19:10Z</time>
      </trkpt>
      <trkpt lat="45.89723" lon="4.81938">
        <ele>173</ele>
        <time>2018-09-09T09:19:11Z</time>
      </trkpt>
      <trkpt lat="45.89727" lon="4.81934">
        <ele>173</ele>
        <time>2018-09-09T09:19:12Z</time>
      </trkpt>
      <trkpt lat="45.89731" lon="4.81932">
        <ele>173</ele>
        <time>2018-09-09T09:19:13Z</time>
      </trkpt>
      <trkpt lat="45.89735" lon="4.81927">
        <ele>174</ele>
        <time>2018-09-09T09:19:14Z</time>
      </trkpt>
      <trkpt lat="45.8974" lon="4.81922">
        <ele>174</ele>
        <time>2018-09-09T09:19:15Z</time>
      </trkpt>
      <trkpt lat="45.89744" lon="4.81918">
        <ele>174</ele>
        <time>2018-09-09T09:19:16Z</time>
      </trkpt>
      <trkpt lat="45.89749" lon="4.81914">
        <ele>174</ele>
        <time>2018-09-09T09:19:17Z</time>
      </trkpt>
      <trkpt lat="45.89753" lon="4.81911">
        <ele>174</ele>
        <time>2018-09-09T09:19:18Z</time>
      </trkpt>
      <trkpt lat="45.89761" lon="4.81906">
        <ele>174</ele>
        <time>2018-09-09T09:19:20Z</time>
      </trkpt>
      <trkpt lat="45.89765" lon="4.81904">
        <ele>174</ele>
        <time>2018-09-09T09:19:21Z</time>
      </trkpt>
      <trkpt lat="45.89768" lon="4.819">
        <ele>174</ele>
        <time>2018-09-09T09:19:22Z</time>
      </trkpt>
      <trkpt lat="45.89773" lon="4.81896">
        <ele>174</ele>
        <time>2018-09-09T09:19:23Z</time>
      </trkpt>
      <trkpt lat="45.89776" lon="4.81893">
        <ele>174</ele>
        <time>2018-09-09T09:19:24Z</time>
      </trkpt>
      <trkpt lat="45.89781" lon="4.81889">
        <ele>174</ele>
        <time>2018-09-09T09:19:25Z</time>
      </trkpt>
      <trkpt lat="45.89786" lon="4.81886">
        <ele>174</ele>
        <time>2018-09-09T09:19:26Z</time>
      </trkpt>
      <trkpt lat="45.89792" lon="4.81883">
        <ele>174</ele>
        <time>2018-09-09T09:19:27Z</time>
      </trkpt>
      <trkpt lat="45.89796" lon="4.81878">
        <ele>174</ele>
        <time>2018-09-09T09:19:28Z</time>
      </trkpt>
      <trkpt lat="45.898" lon="4.81875">
        <ele>174</ele>
        <time>2018-09-09T09:19:29Z</time>
      </trkpt>
      <trkpt lat="45.89804" lon="4.8187">
        <ele>174</ele>
        <time>2018-09-09T09:19:30Z</time>
      </trkpt>
      <trkpt lat="45.89807" lon="4.81867">
        <ele>174</ele>
        <time>2018-09-09T09:19:31Z</time>
      </trkpt>
      <trkpt lat="45.89813" lon="4.81859">
        <ele>174</ele>
        <time>2018-09-09T09:19:32Z</time>
      </trkpt>
      <trkpt lat="45.89817" lon="4.81856">
        <ele>174</ele>
        <time>2018-09-09T09:19:33Z</time>
      </trkpt>
      <trkpt lat="45.89822" lon="4.81852">
        <ele>174</ele>
        <time>2018-09-09T09:19:34Z</time>
      </trkpt>
      <trkpt lat="45.89826" lon="4.81848">
        <ele>174</ele>
        <time>2018-09-09T09:19:35Z</time>
      </trkpt>
      <trkpt lat="45.89831" lon="4.81845">
        <ele>174</ele>
        <time>2018-09-09T09:19:36Z</time>
      </trkpt>
      <trkpt lat="45.89835" lon="4.81841">
        <ele>175</ele>
        <time>2018-09-09T09:19:37Z</time>
      </trkpt>
      <trkpt lat="45.89842" lon="4.81836">
        <ele>175</ele>
        <time>2018-09-09T09:19:38Z</time>
      </trkpt>
      <trkpt lat="45.89845" lon="4.81832">
        <ele>175</ele>
        <time>2018-09-09T09:19:39Z</time>
      </trkpt>
      <trkpt lat="45.89852" lon="4.81827">
        <ele>175</ele>
        <time>2018-09-09T09:19:41Z</time>
      </trkpt>
      <trkpt lat="45.89855" lon="4.81824">
        <ele>175</ele>
        <time>2018-09-09T09:19:42Z</time>
      </trkpt>
      <trkpt lat="45.89859" lon="4.81817">
        <ele>175</ele>
        <time>2018-09-09T09:19:43Z</time>
      </trkpt>
      <trkpt lat="45.89862" lon="4.81814">
        <ele>175</ele>
        <time>2018-09-09T09:19:44Z</time>
      </trkpt>
      <trkpt lat="45.89867" lon="4.81807">
        <ele>175</ele>
        <time>2018-09-09T09:19:45Z</time>
      </trkpt>
      <trkpt lat="45.8987" lon="4.81803">
        <ele>175</ele>
        <time>2018-09-09T09:19:46Z</time>
      </trkpt>
      <trkpt lat="45.89873" lon="4.81797">
        <ele>175</ele>
        <time>2018-09-09T09:19:47Z</time>
      </trkpt>
      <trkpt lat="45.89876" lon="4.81793">
        <ele>176</ele>
        <time>2018-09-09T09:19:48Z</time>
      </trkpt>
      <trkpt lat="45.89882" lon="4.81786">
        <ele>176</ele>
        <time>2018-09-09T09:19:50Z</time>
      </trkpt>
      <trkpt lat="45.89886" lon="4.81782">
        <ele>176</ele>
        <time>2018-09-09T09:19:51Z</time>
      </trkpt>
      <trkpt lat="45.89889" lon="4.81776">
        <ele>176</ele>
        <time>2018-09-09T09:19:52Z</time>
      </trkpt>
      <trkpt lat="45.89893" lon="4.81772">
        <ele>176</ele>
        <time>2018-09-09T09:19:53Z</time>
      </trkpt>
      <trkpt lat="45.89897" lon="4.81769">
        <ele>176</ele>
        <time>2018-09-09T09:19:54Z</time>
      </trkpt>
      <trkpt lat="45.89901" lon="4.81765">
        <ele>176</ele>
        <time>2018-09-09T09:19:55Z</time>
      </trkpt>
      <trkpt lat="45.89905" lon="4.81761">
        <ele>176</ele>
        <time>2018-09-09T09:19:56Z</time>
      </trkpt>
      <trkpt lat="45.8991" lon="4.81757">
        <ele>177</ele>
        <time>2018-09-09T09:19:57Z</time>
      </trkpt>
      <trkpt lat="45.89919" lon="4.81754">
        <ele>177</ele>
        <time>2018-09-09T09:19:59Z</time>
      </trkpt>
      <trkpt lat="45.8992" lon="4.81754">
        <ele>177</ele>
        <time>2018-09-09T09:20:00Z</time>
      </trkpt>
      <trkpt lat="45.89926" lon="4.81755">
        <ele>177</ele>
        <time>2018-09-09T09:20:01Z</time>
      </trkpt>
      <trkpt lat="45.89931" lon="4.81756">
        <ele>177</ele>
        <time>2018-09-09T09:20:02Z</time>
      </trkpt>
      <trkpt lat="45.89939" lon="4.81756">
        <ele>177</ele>
        <time>2018-09-09T09:20:04Z</time>
      </trkpt>
      <trkpt lat="45.89944" lon="4.81754">
        <ele>177</ele>
        <time>2018-09-09T09:20:05Z</time>
      </trkpt>
      <trkpt lat="45.89951" lon="4.81748">
        <ele>177</ele>
        <time>2018-09-09T09:20:07Z</time>
      </trkpt>
      <trkpt lat="45.89954" lon="4.81747">
        <ele>177</ele>
        <time>2018-09-09T09:20:08Z</time>
      </trkpt>
      <trkpt lat="45.89958" lon="4.81736">
        <ele>176</ele>
        <time>2018-09-09T09:20:10Z</time>
      </trkpt>
      <trkpt lat="45.89961" lon="4.8173">
        <ele>176</ele>
        <time>2018-09-09T09:20:11Z</time>
      </trkpt>
      <trkpt lat="45.89965" lon="4.81723">
        <ele>176</ele>
        <time>2018-09-09T09:20:12Z</time>
      </trkpt>
      <trkpt lat="45.89969" lon="4.81718">
        <ele>176</ele>
        <time>2018-09-09T09:20:13Z</time>
      </trkpt>
      <trkpt lat="45.89973" lon="4.8171">
        <ele>176</ele>
        <time>2018-09-09T09:20:14Z</time>
      </trkpt>
      <trkpt lat="45.89977" lon="4.81708">
        <ele>176</ele>
        <time>2018-09-09T09:20:15Z</time>
      </trkpt>
      <trkpt lat="45.89982" lon="4.81705">
        <ele>176</ele>
        <time>2018-09-09T09:20:16Z</time>
      </trkpt>
      <trkpt lat="45.89987" lon="4.81702">
        <ele>176</ele>
        <time>2018-09-09T09:20:17Z</time>
      </trkpt>
      <trkpt lat="45.89992" lon="4.817">
        <ele>176</ele>
        <time>2018-09-09T09:20:18Z</time>
      </trkpt>
      <trkpt lat="45.89996" lon="4.81698">
        <ele>176</ele>
        <time>2018-09-09T09:20:19Z</time>
      </trkpt>
      <trkpt lat="45.9" lon="4.81695">
        <ele>177</ele>
        <time>2018-09-09T09:20:20Z</time>
      </trkpt>
      <trkpt lat="45.90005" lon="4.81693">
        <ele>177</ele>
        <time>2018-09-09T09:20:21Z</time>
      </trkpt>
      <trkpt lat="45.90009" lon="4.8169">
        <ele>177</ele>
        <time>2018-09-09T09:20:22Z</time>
      </trkpt>
      <trkpt lat="45.90014" lon="4.81689">
        <ele>177</ele>
        <time>2018-09-09T09:20:23Z</time>
      </trkpt>
      <trkpt lat="45.90022" lon="4.81687">
        <ele>177</ele>
        <time>2018-09-09T09:20:25Z</time>
      </trkpt>
      <trkpt lat="45.90027" lon="4.81684">
        <ele>178</ele>
        <time>2018-09-09T09:20:26Z</time>
      </trkpt>
      <trkpt lat="45.90031" lon="4.81682">
        <ele>178</ele>
        <time>2018-09-09T09:20:27Z</time>
      </trkpt>
      <trkpt lat="45.90036" lon="4.8168">
        <ele>178</ele>
        <time>2018-09-09T09:20:28Z</time>
      </trkpt>
      <trkpt lat="45.90041" lon="4.81675">
        <ele>178</ele>
        <time>2018-09-09T09:20:29Z</time>
      </trkpt>
      <trkpt lat="45.90046" lon="4.81674">
        <ele>178</ele>
        <time>2018-09-09T09:20:30Z</time>
      </trkpt>
      <trkpt lat="45.90051" lon="4.81671">
        <ele>178</ele>
        <time>2018-09-09T09:20:31Z</time>
      </trkpt>
      <trkpt lat="45.90057" lon="4.81669">
        <ele>178</ele>
        <time>2018-09-09T09:20:32Z</time>
      </trkpt>
      <trkpt lat="45.90061" lon="4.81668">
        <ele>178</ele>
        <time>2018-09-09T09:20:33Z</time>
      </trkpt>
      <trkpt lat="45.90067" lon="4.81666">
        <ele>178</ele>
        <time>2018-09-09T09:20:34Z</time>
      </trkpt>
      <trkpt lat="45.90072" lon="4.81663">
        <ele>178</ele>
        <time>2018-09-09T09:20:35Z</time>
      </trkpt>
      <trkpt lat="45.90078" lon="4.81662">
        <ele>178</ele>
        <time>2018-09-09T09:20:36Z</time>
      </trkpt>
      <trkpt lat="45.90083" lon="4.8166">
        <ele>179</ele>
        <time>2018-09-09T09:20:37Z</time>
      </trkpt>
      <trkpt lat="45.90088" lon="4.81658">
        <ele>179</ele>
        <time>2018-09-09T09:20:38Z</time>
      </trkpt>
      <trkpt lat="45.90097" lon="4.81654">
        <ele>179</ele>
        <time>2018-09-09T09:20:40Z</time>
      </trkpt>
      <trkpt lat="45.90101" lon="4.81653">
        <ele>179</ele>
        <time>2018-09-09T09:20:41Z</time>
      </trkpt>
      <trkpt lat="45.90106" lon="4.81653">
        <ele>179</ele>
        <time>2018-09-09T09:20:42Z</time>
      </trkpt>
      <trkpt lat="45.90112" lon="4.81652">
        <ele>179</ele>
        <time>2018-09-09T09:20:43Z</time>
      </trkpt>
      <trkpt lat="45.90117" lon="4.81652">
        <ele>179</ele>
        <time>2018-09-09T09:20:44Z</time>
      </trkpt>
      <trkpt lat="45.90122" lon="4.81647">
        <ele>179</ele>
        <time>2018-09-09T09:20:45Z</time>
      </trkpt>
      <trkpt lat="45.90127" lon="4.81647">
        <ele>179</ele>
        <time>2018-09-09T09:20:46Z</time>
      </trkpt>
      <trkpt lat="45.90132" lon="4.81645">
        <ele>179</ele>
        <time>2018-09-09T09:20:47Z</time>
      </trkpt>
      <trkpt lat="45.90138" lon="4.81644">
        <ele>179</ele>
        <time>2018-09-09T09:20:48Z</time>
      </trkpt>
      <trkpt lat="45.90143" lon="4.81644">
        <ele>179</ele>
        <time>2018-09-09T09:20:49Z</time>
      </trkpt>
      <trkpt lat="45.90149" lon="4.81644">
        <ele>179</ele>
        <time>2018-09-09T09:20:50Z</time>
      </trkpt>
      <trkpt lat="45.90154" lon="4.81643">
        <ele>179</ele>
        <time>2018-09-09T09:20:51Z</time>
      </trkpt>
      <trkpt lat="45.90159" lon="4.81643">
        <ele>179</ele>
        <time>2018-09-09T09:20:52Z</time>
      </trkpt>
      <trkpt lat="45.90164" lon="4.81644">
        <ele>179</ele>
        <time>2018-09-09T09:20:53Z</time>
      </trkpt>
      <trkpt lat="45.90171" lon="4.81646">
        <ele>180</ele>
        <time>2018-09-09T09:20:54Z</time>
      </trkpt>
      <trkpt lat="45.90176" lon="4.81644">
        <ele>180</ele>
        <time>2018-09-09T09:20:55Z</time>
      </trkpt>
      <trkpt lat="45.90182" lon="4.81644">
        <ele>180</ele>
        <time>2018-09-09T09:20:56Z</time>
      </trkpt>
      <trkpt lat="45.90187" lon="4.81641">
        <ele>180</ele>
        <time>2018-09-09T09:20:57Z</time>
      </trkpt>
      <trkpt lat="45.90193" lon="4.81641">
        <ele>180</ele>
        <time>2018-09-09T09:20:58Z</time>
      </trkpt>
      <trkpt lat="45.90198" lon="4.8164">
        <ele>180</ele>
        <time>2018-09-09T09:20:59Z</time>
      </trkpt>
      <trkpt lat="45.90205" lon="4.81641">
        <ele>180</ele>
        <time>2018-09-09T09:21:01Z</time>
      </trkpt>
      <trkpt lat="45.90212" lon="4.8164">
        <ele>180</ele>
        <time>2018-09-09T09:21:02Z</time>
      </trkpt>
      <trkpt lat="45.90216" lon="4.81643">
        <ele>180</ele>
        <time>2018-09-09T09:21:03Z</time>
      </trkpt>
      <trkpt lat="45.90222" lon="4.8164">
        <ele>180</ele>
        <time>2018-09-09T09:21:04Z</time>
      </trkpt>
      <trkpt lat="45.90227" lon="4.81642">
        <ele>180</ele>
        <time>2018-09-09T09:21:05Z</time>
      </trkpt>
      <trkpt lat="45.90234" lon="4.81642">
        <ele>181</ele>
        <time>2018-09-09T09:21:06Z</time>
      </trkpt>
      <trkpt lat="45.9024" lon="4.81641">
        <ele>181</ele>
        <time>2018-09-09T09:21:07Z</time>
      </trkpt>
      <trkpt lat="45.90244" lon="4.81639">
        <ele>181</ele>
        <time>2018-09-09T09:21:08Z</time>
      </trkpt>
      <trkpt lat="45.90249" lon="4.81641">
        <ele>181</ele>
        <time>2018-09-09T09:21:09Z</time>
      </trkpt>
      <trkpt lat="45.90254" lon="4.81643">
        <ele>182</ele>
        <time>2018-09-09T09:21:10Z</time>
      </trkpt>
      <trkpt lat="45.9026" lon="4.81642">
        <ele>182</ele>
        <time>2018-09-09T09:21:11Z</time>
      </trkpt>
      <trkpt lat="45.90264" lon="4.81645">
        <ele>182</ele>
        <time>2018-09-09T09:21:12Z</time>
      </trkpt>
      <trkpt lat="45.90268" lon="4.81648">
        <ele>182</ele>
        <time>2018-09-09T09:21:13Z</time>
      </trkpt>
      <trkpt lat="45.90272" lon="4.81652">
        <ele>182</ele>
        <time>2018-09-09T09:21:14Z</time>
      </trkpt>
      <trkpt lat="45.90276" lon="4.81657">
        <ele>182</ele>
        <time>2018-09-09T09:21:15Z</time>
      </trkpt>
      <trkpt lat="45.90281" lon="4.81659">
        <ele>182</ele>
        <time>2018-09-09T09:21:16Z</time>
      </trkpt>
      <trkpt lat="45.90286" lon="4.8166">
        <ele>182</ele>
        <time>2018-09-09T09:21:17Z</time>
      </trkpt>
      <trkpt lat="45.9029" lon="4.8166">
        <ele>182</ele>
        <time>2018-09-09T09:21:18Z</time>
      </trkpt>
      <trkpt lat="45.90298" lon="4.81654">
        <ele>182</ele>
        <time>2018-09-09T09:21:20Z</time>
      </trkpt>
      <trkpt lat="45.90302" lon="4.8165">
        <ele>182</ele>
        <time>2018-09-09T09:21:21Z</time>
      </trkpt>
      <trkpt lat="45.90306" lon="4.81645">
        <ele>182</ele>
        <time>2018-09-09T09:21:22Z</time>
      </trkpt>
      <trkpt lat="45.9031" lon="4.81641">
        <ele>182</ele>
        <time>2018-09-09T09:21:23Z</time>
      </trkpt>
      <trkpt lat="45.90315" lon="4.81636">
        <ele>182</ele>
        <time>2018-09-09T09:21:24Z</time>
      </trkpt>
      <trkpt lat="45.9032" lon="4.81633">
        <ele>182</ele>
        <time>2018-09-09T09:21:25Z</time>
      </trkpt>
      <trkpt lat="45.90324" lon="4.81629">
        <ele>182</ele>
        <time>2018-09-09T09:21:26Z</time>
      </trkpt>
      <trkpt lat="45.90329" lon="4.81627">
        <ele>182</ele>
        <time>2018-09-09T09:21:27Z</time>
      </trkpt>
      <trkpt lat="45.90334" lon="4.81626">
        <ele>183</ele>
        <time>2018-09-09T09:21:28Z</time>
      </trkpt>
      <trkpt lat="45.90339" lon="4.81625">
        <ele>183</ele>
        <time>2018-09-09T09:21:29Z</time>
      </trkpt>
      <trkpt lat="45.90344" lon="4.81625">
        <ele>183</ele>
        <time>2018-09-09T09:21:30Z</time>
      </trkpt>
      <trkpt lat="45.90348" lon="4.81625">
        <ele>182</ele>
        <time>2018-09-09T09:21:31Z</time>
      </trkpt>
      <trkpt lat="45.90355" lon="4.81622">
        <ele>182</ele>
        <time>2018-09-09T09:21:33Z</time>
      </trkpt>
      <trkpt lat="45.9036" lon="4.81619">
        <ele>182</ele>
        <time>2018-09-09T09:21:34Z</time>
      </trkpt>
      <trkpt lat="45.90367" lon="4.81617">
        <ele>182</ele>
        <time>2018-09-09T09:21:36Z</time>
      </trkpt>
      <trkpt lat="45.90372" lon="4.81616">
        <ele>182</ele>
        <time>2018-09-09T09:21:37Z</time>
      </trkpt>
      <trkpt lat="45.9038" lon="4.81614">
        <ele>182</ele>
        <time>2018-09-09T09:21:39Z</time>
      </trkpt>
      <trkpt lat="45.90385" lon="4.81612">
        <ele>182</ele>
        <time>2018-09-09T09:21:40Z</time>
      </trkpt>
      <trkpt lat="45.9039" lon="4.81605">
        <ele>182</ele>
        <time>2018-09-09T09:21:41Z</time>
      </trkpt>
      <trkpt lat="45.90396" lon="4.81606">
        <ele>182</ele>
        <time>2018-09-09T09:21:42Z</time>
      </trkpt>
      <trkpt lat="45.90402" lon="4.81603">
        <ele>182</ele>
        <time>2018-09-09T09:21:43Z</time>
      </trkpt>
      <trkpt lat="45.90408" lon="4.81604">
        <ele>182</ele>
        <time>2018-09-09T09:21:44Z</time>
      </trkpt>
      <trkpt lat="45.90414" lon="4.81602">
        <ele>182</ele>
        <time>2018-09-09T09:21:45Z</time>
      </trkpt>
      <trkpt lat="45.9042" lon="4.81602">
        <ele>182</ele>
        <time>2018-09-09T09:21:46Z</time>
      </trkpt>
      <trkpt lat="45.90426" lon="4.81601">
        <ele>182</ele>
        <time>2018-09-09T09:21:47Z</time>
      </trkpt>
      <trkpt lat="45.90431" lon="4.81602">
        <ele>182</ele>
        <time>2018-09-09T09:21:48Z</time>
      </trkpt>
      <trkpt lat="45.90435" lon="4.81602">
        <ele>182</ele>
        <time>2018-09-09T09:21:49Z</time>
      </trkpt>
      <trkpt lat="45.9044" lon="4.81603">
        <ele>182</ele>
        <time>2018-09-09T09:21:50Z</time>
      </trkpt>
      <trkpt lat="45.90446" lon="4.81604">
        <ele>182</ele>
        <time>2018-09-09T09:21:52Z</time>
      </trkpt>
      <trkpt lat="45.90453" lon="4.81605">
        <ele>182</ele>
        <time>2018-09-09T09:21:53Z</time>
      </trkpt>
      <trkpt lat="45.90458" lon="4.81604">
        <ele>182</ele>
        <time>2018-09-09T09:21:54Z</time>
      </trkpt>
      <trkpt lat="45.90464" lon="4.81605">
        <ele>182</ele>
        <time>2018-09-09T09:21:55Z</time>
      </trkpt>
      <trkpt lat="45.9047" lon="4.81605">
        <ele>182</ele>
        <time>2018-09-09T09:21:56Z</time>
      </trkpt>
      <trkpt lat="45.90473" lon="4.81605">
        <ele>182</ele>
        <time>2018-09-09T09:21:57Z</time>
      </trkpt>
      <trkpt lat="45.90479" lon="4.81606">
        <ele>182</ele>
        <time>2018-09-09T09:21:58Z</time>
      </trkpt>
      <trkpt lat="45.90484" lon="4.81605">
        <ele>182</ele>
        <time>2018-09-09T09:21:59Z</time>
      </trkpt>
      <trkpt lat="45.90488" lon="4.81606">
        <ele>182</ele>
        <time>2018-09-09T09:22:00Z</time>
      </trkpt>
      <trkpt lat="45.90493" lon="4.81605">
        <ele>182</ele>
        <time>2018-09-09T09:22:01Z</time>
      </trkpt>
      <trkpt lat="45.90498" lon="4.81603">
        <ele>182</ele>
        <time>2018-09-09T09:22:02Z</time>
      </trkpt>
      <trkpt lat="45.90504" lon="4.81603">
        <ele>182</ele>
        <time>2018-09-09T09:22:03Z</time>
      </trkpt>
      <trkpt lat="45.9051" lon="4.81602">
        <ele>182</ele>
        <time>2018-09-09T09:22:04Z</time>
      </trkpt>
      <trkpt lat="45.90516" lon="4.81601">
        <ele>182</ele>
        <time>2018-09-09T09:22:05Z</time>
      </trkpt>
      <trkpt lat="45.90522" lon="4.816">
        <ele>182</ele>
        <time>2018-09-09T09:22:06Z</time>
      </trkpt>
      <trkpt lat="45.90528" lon="4.816">
        <ele>182</ele>
        <time>2018-09-09T09:22:07Z</time>
      </trkpt>
      <trkpt lat="45.90534" lon="4.81597">
        <ele>182</ele>
        <time>2018-09-09T09:22:08Z</time>
      </trkpt>
      <trkpt lat="45.9054" lon="4.81596">
        <ele>182</ele>
        <time>2018-09-09T09:22:09Z</time>
      </trkpt>
      <trkpt lat="45.90546" lon="4.81596">
        <ele>182</ele>
        <time>2018-09-09T09:22:10Z</time>
      </trkpt>
      <trkpt lat="45.90551" lon="4.81596">
        <ele>182</ele>
        <time>2018-09-09T09:22:11Z</time>
      </trkpt>
      <trkpt lat="45.90556" lon="4.81596">
        <ele>182</ele>
        <time>2018-09-09T09:22:12Z</time>
      </trkpt>
      <trkpt lat="45.90561" lon="4.81596">
        <ele>182</ele>
        <time>2018-09-09T09:22:13Z</time>
      </trkpt>
      <trkpt lat="45.90567" lon="4.81595">
        <ele>182</ele>
        <time>2018-09-09T09:22:14Z</time>
      </trkpt>
      <trkpt lat="45.90572" lon="4.81594">
        <ele>182</ele>
        <time>2018-09-09T09:22:15Z</time>
      </trkpt>
      <trkpt lat="45.90578" lon="4.81595">
        <ele>182</ele>
        <time>2018-09-09T09:22:16Z</time>
      </trkpt>
      <trkpt lat="45.90583" lon="4.81595">
        <ele>182</ele>
        <time>2018-09-09T09:22:17Z</time>
      </trkpt>
      <trkpt lat="45.90589" lon="4.81597">
        <ele>182</ele>
        <time>2018-09-09T09:22:18Z</time>
      </trkpt>
      <trkpt lat="45.90596" lon="4.81593">
        <ele>182</ele>
        <time>2018-09-09T09:22:19Z</time>
      </trkpt>
      <trkpt lat="45.90603" lon="4.81593">
        <ele>182</ele>
        <time>2018-09-09T09:22:20Z</time>
      </trkpt>
      <trkpt lat="45.90609" lon="4.81591">
        <ele>182</ele>
        <time>2018-09-09T09:22:21Z</time>
      </trkpt>
      <trkpt lat="45.90615" lon="4.81591">
        <ele>182</ele>
        <time>2018-09-09T09:22:22Z</time>
      </trkpt>
      <trkpt lat="45.90621" lon="4.81593">
        <ele>181</ele>
        <time>2018-09-09T09:22:23Z</time>
      </trkpt>
      <trkpt lat="45.90628" lon="4.81593">
        <ele>181</ele>
        <time>2018-09-09T09:22:24Z</time>
      </trkpt>
      <trkpt lat="45.90635" lon="4.81591">
        <ele>181</ele>
        <time>2018-09-09T09:22:25Z</time>
      </trkpt>
      <trkpt lat="45.90644" lon="4.81591">
        <ele>181</ele>
        <time>2018-09-09T09:22:26Z</time>
      </trkpt>
      <trkpt lat="45.90652" lon="4.81591">
        <ele>180</ele>
        <time>2018-09-09T09:22:27Z</time>
      </trkpt>
      <trkpt lat="45.9066" lon="4.81592">
        <ele>180</ele>
        <time>2018-09-09T09:22:28Z</time>
      </trkpt>
      <trkpt lat="45.90668" lon="4.81591">
        <ele>179</ele>
        <time>2018-09-09T09:22:29Z</time>
      </trkpt>
      <trkpt lat="45.90677" lon="4.8159">
        <ele>179</ele>
        <time>2018-09-09T09:22:30Z</time>
      </trkpt>
      <trkpt lat="45.90685" lon="4.8159">
        <ele>179</ele>
        <time>2018-09-09T09:22:31Z</time>
      </trkpt>
      <trkpt lat="45.90692" lon="4.81588">
        <ele>178</ele>
        <time>2018-09-09T09:22:32Z</time>
      </trkpt>
      <trkpt lat="45.90701" lon="4.81589">
        <ele>178</ele>
        <time>2018-09-09T09:22:33Z</time>
      </trkpt>
      <trkpt lat="45.90709" lon="4.81587">
        <ele>178</ele>
        <time>2018-09-09T09:22:34Z</time>
      </trkpt>
      <trkpt lat="45.90718" lon="4.81584">
        <ele>177</ele>
        <time>2018-09-09T09:22:35Z</time>
      </trkpt>
      <trkpt lat="45.90727" lon="4.81585">
        <ele>177</ele>
        <time>2018-09-09T09:22:36Z</time>
      </trkpt>
      <trkpt lat="45.90736" lon="4.81584">
        <ele>176</ele>
        <time>2018-09-09T09:22:37Z</time>
      </trkpt>
      <trkpt lat="45.90746" lon="4.81581">
        <ele>174</ele>
        <time>2018-09-09T09:22:38Z</time>
      </trkpt>
      <trkpt lat="45.90755" lon="4.81581">
        <ele>174</ele>
        <time>2018-09-09T09:22:39Z</time>
      </trkpt>
      <trkpt lat="45.90765" lon="4.81581">
        <ele>173</ele>
        <time>2018-09-09T09:22:40Z</time>
      </trkpt>
      <trkpt lat="45.90774" lon="4.81579">
        <ele>173</ele>
        <time>2018-09-09T09:22:41Z</time>
      </trkpt>
      <trkpt lat="45.90781" lon="4.8158">
        <ele>173</ele>
        <time>2018-09-09T09:22:42Z</time>
      </trkpt>
      <trkpt lat="45.9079" lon="4.81581">
        <ele>173</ele>
        <time>2018-09-09T09:22:43Z</time>
      </trkpt>
      <trkpt lat="45.90797" lon="4.81582">
        <ele>173</ele>
        <time>2018-09-09T09:22:44Z</time>
      </trkpt>
      <trkpt lat="45.90804" lon="4.81584">
        <ele>174</ele>
        <time>2018-09-09T09:22:45Z</time>
      </trkpt>
      <trkpt lat="45.90812" lon="4.81585">
        <ele>174</ele>
        <time>2018-09-09T09:22:46Z</time>
      </trkpt>
      <trkpt lat="45.9082" lon="4.81586">
        <ele>174</ele>
        <time>2018-09-09T09:22:47Z</time>
      </trkpt>
      <trkpt lat="45.90828" lon="4.81586">
        <ele>173</ele>
        <time>2018-09-09T09:22:48Z</time>
      </trkpt>
      <trkpt lat="45.90835" lon="4.81586">
        <ele>173</ele>
        <time>2018-09-09T09:22:49Z</time>
      </trkpt>
      <trkpt lat="45.90842" lon="4.81581">
        <ele>172</ele>
        <time>2018-09-09T09:22:50Z</time>
      </trkpt>
      <trkpt lat="45.90851" lon="4.81579">
        <ele>172</ele>
        <time>2018-09-09T09:22:51Z</time>
      </trkpt>
      <trkpt lat="45.90859" lon="4.81577">
        <ele>171</ele>
        <time>2018-09-09T09:22:52Z</time>
      </trkpt>
      <trkpt lat="45.90865" lon="4.81577">
        <ele>171</ele>
        <time>2018-09-09T09:22:53Z</time>
      </trkpt>
      <trkpt lat="45.90872" lon="4.8158">
        <ele>171</ele>
        <time>2018-09-09T09:22:54Z</time>
      </trkpt>
      <trkpt lat="45.90878" lon="4.81582">
        <ele>171</ele>
        <time>2018-09-09T09:22:55Z</time>
      </trkpt>
      <trkpt lat="45.90885" lon="4.81583">
        <ele>171</ele>
        <time>2018-09-09T09:22:56Z</time>
      </trkpt>
      <trkpt lat="45.90891" lon="4.81584">
        <ele>171</ele>
        <time>2018-09-09T09:22:57Z</time>
      </trkpt>
      <trkpt lat="45.90897" lon="4.81585">
        <ele>171</ele>
        <time>2018-09-09T09:22:58Z</time>
      </trkpt>
      <trkpt lat="45.90904" lon="4.81584">
        <ele>171</ele>
        <time>2018-09-09T09:22:59Z</time>
      </trkpt>
      <trkpt lat="45.90909" lon="4.81585">
        <ele>171</ele>
        <time>2018-09-09T09:23:00Z</time>
      </trkpt>
      <trkpt lat="45.90917" lon="4.81586">
        <ele>170</ele>
        <time>2018-09-09T09:23:01Z</time>
      </trkpt>
      <trkpt lat="45.90923" lon="4.81587">
        <ele>170</ele>
        <time>2018-09-09T09:23:02Z</time>
      </trkpt>
      <trkpt lat="45.90929" lon="4.81586">
        <ele>170</ele>
        <time>2018-09-09T09:23:03Z</time>
      </trkpt>
      <trkpt lat="45.90935" lon="4.81586">
        <ele>170</ele>
        <time>2018-09-09T09:23:04Z</time>
      </trkpt>
      <trkpt lat="45.90942" lon="4.8159">
        <ele>170</ele>
        <time>2018-09-09T09:23:05Z</time>
      </trkpt>
      <trkpt lat="45.90949" lon="4.8159">
        <ele>169</ele>
        <time>2018-09-09T09:23:06Z</time>
      </trkpt>
      <trkpt lat="45.90956" lon="4.8159">
        <ele>169</ele>
        <time>2018-09-09T09:23:07Z</time>
      </trkpt>
      <trkpt lat="45.90961" lon="4.8159">
        <ele>169</ele>
        <time>2018-09-09T09:23:08Z</time>
      </trkpt>
      <trkpt lat="45.90967" lon="4.81593">
        <ele>169</ele>
        <time>2018-09-09T09:23:09Z</time>
      </trkpt>
      <trkpt lat="45.90974" lon="4.81594">
        <ele>169</ele>
        <time>2018-09-09T09:23:10Z</time>
      </trkpt>
      <trkpt lat="45.90979" lon="4.81596">
        <ele>169</ele>
        <time>2018-09-09T09:23:11Z</time>
      </trkpt>
      <trkpt lat="45.90985" lon="4.81596">
        <ele>169</ele>
        <time>2018-09-09T09:23:12Z</time>
      </trkpt>
      <trkpt lat="45.9099" lon="4.81596">
        <ele>169</ele>
        <time>2018-09-09T09:23:13Z</time>
      </trkpt>
      <trkpt lat="45.90996" lon="4.81598">
        <ele>169</ele>
        <time>2018-09-09T09:23:14Z</time>
      </trkpt>
      <trkpt lat="45.90999" lon="4.816">
        <ele>169</ele>
        <time>2018-09-09T09:23:15Z</time>
      </trkpt>
      <trkpt lat="45.91004" lon="4.81603">
        <ele>169</ele>
        <time>2018-09-09T09:23:16Z</time>
      </trkpt>
      <trkpt lat="45.9101" lon="4.81602">
        <ele>169</ele>
        <time>2018-09-09T09:23:17Z</time>
      </trkpt>
      <trkpt lat="45.91016" lon="4.81604">
        <ele>169</ele>
        <time>2018-09-09T09:23:18Z</time>
      </trkpt>
      <trkpt lat="45.91022" lon="4.81605">
        <ele>169</ele>
        <time>2018-09-09T09:23:19Z</time>
      </trkpt>
      <trkpt lat="45.91028" lon="4.81604">
        <ele>169</ele>
        <time>2018-09-09T09:23:20Z</time>
      </trkpt>
      <trkpt lat="45.91033" lon="4.81606">
        <ele>169</ele>
        <time>2018-09-09T09:23:21Z</time>
      </trkpt>
      <trkpt lat="45.91038" lon="4.81608">
        <ele>169</ele>
        <time>2018-09-09T09:23:22Z</time>
      </trkpt>
      <trkpt lat="45.91046" lon="4.81608">
        <ele>169</ele>
        <time>2018-09-09T09:23:23Z</time>
      </trkpt>
      <trkpt lat="45.91051" lon="4.81609">
        <ele>169</ele>
        <time>2018-09-09T09:23:24Z</time>
      </trkpt>
      <trkpt lat="45.91057" lon="4.81611">
        <ele>169</ele>
        <time>2018-09-09T09:23:25Z</time>
      </trkpt>
      <trkpt lat="45.91065" lon="4.81612">
        <ele>169</ele>
        <time>2018-09-09T09:23:26Z</time>
      </trkpt>
      <trkpt lat="45.91072" lon="4.81611">
        <ele>169</ele>
        <time>2018-09-09T09:23:27Z</time>
      </trkpt>
      <trkpt lat="45.91078" lon="4.8161">
        <ele>169</ele>
        <time>2018-09-09T09:23:28Z</time>
      </trkpt>
      <trkpt lat="45.91085" lon="4.8161">
        <ele>169</ele>
        <time>2018-09-09T09:23:29Z</time>
      </trkpt>
      <trkpt lat="45.91092" lon="4.81609">
        <ele>169</ele>
        <time>2018-09-09T09:23:30Z</time>
      </trkpt>
      <trkpt lat="45.91098" lon="4.81609">
        <ele>169</ele>
        <time>2018-09-09T09:23:31Z</time>
      </trkpt>
      <trkpt lat="45.91104" lon="4.81609">
        <ele>170</ele>
        <time>2018-09-09T09:23:32Z</time>
      </trkpt>
      <trkpt lat="45.9111" lon="4.81609">
        <ele>170</ele>
        <time>2018-09-09T09:23:33Z</time>
      </trkpt>
      <trkpt lat="45.91117" lon="4.8161">
        <ele>170</ele>
        <time>2018-09-09T09:23:34Z</time>
      </trkpt>
      <trkpt lat="45.91123" lon="4.8161">
        <ele>170</ele>
        <time>2018-09-09T09:23:35Z</time>
      </trkpt>
      <trkpt lat="45.9113" lon="4.8161">
        <ele>170</ele>
        <time>2018-09-09T09:23:36Z</time>
      </trkpt>
      <trkpt lat="45.91135" lon="4.8161">
        <ele>170</ele>
        <time>2018-09-09T09:23:37Z</time>
      </trkpt>
      <trkpt lat="45.9114" lon="4.81611">
        <ele>170</ele>
        <time>2018-09-09T09:23:38Z</time>
      </trkpt>
      <trkpt lat="45.91145" lon="4.81608">
        <ele>170</ele>
        <time>2018-09-09T09:23:39Z</time>
      </trkpt>
      <trkpt lat="45.91153" lon="4.8161">
        <ele>170</ele>
        <time>2018-09-09T09:23:41Z</time>
      </trkpt>
      <trkpt lat="45.91158" lon="4.81611">
        <ele>170</ele>
        <time>2018-09-09T09:23:42Z</time>
      </trkpt>
      <trkpt lat="45.91167" lon="4.81614">
        <ele>170</ele>
        <time>2018-09-09T09:23:43Z</time>
      </trkpt>
      <trkpt lat="45.91174" lon="4.81616">
        <ele>170</ele>
        <time>2018-09-09T09:23:44Z</time>
      </trkpt>
      <trkpt lat="45.91179" lon="4.81617">
        <ele>170</ele>
        <time>2018-09-09T09:23:45Z</time>
      </trkpt>
      <trkpt lat="45.91184" lon="4.81619">
        <ele>170</ele>
        <time>2018-09-09T09:23:46Z</time>
      </trkpt>
      <trkpt lat="45.91191" lon="4.81618">
        <ele>170</ele>
        <time>2018-09-09T09:23:47Z</time>
      </trkpt>
      <trkpt lat="45.91197" lon="4.81617">
        <ele>170</ele>
        <time>2018-09-09T09:23:48Z</time>
      </trkpt>
      <trkpt lat="45.91202" lon="4.81617">
        <ele>170</ele>
        <time>2018-09-09T09:23:49Z</time>
      </trkpt>
      <trkpt lat="45.91208" lon="4.81617">
        <ele>170</ele>
        <time>2018-09-09T09:23:50Z</time>
      </trkpt>
      <trkpt lat="45.91213" lon="4.81618">
        <ele>170</ele>
        <time>2018-09-09T09:23:51Z</time>
      </trkpt>
      <trkpt lat="45.91219" lon="4.81618">
        <ele>170</ele>
        <time>2018-09-09T09:23:52Z</time>
      </trkpt>
      <trkpt lat="45.91225" lon="4.81616">
        <ele>170</ele>
        <time>2018-09-09T09:23:53Z</time>
      </trkpt>
      <trkpt lat="45.91232" lon="4.81616">
        <ele>170</ele>
        <time>2018-09-09T09:23:54Z</time>
      </trkpt>
      <trkpt lat="45.91237" lon="4.81613">
        <ele>170</ele>
        <time>2018-09-09T09:23:55Z</time>
      </trkpt>
      <trkpt lat="45.91243" lon="4.81614">
        <ele>170</ele>
        <time>2018-09-09T09:23:56Z</time>
      </trkpt>
      <trkpt lat="45.91249" lon="4.81614">
        <ele>170</ele>
        <time>2018-09-09T09:23:57Z</time>
      </trkpt>
      <trkpt lat="45.91255" lon="4.81613">
        <ele>170</ele>
        <time>2018-09-09T09:23:58Z</time>
      </trkpt>
      <trkpt lat="45.91261" lon="4.81613">
        <ele>170</ele>
        <time>2018-09-09T09:23:59Z</time>
      </trkpt>
      <trkpt lat="45.91267" lon="4.81613">
        <ele>170</ele>
        <time>2018-09-09T09:24:00Z</time>
      </trkpt>
      <trkpt lat="45.91273" lon="4.81614">
        <ele>170</ele>
        <time>2018-09-09T09:24:01Z</time>
      </trkpt>
      <trkpt lat="45.91278" lon="4.81612">
        <ele>170</ele>
        <time>2018-09-09T09:24:02Z</time>
      </trkpt>
      <trkpt lat="45.91284" lon="4.81612">
        <ele>170</ele>
        <time>2018-09-09T09:24:03Z</time>
      </trkpt>
      <trkpt lat="45.91292" lon="4.81612">
        <ele>170</ele>
        <time>2018-09-09T09:24:04Z</time>
      </trkpt>
      <trkpt lat="45.91297" lon="4.81612">
        <ele>170</ele>
        <time>2018-09-09T09:24:05Z</time>
      </trkpt>
      <trkpt lat="45.91302" lon="4.81611">
        <ele>170</ele>
        <time>2018-09-09T09:24:06Z</time>
      </trkpt>
      <trkpt lat="45.91307" lon="4.81611">
        <ele>170</ele>
        <time>2018-09-09T09:24:07Z</time>
      </trkpt>
      <trkpt lat="45.91312" lon="4.81611">
        <ele>170</ele>
        <time>2018-09-09T09:24:08Z</time>
      </trkpt>
      <trkpt lat="45.91318" lon="4.81611">
        <ele>170</ele>
        <time>2018-09-09T09:24:09Z</time>
      </trkpt>
      <trkpt lat="45.91324" lon="4.81612">
        <ele>170</ele>
        <time>2018-09-09T09:24:10Z</time>
      </trkpt>
      <trkpt lat="45.91329" lon="4.81612">
        <ele>170</ele>
        <time>2018-09-09T09:24:11Z</time>
      </trkpt>
      <trkpt lat="45.91335" lon="4.81611">
        <ele>170</ele>
        <time>2018-09-09T09:24:12Z</time>
      </trkpt>
      <trkpt lat="45.91341" lon="4.81611">
        <ele>170</ele>
        <time>2018-09-09T09:24:13Z</time>
      </trkpt>
      <trkpt lat="45.91347" lon="4.81611">
        <ele>170</ele>
        <time>2018-09-09T09:24:14Z</time>
      </trkpt>
      <trkpt lat="45.91352" lon="4.8161">
        <ele>170</ele>
        <time>2018-09-09T09:24:15Z</time>
      </trkpt>
      <trkpt lat="45.91358" lon="4.81609">
        <ele>170</ele>
        <time>2018-09-09T09:24:16Z</time>
      </trkpt>
      <trkpt lat="45.91365" lon="4.8161">
        <ele>170</ele>
        <time>2018-09-09T09:24:17Z</time>
      </trkpt>
      <trkpt lat="45.9137" lon="4.8161">
        <ele>170</ele>
        <time>2018-09-09T09:24:18Z</time>
      </trkpt>
      <trkpt lat="45.91379" lon="4.81608">
        <ele>170</ele>
        <time>2018-09-09T09:24:19Z</time>
      </trkpt>
      <trkpt lat="45.91384" lon="4.81608">
        <ele>170</ele>
        <time>2018-09-09T09:24:20Z</time>
      </trkpt>
      <trkpt lat="45.9139" lon="4.81608">
        <ele>170</ele>
        <time>2018-09-09T09:24:21Z</time>
      </trkpt>
      <trkpt lat="45.91395" lon="4.81607">
        <ele>170</ele>
        <time>2018-09-09T09:24:22Z</time>
      </trkpt>
      <trkpt lat="45.914" lon="4.81605">
        <ele>170</ele>
        <time>2018-09-09T09:24:23Z</time>
      </trkpt>
      <trkpt lat="45.91405" lon="4.81605">
        <ele>169</ele>
        <time>2018-09-09T09:24:24Z</time>
      </trkpt>
      <trkpt lat="45.91411" lon="4.81604">
        <ele>169</ele>
        <time>2018-09-09T09:24:25Z</time>
      </trkpt>
      <trkpt lat="45.91416" lon="4.81602">
        <ele>169</ele>
        <time>2018-09-09T09:24:26Z</time>
      </trkpt>
      <trkpt lat="45.91421" lon="4.81602">
        <ele>169</ele>
        <time>2018-09-09T09:24:27Z</time>
      </trkpt>
      <trkpt lat="45.91427" lon="4.81601">
        <ele>169</ele>
        <time>2018-09-09T09:24:28Z</time>
      </trkpt>
      <trkpt lat="45.91431" lon="4.816">
        <ele>169</ele>
        <time>2018-09-09T09:24:29Z</time>
      </trkpt>
      <trkpt lat="45.91438" lon="4.816">
        <ele>169</ele>
        <time>2018-09-09T09:24:30Z</time>
      </trkpt>
      <trkpt lat="45.91443" lon="4.81601">
        <ele>170</ele>
        <time>2018-09-09T09:24:31Z</time>
      </trkpt>
      <trkpt lat="45.91449" lon="4.81601">
        <ele>170</ele>
        <time>2018-09-09T09:24:32Z</time>
      </trkpt>
      <trkpt lat="45.91455" lon="4.816">
        <ele>170</ele>
        <time>2018-09-09T09:24:33Z</time>
      </trkpt>
      <trkpt lat="45.9146" lon="4.81601">
        <ele>170</ele>
        <time>2018-09-09T09:24:34Z</time>
      </trkpt>
      <trkpt lat="45.91465" lon="4.816">
        <ele>170</ele>
        <time>2018-09-09T09:24:35Z</time>
      </trkpt>
      <trkpt lat="45.9147" lon="4.816">
        <ele>170</ele>
        <time>2018-09-09T09:24:36Z</time>
      </trkpt>
      <trkpt lat="45.91475" lon="4.81601">
        <ele>170</ele>
        <time>2018-09-09T09:24:37Z</time>
      </trkpt>
      <trkpt lat="45.9148" lon="4.81599">
        <ele>169</ele>
        <time>2018-09-09T09:24:38Z</time>
      </trkpt>
      <trkpt lat="45.91485" lon="4.81599">
        <ele>169</ele>
        <time>2018-09-09T09:24:39Z</time>
      </trkpt>
      <trkpt lat="45.9149" lon="4.81599">
        <ele>169</ele>
        <time>2018-09-09T09:24:40Z</time>
      </trkpt>
      <trkpt lat="45.91495" lon="4.81598">
        <ele>169</ele>
        <time>2018-09-09T09:24:41Z</time>
      </trkpt>
      <trkpt lat="45.91501" lon="4.81597">
        <ele>169</ele>
        <time>2018-09-09T09:24:42Z</time>
      </trkpt>
      <trkpt lat="45.91508" lon="4.81596">
        <ele>169</ele>
        <time>2018-09-09T09:24:43Z</time>
      </trkpt>
      <trkpt lat="45.91513" lon="4.81597">
        <ele>170</ele>
        <time>2018-09-09T09:24:44Z</time>
      </trkpt>
      <trkpt lat="45.91519" lon="4.81596">
        <ele>170</ele>
        <time>2018-09-09T09:24:45Z</time>
      </trkpt>
      <trkpt lat="45.91524" lon="4.81594">
        <ele>170</ele>
        <time>2018-09-09T09:24:46Z</time>
      </trkpt>
      <trkpt lat="45.9153" lon="4.81593">
        <ele>170</ele>
        <time>2018-09-09T09:24:47Z</time>
      </trkpt>
      <trkpt lat="45.91535" lon="4.81591">
        <ele>170</ele>
        <time>2018-09-09T09:24:48Z</time>
      </trkpt>
      <trkpt lat="45.9154" lon="4.81591">
        <ele>170</ele>
        <time>2018-09-09T09:24:49Z</time>
      </trkpt>
      <trkpt lat="45.91545" lon="4.81589">
        <ele>170</ele>
        <time>2018-09-09T09:24:50Z</time>
      </trkpt>
      <trkpt lat="45.9155" lon="4.81588">
        <ele>170</ele>
        <time>2018-09-09T09:24:51Z</time>
      </trkpt>
      <trkpt lat="45.91555" lon="4.81587">
        <ele>170</ele>
        <time>2018-09-09T09:24:52Z</time>
      </trkpt>
      <trkpt lat="45.91561" lon="4.81586">
        <ele>170</ele>
        <time>2018-09-09T09:24:53Z</time>
      </trkpt>
      <trkpt lat="45.91566" lon="4.81584">
        <ele>170</ele>
        <time>2018-09-09T09:24:54Z</time>
      </trkpt>
      <trkpt lat="45.91571" lon="4.81583">
        <ele>170</ele>
        <time>2018-09-09T09:24:55Z</time>
      </trkpt>
      <trkpt lat="45.91578" lon="4.81581">
        <ele>170</ele>
        <time>2018-09-09T09:24:56Z</time>
      </trkpt>
      <trkpt lat="45.91584" lon="4.81579">
        <ele>170</ele>
        <time>2018-09-09T09:24:57Z</time>
      </trkpt>
      <trkpt lat="45.9159" lon="4.81578">
        <ele>170</ele>
        <time>2018-09-09T09:24:58Z</time>
      </trkpt>
      <trkpt lat="45.91595" lon="4.81575">
        <ele>170</ele>
        <time>2018-09-09T09:24:59Z</time>
      </trkpt>
      <trkpt lat="45.91601" lon="4.81574">
        <ele>170</ele>
        <time>2018-09-09T09:25:00Z</time>
      </trkpt>
      <trkpt lat="45.91606" lon="4.81572">
        <ele>170</ele>
        <time>2018-09-09T09:25:01Z</time>
      </trkpt>
      <trkpt lat="45.91611" lon="4.81571">
        <ele>170</ele>
        <time>2018-09-09T09:25:02Z</time>
      </trkpt>
      <trkpt lat="45.91616" lon="4.81569">
        <ele>170</ele>
        <time>2018-09-09T09:25:03Z</time>
      </trkpt>
      <trkpt lat="45.91622" lon="4.81567">
        <ele>170</ele>
        <time>2018-09-09T09:25:04Z</time>
      </trkpt>
      <trkpt lat="45.91627" lon="4.81566">
        <ele>170</ele>
        <time>2018-09-09T09:25:05Z</time>
      </trkpt>
      <trkpt lat="45.91633" lon="4.81567">
        <ele>170</ele>
        <time>2018-09-09T09:25:06Z</time>
      </trkpt>
      <trkpt lat="45.91639" lon="4.81565">
        <ele>170</ele>
        <time>2018-09-09T09:25:07Z</time>
      </trkpt>
      <trkpt lat="45.91644" lon="4.81561">
        <ele>170</ele>
        <time>2018-09-09T09:25:08Z</time>
      </trkpt>
      <trkpt lat="45.91649" lon="4.8156">
        <ele>170</ele>
        <time>2018-09-09T09:25:09Z</time>
      </trkpt>
      <trkpt lat="45.91655" lon="4.81558">
        <ele>170</ele>
        <time>2018-09-09T09:25:10Z</time>
      </trkpt>
      <trkpt lat="45.91661" lon="4.81557">
        <ele>170</ele>
        <time>2018-09-09T09:25:11Z</time>
      </trkpt>
      <trkpt lat="45.91666" lon="4.81556">
        <ele>170</ele>
        <time>2018-09-09T09:25:12Z</time>
      </trkpt>
      <trkpt lat="45.91671" lon="4.81555">
        <ele>170</ele>
        <time>2018-09-09T09:25:13Z</time>
      </trkpt>
      <trkpt lat="45.91676" lon="4.81555">
        <ele>170</ele>
        <time>2018-09-09T09:25:14Z</time>
      </trkpt>
      <trkpt lat="45.91683" lon="4.8155">
        <ele>169</ele>
        <time>2018-09-09T09:25:15Z</time>
      </trkpt>
      <trkpt lat="45.9169" lon="4.81548">
        <ele>169</ele>
        <time>2018-09-09T09:25:16Z</time>
      </trkpt>
      <trkpt lat="45.91695" lon="4.81546">
        <ele>169</ele>
        <time>2018-09-09T09:25:17Z</time>
      </trkpt>
      <trkpt lat="45.91701" lon="4.81544">
        <ele>169</ele>
        <time>2018-09-09T09:25:18Z</time>
      </trkpt>
      <trkpt lat="45.91707" lon="4.81544">
        <ele>169</ele>
        <time>2018-09-09T09:25:19Z</time>
      </trkpt>
      <trkpt lat="45.91712" lon="4.81542">
        <ele>169</ele>
        <time>2018-09-09T09:25:20Z</time>
      </trkpt>
      <trkpt lat="45.91718" lon="4.8154">
        <ele>169</ele>
        <time>2018-09-09T09:25:21Z</time>
      </trkpt>
      <trkpt lat="45.91723" lon="4.81536">
        <ele>169</ele>
        <time>2018-09-09T09:25:22Z</time>
      </trkpt>
      <trkpt lat="45.91728" lon="4.81535">
        <ele>169</ele>
        <time>2018-09-09T09:25:23Z</time>
      </trkpt>
      <trkpt lat="45.91736" lon="4.81533">
        <ele>169</ele>
        <time>2018-09-09T09:25:25Z</time>
      </trkpt>
      <trkpt lat="45.9174" lon="4.81532">
        <ele>169</ele>
        <time>2018-09-09T09:25:26Z</time>
      </trkpt>
      <trkpt lat="45.91749" lon="4.81531">
        <ele>169</ele>
        <time>2018-09-09T09:25:28Z</time>
      </trkpt>
      <trkpt lat="45.91753" lon="4.81531">
        <ele>169</ele>
        <time>2018-09-09T09:25:29Z</time>
      </trkpt>
      <trkpt lat="45.91757" lon="4.81529">
        <ele>169</ele>
        <time>2018-09-09T09:25:30Z</time>
      </trkpt>
      <trkpt lat="45.91762" lon="4.81528">
        <ele>169</ele>
        <time>2018-09-09T09:25:31Z</time>
      </trkpt>
      <trkpt lat="45.91768" lon="4.81526">
        <ele>169</ele>
        <time>2018-09-09T09:25:32Z</time>
      </trkpt>
      <trkpt lat="45.91773" lon="4.81524">
        <ele>169</ele>
        <time>2018-09-09T09:25:33Z</time>
      </trkpt>
      <trkpt lat="45.9178" lon="4.81522">
        <ele>169</ele>
        <time>2018-09-09T09:25:34Z</time>
      </trkpt>
      <trkpt lat="45.91786" lon="4.81522">
        <ele>169</ele>
        <time>2018-09-09T09:25:35Z</time>
      </trkpt>
      <trkpt lat="45.91792" lon="4.81519">
        <ele>168</ele>
        <time>2018-09-09T09:25:36Z</time>
      </trkpt>
      <trkpt lat="45.91798" lon="4.81518">
        <ele>168</ele>
        <time>2018-09-09T09:25:37Z</time>
      </trkpt>
      <trkpt lat="45.91803" lon="4.81516">
        <ele>168</ele>
        <time>2018-09-09T09:25:38Z</time>
      </trkpt>
      <trkpt lat="45.91809" lon="4.81513">
        <ele>168</ele>
        <time>2018-09-09T09:25:39Z</time>
      </trkpt>
      <trkpt lat="45.91813" lon="4.81514">
        <ele>168</ele>
        <time>2018-09-09T09:25:40Z</time>
      </trkpt>
      <trkpt lat="45.91818" lon="4.81512">
        <ele>168</ele>
        <time>2018-09-09T09:25:41Z</time>
      </trkpt>
      <trkpt lat="45.91823" lon="4.81516">
        <ele>168</ele>
        <time>2018-09-09T09:25:42Z</time>
      </trkpt>
      <trkpt lat="45.91828" lon="4.81515">
        <ele>168</ele>
        <time>2018-09-09T09:25:43Z</time>
      </trkpt>
      <trkpt lat="45.91833" lon="4.81512">
        <ele>168</ele>
        <time>2018-09-09T09:25:44Z</time>
      </trkpt>
      <trkpt lat="45.91838" lon="4.8151">
        <ele>168</ele>
        <time>2018-09-09T09:25:45Z</time>
      </trkpt>
      <trkpt lat="45.91844" lon="4.81508">
        <ele>168</ele>
        <time>2018-09-09T09:25:46Z</time>
      </trkpt>
      <trkpt lat="45.91849" lon="4.81507">
        <ele>169</ele>
        <time>2018-09-09T09:25:47Z</time>
      </trkpt>
      <trkpt lat="45.91854" lon="4.81505">
        <ele>169</ele>
        <time>2018-09-09T09:25:48Z</time>
      </trkpt>
      <trkpt lat="45.9186" lon="4.81504">
        <ele>169</ele>
        <time>2018-09-09T09:25:49Z</time>
      </trkpt>
      <trkpt lat="45.91865" lon="4.81501">
        <ele>169</ele>
        <time>2018-09-09T09:25:50Z</time>
      </trkpt>
      <trkpt lat="45.91872" lon="4.81499">
        <ele>169</ele>
        <time>2018-09-09T09:25:51Z</time>
      </trkpt>
      <trkpt lat="45.91877" lon="4.81497">
        <ele>169</ele>
        <time>2018-09-09T09:25:52Z</time>
      </trkpt>
      <trkpt lat="45.91882" lon="4.81496">
        <ele>169</ele>
        <time>2018-09-09T09:25:53Z</time>
      </trkpt>
      <trkpt lat="45.9189" lon="4.81494">
        <ele>169</ele>
        <time>2018-09-09T09:25:54Z</time>
      </trkpt>
      <trkpt lat="45.91895" lon="4.81492">
        <ele>169</ele>
        <time>2018-09-09T09:25:55Z</time>
      </trkpt>
      <trkpt lat="45.91902" lon="4.81489">
        <ele>169</ele>
        <time>2018-09-09T09:25:56Z</time>
      </trkpt>
      <trkpt lat="45.91909" lon="4.81486">
        <ele>169</ele>
        <time>2018-09-09T09:25:57Z</time>
      </trkpt>
      <trkpt lat="45.91914" lon="4.81485">
        <ele>169</ele>
        <time>2018-09-09T09:25:58Z</time>
      </trkpt>
      <trkpt lat="45.91921" lon="4.81481">
        <ele>170</ele>
        <time>2018-09-09T09:25:59Z</time>
      </trkpt>
      <trkpt lat="45.91925" lon="4.81477">
        <ele>170</ele>
        <time>2018-09-09T09:26:00Z</time>
      </trkpt>
      <trkpt lat="45.9193" lon="4.81477">
        <ele>170</ele>
        <time>2018-09-09T09:26:01Z</time>
      </trkpt>
      <trkpt lat="45.91936" lon="4.8147">
        <ele>170</ele>
        <time>2018-09-09T09:26:02Z</time>
      </trkpt>
      <trkpt lat="45.91942" lon="4.81468">
        <ele>170</ele>
        <time>2018-09-09T09:26:03Z</time>
      </trkpt>
      <trkpt lat="45.91948" lon="4.81465">
        <ele>170</ele>
        <time>2018-09-09T09:26:04Z</time>
      </trkpt>
      <trkpt lat="45.91954" lon="4.81463">
        <ele>170</ele>
        <time>2018-09-09T09:26:05Z</time>
      </trkpt>
      <trkpt lat="45.9196" lon="4.81463">
        <ele>170</ele>
        <time>2018-09-09T09:26:06Z</time>
      </trkpt>
      <trkpt lat="45.91966" lon="4.81462">
        <ele>170</ele>
        <time>2018-09-09T09:26:07Z</time>
      </trkpt>
      <trkpt lat="45.9197" lon="4.81455">
        <ele>170</ele>
        <time>2018-09-09T09:26:08Z</time>
      </trkpt>
      <trkpt lat="45.91975" lon="4.81453">
        <ele>170</ele>
        <time>2018-09-09T09:26:09Z</time>
      </trkpt>
      <trkpt lat="45.9198" lon="4.81451">
        <ele>170</ele>
        <time>2018-09-09T09:26:10Z</time>
      </trkpt>
      <trkpt lat="45.91987" lon="4.81448">
        <ele>170</ele>
        <time>2018-09-09T09:26:11Z</time>
      </trkpt>
      <trkpt lat="45.91992" lon="4.81446">
        <ele>170</ele>
        <time>2018-09-09T09:26:12Z</time>
      </trkpt>
      <trkpt lat="45.91998" lon="4.81443">
        <ele>170</ele>
        <time>2018-09-09T09:26:13Z</time>
      </trkpt>
      <trkpt lat="45.92004" lon="4.81442">
        <ele>170</ele>
        <time>2018-09-09T09:26:14Z</time>
      </trkpt>
      <trkpt lat="45.92009" lon="4.8144">
        <ele>170</ele>
        <time>2018-09-09T09:26:15Z</time>
      </trkpt>
      <trkpt lat="45.92015" lon="4.8144">
        <ele>170</ele>
        <time>2018-09-09T09:26:16Z</time>
      </trkpt>
      <trkpt lat="45.92021" lon="4.81438">
        <ele>170</ele>
        <time>2018-09-09T09:26:17Z</time>
      </trkpt>
      <trkpt lat="45.92025" lon="4.81435">
        <ele>170</ele>
        <time>2018-09-09T09:26:18Z</time>
      </trkpt>
      <trkpt lat="45.92031" lon="4.81432">
        <ele>170</ele>
        <time>2018-09-09T09:26:19Z</time>
      </trkpt>
      <trkpt lat="45.92037" lon="4.8143">
        <ele>170</ele>
        <time>2018-09-09T09:26:20Z</time>
      </trkpt>
      <trkpt lat="45.92043" lon="4.81427">
        <ele>170</ele>
        <time>2018-09-09T09:26:21Z</time>
      </trkpt>
      <trkpt lat="45.92047" lon="4.81425">
        <ele>170</ele>
        <time>2018-09-09T09:26:22Z</time>
      </trkpt>
      <trkpt lat="45.92053" lon="4.81421">
        <ele>170</ele>
        <time>2018-09-09T09:26:23Z</time>
      </trkpt>
      <trkpt lat="45.92057" lon="4.81417">
        <ele>170</ele>
        <time>2018-09-09T09:26:24Z</time>
      </trkpt>
      <trkpt lat="45.92063" lon="4.81414">
        <ele>169</ele>
        <time>2018-09-09T09:26:25Z</time>
      </trkpt>
      <trkpt lat="45.92069" lon="4.8141">
        <ele>170</ele>
        <time>2018-09-09T09:26:26Z</time>
      </trkpt>
      <trkpt lat="45.92075" lon="4.81408">
        <ele>170</ele>
        <time>2018-09-09T09:26:27Z</time>
      </trkpt>
      <trkpt lat="45.9208" lon="4.81405">
        <ele>170</ele>
        <time>2018-09-09T09:26:28Z</time>
      </trkpt>
      <trkpt lat="45.92085" lon="4.81402">
        <ele>170</ele>
        <time>2018-09-09T09:26:29Z</time>
      </trkpt>
      <trkpt lat="45.92091" lon="4.814">
        <ele>170</ele>
        <time>2018-09-09T09:26:30Z</time>
      </trkpt>
      <trkpt lat="45.92095" lon="4.81397">
        <ele>170</ele>
        <time>2018-09-09T09:26:31Z</time>
      </trkpt>
      <trkpt lat="45.92102" lon="4.81392">
        <ele>170</ele>
        <time>2018-09-09T09:26:32Z</time>
      </trkpt>
      <trkpt lat="45.92108" lon="4.81388">
        <ele>170</ele>
        <time>2018-09-09T09:26:33Z</time>
      </trkpt>
      <trkpt lat="45.92113" lon="4.81386">
        <ele>170</ele>
        <time>2018-09-09T09:26:34Z</time>
      </trkpt>
      <trkpt lat="45.92118" lon="4.81384">
        <ele>170</ele>
        <time>2018-09-09T09:26:35Z</time>
      </trkpt>
      <trkpt lat="45.92124" lon="4.81383">
        <ele>170</ele>
        <time>2018-09-09T09:26:36Z</time>
      </trkpt>
      <trkpt lat="45.9213" lon="4.81382">
        <ele>170</ele>
        <time>2018-09-09T09:26:37Z</time>
      </trkpt>
      <trkpt lat="45.92136" lon="4.81379">
        <ele>170</ele>
        <time>2018-09-09T09:26:38Z</time>
      </trkpt>
      <trkpt lat="45.92141" lon="4.81378">
        <ele>170</ele>
        <time>2018-09-09T09:26:39Z</time>
      </trkpt>
      <trkpt lat="45.92147" lon="4.81377">
        <ele>170</ele>
        <time>2018-09-09T09:26:40Z</time>
      </trkpt>
      <trkpt lat="45.92152" lon="4.81378">
        <ele>170</ele>
        <time>2018-09-09T09:26:41Z</time>
      </trkpt>
      <trkpt lat="45.92157" lon="4.8138">
        <ele>170</ele>
        <time>2018-09-09T09:26:42Z</time>
      </trkpt>
      <trkpt lat="45.92162" lon="4.81382">
        <ele>170</ele>
        <time>2018-09-09T09:26:43Z</time>
      </trkpt>
      <trkpt lat="45.92167" lon="4.81384">
        <ele>170</ele>
        <time>2018-09-09T09:26:44Z</time>
      </trkpt>
      <trkpt lat="45.92172" lon="4.81386">
        <ele>170</ele>
        <time>2018-09-09T09:26:45Z</time>
      </trkpt>
      <trkpt lat="45.92177" lon="4.81388">
        <ele>170</ele>
        <time>2018-09-09T09:26:46Z</time>
      </trkpt>
      <trkpt lat="45.92184" lon="4.81389">
        <ele>170</ele>
        <time>2018-09-09T09:26:47Z</time>
      </trkpt>
      <trkpt lat="45.92189" lon="4.81389">
        <ele>170</ele>
        <time>2018-09-09T09:26:48Z</time>
      </trkpt>
      <trkpt lat="45.92194" lon="4.81388">
        <ele>170</ele>
        <time>2018-09-09T09:26:49Z</time>
      </trkpt>
      <trkpt lat="45.92196" lon="4.81379">
        <ele>170</ele>
        <time>2018-09-09T09:26:51Z</time>
      </trkpt>
      <trkpt lat="45.92198" lon="4.81373">
        <ele>170</ele>
        <time>2018-09-09T09:26:52Z</time>
      </trkpt>
      <trkpt lat="45.92199" lon="4.81367">
        <ele>170</ele>
        <time>2018-09-09T09:26:53Z</time>
      </trkpt>
      <trkpt lat="45.92203" lon="4.81358">
        <ele>170</ele>
        <time>2018-09-09T09:26:54Z</time>
      </trkpt>
      <trkpt lat="45.92206" lon="4.81351">
        <ele>170</ele>
        <time>2018-09-09T09:26:55Z</time>
      </trkpt>
      <trkpt lat="45.9221" lon="4.81346">
        <ele>171</ele>
        <time>2018-09-09T09:26:56Z</time>
      </trkpt>
      <trkpt lat="45.92214" lon="4.81342">
        <ele>171</ele>
        <time>2018-09-09T09:26:57Z</time>
      </trkpt>
      <trkpt lat="45.92219" lon="4.81337">
        <ele>171</ele>
        <time>2018-09-09T09:26:58Z</time>
      </trkpt>
      <trkpt lat="45.92225" lon="4.81328">
        <ele>171</ele>
        <time>2018-09-09T09:26:59Z</time>
      </trkpt>
      <trkpt lat="45.9223" lon="4.81322">
        <ele>171</ele>
        <time>2018-09-09T09:27:00Z</time>
      </trkpt>
      <trkpt lat="45.92235" lon="4.81318">
        <ele>171</ele>
        <time>2018-09-09T09:27:01Z</time>
      </trkpt>
      <trkpt lat="45.9224" lon="4.81313">
        <ele>171</ele>
        <time>2018-09-09T09:27:02Z</time>
      </trkpt>
      <trkpt lat="45.92244" lon="4.8131">
        <ele>171</ele>
        <time>2018-09-09T09:27:03Z</time>
      </trkpt>
      <trkpt lat="45.92249" lon="4.81303">
        <ele>171</ele>
        <time>2018-09-09T09:27:04Z</time>
      </trkpt>
      <trkpt lat="45.92254" lon="4.81298">
        <ele>171</ele>
        <time>2018-09-09T09:27:05Z</time>
      </trkpt>
      <trkpt lat="45.9226" lon="4.81295">
        <ele>171</ele>
        <time>2018-09-09T09:27:06Z</time>
      </trkpt>
      <trkpt lat="45.92265" lon="4.81291">
        <ele>170</ele>
        <time>2018-09-09T09:27:07Z</time>
      </trkpt>
      <trkpt lat="45.92271" lon="4.81285">
        <ele>170</ele>
        <time>2018-09-09T09:27:08Z</time>
      </trkpt>
      <trkpt lat="45.92276" lon="4.81282">
        <ele>170</ele>
        <time>2018-09-09T09:27:09Z</time>
      </trkpt>
      <trkpt lat="45.9228" lon="4.8128">
        <ele>170</ele>
        <time>2018-09-09T09:27:10Z</time>
      </trkpt>
      <trkpt lat="45.92286" lon="4.81276">
        <ele>170</ele>
        <time>2018-09-09T09:27:11Z</time>
      </trkpt>
      <trkpt lat="45.92292" lon="4.81272">
        <ele>170</ele>
        <time>2018-09-09T09:27:12Z</time>
      </trkpt>
      <trkpt lat="45.92297" lon="4.81268">
        <ele>170</ele>
        <time>2018-09-09T09:27:13Z</time>
      </trkpt>
      <trkpt lat="45.92302" lon="4.81265">
        <ele>170</ele>
        <time>2018-09-09T09:27:14Z</time>
      </trkpt>
      <trkpt lat="45.92307" lon="4.81262">
        <ele>170</ele>
        <time>2018-09-09T09:27:15Z</time>
      </trkpt>
      <trkpt lat="45.92312" lon="4.81259">
        <ele>170</ele>
        <time>2018-09-09T09:27:16Z</time>
      </trkpt>
      <trkpt lat="45.92317" lon="4.81256">
        <ele>170</ele>
        <time>2018-09-09T09:27:17Z</time>
      </trkpt>
      <trkpt lat="45.92322" lon="4.81254">
        <ele>169</ele>
        <time>2018-09-09T09:27:18Z</time>
      </trkpt>
      <trkpt lat="45.9233" lon="4.8125">
        <ele>169</ele>
        <time>2018-09-09T09:27:20Z</time>
      </trkpt>
      <trkpt lat="45.92335" lon="4.81245">
        <ele>169</ele>
        <time>2018-09-09T09:27:21Z</time>
      </trkpt>
      <trkpt lat="45.9234" lon="4.81242">
        <ele>169</ele>
        <time>2018-09-09T09:27:22Z</time>
      </trkpt>
      <trkpt lat="45.92345" lon="4.81241">
        <ele>169</ele>
        <time>2018-09-09T09:27:23Z</time>
      </trkpt>
      <trkpt lat="45.9235" lon="4.81235">
        <ele>169</ele>
        <time>2018-09-09T09:27:24Z</time>
      </trkpt>
      <trkpt lat="45.92355" lon="4.81232">
        <ele>169</ele>
        <time>2018-09-09T09:27:25Z</time>
      </trkpt>
      <trkpt lat="45.9236" lon="4.8123">
        <ele>170</ele>
        <time>2018-09-09T09:27:26Z</time>
      </trkpt>
      <trkpt lat="45.92365" lon="4.81227">
        <ele>170</ele>
        <time>2018-09-09T09:27:27Z</time>
      </trkpt>
      <trkpt lat="45.9237" lon="4.81224">
        <ele>170</ele>
        <time>2018-09-09T09:27:28Z</time>
      </trkpt>
      <trkpt lat="45.92376" lon="4.8122">
        <ele>170</ele>
        <time>2018-09-09T09:27:29Z</time>
      </trkpt>
      <trkpt lat="45.92381" lon="4.81219">
        <ele>170</ele>
        <time>2018-09-09T09:27:30Z</time>
      </trkpt>
      <trkpt lat="45.92385" lon="4.81215">
        <ele>170</ele>
        <time>2018-09-09T09:27:31Z</time>
      </trkpt>
      <trkpt lat="45.92391" lon="4.81212">
        <ele>170</ele>
        <time>2018-09-09T09:27:32Z</time>
      </trkpt>
      <trkpt lat="45.92397" lon="4.81207">
        <ele>170</ele>
        <time>2018-09-09T09:27:33Z</time>
      </trkpt>
      <trkpt lat="45.92402" lon="4.81204">
        <ele>170</ele>
        <time>2018-09-09T09:27:34Z</time>
      </trkpt>
      <trkpt lat="45.92408" lon="4.81202">
        <ele>170</ele>
        <time>2018-09-09T09:27:35Z</time>
      </trkpt>
      <trkpt lat="45.92415" lon="4.812">
        <ele>170</ele>
        <time>2018-09-09T09:27:36Z</time>
      </trkpt>
      <trkpt lat="45.92421" lon="4.81197">
        <ele>171</ele>
        <time>2018-09-09T09:27:37Z</time>
      </trkpt>
      <trkpt lat="45.92428" lon="4.81196">
        <ele>171</ele>
        <time>2018-09-09T09:27:38Z</time>
      </trkpt>
      <trkpt lat="45.92434" lon="4.81195">
        <ele>171</ele>
        <time>2018-09-09T09:27:39Z</time>
      </trkpt>
      <trkpt lat="45.9244" lon="4.81195">
        <ele>171</ele>
        <time>2018-09-09T09:27:40Z</time>
      </trkpt>
      <trkpt lat="45.92447" lon="4.81194">
        <ele>171</ele>
        <time>2018-09-09T09:27:41Z</time>
      </trkpt>
      <trkpt lat="45.92452" lon="4.81194">
        <ele>171</ele>
        <time>2018-09-09T09:27:42Z</time>
      </trkpt>
      <trkpt lat="45.92458" lon="4.81193">
        <ele>171</ele>
        <time>2018-09-09T09:27:43Z</time>
      </trkpt>
      <trkpt lat="45.92463" lon="4.81193">
        <ele>171</ele>
        <time>2018-09-09T09:27:44Z</time>
      </trkpt>
      <trkpt lat="45.92468" lon="4.81193">
        <ele>171</ele>
        <time>2018-09-09T09:27:45Z</time>
      </trkpt>
      <trkpt lat="45.92474" lon="4.81193">
        <ele>171</ele>
        <time>2018-09-09T09:27:46Z</time>
      </trkpt>
      <trkpt lat="45.92479" lon="4.81195">
        <ele>171</ele>
        <time>2018-09-09T09:27:47Z</time>
      </trkpt>
      <trkpt lat="45.92484" lon="4.81194">
        <ele>171</ele>
        <time>2018-09-09T09:27:48Z</time>
      </trkpt>
      <trkpt lat="45.92488" lon="4.81194">
        <ele>171</ele>
        <time>2018-09-09T09:27:49Z</time>
      </trkpt>
      <trkpt lat="45.92493" lon="4.81195">
        <ele>171</ele>
        <time>2018-09-09T09:27:50Z</time>
      </trkpt>
      <trkpt lat="45.92498" lon="4.81195">
        <ele>171</ele>
        <time>2018-09-09T09:27:51Z</time>
      </trkpt>
      <trkpt lat="45.92504" lon="4.81192">
        <ele>171</ele>
        <time>2018-09-09T09:27:52Z</time>
      </trkpt>
      <trkpt lat="45.9251" lon="4.81192">
        <ele>171</ele>
        <time>2018-09-09T09:27:53Z</time>
      </trkpt>
      <trkpt lat="45.92514" lon="4.81189">
        <ele>171</ele>
        <time>2018-09-09T09:27:54Z</time>
      </trkpt>
      <trkpt lat="45.9252" lon="4.81189">
        <ele>171</ele>
        <time>2018-09-09T09:27:55Z</time>
      </trkpt>
      <trkpt lat="45.92526" lon="4.81187">
        <ele>171</ele>
        <time>2018-09-09T09:27:56Z</time>
      </trkpt>
      <trkpt lat="45.92531" lon="4.81186">
        <ele>171</ele>
        <time>2018-09-09T09:27:57Z</time>
      </trkpt>
      <trkpt lat="45.92537" lon="4.81186">
        <ele>171</ele>
        <time>2018-09-09T09:27:58Z</time>
      </trkpt>
      <trkpt lat="45.92542" lon="4.81185">
        <ele>170</ele>
        <time>2018-09-09T09:27:59Z</time>
      </trkpt>
      <trkpt lat="45.92549" lon="4.81183">
        <ele>170</ele>
        <time>2018-09-09T09:28:00Z</time>
      </trkpt>
      <trkpt lat="45.92555" lon="4.81182">
        <ele>170</ele>
        <time>2018-09-09T09:28:01Z</time>
      </trkpt>
      <trkpt lat="45.92561" lon="4.81183">
        <ele>170</ele>
        <time>2018-09-09T09:28:02Z</time>
      </trkpt>
      <trkpt lat="45.92567" lon="4.81184">
        <ele>170</ele>
        <time>2018-09-09T09:28:03Z</time>
      </trkpt>
      <trkpt lat="45.92573" lon="4.81185">
        <ele>170</ele>
        <time>2018-09-09T09:28:04Z</time>
      </trkpt>
      <trkpt lat="45.92579" lon="4.81184">
        <ele>170</ele>
        <time>2018-09-09T09:28:05Z</time>
      </trkpt>
      <trkpt lat="45.92585" lon="4.81184">
        <ele>170</ele>
        <time>2018-09-09T09:28:06Z</time>
      </trkpt>
      <trkpt lat="45.9259" lon="4.81184">
        <ele>170</ele>
        <time>2018-09-09T09:28:07Z</time>
      </trkpt>
      <trkpt lat="45.92596" lon="4.81184">
        <ele>170</ele>
        <time>2018-09-09T09:28:08Z</time>
      </trkpt>
      <trkpt lat="45.92601" lon="4.81185">
        <ele>170</ele>
        <time>2018-09-09T09:28:09Z</time>
      </trkpt>
      <trkpt lat="45.92604" lon="4.81184">
        <ele>170</ele>
        <time>2018-09-09T09:28:10Z</time>
      </trkpt>
      <trkpt lat="45.9261" lon="4.81184">
        <ele>170</ele>
        <time>2018-09-09T09:28:11Z</time>
      </trkpt>
      <trkpt lat="45.92615" lon="4.81184">
        <ele>170</ele>
        <time>2018-09-09T09:28:12Z</time>
      </trkpt>
      <trkpt lat="45.9262" lon="4.81184">
        <ele>170</ele>
        <time>2018-09-09T09:28:13Z</time>
      </trkpt>
      <trkpt lat="45.92625" lon="4.81184">
        <ele>171</ele>
        <time>2018-09-09T09:28:14Z</time>
      </trkpt>
      <trkpt lat="45.92631" lon="4.81181">
        <ele>171</ele>
        <time>2018-09-09T09:28:15Z</time>
      </trkpt>
      <trkpt lat="45.92637" lon="4.8118">
        <ele>171</ele>
        <time>2018-09-09T09:28:16Z</time>
      </trkpt>
      <trkpt lat="45.92643" lon="4.81178">
        <ele>171</ele>
        <time>2018-09-09T09:28:17Z</time>
      </trkpt>
      <trkpt lat="45.92649" lon="4.81177">
        <ele>171</ele>
        <time>2018-09-09T09:28:18Z</time>
      </trkpt>
      <trkpt lat="45.92653" lon="4.81178">
        <ele>171</ele>
        <time>2018-09-09T09:28:19Z</time>
      </trkpt>
      <trkpt lat="45.92658" lon="4.81179">
        <ele>171</ele>
        <time>2018-09-09T09:28:20Z</time>
      </trkpt>
      <trkpt lat="45.92664" lon="4.81177">
        <ele>171</ele>
        <time>2018-09-09T09:28:21Z</time>
      </trkpt>
      <trkpt lat="45.9267" lon="4.81176">
        <ele>171</ele>
        <time>2018-09-09T09:28:22Z</time>
      </trkpt>
      <trkpt lat="45.92675" lon="4.81176">
        <ele>171</ele>
        <time>2018-09-09T09:28:23Z</time>
      </trkpt>
      <trkpt lat="45.92683" lon="4.81173">
        <ele>171</ele>
        <time>2018-09-09T09:28:25Z</time>
      </trkpt>
      <trkpt lat="45.92688" lon="4.81172">
        <ele>171</ele>
        <time>2018-09-09T09:28:26Z</time>
      </trkpt>
      <trkpt lat="45.92693" lon="4.81171">
        <ele>170</ele>
        <time>2018-09-09T09:28:27Z</time>
      </trkpt>
      <trkpt lat="45.92699" lon="4.8117">
        <ele>170</ele>
        <time>2018-09-09T09:28:28Z</time>
      </trkpt>
      <trkpt lat="45.92705" lon="4.81168">
        <ele>170</ele>
        <time>2018-09-09T09:28:29Z</time>
      </trkpt>
      <trkpt lat="45.9271" lon="4.81167">
        <ele>170</ele>
        <time>2018-09-09T09:28:30Z</time>
      </trkpt>
      <trkpt lat="45.92715" lon="4.81166">
        <ele>170</ele>
        <time>2018-09-09T09:28:31Z</time>
      </trkpt>
      <trkpt lat="45.92721" lon="4.81165">
        <ele>170</ele>
        <time>2018-09-09T09:28:32Z</time>
      </trkpt>
      <trkpt lat="45.92726" lon="4.81165">
        <ele>170</ele>
        <time>2018-09-09T09:28:33Z</time>
      </trkpt>
      <trkpt lat="45.92731" lon="4.81163">
        <ele>170</ele>
        <time>2018-09-09T09:28:34Z</time>
      </trkpt>
      <trkpt lat="45.92736" lon="4.81163">
        <ele>170</ele>
        <time>2018-09-09T09:28:35Z</time>
      </trkpt>
      <trkpt lat="45.92741" lon="4.81162">
        <ele>170</ele>
        <time>2018-09-09T09:28:36Z</time>
      </trkpt>
      <trkpt lat="45.92749" lon="4.81166">
        <ele>170</ele>
        <time>2018-09-09T09:28:38Z</time>
      </trkpt>
      <trkpt lat="45.92752" lon="4.81167">
        <ele>170</ele>
        <time>2018-09-09T09:28:39Z</time>
      </trkpt>
      <trkpt lat="45.92756" lon="4.8117">
        <ele>170</ele>
        <time>2018-09-09T09:28:40Z</time>
      </trkpt>
      <trkpt lat="45.92761" lon="4.81172">
        <ele>170</ele>
        <time>2018-09-09T09:28:41Z</time>
      </trkpt>
      <trkpt lat="45.9277" lon="4.81172">
        <ele>170</ele>
        <time>2018-09-09T09:28:43Z</time>
      </trkpt>
      <trkpt lat="45.92775" lon="4.81169">
        <ele>170</ele>
        <time>2018-09-09T09:28:44Z</time>
      </trkpt>
      <trkpt lat="45.92779" lon="4.81164">
        <ele>170</ele>
        <time>2018-09-09T09:28:45Z</time>
      </trkpt>
      <trkpt lat="45.92783" lon="4.81159">
        <ele>170</ele>
        <time>2018-09-09T09:28:46Z</time>
      </trkpt>
      <trkpt lat="45.92785" lon="4.81154">
        <ele>170</ele>
        <time>2018-09-09T09:28:47Z</time>
      </trkpt>
      <trkpt lat="45.92787" lon="4.81146">
        <ele>170</ele>
        <time>2018-09-09T09:28:48Z</time>
      </trkpt>
      <trkpt lat="45.92788" lon="4.81139">
        <ele>170</ele>
        <time>2018-09-09T09:28:49Z</time>
      </trkpt>
      <trkpt lat="45.92789" lon="4.81133">
        <ele>170</ele>
        <time>2018-09-09T09:28:50Z</time>
      </trkpt>
      <trkpt lat="45.9279" lon="4.81127">
        <ele>170</ele>
        <time>2018-09-09T09:28:51Z</time>
      </trkpt>
      <trkpt lat="45.92793" lon="4.8112">
        <ele>170</ele>
        <time>2018-09-09T09:28:52Z</time>
      </trkpt>
      <trkpt lat="45.92797" lon="4.81114">
        <ele>170</ele>
        <time>2018-09-09T09:28:53Z</time>
      </trkpt>
      <trkpt lat="45.928" lon="4.81106">
        <ele>170</ele>
        <time>2018-09-09T09:28:54Z</time>
      </trkpt>
      <trkpt lat="45.92804" lon="4.811">
        <ele>170</ele>
        <time>2018-09-09T09:28:55Z</time>
      </trkpt>
      <trkpt lat="45.92809" lon="4.81094">
        <ele>170</ele>
        <time>2018-09-09T09:28:56Z</time>
      </trkpt>
      <trkpt lat="45.92812" lon="4.81089">
        <ele>170</ele>
        <time>2018-09-09T09:28:57Z</time>
      </trkpt>
      <trkpt lat="45.92816" lon="4.81082">
        <ele>170</ele>
        <time>2018-09-09T09:28:58Z</time>
      </trkpt>
      <trkpt lat="45.92822" lon="4.81076">
        <ele>170</ele>
        <time>2018-09-09T09:28:59Z</time>
      </trkpt>
      <trkpt lat="45.92826" lon="4.81072">
        <ele>170</ele>
        <time>2018-09-09T09:29:00Z</time>
      </trkpt>
      <trkpt lat="45.9283" lon="4.81065">
        <ele>169</ele>
        <time>2018-09-09T09:29:01Z</time>
      </trkpt>
      <trkpt lat="45.92834" lon="4.81059">
        <ele>169</ele>
        <time>2018-09-09T09:29:02Z</time>
      </trkpt>
      <trkpt lat="45.92836" lon="4.81051">
        <ele>169</ele>
        <time>2018-09-09T09:29:03Z</time>
      </trkpt>
      <trkpt lat="45.9284" lon="4.81046">
        <ele>169</ele>
        <time>2018-09-09T09:29:04Z</time>
      </trkpt>
      <trkpt lat="45.92843" lon="4.81034">
        <ele>169</ele>
        <time>2018-09-09T09:29:06Z</time>
      </trkpt>
      <trkpt lat="45.92846" lon="4.81029">
        <ele>169</ele>
        <time>2018-09-09T09:29:07Z</time>
      </trkpt>
      <trkpt lat="45.92849" lon="4.81024">
        <ele>169</ele>
        <time>2018-09-09T09:29:08Z</time>
      </trkpt>
      <trkpt lat="45.92852" lon="4.81018">
        <ele>169</ele>
        <time>2018-09-09T09:29:09Z</time>
      </trkpt>
      <trkpt lat="45.92855" lon="4.81012">
        <ele>169</ele>
        <time>2018-09-09T09:29:10Z</time>
      </trkpt>
      <trkpt lat="45.92859" lon="4.81006">
        <ele>169</ele>
        <time>2018-09-09T09:29:11Z</time>
      </trkpt>
      <trkpt lat="45.92862" lon="4.80999">
        <ele>169</ele>
        <time>2018-09-09T09:29:12Z</time>
      </trkpt>
      <trkpt lat="45.92864" lon="4.80991">
        <ele>169</ele>
        <time>2018-09-09T09:29:13Z</time>
      </trkpt>
      <trkpt lat="45.92867" lon="4.80984">
        <ele>169</ele>
        <time>2018-09-09T09:29:14Z</time>
      </trkpt>
      <trkpt lat="45.92869" lon="4.80977">
        <ele>169</ele>
        <time>2018-09-09T09:29:15Z</time>
      </trkpt>
      <trkpt lat="45.92873" lon="4.80971">
        <ele>169</ele>
        <time>2018-09-09T09:29:16Z</time>
      </trkpt>
      <trkpt lat="45.92875" lon="4.80964">
        <ele>169</ele>
        <time>2018-09-09T09:29:17Z</time>
      </trkpt>
      <trkpt lat="45.92876" lon="4.80958">
        <ele>170</ele>
        <time>2018-09-09T09:29:18Z</time>
      </trkpt>
      <trkpt lat="45.92878" lon="4.80948">
        <ele>170</ele>
        <time>2018-09-09T09:29:19Z</time>
      </trkpt>
      <trkpt lat="45.92882" lon="4.8094">
        <ele>170</ele>
        <time>2018-09-09T09:29:20Z</time>
      </trkpt>
      <trkpt lat="45.92885" lon="4.80932">
        <ele>170</ele>
        <time>2018-09-09T09:29:21Z</time>
      </trkpt>
      <trkpt lat="45.92887" lon="4.80926">
        <ele>170</ele>
        <time>2018-09-09T09:29:22Z</time>
      </trkpt>
      <trkpt lat="45.9289" lon="4.8092">
        <ele>170</ele>
        <time>2018-09-09T09:29:23Z</time>
      </trkpt>
      <trkpt lat="45.92892" lon="4.80913">
        <ele>170</ele>
        <time>2018-09-09T09:29:24Z</time>
      </trkpt>
      <trkpt lat="45.92895" lon="4.80904">
        <ele>170</ele>
        <time>2018-09-09T09:29:25Z</time>
      </trkpt>
      <trkpt lat="45.92897" lon="4.80897">
        <ele>170</ele>
        <time>2018-09-09T09:29:26Z</time>
      </trkpt>
      <trkpt lat="45.92899" lon="4.8089">
        <ele>170</ele>
        <time>2018-09-09T09:29:27Z</time>
      </trkpt>
      <trkpt lat="45.92901" lon="4.80883">
        <ele>171</ele>
        <time>2018-09-09T09:29:28Z</time>
      </trkpt>
      <trkpt lat="45.92903" lon="4.80878">
        <ele>171</ele>
        <time>2018-09-09T09:29:29Z</time>
      </trkpt>
      <trkpt lat="45.92905" lon="4.8087">
        <ele>171</ele>
        <time>2018-09-09T09:29:30Z</time>
      </trkpt>
      <trkpt lat="45.92906" lon="4.80863">
        <ele>171</ele>
        <time>2018-09-09T09:29:31Z</time>
      </trkpt>
      <trkpt lat="45.92908" lon="4.80857">
        <ele>171</ele>
        <time>2018-09-09T09:29:32Z</time>
      </trkpt>
      <trkpt lat="45.92911" lon="4.80851">
        <ele>171</ele>
        <time>2018-09-09T09:29:33Z</time>
      </trkpt>
      <trkpt lat="45.92915" lon="4.80843">
        <ele>171</ele>
        <time>2018-09-09T09:29:34Z</time>
      </trkpt>
      <trkpt lat="45.92917" lon="4.80837">
        <ele>172</ele>
        <time>2018-09-09T09:29:35Z</time>
      </trkpt>
      <trkpt lat="45.92921" lon="4.80827">
        <ele>172</ele>
        <time>2018-09-09T09:29:37Z</time>
      </trkpt>
      <trkpt lat="45.92923" lon="4.80821">
        <ele>172</ele>
        <time>2018-09-09T09:29:38Z</time>
      </trkpt>
      <trkpt lat="45.92925" lon="4.80815">
        <ele>172</ele>
        <time>2018-09-09T09:29:39Z</time>
      </trkpt>
      <trkpt lat="45.92926" lon="4.80808">
        <ele>172</ele>
        <time>2018-09-09T09:29:40Z</time>
      </trkpt>
      <trkpt lat="45.92929" lon="4.80802">
        <ele>172</ele>
        <time>2018-09-09T09:29:41Z</time>
      </trkpt>
      <trkpt lat="45.92932" lon="4.80795">
        <ele>172</ele>
        <time>2018-09-09T09:29:42Z</time>
      </trkpt>
      <trkpt lat="45.92933" lon="4.80788">
        <ele>172</ele>
        <time>2018-09-09T09:29:43Z</time>
      </trkpt>
      <trkpt lat="45.92935" lon="4.80781">
        <ele>172</ele>
        <time>2018-09-09T09:29:44Z</time>
      </trkpt>
      <trkpt lat="45.92938" lon="4.80773">
        <ele>172</ele>
        <time>2018-09-09T09:29:45Z</time>
      </trkpt>
      <trkpt lat="45.92941" lon="4.80764">
        <ele>172</ele>
        <time>2018-09-09T09:29:46Z</time>
      </trkpt>
      <trkpt lat="45.92944" lon="4.80756">
        <ele>172</ele>
        <time>2018-09-09T09:29:47Z</time>
      </trkpt>
      <trkpt lat="45.92947" lon="4.80749">
        <ele>172</ele>
        <time>2018-09-09T09:29:48Z</time>
      </trkpt>
      <trkpt lat="45.92949" lon="4.80741">
        <ele>172</ele>
        <time>2018-09-09T09:29:49Z</time>
      </trkpt>
      <trkpt lat="45.92952" lon="4.80734">
        <ele>172</ele>
        <time>2018-09-09T09:29:50Z</time>
      </trkpt>
      <trkpt lat="45.92953" lon="4.80726">
        <ele>172</ele>
        <time>2018-09-09T09:29:51Z</time>
      </trkpt>
      <trkpt lat="45.92956" lon="4.8072">
        <ele>172</ele>
        <time>2018-09-09T09:29:52Z</time>
      </trkpt>
      <trkpt lat="45.9296" lon="4.80715">
        <ele>172</ele>
        <time>2018-09-09T09:29:53Z</time>
      </trkpt>
      <trkpt lat="45.92961" lon="4.80707">
        <ele>172</ele>
        <time>2018-09-09T09:29:54Z</time>
      </trkpt>
      <trkpt lat="45.92964" lon="4.807">
        <ele>172</ele>
        <time>2018-09-09T09:29:55Z</time>
      </trkpt>
      <trkpt lat="45.92967" lon="4.80696">
        <ele>172</ele>
        <time>2018-09-09T09:29:56Z</time>
      </trkpt>
      <trkpt lat="45.9297" lon="4.80688">
        <ele>172</ele>
        <time>2018-09-09T09:29:57Z</time>
      </trkpt>
      <trkpt lat="45.92971" lon="4.8068">
        <ele>172</ele>
        <time>2018-09-09T09:29:58Z</time>
      </trkpt>
      <trkpt lat="45.92973" lon="4.8067">
        <ele>172</ele>
        <time>2018-09-09T09:29:59Z</time>
      </trkpt>
      <trkpt lat="45.92976" lon="4.80662">
        <ele>172</ele>
        <time>2018-09-09T09:30:00Z</time>
      </trkpt>
      <trkpt lat="45.92978" lon="4.80652">
        <ele>172</ele>
        <time>2018-09-09T09:30:01Z</time>
      </trkpt>
      <trkpt lat="45.9298" lon="4.80644">
        <ele>172</ele>
        <time>2018-09-09T09:30:02Z</time>
      </trkpt>
      <trkpt lat="45.92982" lon="4.80637">
        <ele>172</ele>
        <time>2018-09-09T09:30:03Z</time>
      </trkpt>
      <trkpt lat="45.92986" lon="4.8063">
        <ele>172</ele>
        <time>2018-09-09T09:30:04Z</time>
      </trkpt>
      <trkpt lat="45.92988" lon="4.80623">
        <ele>172</ele>
        <time>2018-09-09T09:30:05Z</time>
      </trkpt>
      <trkpt lat="45.92991" lon="4.80615">
        <ele>172</ele>
        <time>2018-09-09T09:30:06Z</time>
      </trkpt>
      <trkpt lat="45.92993" lon="4.80607">
        <ele>172</ele>
        <time>2018-09-09T09:30:07Z</time>
      </trkpt>
      <trkpt lat="45.92996" lon="4.80599">
        <ele>172</ele>
        <time>2018-09-09T09:30:08Z</time>
      </trkpt>
      <trkpt lat="45.92998" lon="4.80592">
        <ele>172</ele>
        <time>2018-09-09T09:30:09Z</time>
      </trkpt>
      <trkpt lat="45.93" lon="4.80585">
        <ele>172</ele>
        <time>2018-09-09T09:30:10Z</time>
      </trkpt>
      <trkpt lat="45.93002" lon="4.80578">
        <ele>172</ele>
        <time>2018-09-09T09:30:11Z</time>
      </trkpt>
      <trkpt lat="45.93005" lon="4.80571">
        <ele>172</ele>
        <time>2018-09-09T09:30:12Z</time>
      </trkpt>
      <trkpt lat="45.93007" lon="4.80566">
        <ele>172</ele>
        <time>2018-09-09T09:30:13Z</time>
      </trkpt>
      <trkpt lat="45.9301" lon="4.80559">
        <ele>172</ele>
        <time>2018-09-09T09:30:14Z</time>
      </trkpt>
      <trkpt lat="45.93011" lon="4.80552">
        <ele>172</ele>
        <time>2018-09-09T09:30:15Z</time>
      </trkpt>
      <trkpt lat="45.93014" lon="4.80546">
        <ele>172</ele>
        <time>2018-09-09T09:30:16Z</time>
      </trkpt>
      <trkpt lat="45.93017" lon="4.8054">
        <ele>172</ele>
        <time>2018-09-09T09:30:17Z</time>
      </trkpt>
      <trkpt lat="45.93021" lon="4.80533">
        <ele>172</ele>
        <time>2018-09-09T09:30:18Z</time>
      </trkpt>
      <trkpt lat="45.93023" lon="4.80525">
        <ele>172</ele>
        <time>2018-09-09T09:30:19Z</time>
      </trkpt>
      <trkpt lat="45.93025" lon="4.80518">
        <ele>172</ele>
        <time>2018-09-09T09:30:20Z</time>
      </trkpt>
      <trkpt lat="45.93028" lon="4.80511">
        <ele>172</ele>
        <time>2018-09-09T09:30:21Z</time>
      </trkpt>
      <trkpt lat="45.9303" lon="4.80502">
        <ele>172</ele>
        <time>2018-09-09T09:30:22Z</time>
      </trkpt>
      <trkpt lat="45.93033" lon="4.80495">
        <ele>171</ele>
        <time>2018-09-09T09:30:23Z</time>
      </trkpt>
      <trkpt lat="45.93035" lon="4.80488">
        <ele>171</ele>
        <time>2018-09-09T09:30:24Z</time>
      </trkpt>
      <trkpt lat="45.93037" lon="4.8048">
        <ele>171</ele>
        <time>2018-09-09T09:30:25Z</time>
      </trkpt>
      <trkpt lat="45.9304" lon="4.80471">
        <ele>171</ele>
        <time>2018-09-09T09:30:26Z</time>
      </trkpt>
      <trkpt lat="45.93041" lon="4.80465">
        <ele>171</ele>
        <time>2018-09-09T09:30:27Z</time>
      </trkpt>
      <trkpt lat="45.93043" lon="4.80458">
        <ele>171</ele>
        <time>2018-09-09T09:30:28Z</time>
      </trkpt>
      <trkpt lat="45.93046" lon="4.80453">
        <ele>171</ele>
        <time>2018-09-09T09:30:29Z</time>
      </trkpt>
      <trkpt lat="45.93047" lon="4.80446">
        <ele>171</ele>
        <time>2018-09-09T09:30:30Z</time>
      </trkpt>
      <trkpt lat="45.93049" lon="4.80441">
        <ele>171</ele>
        <time>2018-09-09T09:30:31Z</time>
      </trkpt>
      <trkpt lat="45.93052" lon="4.80434">
        <ele>171</ele>
        <time>2018-09-09T09:30:32Z</time>
      </trkpt>
      <trkpt lat="45.93054" lon="4.80428">
        <ele>171</ele>
        <time>2018-09-09T09:30:33Z</time>
      </trkpt>
      <trkpt lat="45.93056" lon="4.80421">
        <ele>171</ele>
        <time>2018-09-09T09:30:34Z</time>
      </trkpt>
      <trkpt lat="45.93059" lon="4.80414">
        <ele>170</ele>
        <time>2018-09-09T09:30:35Z</time>
      </trkpt>
      <trkpt lat="45.93061" lon="4.80406">
        <ele>170</ele>
        <time>2018-09-09T09:30:36Z</time>
      </trkpt>
      <trkpt lat="45.93064" lon="4.80398">
        <ele>170</ele>
        <time>2018-09-09T09:30:37Z</time>
      </trkpt>
      <trkpt lat="45.93067" lon="4.80391">
        <ele>170</ele>
        <time>2018-09-09T09:30:38Z</time>
      </trkpt>
      <trkpt lat="45.93069" lon="4.80384">
        <ele>170</ele>
        <time>2018-09-09T09:30:39Z</time>
      </trkpt>
      <trkpt lat="45.93071" lon="4.80377">
        <ele>170</ele>
        <time>2018-09-09T09:30:40Z</time>
      </trkpt>
      <trkpt lat="45.93074" lon="4.8037">
        <ele>170</ele>
        <time>2018-09-09T09:30:41Z</time>
      </trkpt>
      <trkpt lat="45.93076" lon="4.80363">
        <ele>170</ele>
        <time>2018-09-09T09:30:42Z</time>
      </trkpt>
      <trkpt lat="45.93078" lon="4.80356">
        <ele>170</ele>
        <time>2018-09-09T09:30:43Z</time>
      </trkpt>
      <trkpt lat="45.93079" lon="4.80349">
        <ele>169</ele>
        <time>2018-09-09T09:30:44Z</time>
      </trkpt>
      <trkpt lat="45.93081" lon="4.80342">
        <ele>169</ele>
        <time>2018-09-09T09:30:45Z</time>
      </trkpt>
      <trkpt lat="45.93084" lon="4.80335">
        <ele>169</ele>
        <time>2018-09-09T09:30:46Z</time>
      </trkpt>
      <trkpt lat="45.93086" lon="4.80328">
        <ele>169</ele>
        <time>2018-09-09T09:30:47Z</time>
      </trkpt>
      <trkpt lat="45.93088" lon="4.80321">
        <ele>169</ele>
        <time>2018-09-09T09:30:48Z</time>
      </trkpt>
      <trkpt lat="45.9309" lon="4.80314">
        <ele>169</ele>
        <time>2018-09-09T09:30:49Z</time>
      </trkpt>
      <trkpt lat="45.93092" lon="4.80308">
        <ele>169</ele>
        <time>2018-09-09T09:30:50Z</time>
      </trkpt>
      <trkpt lat="45.93095" lon="4.803">
        <ele>169</ele>
        <time>2018-09-09T09:30:51Z</time>
      </trkpt>
      <trkpt lat="45.93097" lon="4.80293">
        <ele>169</ele>
        <time>2018-09-09T09:30:52Z</time>
      </trkpt>
      <trkpt lat="45.931" lon="4.80286">
        <ele>169</ele>
        <time>2018-09-09T09:30:53Z</time>
      </trkpt>
      <trkpt lat="45.93102" lon="4.8028">
        <ele>169</ele>
        <time>2018-09-09T09:30:54Z</time>
      </trkpt>
      <trkpt lat="45.93104" lon="4.80272">
        <ele>169</ele>
        <time>2018-09-09T09:30:55Z</time>
      </trkpt>
      <trkpt lat="45.93106" lon="4.80264">
        <ele>169</ele>
        <time>2018-09-09T09:30:56Z</time>
      </trkpt>
      <trkpt lat="45.93109" lon="4.80258">
        <ele>169</ele>
        <time>2018-09-09T09:30:57Z</time>
      </trkpt>
      <trkpt lat="45.93111" lon="4.8025">
        <ele>169</ele>
        <time>2018-09-09T09:30:58Z</time>
      </trkpt>
      <trkpt lat="45.93114" lon="4.80243">
        <ele>169</ele>
        <time>2018-09-09T09:30:59Z</time>
      </trkpt>
      <trkpt lat="45.93116" lon="4.80236">
        <ele>169</ele>
        <time>2018-09-09T09:31:00Z</time>
      </trkpt>
      <trkpt lat="45.93118" lon="4.80228">
        <ele>169</ele>
        <time>2018-09-09T09:31:01Z</time>
      </trkpt>
      <trkpt lat="45.93121" lon="4.80222">
        <ele>169</ele>
        <time>2018-09-09T09:31:02Z</time>
      </trkpt>
      <trkpt lat="45.93123" lon="4.80214">
        <ele>169</ele>
        <time>2018-09-09T09:31:03Z</time>
      </trkpt>
      <trkpt lat="45.93126" lon="4.80207">
        <ele>169</ele>
        <time>2018-09-09T09:31:04Z</time>
      </trkpt>
      <trkpt lat="45.93128" lon="4.80199">
        <ele>169</ele>
        <time>2018-09-09T09:31:05Z</time>
      </trkpt>
      <trkpt lat="45.93131" lon="4.80192">
        <ele>169</ele>
        <time>2018-09-09T09:31:06Z</time>
      </trkpt>
      <trkpt lat="45.93133" lon="4.80184">
        <ele>169</ele>
        <time>2018-09-09T09:31:07Z</time>
      </trkpt>
      <trkpt lat="45.93135" lon="4.80177">
        <ele>169</ele>
        <time>2018-09-09T09:31:08Z</time>
      </trkpt>
      <trkpt lat="45.93139" lon="4.8017">
        <ele>169</ele>
        <time>2018-09-09T09:31:09Z</time>
      </trkpt>
      <trkpt lat="45.93142" lon="4.80162">
        <ele>169</ele>
        <time>2018-09-09T09:31:10Z</time>
      </trkpt>
      <trkpt lat="45.93143" lon="4.80155">
        <ele>169</ele>
        <time>2018-09-09T09:31:11Z</time>
      </trkpt>
      <trkpt lat="45.93147" lon="4.80143">
        <ele>169</ele>
        <time>2018-09-09T09:31:12Z</time>
      </trkpt>
      <trkpt lat="45.93153" lon="4.80134">
        <ele>169</ele>
        <time>2018-09-09T09:31:15Z</time>
      </trkpt>
      <trkpt lat="45.93155" lon="4.80129">
        <ele>169</ele>
        <time>2018-09-09T09:31:16Z</time>
      </trkpt>
      <trkpt lat="45.93156" lon="4.80121">
        <ele>169</ele>
        <time>2018-09-09T09:31:17Z</time>
      </trkpt>
      <trkpt lat="45.93159" lon="4.80114">
        <ele>169</ele>
        <time>2018-09-09T09:31:18Z</time>
      </trkpt>
      <trkpt lat="45.93161" lon="4.80107">
        <ele>170</ele>
        <time>2018-09-09T09:31:19Z</time>
      </trkpt>
      <trkpt lat="45.93163" lon="4.801">
        <ele>170</ele>
        <time>2018-09-09T09:31:20Z</time>
      </trkpt>
      <trkpt lat="45.93165" lon="4.80093">
        <ele>170</ele>
        <time>2018-09-09T09:31:21Z</time>
      </trkpt>
      <trkpt lat="45.93168" lon="4.80087">
        <ele>170</ele>
        <time>2018-09-09T09:31:22Z</time>
      </trkpt>
      <trkpt lat="45.93172" lon="4.80081">
        <ele>170</ele>
        <time>2018-09-09T09:31:23Z</time>
      </trkpt>
      <trkpt lat="45.93177" lon="4.80079">
        <ele>170</ele>
        <time>2018-09-09T09:31:24Z</time>
      </trkpt>
      <trkpt lat="45.93182" lon="4.80077">
        <ele>170</ele>
        <time>2018-09-09T09:31:25Z</time>
      </trkpt>
      <trkpt lat="45.93187" lon="4.80075">
        <ele>170</ele>
        <time>2018-09-09T09:31:26Z</time>
      </trkpt>
      <trkpt lat="45.93192" lon="4.80072">
        <ele>170</ele>
        <time>2018-09-09T09:31:27Z</time>
      </trkpt>
      <trkpt lat="45.93197" lon="4.80068">
        <ele>170</ele>
        <time>2018-09-09T09:31:28Z</time>
      </trkpt>
      <trkpt lat="45.93201" lon="4.8006">
        <ele>170</ele>
        <time>2018-09-09T09:31:29Z</time>
      </trkpt>
      <trkpt lat="45.93204" lon="4.80054">
        <ele>170</ele>
        <time>2018-09-09T09:31:30Z</time>
      </trkpt>
      <trkpt lat="45.93206" lon="4.80045">
        <ele>170</ele>
        <time>2018-09-09T09:31:32Z</time>
      </trkpt>
      <trkpt lat="45.93206" lon="4.80039">
        <ele>170</ele>
        <time>2018-09-09T09:31:33Z</time>
      </trkpt>
      <trkpt lat="45.93202" lon="4.80029">
        <ele>170</ele>
        <time>2018-09-09T09:31:35Z</time>
      </trkpt>
      <trkpt lat="45.93199" lon="4.80025">
        <ele>170</ele>
        <time>2018-09-09T09:31:36Z</time>
      </trkpt>
      <trkpt lat="45.93194" lon="4.80016">
        <ele>170</ele>
        <time>2018-09-09T09:31:38Z</time>
      </trkpt>
      <trkpt lat="45.93191" lon="4.8001">
        <ele>170</ele>
        <time>2018-09-09T09:31:39Z</time>
      </trkpt>
      <trkpt lat="45.93189" lon="4.80003">
        <ele>170</ele>
        <time>2018-09-09T09:31:40Z</time>
      </trkpt>
      <trkpt lat="45.93187" lon="4.79996">
        <ele>170</ele>
        <time>2018-09-09T09:31:41Z</time>
      </trkpt>
      <trkpt lat="45.93187" lon="4.79988">
        <ele>170</ele>
        <time>2018-09-09T09:31:42Z</time>
      </trkpt>
      <trkpt lat="45.93187" lon="4.79981">
        <ele>170</ele>
        <time>2018-09-09T09:31:43Z</time>
      </trkpt>
      <trkpt lat="45.93188" lon="4.79973">
        <ele>170</ele>
        <time>2018-09-09T09:31:44Z</time>
      </trkpt>
      <trkpt lat="45.9319" lon="4.79966">
        <ele>170</ele>
        <time>2018-09-09T09:31:45Z</time>
      </trkpt>
      <trkpt lat="45.93194" lon="4.79956">
        <ele>170</ele>
        <time>2018-09-09T09:31:47Z</time>
      </trkpt>
      <trkpt lat="45.93197" lon="4.79951">
        <ele>171</ele>
        <time>2018-09-09T09:31:48Z</time>
      </trkpt>
      <trkpt lat="45.93199" lon="4.79945">
        <ele>171</ele>
        <time>2018-09-09T09:31:49Z</time>
      </trkpt>
      <trkpt lat="45.93202" lon="4.7994">
        <ele>171</ele>
        <time>2018-09-09T09:31:50Z</time>
      </trkpt>
      <trkpt lat="45.93207" lon="4.7993">
        <ele>171</ele>
        <time>2018-09-09T09:31:52Z</time>
      </trkpt>
      <trkpt lat="45.9321" lon="4.79924">
        <ele>171</ele>
        <time>2018-09-09T09:31:53Z</time>
      </trkpt>
      <trkpt lat="45.93214" lon="4.79918">
        <ele>171</ele>
        <time>2018-09-09T09:31:54Z</time>
      </trkpt>
      <trkpt lat="45.93218" lon="4.79913">
        <ele>172</ele>
        <time>2018-09-09T09:31:55Z</time>
      </trkpt>
      <trkpt lat="45.9322" lon="4.79908">
        <ele>172</ele>
        <time>2018-09-09T09:31:56Z</time>
      </trkpt>
      <trkpt lat="45.93224" lon="4.79903">
        <ele>172</ele>
        <time>2018-09-09T09:31:57Z</time>
      </trkpt>
      <trkpt lat="45.93225" lon="4.79897">
        <ele>172</ele>
        <time>2018-09-09T09:31:58Z</time>
      </trkpt>
      <trkpt lat="45.93227" lon="4.7989">
        <ele>172</ele>
        <time>2018-09-09T09:31:59Z</time>
      </trkpt>
      <trkpt lat="45.93232" lon="4.7988">
        <ele>172</ele>
        <time>2018-09-09T09:32:01Z</time>
      </trkpt>
      <trkpt lat="45.93236" lon="4.79872">
        <ele>172</ele>
        <time>2018-09-09T09:32:02Z</time>
      </trkpt>
      <trkpt lat="45.93239" lon="4.79865">
        <ele>172</ele>
        <time>2018-09-09T09:32:03Z</time>
      </trkpt>
      <trkpt lat="45.93243" lon="4.79861">
        <ele>173</ele>
        <time>2018-09-09T09:32:04Z</time>
      </trkpt>
      <trkpt lat="45.93245" lon="4.79852">
        <ele>173</ele>
        <time>2018-09-09T09:32:05Z</time>
      </trkpt>
      <trkpt lat="45.93247" lon="4.79845">
        <ele>173</ele>
        <time>2018-09-09T09:32:06Z</time>
      </trkpt>
      <trkpt lat="45.93251" lon="4.79835">
        <ele>174</ele>
        <time>2018-09-09T09:32:08Z</time>
      </trkpt>
      <trkpt lat="45.93254" lon="4.79831">
        <ele>174</ele>
        <time>2018-09-09T09:32:09Z</time>
      </trkpt>
      <trkpt lat="45.93256" lon="4.79824">
        <ele>174</ele>
        <time>2018-09-09T09:32:10Z</time>
      </trkpt>
      <trkpt lat="45.93257" lon="4.79816">
        <ele>174</ele>
        <time>2018-09-09T09:32:11Z</time>
      </trkpt>
      <trkpt lat="45.93259" lon="4.79809">
        <ele>174</ele>
        <time>2018-09-09T09:32:12Z</time>
      </trkpt>
      <trkpt lat="45.93261" lon="4.79802">
        <ele>175</ele>
        <time>2018-09-09T09:32:13Z</time>
      </trkpt>
      <trkpt lat="45.93263" lon="4.79796">
        <ele>175</ele>
        <time>2018-09-09T09:32:14Z</time>
      </trkpt>
      <trkpt lat="45.93265" lon="4.7979">
        <ele>175</ele>
        <time>2018-09-09T09:32:15Z</time>
      </trkpt>
      <trkpt lat="45.93268" lon="4.79778">
        <ele>175</ele>
        <time>2018-09-09T09:32:17Z</time>
      </trkpt>
      <trkpt lat="45.93271" lon="4.79771">
        <ele>175</ele>
        <time>2018-09-09T09:32:18Z</time>
      </trkpt>
      <trkpt lat="45.93275" lon="4.7976">
        <ele>175</ele>
        <time>2018-09-09T09:32:20Z</time>
      </trkpt>
      <trkpt lat="45.93277" lon="4.79753">
        <ele>176</ele>
        <time>2018-09-09T09:32:21Z</time>
      </trkpt>
      <trkpt lat="45.93278" lon="4.79746">
        <ele>177</ele>
        <time>2018-09-09T09:32:22Z</time>
      </trkpt>
      <trkpt lat="45.93279" lon="4.79741">
        <ele>177</ele>
        <time>2018-09-09T09:32:23Z</time>
      </trkpt>
      <trkpt lat="45.93283" lon="4.79729">
        <ele>177</ele>
        <time>2018-09-09T09:32:25Z</time>
      </trkpt>
      <trkpt lat="45.93284" lon="4.79723">
        <ele>177</ele>
        <time>2018-09-09T09:32:26Z</time>
      </trkpt>
      <trkpt lat="45.93288" lon="4.79713">
        <ele>177</ele>
        <time>2018-09-09T09:32:28Z</time>
      </trkpt>
      <trkpt lat="45.93291" lon="4.79708">
        <ele>177</ele>
        <time>2018-09-09T09:32:29Z</time>
      </trkpt>
      <trkpt lat="45.93295" lon="4.79697">
        <ele>177</ele>
        <time>2018-09-09T09:32:31Z</time>
      </trkpt>
      <trkpt lat="45.93297" lon="4.79692">
        <ele>177</ele>
        <time>2018-09-09T09:32:32Z</time>
      </trkpt>
      <trkpt lat="45.93299" lon="4.79686">
        <ele>177</ele>
        <time>2018-09-09T09:32:33Z</time>
      </trkpt>
      <trkpt lat="45.93301" lon="4.7968">
        <ele>177</ele>
        <time>2018-09-09T09:32:34Z</time>
      </trkpt>
      <trkpt lat="45.93303" lon="4.79674">
        <ele>177</ele>
        <time>2018-09-09T09:32:35Z</time>
      </trkpt>
      <trkpt lat="45.93306" lon="4.79668">
        <ele>177</ele>
        <time>2018-09-09T09:32:36Z</time>
      </trkpt>
      <trkpt lat="45.93308" lon="4.79661">
        <ele>177</ele>
        <time>2018-09-09T09:32:37Z</time>
      </trkpt>
      <trkpt lat="45.93309" lon="4.79655">
        <ele>177</ele>
        <time>2018-09-09T09:32:38Z</time>
      </trkpt>
      <trkpt lat="45.93311" lon="4.79648">
        <ele>177</ele>
        <time>2018-09-09T09:32:39Z</time>
      </trkpt>
      <trkpt lat="45.93313" lon="4.7964">
        <ele>177</ele>
        <time>2018-09-09T09:32:40Z</time>
      </trkpt>
      <trkpt lat="45.93315" lon="4.79633">
        <ele>177</ele>
        <time>2018-09-09T09:32:41Z</time>
      </trkpt>
      <trkpt lat="45.93317" lon="4.79628">
        <ele>177</ele>
        <time>2018-09-09T09:32:42Z</time>
      </trkpt>
      <trkpt lat="45.93319" lon="4.79622">
        <ele>177</ele>
        <time>2018-09-09T09:32:43Z</time>
      </trkpt>
      <trkpt lat="45.93322" lon="4.79613">
        <ele>177</ele>
        <time>2018-09-09T09:32:44Z</time>
      </trkpt>
      <trkpt lat="45.93324" lon="4.79605">
        <ele>177</ele>
        <time>2018-09-09T09:32:45Z</time>
      </trkpt>
      <trkpt lat="45.93326" lon="4.79598">
        <ele>177</ele>
        <time>2018-09-09T09:32:46Z</time>
      </trkpt>
      <trkpt lat="45.9333" lon="4.79588">
        <ele>177</ele>
        <time>2018-09-09T09:32:48Z</time>
      </trkpt>
      <trkpt lat="45.93332" lon="4.79582">
        <ele>177</ele>
        <time>2018-09-09T09:32:49Z</time>
      </trkpt>
      <trkpt lat="45.93334" lon="4.79576">
        <ele>177</ele>
        <time>2018-09-09T09:32:50Z</time>
      </trkpt>
      <trkpt lat="45.93336" lon="4.79569">
        <ele>177</ele>
        <time>2018-09-09T09:32:51Z</time>
      </trkpt>
      <trkpt lat="45.93338" lon="4.79563">
        <ele>177</ele>
        <time>2018-09-09T09:32:52Z</time>
      </trkpt>
      <trkpt lat="45.9334" lon="4.79557">
        <ele>177</ele>
        <time>2018-09-09T09:32:53Z</time>
      </trkpt>
      <trkpt lat="45.93345" lon="4.79546">
        <ele>177</ele>
        <time>2018-09-09T09:32:55Z</time>
      </trkpt>
      <trkpt lat="45.93347" lon="4.79539">
        <ele>177</ele>
        <time>2018-09-09T09:32:56Z</time>
      </trkpt>
      <trkpt lat="45.93349" lon="4.79533">
        <ele>177</ele>
        <time>2018-09-09T09:32:57Z</time>
      </trkpt>
      <trkpt lat="45.93351" lon="4.79526">
        <ele>177</ele>
        <time>2018-09-09T09:32:58Z</time>
      </trkpt>
      <trkpt lat="45.93353" lon="4.7952">
        <ele>177</ele>
        <time>2018-09-09T09:32:59Z</time>
      </trkpt>
      <trkpt lat="45.93355" lon="4.79514">
        <ele>177</ele>
        <time>2018-09-09T09:33:00Z</time>
      </trkpt>
      <trkpt lat="45.93356" lon="4.79507">
        <ele>177</ele>
        <time>2018-09-09T09:33:01Z</time>
      </trkpt>
      <trkpt lat="45.9336" lon="4.795">
        <ele>176</ele>
        <time>2018-09-09T09:33:02Z</time>
      </trkpt>
      <trkpt lat="45.93362" lon="4.79493">
        <ele>176</ele>
        <time>2018-09-09T09:33:03Z</time>
      </trkpt>
      <trkpt lat="45.93365" lon="4.79486">
        <ele>175</ele>
        <time>2018-09-09T09:33:04Z</time>
      </trkpt>
      <trkpt lat="45.93369" lon="4.79479">
        <ele>175</ele>
        <time>2018-09-09T09:33:05Z</time>
      </trkpt>
      <trkpt lat="45.93371" lon="4.79469">
        <ele>175</ele>
        <time>2018-09-09T09:33:06Z</time>
      </trkpt>
      <trkpt lat="45.93374" lon="4.79461">
        <ele>175</ele>
        <time>2018-09-09T09:33:07Z</time>
      </trkpt>
      <trkpt lat="45.93378" lon="4.79454">
        <ele>175</ele>
        <time>2018-09-09T09:33:08Z</time>
      </trkpt>
      <trkpt lat="45.93381" lon="4.79446">
        <ele>175</ele>
        <time>2018-09-09T09:33:09Z</time>
      </trkpt>
      <trkpt lat="45.93384" lon="4.79437">
        <ele>175</ele>
        <time>2018-09-09T09:33:10Z</time>
      </trkpt>
      <trkpt lat="45.93387" lon="4.79429">
        <ele>175</ele>
        <time>2018-09-09T09:33:11Z</time>
      </trkpt>
      <trkpt lat="45.9339" lon="4.79419">
        <ele>174</ele>
        <time>2018-09-09T09:33:12Z</time>
      </trkpt>
      <trkpt lat="45.93392" lon="4.7941">
        <ele>173</ele>
        <time>2018-09-09T09:33:13Z</time>
      </trkpt>
      <trkpt lat="45.93395" lon="4.79401">
        <ele>173</ele>
        <time>2018-09-09T09:33:14Z</time>
      </trkpt>
      <trkpt lat="45.93398" lon="4.79393">
        <ele>172</ele>
        <time>2018-09-09T09:33:15Z</time>
      </trkpt>
      <trkpt lat="45.93402" lon="4.79386">
        <ele>172</ele>
        <time>2018-09-09T09:33:16Z</time>
      </trkpt>
      <trkpt lat="45.93407" lon="4.79379">
        <ele>172</ele>
        <time>2018-09-09T09:33:17Z</time>
      </trkpt>
      <trkpt lat="45.9341" lon="4.7937">
        <ele>172</ele>
        <time>2018-09-09T09:33:18Z</time>
      </trkpt>
      <trkpt lat="45.93413" lon="4.79359">
        <ele>172</ele>
        <time>2018-09-09T09:33:19Z</time>
      </trkpt>
      <trkpt lat="45.93417" lon="4.79352">
        <ele>172</ele>
        <time>2018-09-09T09:33:20Z</time>
      </trkpt>
      <trkpt lat="45.9342" lon="4.79343">
        <ele>173</ele>
        <time>2018-09-09T09:33:21Z</time>
      </trkpt>
      <trkpt lat="45.93421" lon="4.79335">
        <ele>172</ele>
        <time>2018-09-09T09:33:22Z</time>
      </trkpt>
      <trkpt lat="45.93424" lon="4.79326">
        <ele>172</ele>
        <time>2018-09-09T09:33:23Z</time>
      </trkpt>
      <trkpt lat="45.93427" lon="4.79318">
        <ele>172</ele>
        <time>2018-09-09T09:33:24Z</time>
      </trkpt>
      <trkpt lat="45.93429" lon="4.79308">
        <ele>173</ele>
        <time>2018-09-09T09:33:25Z</time>
      </trkpt>
      <trkpt lat="45.93432" lon="4.793">
        <ele>173</ele>
        <time>2018-09-09T09:33:26Z</time>
      </trkpt>
      <trkpt lat="45.93434" lon="4.79293">
        <ele>173</ele>
        <time>2018-09-09T09:33:27Z</time>
      </trkpt>
      <trkpt lat="45.93437" lon="4.79285">
        <ele>173</ele>
        <time>2018-09-09T09:33:28Z</time>
      </trkpt>
      <trkpt lat="45.9344" lon="4.7928">
        <ele>173</ele>
        <time>2018-09-09T09:33:29Z</time>
      </trkpt>
      <trkpt lat="45.93442" lon="4.79271">
        <ele>172</ele>
        <time>2018-09-09T09:33:30Z</time>
      </trkpt>
      <trkpt lat="45.93444" lon="4.79262">
        <ele>172</ele>
        <time>2018-09-09T09:33:31Z</time>
      </trkpt>
      <trkpt lat="45.93448" lon="4.79257">
        <ele>172</ele>
        <time>2018-09-09T09:33:32Z</time>
      </trkpt>
      <trkpt lat="45.9345" lon="4.79248">
        <ele>172</ele>
        <time>2018-09-09T09:33:33Z</time>
      </trkpt>
      <trkpt lat="45.93451" lon="4.79241">
        <ele>172</ele>
        <time>2018-09-09T09:33:34Z</time>
      </trkpt>
      <trkpt lat="45.93453" lon="4.79233">
        <ele>172</ele>
        <time>2018-09-09T09:33:35Z</time>
      </trkpt>
      <trkpt lat="45.93456" lon="4.79229">
        <ele>172</ele>
        <time>2018-09-09T09:33:36Z</time>
      </trkpt>
      <trkpt lat="45.9346" lon="4.79223">
        <ele>172</ele>
        <time>2018-09-09T09:33:37Z</time>
      </trkpt>
      <trkpt lat="45.93462" lon="4.79217">
        <ele>172</ele>
        <time>2018-09-09T09:33:38Z</time>
      </trkpt>
      <trkpt lat="45.93464" lon="4.7921">
        <ele>172</ele>
        <time>2018-09-09T09:33:39Z</time>
      </trkpt>
      <trkpt lat="45.93466" lon="4.79202">
        <ele>172</ele>
        <time>2018-09-09T09:33:40Z</time>
      </trkpt>
      <trkpt lat="45.93467" lon="4.79194">
        <ele>172</ele>
        <time>2018-09-09T09:33:41Z</time>
      </trkpt>
      <trkpt lat="45.9347" lon="4.79185">
        <ele>172</ele>
        <time>2018-09-09T09:33:42Z</time>
      </trkpt>
      <trkpt lat="45.93473" lon="4.79176">
        <ele>172</ele>
        <time>2018-09-09T09:33:43Z</time>
      </trkpt>
      <trkpt lat="45.93476" lon="4.79167">
        <ele>172</ele>
        <time>2018-09-09T09:33:44Z</time>
      </trkpt>
      <trkpt lat="45.9348" lon="4.7916">
        <ele>172</ele>
        <time>2018-09-09T09:33:45Z</time>
      </trkpt>
      <trkpt lat="45.93482" lon="4.79152">
        <ele>172</ele>
        <time>2018-09-09T09:33:46Z</time>
      </trkpt>
      <trkpt lat="45.93485" lon="4.79143">
        <ele>172</ele>
        <time>2018-09-09T09:33:47Z</time>
      </trkpt>
      <trkpt lat="45.93488" lon="4.79133">
        <ele>172</ele>
        <time>2018-09-09T09:33:48Z</time>
      </trkpt>
      <trkpt lat="45.93491" lon="4.79126">
        <ele>172</ele>
        <time>2018-09-09T09:33:49Z</time>
      </trkpt>
      <trkpt lat="45.93494" lon="4.79118">
        <ele>172</ele>
        <time>2018-09-09T09:33:50Z</time>
      </trkpt>
      <trkpt lat="45.93497" lon="4.79109">
        <ele>172</ele>
        <time>2018-09-09T09:33:51Z</time>
      </trkpt>
      <trkpt lat="45.93501" lon="4.79104">
        <ele>173</ele>
        <time>2018-09-09T09:33:52Z</time>
      </trkpt>
      <trkpt lat="45.93504" lon="4.79098">
        <ele>173</ele>
        <time>2018-09-09T09:33:53Z</time>
      </trkpt>
      <trkpt lat="45.93506" lon="4.79091">
        <ele>173</ele>
        <time>2018-09-09T09:33:54Z</time>
      </trkpt>
      <trkpt lat="45.93508" lon="4.79085">
        <ele>173</ele>
        <time>2018-09-09T09:33:55Z</time>
      </trkpt>
      <trkpt lat="45.9351" lon="4.79078">
        <ele>173</ele>
        <time>2018-09-09T09:33:56Z</time>
      </trkpt>
      <trkpt lat="45.93513" lon="4.79073">
        <ele>173</ele>
        <time>2018-09-09T09:33:57Z</time>
      </trkpt>
      <trkpt lat="45.93516" lon="4.79066">
        <ele>173</ele>
        <time>2018-09-09T09:33:58Z</time>
      </trkpt>
      <trkpt lat="45.93519" lon="4.79061">
        <ele>173</ele>
        <time>2018-09-09T09:33:59Z</time>
      </trkpt>
      <trkpt lat="45.93521" lon="4.79055">
        <ele>173</ele>
        <time>2018-09-09T09:34:00Z</time>
      </trkpt>
      <trkpt lat="45.93527" lon="4.79045">
        <ele>173</ele>
        <time>2018-09-09T09:34:02Z</time>
      </trkpt>
      <trkpt lat="45.9353" lon="4.7904">
        <ele>173</ele>
        <time>2018-09-09T09:34:03Z</time>
      </trkpt>
      <trkpt lat="45.93532" lon="4.79033">
        <ele>173</ele>
        <time>2018-09-09T09:34:04Z</time>
      </trkpt>
      <trkpt lat="45.93535" lon="4.79024">
        <ele>173</ele>
        <time>2018-09-09T09:34:05Z</time>
      </trkpt>
      <trkpt lat="45.93537" lon="4.79017">
        <ele>173</ele>
        <time>2018-09-09T09:34:06Z</time>
      </trkpt>
      <trkpt lat="45.93539" lon="4.79013">
        <ele>173</ele>
        <time>2018-09-09T09:34:07Z</time>
      </trkpt>
      <trkpt lat="45.93546" lon="4.79008">
        <ele>173</ele>
        <time>2018-09-09T09:34:09Z</time>
      </trkpt>
      <trkpt lat="45.9355" lon="4.79002">
        <ele>173</ele>
        <time>2018-09-09T09:34:10Z</time>
      </trkpt>
      <trkpt lat="45.93553" lon="4.78997">
        <ele>172</ele>
        <time>2018-09-09T09:34:11Z</time>
      </trkpt>
      <trkpt lat="45.93556" lon="4.78992">
        <ele>172</ele>
        <time>2018-09-09T09:34:12Z</time>
      </trkpt>
      <trkpt lat="45.93558" lon="4.78985">
        <ele>172</ele>
        <time>2018-09-09T09:34:13Z</time>
      </trkpt>
      <trkpt lat="45.93559" lon="4.78979">
        <ele>172</ele>
        <time>2018-09-09T09:34:14Z</time>
      </trkpt>
      <trkpt lat="45.9356" lon="4.78971">
        <ele>172</ele>
        <time>2018-09-09T09:34:15Z</time>
      </trkpt>
      <trkpt lat="45.93563" lon="4.78963">
        <ele>172</ele>
        <time>2018-09-09T09:34:16Z</time>
      </trkpt>
      <trkpt lat="45.93566" lon="4.78955">
        <ele>172</ele>
        <time>2018-09-09T09:34:17Z</time>
      </trkpt>
      <trkpt lat="45.93568" lon="4.78947">
        <ele>172</ele>
        <time>2018-09-09T09:34:18Z</time>
      </trkpt>
      <trkpt lat="45.93571" lon="4.78941">
        <ele>172</ele>
        <time>2018-09-09T09:34:19Z</time>
      </trkpt>
      <trkpt lat="45.93574" lon="4.78936">
        <ele>172</ele>
        <time>2018-09-09T09:34:20Z</time>
      </trkpt>
      <trkpt lat="45.93576" lon="4.78928">
        <ele>172</ele>
        <time>2018-09-09T09:34:21Z</time>
      </trkpt>
      <trkpt lat="45.93579" lon="4.78922">
        <ele>172</ele>
        <time>2018-09-09T09:34:22Z</time>
      </trkpt>
      <trkpt lat="45.93581" lon="4.78916">
        <ele>172</ele>
        <time>2018-09-09T09:34:23Z</time>
      </trkpt>
      <trkpt lat="45.93583" lon="4.78908">
        <ele>172</ele>
        <time>2018-09-09T09:34:24Z</time>
      </trkpt>
      <trkpt lat="45.93587" lon="4.78902">
        <ele>173</ele>
        <time>2018-09-09T09:34:25Z</time>
      </trkpt>
      <trkpt lat="45.9359" lon="4.78895">
        <ele>173</ele>
        <time>2018-09-09T09:34:26Z</time>
      </trkpt>
      <trkpt lat="45.93593" lon="4.78887">
        <ele>173</ele>
        <time>2018-09-09T09:34:27Z</time>
      </trkpt>
      <trkpt lat="45.93597" lon="4.78879">
        <ele>174</ele>
        <time>2018-09-09T09:34:28Z</time>
      </trkpt>
      <trkpt lat="45.936" lon="4.78873">
        <ele>174</ele>
        <time>2018-09-09T09:34:29Z</time>
      </trkpt>
      <trkpt lat="45.93603" lon="4.78866">
        <ele>174</ele>
        <time>2018-09-09T09:34:30Z</time>
      </trkpt>
      <trkpt lat="45.93606" lon="4.7886">
        <ele>174</ele>
        <time>2018-09-09T09:34:31Z</time>
      </trkpt>
      <trkpt lat="45.93609" lon="4.78853">
        <ele>174</ele>
        <time>2018-09-09T09:34:32Z</time>
      </trkpt>
      <trkpt lat="45.93614" lon="4.78844">
        <ele>174</ele>
        <time>2018-09-09T09:34:34Z</time>
      </trkpt>
      <trkpt lat="45.93616" lon="4.78835">
        <ele>174</ele>
        <time>2018-09-09T09:34:35Z</time>
      </trkpt>
      <trkpt lat="45.93619" lon="4.7883">
        <ele>174</ele>
        <time>2018-09-09T09:34:36Z</time>
      </trkpt>
      <trkpt lat="45.93622" lon="4.78825">
        <ele>174</ele>
        <time>2018-09-09T09:34:37Z</time>
      </trkpt>
      <trkpt lat="45.93624" lon="4.78818">
        <ele>174</ele>
        <time>2018-09-09T09:34:38Z</time>
      </trkpt>
      <trkpt lat="45.93628" lon="4.78812">
        <ele>174</ele>
        <time>2018-09-09T09:34:39Z</time>
      </trkpt>
      <trkpt lat="45.93631" lon="4.78803">
        <ele>174</ele>
        <time>2018-09-09T09:34:40Z</time>
      </trkpt>
      <trkpt lat="45.93634" lon="4.78798">
        <ele>174</ele>
        <time>2018-09-09T09:34:41Z</time>
      </trkpt>
      <trkpt lat="45.93638" lon="4.78793">
        <ele>174</ele>
        <time>2018-09-09T09:34:42Z</time>
      </trkpt>
      <trkpt lat="45.93641" lon="4.78787">
        <ele>174</ele>
        <time>2018-09-09T09:34:43Z</time>
      </trkpt>
      <trkpt lat="45.93642" lon="4.78779">
        <ele>174</ele>
        <time>2018-09-09T09:34:44Z</time>
      </trkpt>
      <trkpt lat="45.93646" lon="4.78774">
        <ele>174</ele>
        <time>2018-09-09T09:34:45Z</time>
      </trkpt>
      <trkpt lat="45.93651" lon="4.78764">
        <ele>174</ele>
        <time>2018-09-09T09:34:47Z</time>
      </trkpt>
      <trkpt lat="45.93654" lon="4.78759">
        <ele>174</ele>
        <time>2018-09-09T09:34:48Z</time>
      </trkpt>
      <trkpt lat="45.93657" lon="4.78751">
        <ele>174</ele>
        <time>2018-09-09T09:34:50Z</time>
      </trkpt>
      <trkpt lat="45.9366" lon="4.78745">
        <ele>174</ele>
        <time>2018-09-09T09:34:51Z</time>
      </trkpt>
      <trkpt lat="45.93665" lon="4.78735">
        <ele>174</ele>
        <time>2018-09-09T09:34:53Z</time>
      </trkpt>
      <trkpt lat="45.93667" lon="4.78725">
        <ele>175</ele>
        <time>2018-09-09T09:34:54Z</time>
      </trkpt>
      <trkpt lat="45.93669" lon="4.7872">
        <ele>175</ele>
        <time>2018-09-09T09:34:55Z</time>
      </trkpt>
      <trkpt lat="45.93672" lon="4.78713">
        <ele>175</ele>
        <time>2018-09-09T09:34:56Z</time>
      </trkpt>
      <trkpt lat="45.93675" lon="4.78706">
        <ele>175</ele>
        <time>2018-09-09T09:34:57Z</time>
      </trkpt>
      <trkpt lat="45.93679" lon="4.787">
        <ele>175</ele>
        <time>2018-09-09T09:34:58Z</time>
      </trkpt>
      <trkpt lat="45.93681" lon="4.78694">
        <ele>175</ele>
        <time>2018-09-09T09:34:59Z</time>
      </trkpt>
      <trkpt lat="45.93685" lon="4.78689">
        <ele>175</ele>
        <time>2018-09-09T09:35:00Z</time>
      </trkpt>
      <trkpt lat="45.93687" lon="4.78683">
        <ele>175</ele>
        <time>2018-09-09T09:35:01Z</time>
      </trkpt>
      <trkpt lat="45.93689" lon="4.78677">
        <ele>175</ele>
        <time>2018-09-09T09:35:02Z</time>
      </trkpt>
      <trkpt lat="45.93691" lon="4.78671">
        <ele>175</ele>
        <time>2018-09-09T09:35:04Z</time>
      </trkpt>
      <trkpt lat="45.93696" lon="4.78662">
        <ele>176</ele>
        <time>2018-09-09T09:35:05Z</time>
      </trkpt>
      <trkpt lat="45.93699" lon="4.78656">
        <ele>176</ele>
        <time>2018-09-09T09:35:06Z</time>
      </trkpt>
      <trkpt lat="45.93701" lon="4.7865">
        <ele>176</ele>
        <time>2018-09-09T09:35:07Z</time>
      </trkpt>
      <trkpt lat="45.93703" lon="4.78644">
        <ele>176</ele>
        <time>2018-09-09T09:35:08Z</time>
      </trkpt>
      <trkpt lat="45.93707" lon="4.78638">
        <ele>176</ele>
        <time>2018-09-09T09:35:09Z</time>
      </trkpt>
      <trkpt lat="45.93712" lon="4.7863">
        <ele>176</ele>
        <time>2018-09-09T09:35:11Z</time>
      </trkpt>
      <trkpt lat="45.93714" lon="4.78625">
        <ele>176</ele>
        <time>2018-09-09T09:35:12Z</time>
      </trkpt>
      <trkpt lat="45.93715" lon="4.78613">
        <ele>176</ele>
        <time>2018-09-09T09:35:14Z</time>
      </trkpt>
      <trkpt lat="45.93715" lon="4.78606">
        <ele>177</ele>
        <time>2018-09-09T09:35:15Z</time>
      </trkpt>
      <trkpt lat="45.93715" lon="4.78598">
        <ele>177</ele>
        <time>2018-09-09T09:35:16Z</time>
      </trkpt>
      <trkpt lat="45.93715" lon="4.78591">
        <ele>177</ele>
        <time>2018-09-09T09:35:17Z</time>
      </trkpt>
      <trkpt lat="45.93717" lon="4.78579">
        <ele>178</ele>
        <time>2018-09-09T09:35:19Z</time>
      </trkpt>
      <trkpt lat="45.93719" lon="4.78573">
        <ele>178</ele>
        <time>2018-09-09T09:35:20Z</time>
      </trkpt>
      <trkpt lat="45.9372" lon="4.78567">
        <ele>178</ele>
        <time>2018-09-09T09:35:21Z</time>
      </trkpt>
      <trkpt lat="45.93723" lon="4.7856">
        <ele>178</ele>
        <time>2018-09-09T09:35:22Z</time>
      </trkpt>
      <trkpt lat="45.93725" lon="4.78549">
        <ele>178</ele>
        <time>2018-09-09T09:35:24Z</time>
      </trkpt>
      <trkpt lat="45.93727" lon="4.78544">
        <ele>178</ele>
        <time>2018-09-09T09:35:25Z</time>
      </trkpt>
      <trkpt lat="45.93728" lon="4.78535">
        <ele>178</ele>
        <time>2018-09-09T09:35:27Z</time>
      </trkpt>
      <trkpt lat="45.93731" lon="4.78527">
        <ele>179</ele>
        <time>2018-09-09T09:35:28Z</time>
      </trkpt>
      <trkpt lat="45.93732" lon="4.78519">
        <ele>179</ele>
        <time>2018-09-09T09:35:29Z</time>
      </trkpt>
      <trkpt lat="45.93734" lon="4.78514">
        <ele>179</ele>
        <time>2018-09-09T09:35:30Z</time>
      </trkpt>
      <trkpt lat="45.93737" lon="4.78502">
        <ele>180</ele>
        <time>2018-09-09T09:35:32Z</time>
      </trkpt>
      <trkpt lat="45.93739" lon="4.78496">
        <ele>180</ele>
        <time>2018-09-09T09:35:33Z</time>
      </trkpt>
      <trkpt lat="45.9374" lon="4.78491">
        <ele>180</ele>
        <time>2018-09-09T09:35:34Z</time>
      </trkpt>
      <trkpt lat="45.93742" lon="4.78484">
        <ele>180</ele>
        <time>2018-09-09T09:35:35Z</time>
      </trkpt>
      <trkpt lat="45.93744" lon="4.78476">
        <ele>180</ele>
        <time>2018-09-09T09:35:37Z</time>
      </trkpt>
      <trkpt lat="45.93747" lon="4.78471">
        <ele>180</ele>
        <time>2018-09-09T09:35:38Z</time>
      </trkpt>
      <trkpt lat="45.93751" lon="4.7846">
        <ele>184</ele>
        <time>2018-09-09T09:35:40Z</time>
      </trkpt>
      <trkpt lat="45.93752" lon="4.78453">
        <ele>184</ele>
        <time>2018-09-09T09:35:41Z</time>
      </trkpt>
      <trkpt lat="45.93752" lon="4.7845">
        <ele>184</ele>
        <time>2018-09-09T09:35:42Z</time>
      </trkpt>
      <trkpt lat="45.93753" lon="4.7844">
        <ele>183</ele>
        <time>2018-09-09T09:35:43Z</time>
      </trkpt>
      <trkpt lat="45.93757" lon="4.78429">
        <ele>183</ele>
        <time>2018-09-09T09:35:45Z</time>
      </trkpt>
      <trkpt lat="45.93758" lon="4.78422">
        <ele>182</ele>
        <time>2018-09-09T09:35:46Z</time>
      </trkpt>
      <trkpt lat="45.9376" lon="4.78417">
        <ele>182</ele>
        <time>2018-09-09T09:35:47Z</time>
      </trkpt>
      <trkpt lat="45.93762" lon="4.7841">
        <ele>182</ele>
        <time>2018-09-09T09:35:48Z</time>
      </trkpt>
      <trkpt lat="45.93763" lon="4.78404">
        <ele>183</ele>
        <time>2018-09-09T09:35:49Z</time>
      </trkpt>
      <trkpt lat="45.93765" lon="4.78398">
        <ele>183</ele>
        <time>2018-09-09T09:35:50Z</time>
      </trkpt>
      <trkpt lat="45.93765" lon="4.78391">
        <ele>183</ele>
        <time>2018-09-09T09:35:51Z</time>
      </trkpt>
      <trkpt lat="45.93767" lon="4.78385">
        <ele>183</ele>
        <time>2018-09-09T09:35:52Z</time>
      </trkpt>
      <trkpt lat="45.93768" lon="4.78379">
        <ele>183</ele>
        <time>2018-09-09T09:35:53Z</time>
      </trkpt>
      <trkpt lat="45.9377" lon="4.78371">
        <ele>183</ele>
        <time>2018-09-09T09:35:54Z</time>
      </trkpt>
      <trkpt lat="45.93773" lon="4.7836">
        <ele>183</ele>
        <time>2018-09-09T09:35:56Z</time>
      </trkpt>
      <trkpt lat="45.93776" lon="4.78354">
        <ele>183</ele>
        <time>2018-09-09T09:35:57Z</time>
      </trkpt>
      <trkpt lat="45.93777" lon="4.7835">
        <ele>183</ele>
        <time>2018-09-09T09:35:58Z</time>
      </trkpt>
      <trkpt lat="45.93778" lon="4.7834">
        <ele>183</ele>
        <time>2018-09-09T09:35:59Z</time>
      </trkpt>
      <trkpt lat="45.9378" lon="4.78335">
        <ele>183</ele>
        <time>2018-09-09T09:36:00Z</time>
      </trkpt>
      <trkpt lat="45.93781" lon="4.78327">
        <ele>183</ele>
        <time>2018-09-09T09:36:01Z</time>
      </trkpt>
      <trkpt lat="45.93781" lon="4.78321">
        <ele>183</ele>
        <time>2018-09-09T09:36:02Z</time>
      </trkpt>
      <trkpt lat="45.93783" lon="4.78313">
        <ele>183</ele>
        <time>2018-09-09T09:36:03Z</time>
      </trkpt>
      <trkpt lat="45.93785" lon="4.78308">
        <ele>183</ele>
        <time>2018-09-09T09:36:04Z</time>
      </trkpt>
      <trkpt lat="45.93787" lon="4.78301">
        <ele>183</ele>
        <time>2018-09-09T09:36:05Z</time>
      </trkpt>
      <trkpt lat="45.93791" lon="4.78291">
        <ele>183</ele>
        <time>2018-09-09T09:36:07Z</time>
      </trkpt>
      <trkpt lat="45.93793" lon="4.78285">
        <ele>183</ele>
        <time>2018-09-09T09:36:08Z</time>
      </trkpt>
      <trkpt lat="45.93795" lon="4.78276">
        <ele>183</ele>
        <time>2018-09-09T09:36:09Z</time>
      </trkpt>
      <trkpt lat="45.93799" lon="4.78272">
        <ele>183</ele>
        <time>2018-09-09T09:36:10Z</time>
      </trkpt>
      <trkpt lat="45.93802" lon="4.78268">
        <ele>183</ele>
        <time>2018-09-09T09:36:11Z</time>
      </trkpt>
      <trkpt lat="45.93805" lon="4.78263">
        <ele>183</ele>
        <time>2018-09-09T09:36:12Z</time>
      </trkpt>
      <trkpt lat="45.93808" lon="4.78258">
        <ele>183</ele>
        <time>2018-09-09T09:36:13Z</time>
      </trkpt>
      <trkpt lat="45.93811" lon="4.78251">
        <ele>184</ele>
        <time>2018-09-09T09:36:14Z</time>
      </trkpt>
      <trkpt lat="45.93815" lon="4.7824">
        <ele>183</ele>
        <time>2018-09-09T09:36:16Z</time>
      </trkpt>
      <trkpt lat="45.93817" lon="4.78235">
        <ele>183</ele>
        <time>2018-09-09T09:36:17Z</time>
      </trkpt>
      <trkpt lat="45.93818" lon="4.78229">
        <ele>182</ele>
        <time>2018-09-09T09:36:18Z</time>
      </trkpt>
      <trkpt lat="45.9382" lon="4.78221">
        <ele>182</ele>
        <time>2018-09-09T09:36:19Z</time>
      </trkpt>
      <trkpt lat="45.93824" lon="4.78211">
        <ele>182</ele>
        <time>2018-09-09T09:36:21Z</time>
      </trkpt>
      <trkpt lat="45.93826" lon="4.78205">
        <ele>182</ele>
        <time>2018-09-09T09:36:22Z</time>
      </trkpt>
      <trkpt lat="45.93827" lon="4.78199">
        <ele>182</ele>
        <time>2018-09-09T09:36:23Z</time>
      </trkpt>
      <trkpt lat="45.93829" lon="4.78193">
        <ele>182</ele>
        <time>2018-09-09T09:36:24Z</time>
      </trkpt>
      <trkpt lat="45.93831" lon="4.78187">
        <ele>182</ele>
        <time>2018-09-09T09:36:25Z</time>
      </trkpt>
      <trkpt lat="45.93833" lon="4.7818">
        <ele>184</ele>
        <time>2018-09-09T09:36:26Z</time>
      </trkpt>
      <trkpt lat="45.93835" lon="4.78172">
        <ele>183</ele>
        <time>2018-09-09T09:36:27Z</time>
      </trkpt>
      <trkpt lat="45.93837" lon="4.78165">
        <ele>183</ele>
        <time>2018-09-09T09:36:28Z</time>
      </trkpt>
      <trkpt lat="45.93838" lon="4.78156">
        <ele>183</ele>
        <time>2018-09-09T09:36:29Z</time>
      </trkpt>
      <trkpt lat="45.93839" lon="4.78148">
        <ele>184</ele>
        <time>2018-09-09T09:36:30Z</time>
      </trkpt>
      <trkpt lat="45.93841" lon="4.7814">
        <ele>184</ele>
        <time>2018-09-09T09:36:31Z</time>
      </trkpt>
      <trkpt lat="45.93843" lon="4.78133">
        <ele>185</ele>
        <time>2018-09-09T09:36:32Z</time>
      </trkpt>
      <trkpt lat="45.93845" lon="4.78126">
        <ele>185</ele>
        <time>2018-09-09T09:36:33Z</time>
      </trkpt>
      <trkpt lat="45.93846" lon="4.78119">
        <ele>184</ele>
        <time>2018-09-09T09:36:34Z</time>
      </trkpt>
      <trkpt lat="45.93848" lon="4.78112">
        <ele>184</ele>
        <time>2018-09-09T09:36:35Z</time>
      </trkpt>
      <trkpt lat="45.9385" lon="4.78104">
        <ele>184</ele>
        <time>2018-09-09T09:36:36Z</time>
      </trkpt>
      <trkpt lat="45.93852" lon="4.78098">
        <ele>184</ele>
        <time>2018-09-09T09:36:37Z</time>
      </trkpt>
      <trkpt lat="45.93854" lon="4.7809">
        <ele>184</ele>
        <time>2018-09-09T09:36:38Z</time>
      </trkpt>
      <trkpt lat="45.93856" lon="4.78083">
        <ele>183</ele>
        <time>2018-09-09T09:36:39Z</time>
      </trkpt>
      <trkpt lat="45.93857" lon="4.78077">
        <ele>183</ele>
        <time>2018-09-09T09:36:40Z</time>
      </trkpt>
      <trkpt lat="45.93858" lon="4.7807">
        <ele>183</ele>
        <time>2018-09-09T09:36:41Z</time>
      </trkpt>
      <trkpt lat="45.93859" lon="4.78063">
        <ele>183</ele>
        <time>2018-09-09T09:36:42Z</time>
      </trkpt>
      <trkpt lat="45.93864" lon="4.78055">
        <ele>183</ele>
        <time>2018-09-09T09:36:44Z</time>
      </trkpt>
      <trkpt lat="45.93865" lon="4.78048">
        <ele>183</ele>
        <time>2018-09-09T09:36:45Z</time>
      </trkpt>
      <trkpt lat="45.93866" lon="4.7804">
        <ele>183</ele>
        <time>2018-09-09T09:36:46Z</time>
      </trkpt>
      <trkpt lat="45.93869" lon="4.78036">
        <ele>183</ele>
        <time>2018-09-09T09:36:47Z</time>
      </trkpt>
      <trkpt lat="45.93871" lon="4.78027">
        <ele>183</ele>
        <time>2018-09-09T09:36:48Z</time>
      </trkpt>
      <trkpt lat="45.93872" lon="4.7802">
        <ele>183</ele>
        <time>2018-09-09T09:36:49Z</time>
      </trkpt>
      <trkpt lat="45.93872" lon="4.78012">
        <ele>183</ele>
        <time>2018-09-09T09:36:50Z</time>
      </trkpt>
      <trkpt lat="45.93872" lon="4.78003">
        <ele>183</ele>
        <time>2018-09-09T09:36:51Z</time>
      </trkpt>
      <trkpt lat="45.93872" lon="4.77994">
        <ele>180</ele>
        <time>2018-09-09T09:36:52Z</time>
      </trkpt>
      <trkpt lat="45.93873" lon="4.77984">
        <ele>180</ele>
        <time>2018-09-09T09:36:53Z</time>
      </trkpt>
      <trkpt lat="45.93877" lon="4.77978">
        <ele>180</ele>
        <time>2018-09-09T09:36:54Z</time>
      </trkpt>
      <trkpt lat="45.93879" lon="4.77969">
        <ele>179</ele>
        <time>2018-09-09T09:36:55Z</time>
      </trkpt>
      <trkpt lat="45.93881" lon="4.77962">
        <ele>179</ele>
        <time>2018-09-09T09:36:56Z</time>
      </trkpt>
      <trkpt lat="45.93884" lon="4.77955">
        <ele>179</ele>
        <time>2018-09-09T09:36:57Z</time>
      </trkpt>
      <trkpt lat="45.93887" lon="4.77947">
        <ele>179</ele>
        <time>2018-09-09T09:36:58Z</time>
      </trkpt>
      <trkpt lat="45.93889" lon="4.77938">
        <ele>179</ele>
        <time>2018-09-09T09:36:59Z</time>
      </trkpt>
      <trkpt lat="45.93891" lon="4.77929">
        <ele>180</ele>
        <time>2018-09-09T09:37:00Z</time>
      </trkpt>
      <trkpt lat="45.93895" lon="4.77921">
        <ele>180</ele>
        <time>2018-09-09T09:37:01Z</time>
      </trkpt>
      <trkpt lat="45.93895" lon="4.77912">
        <ele>178</ele>
        <time>2018-09-09T09:37:02Z</time>
      </trkpt>
      <trkpt lat="45.93899" lon="4.77903">
        <ele>178</ele>
        <time>2018-09-09T09:37:03Z</time>
      </trkpt>
      <trkpt lat="45.93899" lon="4.77891">
        <ele>176</ele>
        <time>2018-09-09T09:37:04Z</time>
      </trkpt>
      <trkpt lat="45.93903" lon="4.77884">
        <ele>176</ele>
        <time>2018-09-09T09:37:05Z</time>
      </trkpt>
      <trkpt lat="45.93905" lon="4.77873">
        <ele>176</ele>
        <time>2018-09-09T09:37:06Z</time>
      </trkpt>
      <trkpt lat="45.93909" lon="4.77864">
        <ele>176</ele>
        <time>2018-09-09T09:37:07Z</time>
      </trkpt>
      <trkpt lat="45.93911" lon="4.77852">
        <ele>176</ele>
        <time>2018-09-09T09:37:08Z</time>
      </trkpt>
      <trkpt lat="45.93914" lon="4.77842">
        <ele>177</ele>
        <time>2018-09-09T09:37:09Z</time>
      </trkpt>
      <trkpt lat="45.93916" lon="4.77832">
        <ele>177</ele>
        <time>2018-09-09T09:37:10Z</time>
      </trkpt>
      <trkpt lat="45.93918" lon="4.77822">
        <ele>179</ele>
        <time>2018-09-09T09:37:11Z</time>
      </trkpt>
      <trkpt lat="45.93921" lon="4.77813">
        <ele>180</ele>
        <time>2018-09-09T09:37:12Z</time>
      </trkpt>
      <trkpt lat="45.93923" lon="4.77803">
        <ele>180</ele>
        <time>2018-09-09T09:37:13Z</time>
      </trkpt>
      <trkpt lat="45.93925" lon="4.77794">
        <ele>179</ele>
        <time>2018-09-09T09:37:14Z</time>
      </trkpt>
      <trkpt lat="45.93928" lon="4.77784">
        <ele>178</ele>
        <time>2018-09-09T09:37:15Z</time>
      </trkpt>
      <trkpt lat="45.93931" lon="4.77775">
        <ele>177</ele>
        <time>2018-09-09T09:37:16Z</time>
      </trkpt>
      <trkpt lat="45.93935" lon="4.77766">
        <ele>177</ele>
        <time>2018-09-09T09:37:17Z</time>
      </trkpt>
      <trkpt lat="45.9394" lon="4.77758">
        <ele>177</ele>
        <time>2018-09-09T09:37:18Z</time>
      </trkpt>
      <trkpt lat="45.93944" lon="4.7775">
        <ele>178</ele>
        <time>2018-09-09T09:37:19Z</time>
      </trkpt>
      <trkpt lat="45.93948" lon="4.77742">
        <ele>176</ele>
        <time>2018-09-09T09:37:20Z</time>
      </trkpt>
      <trkpt lat="45.93951" lon="4.77733">
        <ele>177</ele>
        <time>2018-09-09T09:37:21Z</time>
      </trkpt>
      <trkpt lat="45.93954" lon="4.77723">
        <ele>177</ele>
        <time>2018-09-09T09:37:22Z</time>
      </trkpt>
      <trkpt lat="45.93958" lon="4.77714">
        <ele>178</ele>
        <time>2018-09-09T09:37:23Z</time>
      </trkpt>
      <trkpt lat="45.93961" lon="4.77706">
        <ele>178</ele>
        <time>2018-09-09T09:37:24Z</time>
      </trkpt>
      <trkpt lat="45.93963" lon="4.77696">
        <ele>179</ele>
        <time>2018-09-09T09:37:25Z</time>
      </trkpt>
      <trkpt lat="45.93965" lon="4.77688">
        <ele>179</ele>
        <time>2018-09-09T09:37:26Z</time>
      </trkpt>
      <trkpt lat="45.93967" lon="4.7768">
        <ele>179</ele>
        <time>2018-09-09T09:37:27Z</time>
      </trkpt>
      <trkpt lat="45.93969" lon="4.77673">
        <ele>180</ele>
        <time>2018-09-09T09:37:28Z</time>
      </trkpt>
      <trkpt lat="45.9397" lon="4.77665">
        <ele>180</ele>
        <time>2018-09-09T09:37:29Z</time>
      </trkpt>
      <trkpt lat="45.93972" lon="4.77659">
        <ele>180</ele>
        <time>2018-09-09T09:37:30Z</time>
      </trkpt>
      <trkpt lat="45.93974" lon="4.77651">
        <ele>180</ele>
        <time>2018-09-09T09:37:31Z</time>
      </trkpt>
      <trkpt lat="45.93975" lon="4.77643">
        <ele>180</ele>
        <time>2018-09-09T09:37:32Z</time>
      </trkpt>
      <trkpt lat="45.93978" lon="4.77636">
        <ele>180</ele>
        <time>2018-09-09T09:37:33Z</time>
      </trkpt>
      <trkpt lat="45.93979" lon="4.77629">
        <ele>180</ele>
        <time>2018-09-09T09:37:34Z</time>
      </trkpt>
      <trkpt lat="45.93981" lon="4.77622">
        <ele>180</ele>
        <time>2018-09-09T09:37:35Z</time>
      </trkpt>
      <trkpt lat="45.93981" lon="4.77616">
        <ele>180</ele>
        <time>2018-09-09T09:37:36Z</time>
      </trkpt>
      <trkpt lat="45.93983" lon="4.77609">
        <ele>180</ele>
        <time>2018-09-09T09:37:37Z</time>
      </trkpt>
      <trkpt lat="45.93986" lon="4.776">
        <ele>181</ele>
        <time>2018-09-09T09:37:39Z</time>
      </trkpt>
      <trkpt lat="45.93986" lon="4.77592">
        <ele>182</ele>
        <time>2018-09-09T09:37:40Z</time>
      </trkpt>
      <trkpt lat="45.93989" lon="4.77581">
        <ele>183</ele>
        <time>2018-09-09T09:37:42Z</time>
      </trkpt>
      <trkpt lat="45.93989" lon="4.77577">
        <ele>182</ele>
        <time>2018-09-09T09:37:43Z</time>
      </trkpt>
      <trkpt lat="45.93993" lon="4.77567">
        <ele>181</ele>
        <time>2018-09-09T09:37:46Z</time>
      </trkpt>
      <trkpt lat="45.93993" lon="4.77564">
        <ele>181</ele>
        <time>2018-09-09T09:37:47Z</time>
      </trkpt>
      <trkpt lat="45.93995" lon="4.77552">
        <ele>180</ele>
        <time>2018-09-09T09:38:07Z</time>
      </trkpt>
      <trkpt lat="45.93995" lon="4.77552">
        <ele>179</ele>
        <time>2018-09-09T09:38:08Z</time>
      </trkpt>
      <trkpt lat="45.93994" lon="4.77548">
        <ele>179</ele>
        <time>2018-09-09T09:45:01.59Z</time>
      </trkpt>
      <trkpt lat="45.93994" lon="4.77548">
        <ele>179</ele>
        <time>2018-09-09T09:44:58Z</time>
      </trkpt>
      <trkpt lat="45.93994" lon="4.77547">
        <ele>179</ele>
        <time>2018-09-09T09:45:00Z</time>
      </trkpt>
      <trkpt lat="45.93993" lon="4.77547">
        <ele>179</ele>
        <time>2018-09-09T09:45:01Z</time>
      </trkpt>
      <trkpt lat="45.93992" lon="4.77546">
        <ele>179</ele>
        <time>2018-09-09T09:45:03Z</time>
      </trkpt>
      <trkpt lat="45.93991" lon="4.77546">
        <ele>179</ele>
        <time>2018-09-09T09:45:04Z</time>
      </trkpt>
      <trkpt lat="45.93991" lon="4.77546">
        <ele>179</ele>
        <time>2018-09-09T09:45:05Z</time>
      </trkpt>
      <trkpt lat="45.93982" lon="4.77549">
        <ele>178</ele>
        <time>2018-09-09T09:45:33Z</time>
      </trkpt>
      <trkpt lat="45.93982" lon="4.77549">
        <ele>178</ele>
        <time>2018-09-09T09:45:34Z</time>
      </trkpt>
      <trkpt lat="45.93982" lon="4.77549">
        <ele>178</ele>
        <time>2018-09-09T09:45:58Z</time>
      </trkpt>
      <trkpt lat="45.93982" lon="4.77549">
        <ele>178</ele>
        <time>2018-09-09T09:45:59Z</time>
      </trkpt>
      <trkpt lat="45.93981" lon="4.77551">
        <ele>178</ele>
        <time>2018-09-09T09:46:42Z</time>
      </trkpt>
      <trkpt lat="45.93981" lon="4.77551">
        <ele>178</ele>
        <time>2018-09-09T09:46:43Z</time>
      </trkpt>
      <trkpt lat="45.93986" lon="4.7755">
        <ele>179</ele>
        <time>2018-09-09T09:46:49Z</time>
      </trkpt>
      <trkpt lat="45.93986" lon="4.7755">
        <ele>179</ele>
        <time>2018-09-09T09:46:50Z</time>
      </trkpt>
      <trkpt lat="45.93987" lon="4.77549">
        <ele>179</ele>
        <time>2018-09-09T09:46:51Z</time>
      </trkpt>
      <trkpt lat="45.93987" lon="4.77549">
        <ele>179</ele>
        <time>2018-09-09T09:46:52Z</time>
      </trkpt>
      <trkpt lat="45.9399" lon="4.77547">
        <ele>179</ele>
        <time>2018-09-09T09:46:58Z</time>
      </trkpt>
      <trkpt lat="45.93991" lon="4.77547">
        <ele>179</ele>
        <time>2018-09-09T09:46:59Z</time>
      </trkpt>
      <trkpt lat="45.93998" lon="4.77547">
        <ele>179</ele>
        <time>2018-09-09T09:51:41Z</time>
      </trkpt>
      <trkpt lat="45.93998" lon="4.77547">
        <ele>179</ele>
        <time>2018-09-09T09:51:42Z</time>
      </trkpt>
      <trkpt lat="45.93998" lon="4.77547">
        <ele>179</ele>
        <time>2018-09-09T09:51:43Z</time>
      </trkpt>
      <trkpt lat="45.93999" lon="4.77548">
        <ele>179</ele>
        <time>2018-09-09T09:51:44Z</time>
      </trkpt>
      <trkpt lat="45.93999" lon="4.77548">
        <ele>179</ele>
        <time>2018-09-09T09:51:45Z</time>
      </trkpt>
      <trkpt lat="45.93998" lon="4.77536">
        <ele>179</ele>
        <time>2018-09-09T09:52:05Z</time>
      </trkpt>
      <trkpt lat="45.93998" lon="4.77532">
        <ele>179</ele>
        <time>2018-09-09T09:52:06Z</time>
      </trkpt>
      <trkpt lat="45.93999" lon="4.77524">
        <ele>179</ele>
        <time>2018-09-09T09:52:08Z</time>
      </trkpt>
      <trkpt lat="45.94001" lon="4.77513">
        <ele>187</ele>
        <time>2018-09-09T09:52:09Z</time>
      </trkpt>
      <trkpt lat="45.94003" lon="4.77504">
        <ele>185</ele>
        <time>2018-09-09T09:52:12Z</time>
      </trkpt>
      <trkpt lat="45.94004" lon="4.77501">
        <ele>184</ele>
        <time>2018-09-09T09:52:13Z</time>
      </trkpt>
      <trkpt lat="45.94005" lon="4.77497">
        <ele>184</ele>
        <time>2018-09-09T09:52:14Z</time>
      </trkpt>
      <trkpt lat="45.94007" lon="4.77487">
        <ele>185</ele>
        <time>2018-09-09T09:52:15Z</time>
      </trkpt>
      <trkpt lat="45.94009" lon="4.77476">
        <ele>185</ele>
        <time>2018-09-09T09:52:17Z</time>
      </trkpt>
      <trkpt lat="45.9401" lon="4.77471">
        <ele>186</ele>
        <time>2018-09-09T09:52:18Z</time>
      </trkpt>
      <trkpt lat="45.94011" lon="4.77464">
        <ele>185</ele>
        <time>2018-09-09T09:52:20Z</time>
      </trkpt>
      <trkpt lat="45.94013" lon="4.77456">
        <ele>185</ele>
        <time>2018-09-09T09:52:21Z</time>
      </trkpt>
      <trkpt lat="45.94015" lon="4.77443">
        <ele>184</ele>
        <time>2018-09-09T09:52:23Z</time>
      </trkpt>
      <trkpt lat="45.94015" lon="4.77437">
        <ele>183</ele>
        <time>2018-09-09T09:52:24Z</time>
      </trkpt>
      <trkpt lat="45.94014" lon="4.77428">
        <ele>182</ele>
        <time>2018-09-09T09:52:25Z</time>
      </trkpt>
      <trkpt lat="45.94014" lon="4.77419">
        <ele>181</ele>
        <time>2018-09-09T09:52:26Z</time>
      </trkpt>
      <trkpt lat="45.94014" lon="4.77412">
        <ele>179</ele>
        <time>2018-09-09T09:52:27Z</time>
      </trkpt>
      <trkpt lat="45.94015" lon="4.77406">
        <ele>179</ele>
        <time>2018-09-09T09:52:28Z</time>
      </trkpt>
      <trkpt lat="45.94015" lon="4.77395">
        <ele>179</ele>
        <time>2018-09-09T09:52:30Z</time>
      </trkpt>
      <trkpt lat="45.94015" lon="4.77389">
        <ele>180</ele>
        <time>2018-09-09T09:52:31Z</time>
      </trkpt>
      <trkpt lat="45.94017" lon="4.77378">
        <ele>180</ele>
        <time>2018-09-09T09:52:33Z</time>
      </trkpt>
      <trkpt lat="45.94019" lon="4.77373">
        <ele>180</ele>
        <time>2018-09-09T09:52:34Z</time>
      </trkpt>
      <trkpt lat="45.94019" lon="4.77361">
        <ele>179</ele>
        <time>2018-09-09T09:52:36Z</time>
      </trkpt>
      <trkpt lat="45.9402" lon="4.77355">
        <ele>179</ele>
        <time>2018-09-09T09:52:37Z</time>
      </trkpt>
      <trkpt lat="45.94021" lon="4.77342">
        <ele>178</ele>
        <time>2018-09-09T09:52:39Z</time>
      </trkpt>
      <trkpt lat="45.94021" lon="4.77335">
        <ele>177</ele>
        <time>2018-09-09T09:52:40Z</time>
      </trkpt>
      <trkpt lat="45.94021" lon="4.77322">
        <ele>175</ele>
        <time>2018-09-09T09:52:42Z</time>
      </trkpt>
      <trkpt lat="45.9402" lon="4.77316">
        <ele>176</ele>
        <time>2018-09-09T09:52:43Z</time>
      </trkpt>
      <trkpt lat="45.94021" lon="4.77306">
        <ele>176</ele>
        <time>2018-09-09T09:52:45Z</time>
      </trkpt>
      <trkpt lat="45.94021" lon="4.77298">
        <ele>176</ele>
        <time>2018-09-09T09:52:46Z</time>
      </trkpt>
      <trkpt lat="45.94023" lon="4.77289">
        <ele>176</ele>
        <time>2018-09-09T09:52:48Z</time>
      </trkpt>
      <trkpt lat="45.94024" lon="4.77284">
        <ele>176</ele>
        <time>2018-09-09T09:52:49Z</time>
      </trkpt>
      <trkpt lat="45.94026" lon="4.77275">
        <ele>176</ele>
        <time>2018-09-09T09:52:51Z</time>
      </trkpt>
      <trkpt lat="45.94026" lon="4.77269">
        <ele>175</ele>
        <time>2018-09-09T09:52:52Z</time>
      </trkpt>
      <trkpt lat="45.94027" lon="4.77263">
        <ele>175</ele>
        <time>2018-09-09T09:52:53Z</time>
      </trkpt>
      <trkpt lat="45.94028" lon="4.77256">
        <ele>175</ele>
        <time>2018-09-09T09:52:54Z</time>
      </trkpt>
      <trkpt lat="45.94027" lon="4.77248">
        <ele>174</ele>
        <time>2018-09-09T09:52:55Z</time>
      </trkpt>
      <trkpt lat="45.94028" lon="4.77241">
        <ele>174</ele>
        <time>2018-09-09T09:52:56Z</time>
      </trkpt>
      <trkpt lat="45.94028" lon="4.77234">
        <ele>174</ele>
        <time>2018-09-09T09:52:57Z</time>
      </trkpt>
      <trkpt lat="45.94027" lon="4.77227">
        <ele>174</ele>
        <time>2018-09-09T09:52:58Z</time>
      </trkpt>
      <trkpt lat="45.94029" lon="4.7722">
        <ele>175</ele>
        <time>2018-09-09T09:52:59Z</time>
      </trkpt>
      <trkpt lat="45.94029" lon="4.77212">
        <ele>175</ele>
        <time>2018-09-09T09:53:00Z</time>
      </trkpt>
      <trkpt lat="45.9403" lon="4.77203">
        <ele>175</ele>
        <time>2018-09-09T09:53:01Z</time>
      </trkpt>
      <trkpt lat="45.94031" lon="4.77197">
        <ele>175</ele>
        <time>2018-09-09T09:53:02Z</time>
      </trkpt>
      <trkpt lat="45.94032" lon="4.77184">
        <ele>175</ele>
        <time>2018-09-09T09:53:04Z</time>
      </trkpt>
      <trkpt lat="45.94033" lon="4.77175">
        <ele>175</ele>
        <time>2018-09-09T09:53:05Z</time>
      </trkpt>
      <trkpt lat="45.94035" lon="4.77169">
        <ele>175</ele>
        <time>2018-09-09T09:53:06Z</time>
      </trkpt>
      <trkpt lat="45.94037" lon="4.77162">
        <ele>175</ele>
        <time>2018-09-09T09:53:07Z</time>
      </trkpt>
      <trkpt lat="45.94037" lon="4.77154">
        <ele>175</ele>
        <time>2018-09-09T09:53:08Z</time>
      </trkpt>
      <trkpt lat="45.94039" lon="4.77145">
        <ele>175</ele>
        <time>2018-09-09T09:53:09Z</time>
      </trkpt>
      <trkpt lat="45.94042" lon="4.77138">
        <ele>175</ele>
        <time>2018-09-09T09:53:10Z</time>
      </trkpt>
      <trkpt lat="45.94043" lon="4.7713">
        <ele>175</ele>
        <time>2018-09-09T09:53:11Z</time>
      </trkpt>
      <trkpt lat="45.94043" lon="4.77122">
        <ele>175</ele>
        <time>2018-09-09T09:53:12Z</time>
      </trkpt>
      <trkpt lat="45.94043" lon="4.77114">
        <ele>175</ele>
        <time>2018-09-09T09:53:13Z</time>
      </trkpt>
      <trkpt lat="45.94043" lon="4.77101">
        <ele>175</ele>
        <time>2018-09-09T09:53:15Z</time>
      </trkpt>
      <trkpt lat="45.94044" lon="4.77095">
        <ele>175</ele>
        <time>2018-09-09T09:53:16Z</time>
      </trkpt>
      <trkpt lat="45.94045" lon="4.77086">
        <ele>175</ele>
        <time>2018-09-09T09:53:17Z</time>
      </trkpt>
      <trkpt lat="45.94044" lon="4.77079">
        <ele>174</ele>
        <time>2018-09-09T09:53:18Z</time>
      </trkpt>
      <trkpt lat="45.94045" lon="4.77072">
        <ele>174</ele>
        <time>2018-09-09T09:53:19Z</time>
      </trkpt>
      <trkpt lat="45.94046" lon="4.77065">
        <ele>174</ele>
        <time>2018-09-09T09:53:20Z</time>
      </trkpt>
      <trkpt lat="45.94047" lon="4.77057">
        <ele>174</ele>
        <time>2018-09-09T09:53:21Z</time>
      </trkpt>
      <trkpt lat="45.9405" lon="4.77051">
        <ele>175</ele>
        <time>2018-09-09T09:53:22Z</time>
      </trkpt>
      <trkpt lat="45.94051" lon="4.77044">
        <ele>175</ele>
        <time>2018-09-09T09:53:23Z</time>
      </trkpt>
      <trkpt lat="45.94051" lon="4.77035">
        <ele>175</ele>
        <time>2018-09-09T09:53:24Z</time>
      </trkpt>
      <trkpt lat="45.94052" lon="4.77027">
        <ele>175</ele>
        <time>2018-09-09T09:53:25Z</time>
      </trkpt>
      <trkpt lat="45.94051" lon="4.77018">
        <ele>175</ele>
        <time>2018-09-09T09:53:26Z</time>
      </trkpt>
      <trkpt lat="45.94053" lon="4.77013">
        <ele>175</ele>
        <time>2018-09-09T09:53:27Z</time>
      </trkpt>
      <trkpt lat="45.94054" lon="4.77005">
        <ele>175</ele>
        <time>2018-09-09T09:53:28Z</time>
      </trkpt>
      <trkpt lat="45.94056" lon="4.76994">
        <ele>175</ele>
        <time>2018-09-09T09:53:31Z</time>
      </trkpt>
      <trkpt lat="45.94057" lon="4.76991">
        <ele>175</ele>
        <time>2018-09-09T09:53:32Z</time>
      </trkpt>
      <trkpt lat="45.94061" lon="4.76982">
        <ele>175</ele>
        <time>2018-09-09T09:53:35Z</time>
      </trkpt>
      <trkpt lat="45.94065" lon="4.7697">
        <ele>175</ele>
        <time>2018-09-09T09:53:36Z</time>
      </trkpt>
      <trkpt lat="45.94063" lon="4.76959">
        <ele>174</ele>
        <time>2018-09-09T09:53:38Z</time>
      </trkpt>
      <trkpt lat="45.9406" lon="4.76954">
        <ele>174</ele>
        <time>2018-09-09T09:53:39Z</time>
      </trkpt>
      <trkpt lat="45.94056" lon="4.76952">
        <ele>174</ele>
        <time>2018-09-09T09:53:40Z</time>
      </trkpt>
      <trkpt lat="45.94051" lon="4.76948">
        <ele>174</ele>
        <time>2018-09-09T09:53:41Z</time>
      </trkpt>
      <trkpt lat="45.94046" lon="4.76941">
        <ele>174</ele>
        <time>2018-09-09T09:53:43Z</time>
      </trkpt>
      <trkpt lat="45.94043" lon="4.76936">
        <ele>174</ele>
        <time>2018-09-09T09:53:44Z</time>
      </trkpt>
      <trkpt lat="45.9404" lon="4.76928">
        <ele>174</ele>
        <time>2018-09-09T09:53:45Z</time>
      </trkpt>
      <trkpt lat="45.94039" lon="4.76922">
        <ele>174</ele>
        <time>2018-09-09T09:53:46Z</time>
      </trkpt>
      <trkpt lat="45.94038" lon="4.76915">
        <ele>173</ele>
        <time>2018-09-09T09:53:47Z</time>
      </trkpt>
      <trkpt lat="45.94036" lon="4.76907">
        <ele>173</ele>
        <time>2018-09-09T09:53:48Z</time>
      </trkpt>
      <trkpt lat="45.94035" lon="4.76894">
        <ele>173</ele>
        <time>2018-09-09T09:53:50Z</time>
      </trkpt>
      <trkpt lat="45.94034" lon="4.76888">
        <ele>173</ele>
        <time>2018-09-09T09:53:51Z</time>
      </trkpt>
      <trkpt lat="45.94031" lon="4.76881">
        <ele>173</ele>
        <time>2018-09-09T09:53:52Z</time>
      </trkpt>
      <trkpt lat="45.94027" lon="4.76875">
        <ele>173</ele>
        <time>2018-09-09T09:53:53Z</time>
      </trkpt>
      <trkpt lat="45.94023" lon="4.76866">
        <ele>173</ele>
        <time>2018-09-09T09:53:55Z</time>
      </trkpt>
      <trkpt lat="45.94018" lon="4.76858">
        <ele>172</ele>
        <time>2018-09-09T09:53:56Z</time>
      </trkpt>
      <trkpt lat="45.94015" lon="4.76849">
        <ele>172</ele>
        <time>2018-09-09T09:53:57Z</time>
      </trkpt>
      <trkpt lat="45.9401" lon="4.76841">
        <ele>172</ele>
        <time>2018-09-09T09:53:58Z</time>
      </trkpt>
      <trkpt lat="45.94005" lon="4.76833">
        <ele>171</ele>
        <time>2018-09-09T09:53:59Z</time>
      </trkpt>
      <trkpt lat="45.94003" lon="4.76824">
        <ele>172</ele>
        <time>2018-09-09T09:54:00Z</time>
      </trkpt>
      <trkpt lat="45.94003" lon="4.76818">
        <ele>172</ele>
        <time>2018-09-09T09:54:01Z</time>
      </trkpt>
      <trkpt lat="45.94003" lon="4.76811">
        <ele>172</ele>
        <time>2018-09-09T09:54:02Z</time>
      </trkpt>
      <trkpt lat="45.94002" lon="4.76801">
        <ele>172</ele>
        <time>2018-09-09T09:54:03Z</time>
      </trkpt>
      <trkpt lat="45.94001" lon="4.76794">
        <ele>173</ele>
        <time>2018-09-09T09:54:04Z</time>
      </trkpt>
      <trkpt lat="45.94001" lon="4.76786">
        <ele>173</ele>
        <time>2018-09-09T09:54:05Z</time>
      </trkpt>
      <trkpt lat="45.94001" lon="4.76779">
        <ele>173</ele>
        <time>2018-09-09T09:54:06Z</time>
      </trkpt>
      <trkpt lat="45.94002" lon="4.7677">
        <ele>173</ele>
        <time>2018-09-09T09:54:07Z</time>
      </trkpt>
      <trkpt lat="45.94003" lon="4.76762">
        <ele>173</ele>
        <time>2018-09-09T09:54:08Z</time>
      </trkpt>
      <trkpt lat="45.94004" lon="4.76755">
        <ele>173</ele>
        <time>2018-09-09T09:54:09Z</time>
      </trkpt>
      <trkpt lat="45.94006" lon="4.76748">
        <ele>173</ele>
        <time>2018-09-09T09:54:10Z</time>
      </trkpt>
      <trkpt lat="45.94009" lon="4.76743">
        <ele>173</ele>
        <time>2018-09-09T09:54:11Z</time>
      </trkpt>
      <trkpt lat="45.9401" lon="4.76736">
        <ele>173</ele>
        <time>2018-09-09T09:54:12Z</time>
      </trkpt>
      <trkpt lat="45.94013" lon="4.76729">
        <ele>173</ele>
        <time>2018-09-09T09:54:13Z</time>
      </trkpt>
      <trkpt lat="45.94014" lon="4.76722">
        <ele>173</ele>
        <time>2018-09-09T09:54:14Z</time>
      </trkpt>
      <trkpt lat="45.94015" lon="4.76716">
        <ele>173</ele>
        <time>2018-09-09T09:54:15Z</time>
      </trkpt>
      <trkpt lat="45.94018" lon="4.76708">
        <ele>173</ele>
        <time>2018-09-09T09:54:16Z</time>
      </trkpt>
      <trkpt lat="45.9402" lon="4.767">
        <ele>173</ele>
        <time>2018-09-09T09:54:17Z</time>
      </trkpt>
      <trkpt lat="45.94022" lon="4.76693">
        <ele>173</ele>
        <time>2018-09-09T09:54:18Z</time>
      </trkpt>
      <trkpt lat="45.94024" lon="4.76681">
        <ele>173</ele>
        <time>2018-09-09T09:54:20Z</time>
      </trkpt>
      <trkpt lat="45.94026" lon="4.76675">
        <ele>173</ele>
        <time>2018-09-09T09:54:21Z</time>
      </trkpt>
      <trkpt lat="45.94026" lon="4.76662">
        <ele>172</ele>
        <time>2018-09-09T09:54:23Z</time>
      </trkpt>
      <trkpt lat="45.94026" lon="4.76654">
        <ele>172</ele>
        <time>2018-09-09T09:54:24Z</time>
      </trkpt>
      <trkpt lat="45.94022" lon="4.76646">
        <ele>172</ele>
        <time>2018-09-09T09:54:25Z</time>
      </trkpt>
      <trkpt lat="45.94018" lon="4.76638">
        <ele>172</ele>
        <time>2018-09-09T09:54:26Z</time>
      </trkpt>
      <trkpt lat="45.94014" lon="4.76627">
        <ele>172</ele>
        <time>2018-09-09T09:54:27Z</time>
      </trkpt>
      <trkpt lat="45.9401" lon="4.76618">
        <ele>172</ele>
        <time>2018-09-09T09:54:28Z</time>
      </trkpt>
      <trkpt lat="45.94007" lon="4.76611">
        <ele>172</ele>
        <time>2018-09-09T09:54:29Z</time>
      </trkpt>
      <trkpt lat="45.94004" lon="4.76603">
        <ele>172</ele>
        <time>2018-09-09T09:54:30Z</time>
      </trkpt>
      <trkpt lat="45.94" lon="4.76595">
        <ele>172</ele>
        <time>2018-09-09T09:54:31Z</time>
      </trkpt>
      <trkpt lat="45.93997" lon="4.76586">
        <ele>172</ele>
        <time>2018-09-09T09:54:32Z</time>
      </trkpt>
      <trkpt lat="45.93995" lon="4.76578">
        <ele>172</ele>
        <time>2018-09-09T09:54:33Z</time>
      </trkpt>
      <trkpt lat="45.93995" lon="4.76567">
        <ele>172</ele>
        <time>2018-09-09T09:54:34Z</time>
      </trkpt>
      <trkpt lat="45.93995" lon="4.76558">
        <ele>172</ele>
        <time>2018-09-09T09:54:35Z</time>
      </trkpt>
      <trkpt lat="45.93995" lon="4.76549">
        <ele>172</ele>
        <time>2018-09-09T09:54:36Z</time>
      </trkpt>
      <trkpt lat="45.93995" lon="4.7654">
        <ele>171</ele>
        <time>2018-09-09T09:54:37Z</time>
      </trkpt>
      <trkpt lat="45.93995" lon="4.7653">
        <ele>171</ele>
        <time>2018-09-09T09:54:38Z</time>
      </trkpt>
      <trkpt lat="45.93995" lon="4.76522">
        <ele>171</ele>
        <time>2018-09-09T09:54:39Z</time>
      </trkpt>
      <trkpt lat="45.93994" lon="4.76512">
        <ele>171</ele>
        <time>2018-09-09T09:54:40Z</time>
      </trkpt>
      <trkpt lat="45.93994" lon="4.76503">
        <ele>171</ele>
        <time>2018-09-09T09:54:41Z</time>
      </trkpt>
      <trkpt lat="45.93993" lon="4.76495">
        <ele>171</ele>
        <time>2018-09-09T09:54:42Z</time>
      </trkpt>
      <trkpt lat="45.93993" lon="4.76487">
        <ele>171</ele>
        <time>2018-09-09T09:54:43Z</time>
      </trkpt>
      <trkpt lat="45.93993" lon="4.76478">
        <ele>170</ele>
        <time>2018-09-09T09:54:44Z</time>
      </trkpt>
      <trkpt lat="45.93992" lon="4.7647">
        <ele>170</ele>
        <time>2018-09-09T09:54:45Z</time>
      </trkpt>
      <trkpt lat="45.93992" lon="4.76462">
        <ele>170</ele>
        <time>2018-09-09T09:54:46Z</time>
      </trkpt>
      <trkpt lat="45.93992" lon="4.76455">
        <ele>170</ele>
        <time>2018-09-09T09:54:47Z</time>
      </trkpt>
      <trkpt lat="45.93993" lon="4.76448">
        <ele>170</ele>
        <time>2018-09-09T09:54:48Z</time>
      </trkpt>
      <trkpt lat="45.93994" lon="4.76441">
        <ele>169</ele>
        <time>2018-09-09T09:54:49Z</time>
      </trkpt>
      <trkpt lat="45.93995" lon="4.76433">
        <ele>169</ele>
        <time>2018-09-09T09:54:50Z</time>
      </trkpt>
      <trkpt lat="45.93994" lon="4.76426">
        <ele>169</ele>
        <time>2018-09-09T09:54:51Z</time>
      </trkpt>
      <trkpt lat="45.93997" lon="4.76419">
        <ele>168</ele>
        <time>2018-09-09T09:54:52Z</time>
      </trkpt>
      <trkpt lat="45.94" lon="4.76412">
        <ele>168</ele>
        <time>2018-09-09T09:54:53Z</time>
      </trkpt>
      <trkpt lat="45.94002" lon="4.76406">
        <ele>169</ele>
        <time>2018-09-09T09:54:54Z</time>
      </trkpt>
      <trkpt lat="45.94007" lon="4.764">
        <ele>169</ele>
        <time>2018-09-09T09:54:55Z</time>
      </trkpt>
      <trkpt lat="45.94011" lon="4.76395">
        <ele>169</ele>
        <time>2018-09-09T09:54:56Z</time>
      </trkpt>
      <trkpt lat="45.94016" lon="4.76391">
        <ele>169</ele>
        <time>2018-09-09T09:54:57Z</time>
      </trkpt>
      <trkpt lat="45.94019" lon="4.76386">
        <ele>169</ele>
        <time>2018-09-09T09:54:58Z</time>
      </trkpt>
      <trkpt lat="45.94023" lon="4.76381">
        <ele>170</ele>
        <time>2018-09-09T09:54:59Z</time>
      </trkpt>
      <trkpt lat="45.94028" lon="4.76376">
        <ele>170</ele>
        <time>2018-09-09T09:55:00Z</time>
      </trkpt>
      <trkpt lat="45.94033" lon="4.76369">
        <ele>170</ele>
        <time>2018-09-09T09:55:02Z</time>
      </trkpt>
      <trkpt lat="45.94036" lon="4.76365">
        <ele>170</ele>
        <time>2018-09-09T09:55:03Z</time>
      </trkpt>
      <trkpt lat="45.9404" lon="4.76359">
        <ele>170</ele>
        <time>2018-09-09T09:55:04Z</time>
      </trkpt>
      <trkpt lat="45.94044" lon="4.76353">
        <ele>170</ele>
        <time>2018-09-09T09:55:05Z</time>
      </trkpt>
      <trkpt lat="45.94045" lon="4.76341">
        <ele>170</ele>
        <time>2018-09-09T09:55:07Z</time>
      </trkpt>
      <trkpt lat="45.94047" lon="4.76331">
        <ele>170</ele>
        <time>2018-09-09T09:55:08Z</time>
      </trkpt>
      <trkpt lat="45.9405" lon="4.76322">
        <ele>171</ele>
        <time>2018-09-09T09:55:09Z</time>
      </trkpt>
      <trkpt lat="45.94053" lon="4.76316">
        <ele>171</ele>
        <time>2018-09-09T09:55:10Z</time>
      </trkpt>
      <trkpt lat="45.94056" lon="4.76304">
        <ele>171</ele>
        <time>2018-09-09T09:55:12Z</time>
      </trkpt>
      <trkpt lat="45.94059" lon="4.76302">
        <ele>171</ele>
        <time>2018-09-09T09:55:13Z</time>
      </trkpt>
      <trkpt lat="45.94066" lon="4.76294">
        <ele>171</ele>
        <time>2018-09-09T09:55:15Z</time>
      </trkpt>
      <trkpt lat="45.9407" lon="4.7629">
        <ele>171</ele>
        <time>2018-09-09T09:55:16Z</time>
      </trkpt>
      <trkpt lat="45.94077" lon="4.76283">
        <ele>172</ele>
        <time>2018-09-09T09:55:18Z</time>
      </trkpt>
      <trkpt lat="45.9408" lon="4.76279">
        <ele>172</ele>
        <time>2018-09-09T09:55:19Z</time>
      </trkpt>
      <trkpt lat="45.94083" lon="4.76275">
        <ele>172</ele>
        <time>2018-09-09T09:55:20Z</time>
      </trkpt>
      <trkpt lat="45.94088" lon="4.7627">
        <ele>176</ele>
        <time>2018-09-09T09:55:21Z</time>
      </trkpt>
      <trkpt lat="45.94095" lon="4.76266">
        <ele>176</ele>
        <time>2018-09-09T09:55:23Z</time>
      </trkpt>
      <trkpt lat="45.941" lon="4.76263">
        <ele>176</ele>
        <time>2018-09-09T09:55:24Z</time>
      </trkpt>
      <trkpt lat="45.94107" lon="4.76262">
        <ele>176</ele>
        <time>2018-09-09T09:55:26Z</time>
      </trkpt>
      <trkpt lat="45.94111" lon="4.76261">
        <ele>177</ele>
        <time>2018-09-09T09:55:27Z</time>
      </trkpt>
      <trkpt lat="45.94117" lon="4.76259">
        <ele>177</ele>
        <time>2018-09-09T09:55:29Z</time>
      </trkpt>
      <trkpt lat="45.94123" lon="4.76259">
        <ele>177</ele>
        <time>2018-09-09T09:55:30Z</time>
      </trkpt>
      <trkpt lat="45.94131" lon="4.76258">
        <ele>178</ele>
        <time>2018-09-09T09:55:32Z</time>
      </trkpt>
      <trkpt lat="45.94133" lon="4.76258">
        <ele>178</ele>
        <time>2018-09-09T09:55:33Z</time>
      </trkpt>
      <trkpt lat="45.94138" lon="4.76258">
        <ele>178</ele>
        <time>2018-09-09T09:55:34Z</time>
      </trkpt>
      <trkpt lat="45.94143" lon="4.76258">
        <ele>178</ele>
        <time>2018-09-09T09:55:35Z</time>
      </trkpt>
      <trkpt lat="45.94151" lon="4.76257">
        <ele>179</ele>
        <time>2018-09-09T09:55:37Z</time>
      </trkpt>
      <trkpt lat="45.94156" lon="4.76257">
        <ele>179</ele>
        <time>2018-09-09T09:55:38Z</time>
      </trkpt>
      <trkpt lat="45.94165" lon="4.76257">
        <ele>180</ele>
        <time>2018-09-09T09:55:40Z</time>
      </trkpt>
      <trkpt lat="45.94168" lon="4.76254">
        <ele>182</ele>
        <time>2018-09-09T09:55:41Z</time>
      </trkpt>
      <trkpt lat="45.94171" lon="4.76242">
        <ele>182</ele>
        <time>2018-09-09T09:55:43Z</time>
      </trkpt>
      <trkpt lat="45.94173" lon="4.76234">
        <ele>182</ele>
        <time>2018-09-09T09:55:44Z</time>
      </trkpt>
      <trkpt lat="45.94174" lon="4.76227">
        <ele>182</ele>
        <time>2018-09-09T09:55:45Z</time>
      </trkpt>
      <trkpt lat="45.94175" lon="4.7622">
        <ele>182</ele>
        <time>2018-09-09T09:55:46Z</time>
      </trkpt>
      <trkpt lat="45.94176" lon="4.76213">
        <ele>182</ele>
        <time>2018-09-09T09:55:47Z</time>
      </trkpt>
      <trkpt lat="45.94178" lon="4.76206">
        <ele>182</ele>
        <time>2018-09-09T09:55:48Z</time>
      </trkpt>
      <trkpt lat="45.94179" lon="4.762">
        <ele>182</ele>
        <time>2018-09-09T09:55:49Z</time>
      </trkpt>
      <trkpt lat="45.9418" lon="4.76192">
        <ele>182</ele>
        <time>2018-09-09T09:55:50Z</time>
      </trkpt>
      <trkpt lat="45.94182" lon="4.76185">
        <ele>182</ele>
        <time>2018-09-09T09:55:51Z</time>
      </trkpt>
      <trkpt lat="45.94181" lon="4.76176">
        <ele>181</ele>
        <time>2018-09-09T09:55:52Z</time>
      </trkpt>
      <trkpt lat="45.94182" lon="4.76168">
        <ele>181</ele>
        <time>2018-09-09T09:55:53Z</time>
      </trkpt>
      <trkpt lat="45.94183" lon="4.76162">
        <ele>181</ele>
        <time>2018-09-09T09:55:54Z</time>
      </trkpt>
      <trkpt lat="45.94184" lon="4.76155">
        <ele>181</ele>
        <time>2018-09-09T09:55:55Z</time>
      </trkpt>
      <trkpt lat="45.94184" lon="4.76148">
        <ele>181</ele>
        <time>2018-09-09T09:55:56Z</time>
      </trkpt>
      <trkpt lat="45.94185" lon="4.76141">
        <ele>181</ele>
        <time>2018-09-09T09:55:57Z</time>
      </trkpt>
      <trkpt lat="45.94184" lon="4.76134">
        <ele>181</ele>
        <time>2018-09-09T09:55:58Z</time>
      </trkpt>
      <trkpt lat="45.94184" lon="4.76126">
        <ele>180</ele>
        <time>2018-09-09T09:55:59Z</time>
      </trkpt>
      <trkpt lat="45.94183" lon="4.76118">
        <ele>180</ele>
        <time>2018-09-09T09:56:00Z</time>
      </trkpt>
      <trkpt lat="45.94184" lon="4.76111">
        <ele>180</ele>
        <time>2018-09-09T09:56:01Z</time>
      </trkpt>
      <trkpt lat="45.94182" lon="4.761">
        <ele>180</ele>
        <time>2018-09-09T09:56:02Z</time>
      </trkpt>
      <trkpt lat="45.94181" lon="4.76092">
        <ele>179</ele>
        <time>2018-09-09T09:56:03Z</time>
      </trkpt>
      <trkpt lat="45.94184" lon="4.76086">
        <ele>179</ele>
        <time>2018-09-09T09:56:04Z</time>
      </trkpt>
      <trkpt lat="45.94183" lon="4.76077">
        <ele>179</ele>
        <time>2018-09-09T09:56:05Z</time>
      </trkpt>
      <trkpt lat="45.94182" lon="4.76069">
        <ele>179</ele>
        <time>2018-09-09T09:56:06Z</time>
      </trkpt>
      <trkpt lat="45.94182" lon="4.7606">
        <ele>179</ele>
        <time>2018-09-09T09:56:07Z</time>
      </trkpt>
      <trkpt lat="45.9418" lon="4.7605">
        <ele>179</ele>
        <time>2018-09-09T09:56:08Z</time>
      </trkpt>
      <trkpt lat="45.9418" lon="4.76042">
        <ele>179</ele>
        <time>2018-09-09T09:56:09Z</time>
      </trkpt>
      <trkpt lat="45.94179" lon="4.76033">
        <ele>179</ele>
        <time>2018-09-09T09:56:10Z</time>
      </trkpt>
      <trkpt lat="45.94179" lon="4.76024">
        <ele>179</ele>
        <time>2018-09-09T09:56:11Z</time>
      </trkpt>
      <trkpt lat="45.94178" lon="4.76017">
        <ele>179</ele>
        <time>2018-09-09T09:56:12Z</time>
      </trkpt>
      <trkpt lat="45.94178" lon="4.76008">
        <ele>179</ele>
        <time>2018-09-09T09:56:13Z</time>
      </trkpt>
      <trkpt lat="45.94178" lon="4.76">
        <ele>179</ele>
        <time>2018-09-09T09:56:14Z</time>
      </trkpt>
      <trkpt lat="45.94177" lon="4.75993">
        <ele>178</ele>
        <time>2018-09-09T09:56:15Z</time>
      </trkpt>
      <trkpt lat="45.94178" lon="4.75986">
        <ele>178</ele>
        <time>2018-09-09T09:56:16Z</time>
      </trkpt>
      <trkpt lat="45.94179" lon="4.75977">
        <ele>177</ele>
        <time>2018-09-09T09:56:17Z</time>
      </trkpt>
      <trkpt lat="45.94178" lon="4.75968">
        <ele>177</ele>
        <time>2018-09-09T09:56:18Z</time>
      </trkpt>
      <trkpt lat="45.94177" lon="4.75958">
        <ele>177</ele>
        <time>2018-09-09T09:56:19Z</time>
      </trkpt>
      <trkpt lat="45.94179" lon="4.75949">
        <ele>177</ele>
        <time>2018-09-09T09:56:20Z</time>
      </trkpt>
      <trkpt lat="45.94179" lon="4.7594">
        <ele>176</ele>
        <time>2018-09-09T09:56:21Z</time>
      </trkpt>
      <trkpt lat="45.94179" lon="4.75931">
        <ele>176</ele>
        <time>2018-09-09T09:56:22Z</time>
      </trkpt>
      <trkpt lat="45.94178" lon="4.75922">
        <ele>176</ele>
        <time>2018-09-09T09:56:23Z</time>
      </trkpt>
      <trkpt lat="45.94177" lon="4.75914">
        <ele>175</ele>
        <time>2018-09-09T09:56:24Z</time>
      </trkpt>
      <trkpt lat="45.94176" lon="4.75905">
        <ele>175</ele>
        <time>2018-09-09T09:56:25Z</time>
      </trkpt>
      <trkpt lat="45.94175" lon="4.75897">
        <ele>175</ele>
        <time>2018-09-09T09:56:26Z</time>
      </trkpt>
      <trkpt lat="45.94174" lon="4.75891">
        <ele>175</ele>
        <time>2018-09-09T09:56:27Z</time>
      </trkpt>
      <trkpt lat="45.94174" lon="4.75883">
        <ele>175</ele>
        <time>2018-09-09T09:56:28Z</time>
      </trkpt>
      <trkpt lat="45.94173" lon="4.75875">
        <ele>175</ele>
        <time>2018-09-09T09:56:29Z</time>
      </trkpt>
      <trkpt lat="45.94173" lon="4.75868">
        <ele>175</ele>
        <time>2018-09-09T09:56:30Z</time>
      </trkpt>
      <trkpt lat="45.94173" lon="4.75861">
        <ele>175</ele>
        <time>2018-09-09T09:56:31Z</time>
      </trkpt>
      <trkpt lat="45.94174" lon="4.75854">
        <ele>174</ele>
        <time>2018-09-09T09:56:32Z</time>
      </trkpt>
      <trkpt lat="45.94173" lon="4.75845">
        <ele>174</ele>
        <time>2018-09-09T09:56:33Z</time>
      </trkpt>
      <trkpt lat="45.94173" lon="4.75836">
        <ele>174</ele>
        <time>2018-09-09T09:56:34Z</time>
      </trkpt>
      <trkpt lat="45.94173" lon="4.75828">
        <ele>174</ele>
        <time>2018-09-09T09:56:35Z</time>
      </trkpt>
      <trkpt lat="45.94172" lon="4.7582">
        <ele>174</ele>
        <time>2018-09-09T09:56:36Z</time>
      </trkpt>
      <trkpt lat="45.94172" lon="4.75812">
        <ele>174</ele>
        <time>2018-09-09T09:56:37Z</time>
      </trkpt>
      <trkpt lat="45.94173" lon="4.75805">
        <ele>174</ele>
        <time>2018-09-09T09:56:38Z</time>
      </trkpt>
      <trkpt lat="45.94173" lon="4.75798">
        <ele>174</ele>
        <time>2018-09-09T09:56:39Z</time>
      </trkpt>
      <trkpt lat="45.94172" lon="4.7579">
        <ele>174</ele>
        <time>2018-09-09T09:56:40Z</time>
      </trkpt>
      <trkpt lat="45.9417" lon="4.75782">
        <ele>174</ele>
        <time>2018-09-09T09:56:41Z</time>
      </trkpt>
      <trkpt lat="45.9417" lon="4.75774">
        <ele>174</ele>
        <time>2018-09-09T09:56:42Z</time>
      </trkpt>
      <trkpt lat="45.94171" lon="4.75766">
        <ele>174</ele>
        <time>2018-09-09T09:56:43Z</time>
      </trkpt>
      <trkpt lat="45.94171" lon="4.75759">
        <ele>174</ele>
        <time>2018-09-09T09:56:44Z</time>
      </trkpt>
      <trkpt lat="45.94172" lon="4.75751">
        <ele>174</ele>
        <time>2018-09-09T09:56:45Z</time>
      </trkpt>
      <trkpt lat="45.94172" lon="4.75742">
        <ele>174</ele>
        <time>2018-09-09T09:56:46Z</time>
      </trkpt>
      <trkpt lat="45.94171" lon="4.75733">
        <ele>174</ele>
        <time>2018-09-09T09:56:47Z</time>
      </trkpt>
      <trkpt lat="45.9417" lon="4.75725">
        <ele>173</ele>
        <time>2018-09-09T09:56:48Z</time>
      </trkpt>
      <trkpt lat="45.9417" lon="4.75717">
        <ele>173</ele>
        <time>2018-09-09T09:56:49Z</time>
      </trkpt>
      <trkpt lat="45.9417" lon="4.75708">
        <ele>173</ele>
        <time>2018-09-09T09:56:50Z</time>
      </trkpt>
      <trkpt lat="45.94169" lon="4.757">
        <ele>173</ele>
        <time>2018-09-09T09:56:51Z</time>
      </trkpt>
      <trkpt lat="45.9417" lon="4.75692">
        <ele>173</ele>
        <time>2018-09-09T09:56:52Z</time>
      </trkpt>
      <trkpt lat="45.9417" lon="4.75685">
        <ele>173</ele>
        <time>2018-09-09T09:56:53Z</time>
      </trkpt>
      <trkpt lat="45.9417" lon="4.75677">
        <ele>173</ele>
        <time>2018-09-09T09:56:54Z</time>
      </trkpt>
      <trkpt lat="45.9417" lon="4.75669">
        <ele>173</ele>
        <time>2018-09-09T09:56:55Z</time>
      </trkpt>
      <trkpt lat="45.94168" lon="4.75661">
        <ele>173</ele>
        <time>2018-09-09T09:56:56Z</time>
      </trkpt>
      <trkpt lat="45.94169" lon="4.75654">
        <ele>173</ele>
        <time>2018-09-09T09:56:57Z</time>
      </trkpt>
      <trkpt lat="45.94169" lon="4.75647">
        <ele>173</ele>
        <time>2018-09-09T09:56:58Z</time>
      </trkpt>
      <trkpt lat="45.9417" lon="4.7564">
        <ele>173</ele>
        <time>2018-09-09T09:56:59Z</time>
      </trkpt>
      <trkpt lat="45.9417" lon="4.75632">
        <ele>173</ele>
        <time>2018-09-09T09:57:00Z</time>
      </trkpt>
      <trkpt lat="45.94171" lon="4.75624">
        <ele>173</ele>
        <time>2018-09-09T09:57:01Z</time>
      </trkpt>
      <trkpt lat="45.94172" lon="4.75617">
        <ele>173</ele>
        <time>2018-09-09T09:57:02Z</time>
      </trkpt>
      <trkpt lat="45.94172" lon="4.75608">
        <ele>173</ele>
        <time>2018-09-09T09:57:03Z</time>
      </trkpt>
      <trkpt lat="45.94174" lon="4.75601">
        <ele>173</ele>
        <time>2018-09-09T09:57:04Z</time>
      </trkpt>
      <trkpt lat="45.94175" lon="4.75592">
        <ele>173</ele>
        <time>2018-09-09T09:57:05Z</time>
      </trkpt>
      <trkpt lat="45.94177" lon="4.75582">
        <ele>173</ele>
        <time>2018-09-09T09:57:06Z</time>
      </trkpt>
      <trkpt lat="45.94178" lon="4.75574">
        <ele>173</ele>
        <time>2018-09-09T09:57:07Z</time>
      </trkpt>
      <trkpt lat="45.94179" lon="4.75567">
        <ele>173</ele>
        <time>2018-09-09T09:57:08Z</time>
      </trkpt>
      <trkpt lat="45.9418" lon="4.75557">
        <ele>173</ele>
        <time>2018-09-09T09:57:09Z</time>
      </trkpt>
      <trkpt lat="45.9418" lon="4.75547">
        <ele>173</ele>
        <time>2018-09-09T09:57:10Z</time>
      </trkpt>
      <trkpt lat="45.94182" lon="4.75539">
        <ele>173</ele>
        <time>2018-09-09T09:57:11Z</time>
      </trkpt>
      <trkpt lat="45.94184" lon="4.75531">
        <ele>173</ele>
        <time>2018-09-09T09:57:12Z</time>
      </trkpt>
      <trkpt lat="45.94177" lon="4.75524">
        <ele>173</ele>
        <time>2018-09-09T09:57:13Z</time>
      </trkpt>
      <trkpt lat="45.94176" lon="4.75516">
        <ele>173</ele>
        <time>2018-09-09T09:57:14Z</time>
      </trkpt>
      <trkpt lat="45.94174" lon="4.75507">
        <ele>173</ele>
        <time>2018-09-09T09:57:15Z</time>
      </trkpt>
      <trkpt lat="45.94177" lon="4.75499">
        <ele>173</ele>
        <time>2018-09-09T09:57:16Z</time>
      </trkpt>
      <trkpt lat="45.94181" lon="4.75488">
        <ele>172</ele>
        <time>2018-09-09T09:57:18Z</time>
      </trkpt>
      <trkpt lat="45.94181" lon="4.75479">
        <ele>172</ele>
        <time>2018-09-09T09:57:19Z</time>
      </trkpt>
      <trkpt lat="45.94183" lon="4.75472">
        <ele>172</ele>
        <time>2018-09-09T09:57:20Z</time>
      </trkpt>
      <trkpt lat="45.94185" lon="4.75465">
        <ele>172</ele>
        <time>2018-09-09T09:57:21Z</time>
      </trkpt>
      <trkpt lat="45.94188" lon="4.75458">
        <ele>172</ele>
        <time>2018-09-09T09:57:22Z</time>
      </trkpt>
      <trkpt lat="45.94189" lon="4.75449">
        <ele>172</ele>
        <time>2018-09-09T09:57:23Z</time>
      </trkpt>
      <trkpt lat="45.94189" lon="4.75442">
        <ele>171</ele>
        <time>2018-09-09T09:57:24Z</time>
      </trkpt>
      <trkpt lat="45.94189" lon="4.75432">
        <ele>171</ele>
        <time>2018-09-09T09:57:25Z</time>
      </trkpt>
      <trkpt lat="45.94188" lon="4.75423">
        <ele>171</ele>
        <time>2018-09-09T09:57:26Z</time>
      </trkpt>
      <trkpt lat="45.94187" lon="4.75415">
        <ele>171</ele>
        <time>2018-09-09T09:57:27Z</time>
      </trkpt>
      <trkpt lat="45.94187" lon="4.75407">
        <ele>171</ele>
        <time>2018-09-09T09:57:28Z</time>
      </trkpt>
      <trkpt lat="45.94188" lon="4.75398">
        <ele>171</ele>
        <time>2018-09-09T09:57:29Z</time>
      </trkpt>
      <trkpt lat="45.9419" lon="4.75391">
        <ele>171</ele>
        <time>2018-09-09T09:57:30Z</time>
      </trkpt>
      <trkpt lat="45.9419" lon="4.75384">
        <ele>171</ele>
        <time>2018-09-09T09:57:31Z</time>
      </trkpt>
      <trkpt lat="45.94191" lon="4.75376">
        <ele>171</ele>
        <time>2018-09-09T09:57:32Z</time>
      </trkpt>
      <trkpt lat="45.94192" lon="4.75369">
        <ele>171</ele>
        <time>2018-09-09T09:57:33Z</time>
      </trkpt>
      <trkpt lat="45.94194" lon="4.75362">
        <ele>171</ele>
        <time>2018-09-09T09:57:34Z</time>
      </trkpt>
      <trkpt lat="45.94196" lon="4.75355">
        <ele>171</ele>
        <time>2018-09-09T09:57:35Z</time>
      </trkpt>
      <trkpt lat="45.94197" lon="4.75347">
        <ele>171</ele>
        <time>2018-09-09T09:57:36Z</time>
      </trkpt>
      <trkpt lat="45.94198" lon="4.75339">
        <ele>171</ele>
        <time>2018-09-09T09:57:37Z</time>
      </trkpt>
      <trkpt lat="45.942" lon="4.7533">
        <ele>171</ele>
        <time>2018-09-09T09:57:38Z</time>
      </trkpt>
      <trkpt lat="45.94202" lon="4.75321">
        <ele>171</ele>
        <time>2018-09-09T09:57:39Z</time>
      </trkpt>
      <trkpt lat="45.94203" lon="4.75313">
        <ele>171</ele>
        <time>2018-09-09T09:57:40Z</time>
      </trkpt>
      <trkpt lat="45.94204" lon="4.75305">
        <ele>171</ele>
        <time>2018-09-09T09:57:41Z</time>
      </trkpt>
      <trkpt lat="45.94206" lon="4.75297">
        <ele>171</ele>
        <time>2018-09-09T09:57:42Z</time>
      </trkpt>
      <trkpt lat="45.94206" lon="4.7529">
        <ele>171</ele>
        <time>2018-09-09T09:57:43Z</time>
      </trkpt>
      <trkpt lat="45.94208" lon="4.75282">
        <ele>171</ele>
        <time>2018-09-09T09:57:44Z</time>
      </trkpt>
      <trkpt lat="45.94208" lon="4.75277">
        <ele>171</ele>
        <time>2018-09-09T09:57:45Z</time>
      </trkpt>
      <trkpt lat="45.9421" lon="4.75264">
        <ele>172</ele>
        <time>2018-09-09T09:57:47Z</time>
      </trkpt>
      <trkpt lat="45.9421" lon="4.75258">
        <ele>172</ele>
        <time>2018-09-09T09:57:48Z</time>
      </trkpt>
      <trkpt lat="45.94213" lon="4.75246">
        <ele>171</ele>
        <time>2018-09-09T09:57:50Z</time>
      </trkpt>
      <trkpt lat="45.94215" lon="4.75238">
        <ele>171</ele>
        <time>2018-09-09T09:57:51Z</time>
      </trkpt>
      <trkpt lat="45.94217" lon="4.75231">
        <ele>171</ele>
        <time>2018-09-09T09:57:52Z</time>
      </trkpt>
      <trkpt lat="45.94219" lon="4.75225">
        <ele>171</ele>
        <time>2018-09-09T09:57:53Z</time>
      </trkpt>
      <trkpt lat="45.9422" lon="4.75218">
        <ele>171</ele>
        <time>2018-09-09T09:57:54Z</time>
      </trkpt>
      <trkpt lat="45.94221" lon="4.7521">
        <ele>171</ele>
        <time>2018-09-09T09:57:55Z</time>
      </trkpt>
      <trkpt lat="45.94223" lon="4.75204">
        <ele>171</ele>
        <time>2018-09-09T09:57:56Z</time>
      </trkpt>
      <trkpt lat="45.94225" lon="4.75198">
        <ele>171</ele>
        <time>2018-09-09T09:57:57Z</time>
      </trkpt>
      <trkpt lat="45.94227" lon="4.75191">
        <ele>171</ele>
        <time>2018-09-09T09:57:58Z</time>
      </trkpt>
      <trkpt lat="45.94228" lon="4.75182">
        <ele>171</ele>
        <time>2018-09-09T09:57:59Z</time>
      </trkpt>
      <trkpt lat="45.94231" lon="4.75173">
        <ele>171</ele>
        <time>2018-09-09T09:58:00Z</time>
      </trkpt>
      <trkpt lat="45.94232" lon="4.75164">
        <ele>171</ele>
        <time>2018-09-09T09:58:01Z</time>
      </trkpt>
      <trkpt lat="45.94235" lon="4.75156">
        <ele>171</ele>
        <time>2018-09-09T09:58:02Z</time>
      </trkpt>
      <trkpt lat="45.94237" lon="4.75147">
        <ele>171</ele>
        <time>2018-09-09T09:58:03Z</time>
      </trkpt>
      <trkpt lat="45.94239" lon="4.7514">
        <ele>171</ele>
        <time>2018-09-09T09:58:04Z</time>
      </trkpt>
      <trkpt lat="45.9424" lon="4.75133">
        <ele>171</ele>
        <time>2018-09-09T09:58:05Z</time>
      </trkpt>
      <trkpt lat="45.94242" lon="4.75127">
        <ele>171</ele>
        <time>2018-09-09T09:58:06Z</time>
      </trkpt>
      <trkpt lat="45.94244" lon="4.7512">
        <ele>172</ele>
        <time>2018-09-09T09:58:07Z</time>
      </trkpt>
      <trkpt lat="45.94245" lon="4.75108">
        <ele>172</ele>
        <time>2018-09-09T09:58:09Z</time>
      </trkpt>
      <trkpt lat="45.94247" lon="4.75099">
        <ele>172</ele>
        <time>2018-09-09T09:58:10Z</time>
      </trkpt>
      <trkpt lat="45.9425" lon="4.75091">
        <ele>172</ele>
        <time>2018-09-09T09:58:11Z</time>
      </trkpt>
      <trkpt lat="45.94252" lon="4.75085">
        <ele>173</ele>
        <time>2018-09-09T09:58:12Z</time>
      </trkpt>
      <trkpt lat="45.94253" lon="4.75078">
        <ele>173</ele>
        <time>2018-09-09T09:58:13Z</time>
      </trkpt>
      <trkpt lat="45.94255" lon="4.75071">
        <ele>174</ele>
        <time>2018-09-09T09:58:14Z</time>
      </trkpt>
      <trkpt lat="45.94256" lon="4.75063">
        <ele>174</ele>
        <time>2018-09-09T09:58:15Z</time>
      </trkpt>
      <trkpt lat="45.94258" lon="4.75055">
        <ele>174</ele>
        <time>2018-09-09T09:58:16Z</time>
      </trkpt>
      <trkpt lat="45.94259" lon="4.75047">
        <ele>174</ele>
        <time>2018-09-09T09:58:17Z</time>
      </trkpt>
      <trkpt lat="45.94263" lon="4.7504">
        <ele>174</ele>
        <time>2018-09-09T09:58:18Z</time>
      </trkpt>
      <trkpt lat="45.94265" lon="4.75032">
        <ele>174</ele>
        <time>2018-09-09T09:58:19Z</time>
      </trkpt>
      <trkpt lat="45.94267" lon="4.75027">
        <ele>174</ele>
        <time>2018-09-09T09:58:20Z</time>
      </trkpt>
      <trkpt lat="45.94269" lon="4.75019">
        <ele>174</ele>
        <time>2018-09-09T09:58:21Z</time>
      </trkpt>
      <trkpt lat="45.94271" lon="4.75013">
        <ele>174</ele>
        <time>2018-09-09T09:58:22Z</time>
      </trkpt>
      <trkpt lat="45.94272" lon="4.75006">
        <ele>174</ele>
        <time>2018-09-09T09:58:23Z</time>
      </trkpt>
      <trkpt lat="45.94274" lon="4.74998">
        <ele>175</ele>
        <time>2018-09-09T09:58:24Z</time>
      </trkpt>
      <trkpt lat="45.94277" lon="4.74991">
        <ele>175</ele>
        <time>2018-09-09T09:58:25Z</time>
      </trkpt>
      <trkpt lat="45.94278" lon="4.74985">
        <ele>175</ele>
        <time>2018-09-09T09:58:26Z</time>
      </trkpt>
      <trkpt lat="45.94281" lon="4.74975">
        <ele>175</ele>
        <time>2018-09-09T09:58:27Z</time>
      </trkpt>
      <trkpt lat="45.94283" lon="4.74968">
        <ele>175</ele>
        <time>2018-09-09T09:58:28Z</time>
      </trkpt>
      <trkpt lat="45.94287" lon="4.74957">
        <ele>175</ele>
        <time>2018-09-09T09:58:30Z</time>
      </trkpt>
      <trkpt lat="45.94288" lon="4.74947">
        <ele>175</ele>
        <time>2018-09-09T09:58:31Z</time>
      </trkpt>
      <trkpt lat="45.9429" lon="4.74941">
        <ele>175</ele>
        <time>2018-09-09T09:58:32Z</time>
      </trkpt>
      <trkpt lat="45.94294" lon="4.74936">
        <ele>175</ele>
        <time>2018-09-09T09:58:33Z</time>
      </trkpt>
      <trkpt lat="45.94295" lon="4.74928">
        <ele>175</ele>
        <time>2018-09-09T09:58:34Z</time>
      </trkpt>
      <trkpt lat="45.94297" lon="4.74922">
        <ele>175</ele>
        <time>2018-09-09T09:58:35Z</time>
      </trkpt>
      <trkpt lat="45.943" lon="4.74916">
        <ele>174</ele>
        <time>2018-09-09T09:58:36Z</time>
      </trkpt>
      <trkpt lat="45.94303" lon="4.74909">
        <ele>174</ele>
        <time>2018-09-09T09:58:37Z</time>
      </trkpt>
      <trkpt lat="45.94306" lon="4.74902">
        <ele>174</ele>
        <time>2018-09-09T09:58:38Z</time>
      </trkpt>
      <trkpt lat="45.94307" lon="4.74896">
        <ele>174</ele>
        <time>2018-09-09T09:58:39Z</time>
      </trkpt>
      <trkpt lat="45.94309" lon="4.74886">
        <ele>174</ele>
        <time>2018-09-09T09:58:41Z</time>
      </trkpt>
      <trkpt lat="45.94311" lon="4.74881">
        <ele>174</ele>
        <time>2018-09-09T09:58:42Z</time>
      </trkpt>
      <trkpt lat="45.94314" lon="4.74873">
        <ele>174</ele>
        <time>2018-09-09T09:58:43Z</time>
      </trkpt>
      <trkpt lat="45.94316" lon="4.74868">
        <ele>174</ele>
        <time>2018-09-09T09:58:44Z</time>
      </trkpt>
      <trkpt lat="45.94318" lon="4.74861">
        <ele>174</ele>
        <time>2018-09-09T09:58:45Z</time>
      </trkpt>
      <trkpt lat="45.94318" lon="4.74854">
        <ele>174</ele>
        <time>2018-09-09T09:58:46Z</time>
      </trkpt>
      <trkpt lat="45.9432" lon="4.74846">
        <ele>174</ele>
        <time>2018-09-09T09:58:47Z</time>
      </trkpt>
      <trkpt lat="45.94322" lon="4.74841">
        <ele>174</ele>
        <time>2018-09-09T09:58:48Z</time>
      </trkpt>
      <trkpt lat="45.94324" lon="4.74835">
        <ele>174</ele>
        <time>2018-09-09T09:58:49Z</time>
      </trkpt>
      <trkpt lat="45.94325" lon="4.74829">
        <ele>173</ele>
        <time>2018-09-09T09:58:50Z</time>
      </trkpt>
      <trkpt lat="45.94327" lon="4.74822">
        <ele>173</ele>
        <time>2018-09-09T09:58:51Z</time>
      </trkpt>
      <trkpt lat="45.94329" lon="4.74815">
        <ele>173</ele>
        <time>2018-09-09T09:58:52Z</time>
      </trkpt>
      <trkpt lat="45.94331" lon="4.74809">
        <ele>172</ele>
        <time>2018-09-09T09:58:53Z</time>
      </trkpt>
      <trkpt lat="45.94332" lon="4.74802">
        <ele>172</ele>
        <time>2018-09-09T09:58:54Z</time>
      </trkpt>
      <trkpt lat="45.94335" lon="4.74793">
        <ele>174</ele>
        <time>2018-09-09T09:58:55Z</time>
      </trkpt>
      <trkpt lat="45.94337" lon="4.74785">
        <ele>173</ele>
        <time>2018-09-09T09:58:56Z</time>
      </trkpt>
      <trkpt lat="45.94338" lon="4.74777">
        <ele>173</ele>
        <time>2018-09-09T09:58:57Z</time>
      </trkpt>
      <trkpt lat="45.9434" lon="4.7477">
        <ele>173</ele>
        <time>2018-09-09T09:58:58Z</time>
      </trkpt>
      <trkpt lat="45.94341" lon="4.74762">
        <ele>172</ele>
        <time>2018-09-09T09:58:59Z</time>
      </trkpt>
      <trkpt lat="45.94341" lon="4.74753">
        <ele>172</ele>
        <time>2018-09-09T09:59:00Z</time>
      </trkpt>
      <trkpt lat="45.9434" lon="4.74744">
        <ele>171</ele>
        <time>2018-09-09T09:59:01Z</time>
      </trkpt>
      <trkpt lat="45.94341" lon="4.74736">
        <ele>171</ele>
        <time>2018-09-09T09:59:02Z</time>
      </trkpt>
      <trkpt lat="45.94342" lon="4.74728">
        <ele>171</ele>
        <time>2018-09-09T09:59:03Z</time>
      </trkpt>
      <trkpt lat="45.94343" lon="4.74721">
        <ele>171</ele>
        <time>2018-09-09T09:59:04Z</time>
      </trkpt>
      <trkpt lat="45.94345" lon="4.74715">
        <ele>171</ele>
        <time>2018-09-09T09:59:05Z</time>
      </trkpt>
      <trkpt lat="45.94345" lon="4.74708">
        <ele>172</ele>
        <time>2018-09-09T09:59:06Z</time>
      </trkpt>
      <trkpt lat="45.94346" lon="4.747">
        <ele>172</ele>
        <time>2018-09-09T09:59:07Z</time>
      </trkpt>
      <trkpt lat="45.94347" lon="4.74692">
        <ele>172</ele>
        <time>2018-09-09T09:59:08Z</time>
      </trkpt>
      <trkpt lat="45.94348" lon="4.74684">
        <ele>172</ele>
        <time>2018-09-09T09:59:09Z</time>
      </trkpt>
      <trkpt lat="45.94349" lon="4.74675">
        <ele>172</ele>
        <time>2018-09-09T09:59:10Z</time>
      </trkpt>
      <trkpt lat="45.9435" lon="4.74668">
        <ele>172</ele>
        <time>2018-09-09T09:59:11Z</time>
      </trkpt>
      <trkpt lat="45.94351" lon="4.74661">
        <ele>172</ele>
        <time>2018-09-09T09:59:12Z</time>
      </trkpt>
      <trkpt lat="45.94352" lon="4.74651">
        <ele>171</ele>
        <time>2018-09-09T09:59:13Z</time>
      </trkpt>
      <trkpt lat="45.94353" lon="4.74645">
        <ele>171</ele>
        <time>2018-09-09T09:59:14Z</time>
      </trkpt>
      <trkpt lat="45.94354" lon="4.74635">
        <ele>171</ele>
        <time>2018-09-09T09:59:15Z</time>
      </trkpt>
      <trkpt lat="45.94355" lon="4.74627">
        <ele>171</ele>
        <time>2018-09-09T09:59:16Z</time>
      </trkpt>
      <trkpt lat="45.94355" lon="4.74618">
        <ele>171</ele>
        <time>2018-09-09T09:59:17Z</time>
      </trkpt>
      <trkpt lat="45.94355" lon="4.74609">
        <ele>171</ele>
        <time>2018-09-09T09:59:18Z</time>
      </trkpt>
      <trkpt lat="45.94356" lon="4.74601">
        <ele>171</ele>
        <time>2018-09-09T09:59:19Z</time>
      </trkpt>
      <trkpt lat="45.94357" lon="4.74593">
        <ele>171</ele>
        <time>2018-09-09T09:59:20Z</time>
      </trkpt>
      <trkpt lat="45.94358" lon="4.74585">
        <ele>171</ele>
        <time>2018-09-09T09:59:21Z</time>
      </trkpt>
      <trkpt lat="45.94359" lon="4.74578">
        <ele>171</ele>
        <time>2018-09-09T09:59:22Z</time>
      </trkpt>
      <trkpt lat="45.94359" lon="4.7457">
        <ele>171</ele>
        <time>2018-09-09T09:59:23Z</time>
      </trkpt>
      <trkpt lat="45.94359" lon="4.74563">
        <ele>171</ele>
        <time>2018-09-09T09:59:24Z</time>
      </trkpt>
      <trkpt lat="45.9436" lon="4.74557">
        <ele>171</ele>
        <time>2018-09-09T09:59:25Z</time>
      </trkpt>
      <trkpt lat="45.94361" lon="4.74549">
        <ele>171</ele>
        <time>2018-09-09T09:59:26Z</time>
      </trkpt>
      <trkpt lat="45.9436" lon="4.74542">
        <ele>171</ele>
        <time>2018-09-09T09:59:27Z</time>
      </trkpt>
      <trkpt lat="45.94361" lon="4.74533">
        <ele>171</ele>
        <time>2018-09-09T09:59:28Z</time>
      </trkpt>
      <trkpt lat="45.94361" lon="4.74524">
        <ele>171</ele>
        <time>2018-09-09T09:59:29Z</time>
      </trkpt>
      <trkpt lat="45.94362" lon="4.74516">
        <ele>171</ele>
        <time>2018-09-09T09:59:30Z</time>
      </trkpt>
      <trkpt lat="45.94363" lon="4.74507">
        <ele>171</ele>
        <time>2018-09-09T09:59:31Z</time>
      </trkpt>
      <trkpt lat="45.94365" lon="4.74497">
        <ele>170</ele>
        <time>2018-09-09T09:59:32Z</time>
      </trkpt>
      <trkpt lat="45.94365" lon="4.74489">
        <ele>170</ele>
        <time>2018-09-09T09:59:33Z</time>
      </trkpt>
      <trkpt lat="45.94364" lon="4.74479">
        <ele>171</ele>
        <time>2018-09-09T09:59:34Z</time>
      </trkpt>
      <trkpt lat="45.94365" lon="4.7447">
        <ele>171</ele>
        <time>2018-09-09T09:59:35Z</time>
      </trkpt>
      <trkpt lat="45.94366" lon="4.74461">
        <ele>171</ele>
        <time>2018-09-09T09:59:36Z</time>
      </trkpt>
      <trkpt lat="45.94367" lon="4.74452">
        <ele>171</ele>
        <time>2018-09-09T09:59:37Z</time>
      </trkpt>
      <trkpt lat="45.94368" lon="4.74443">
        <ele>171</ele>
        <time>2018-09-09T09:59:38Z</time>
      </trkpt>
      <trkpt lat="45.94369" lon="4.74433">
        <ele>171</ele>
        <time>2018-09-09T09:59:39Z</time>
      </trkpt>
      <trkpt lat="45.94371" lon="4.74425">
        <ele>171</ele>
        <time>2018-09-09T09:59:40Z</time>
      </trkpt>
      <trkpt lat="45.94372" lon="4.74418">
        <ele>171</ele>
        <time>2018-09-09T09:59:41Z</time>
      </trkpt>
      <trkpt lat="45.94373" lon="4.74409">
        <ele>170</ele>
        <time>2018-09-09T09:59:42Z</time>
      </trkpt>
      <trkpt lat="45.94374" lon="4.74401">
        <ele>170</ele>
        <time>2018-09-09T09:59:43Z</time>
      </trkpt>
      <trkpt lat="45.94373" lon="4.74392">
        <ele>170</ele>
        <time>2018-09-09T09:59:44Z</time>
      </trkpt>
      <trkpt lat="45.94374" lon="4.74383">
        <ele>170</ele>
        <time>2018-09-09T09:59:45Z</time>
      </trkpt>
      <trkpt lat="45.94376" lon="4.74373">
        <ele>171</ele>
        <time>2018-09-09T09:59:46Z</time>
      </trkpt>
      <trkpt lat="45.94377" lon="4.74364">
        <ele>171</ele>
        <time>2018-09-09T09:59:47Z</time>
      </trkpt>
      <trkpt lat="45.94378" lon="4.74355">
        <ele>171</ele>
        <time>2018-09-09T09:59:48Z</time>
      </trkpt>
      <trkpt lat="45.94379" lon="4.74346">
        <ele>171</ele>
        <time>2018-09-09T09:59:49Z</time>
      </trkpt>
      <trkpt lat="45.94382" lon="4.74337">
        <ele>171</ele>
        <time>2018-09-09T09:59:50Z</time>
      </trkpt>
      <trkpt lat="45.94382" lon="4.74328">
        <ele>170</ele>
        <time>2018-09-09T09:59:51Z</time>
      </trkpt>
      <trkpt lat="45.94383" lon="4.7432">
        <ele>170</ele>
        <time>2018-09-09T09:59:52Z</time>
      </trkpt>
      <trkpt lat="45.94385" lon="4.74312">
        <ele>170</ele>
        <time>2018-09-09T09:59:53Z</time>
      </trkpt>
      <trkpt lat="45.94386" lon="4.74304">
        <ele>170</ele>
        <time>2018-09-09T09:59:54Z</time>
      </trkpt>
      <trkpt lat="45.94387" lon="4.74297">
        <ele>170</ele>
        <time>2018-09-09T09:59:55Z</time>
      </trkpt>
      <trkpt lat="45.94388" lon="4.74289">
        <ele>170</ele>
        <time>2018-09-09T09:59:56Z</time>
      </trkpt>
      <trkpt lat="45.94392" lon="4.74279">
        <ele>170</ele>
        <time>2018-09-09T09:59:58Z</time>
      </trkpt>
      <trkpt lat="45.94393" lon="4.74278">
        <ele>170</ele>
        <time>2018-09-09T09:59:59Z</time>
      </trkpt>
      <trkpt lat="45.94394" lon="4.74269">
        <ele>170</ele>
        <time>2018-09-09T10:00:00Z</time>
      </trkpt>
      <trkpt lat="45.94396" lon="4.74261">
        <ele>170</ele>
        <time>2018-09-09T10:00:01Z</time>
      </trkpt>
      <trkpt lat="45.94397" lon="4.74255">
        <ele>171</ele>
        <time>2018-09-09T10:00:02Z</time>
      </trkpt>
      <trkpt lat="45.944" lon="4.74244">
        <ele>171</ele>
        <time>2018-09-09T10:00:03Z</time>
      </trkpt>
      <trkpt lat="45.94401" lon="4.74238">
        <ele>171</ele>
        <time>2018-09-09T10:00:04Z</time>
      </trkpt>
      <trkpt lat="45.94402" lon="4.74232">
        <ele>171</ele>
        <time>2018-09-09T10:00:05Z</time>
      </trkpt>
      <trkpt lat="45.94401" lon="4.74224">
        <ele>171</ele>
        <time>2018-09-09T10:00:06Z</time>
      </trkpt>
      <trkpt lat="45.94404" lon="4.74216">
        <ele>171</ele>
        <time>2018-09-09T10:00:07Z</time>
      </trkpt>
      <trkpt lat="45.94409" lon="4.74213">
        <ele>171</ele>
        <time>2018-09-09T10:00:08Z</time>
      </trkpt>
      <trkpt lat="45.94405" lon="4.742">
        <ele>171</ele>
        <time>2018-09-09T10:00:09Z</time>
      </trkpt>
      <trkpt lat="45.94405" lon="4.74192">
        <ele>172</ele>
        <time>2018-09-09T10:00:10Z</time>
      </trkpt>
      <trkpt lat="45.94405" lon="4.74183">
        <ele>172</ele>
        <time>2018-09-09T10:00:11Z</time>
      </trkpt>
      <trkpt lat="45.94406" lon="4.74175">
        <ele>173</ele>
        <time>2018-09-09T10:00:12Z</time>
      </trkpt>
      <trkpt lat="45.94406" lon="4.74166">
        <ele>174</ele>
        <time>2018-09-09T10:00:13Z</time>
      </trkpt>
      <trkpt lat="45.94407" lon="4.74158">
        <ele>174</ele>
        <time>2018-09-09T10:00:14Z</time>
      </trkpt>
      <trkpt lat="45.94408" lon="4.74151">
        <ele>174</ele>
        <time>2018-09-09T10:00:15Z</time>
      </trkpt>
      <trkpt lat="45.94409" lon="4.74144">
        <ele>174</ele>
        <time>2018-09-09T10:00:16Z</time>
      </trkpt>
      <trkpt lat="45.94411" lon="4.74137">
        <ele>174</ele>
        <time>2018-09-09T10:00:17Z</time>
      </trkpt>
      <trkpt lat="45.94413" lon="4.74125">
        <ele>174</ele>
        <time>2018-09-09T10:00:19Z</time>
      </trkpt>
      <trkpt lat="45.94413" lon="4.7412">
        <ele>174</ele>
        <time>2018-09-09T10:00:20Z</time>
      </trkpt>
      <trkpt lat="45.94414" lon="4.74108">
        <ele>175</ele>
        <time>2018-09-09T10:00:22Z</time>
      </trkpt>
      <trkpt lat="45.94417" lon="4.74103">
        <ele>177</ele>
        <time>2018-09-09T10:00:23Z</time>
      </trkpt>
      <trkpt lat="45.94419" lon="4.74092">
        <ele>177</ele>
        <time>2018-09-09T10:00:25Z</time>
      </trkpt>
      <trkpt lat="45.94419" lon="4.74086">
        <ele>177</ele>
        <time>2018-09-09T10:00:26Z</time>
      </trkpt>
      <trkpt lat="45.94421" lon="4.74074">
        <ele>178</ele>
        <time>2018-09-09T10:00:28Z</time>
      </trkpt>
      <trkpt lat="45.94422" lon="4.74067">
        <ele>178</ele>
        <time>2018-09-09T10:00:29Z</time>
      </trkpt>
      <trkpt lat="45.94423" lon="4.74057">
        <ele>179</ele>
        <time>2018-09-09T10:00:31Z</time>
      </trkpt>
      <trkpt lat="45.94425" lon="4.74051">
        <ele>179</ele>
        <time>2018-09-09T10:00:32Z</time>
      </trkpt>
      <trkpt lat="45.94428" lon="4.74041">
        <ele>179</ele>
        <time>2018-09-09T10:00:34Z</time>
      </trkpt>
      <trkpt lat="45.94429" lon="4.74036">
        <ele>179</ele>
        <time>2018-09-09T10:00:35Z</time>
      </trkpt>
      <trkpt lat="45.94431" lon="4.74025">
        <ele>179</ele>
        <time>2018-09-09T10:00:37Z</time>
      </trkpt>
      <trkpt lat="45.94432" lon="4.74022">
        <ele>179</ele>
        <time>2018-09-09T10:00:38Z</time>
      </trkpt>
      <trkpt lat="45.94433" lon="4.74015">
        <ele>179</ele>
        <time>2018-09-09T10:00:39Z</time>
      </trkpt>
      <trkpt lat="45.94434" lon="4.7401">
        <ele>179</ele>
        <time>2018-09-09T10:00:40Z</time>
      </trkpt>
      <trkpt lat="45.94436" lon="4.73998">
        <ele>180</ele>
        <time>2018-09-09T10:00:42Z</time>
      </trkpt>
      <trkpt lat="45.94437" lon="4.73993">
        <ele>180</ele>
        <time>2018-09-09T10:00:43Z</time>
      </trkpt>
      <trkpt lat="45.94439" lon="4.73983">
        <ele>180</ele>
        <time>2018-09-09T10:00:46Z</time>
      </trkpt>
      <trkpt lat="45.9444" lon="4.7398">
        <ele>180</ele>
        <time>2018-09-09T10:00:47Z</time>
      </trkpt>
      <trkpt lat="45.94443" lon="4.73969">
        <ele>181</ele>
        <time>2018-09-09T10:00:48Z</time>
      </trkpt>
      <trkpt lat="45.94444" lon="4.73963">
        <ele>181</ele>
        <time>2018-09-09T10:00:49Z</time>
      </trkpt>
      <trkpt lat="45.94445" lon="4.73952">
        <ele>181</ele>
        <time>2018-09-09T10:00:51Z</time>
      </trkpt>
      <trkpt lat="45.94446" lon="4.73949">
        <ele>181</ele>
        <time>2018-09-09T10:00:52Z</time>
      </trkpt>
      <trkpt lat="45.94446" lon="4.73946">
        <ele>181</ele>
        <time>2018-09-09T10:00:53Z</time>
      </trkpt>
      <trkpt lat="45.94448" lon="4.73936">
        <ele>181</ele>
        <time>2018-09-09T10:00:54Z</time>
      </trkpt>
      <trkpt lat="45.94451" lon="4.73927">
        <ele>181</ele>
        <time>2018-09-09T10:00:57Z</time>
      </trkpt>
      <trkpt lat="45.94451" lon="4.73924">
        <ele>181</ele>
        <time>2018-09-09T10:00:58Z</time>
      </trkpt>
      <trkpt lat="45.94453" lon="4.73912">
        <ele>183</ele>
        <time>2018-09-09T10:01:01Z</time>
      </trkpt>
      <trkpt lat="45.94454" lon="4.73908">
        <ele>183</ele>
        <time>2018-09-09T10:01:02Z</time>
      </trkpt>
      <trkpt lat="45.94456" lon="4.739">
        <ele>183</ele>
        <time>2018-09-09T10:01:04Z</time>
      </trkpt>
      <trkpt lat="45.94456" lon="4.73896">
        <ele>183</ele>
        <time>2018-09-09T10:01:05Z</time>
      </trkpt>
      <trkpt lat="45.94459" lon="4.73883">
        <ele>183</ele>
        <time>2018-09-09T10:01:08Z</time>
      </trkpt>
      <trkpt lat="45.9446" lon="4.73879">
        <ele>183</ele>
        <time>2018-09-09T10:01:09Z</time>
      </trkpt>
      <trkpt lat="45.94461" lon="4.73875">
        <ele>184</ele>
        <time>2018-09-09T10:01:10Z</time>
      </trkpt>
      <trkpt lat="45.94463" lon="4.73861">
        <ele>184</ele>
        <time>2018-09-09T10:01:11Z</time>
      </trkpt>
      <trkpt lat="45.94464" lon="4.73852">
        <ele>184</ele>
        <time>2018-09-09T10:01:14Z</time>
      </trkpt>
      <trkpt lat="45.94466" lon="4.73842">
        <ele>184</ele>
        <time>2018-09-09T10:01:15Z</time>
      </trkpt>
      <trkpt lat="45.94468" lon="4.73832">
        <ele>185</ele>
        <time>2018-09-09T10:01:17Z</time>
      </trkpt>
      <trkpt lat="45.94468" lon="4.73827">
        <ele>185</ele>
        <time>2018-09-09T10:01:18Z</time>
      </trkpt>
      <trkpt lat="45.94467" lon="4.73816">
        <ele>185</ele>
        <time>2018-09-09T10:01:20Z</time>
      </trkpt>
      <trkpt lat="45.94467" lon="4.73811">
        <ele>185</ele>
        <time>2018-09-09T10:01:21Z</time>
      </trkpt>
      <trkpt lat="45.94467" lon="4.738">
        <ele>185</ele>
        <time>2018-09-09T10:01:23Z</time>
      </trkpt>
      <trkpt lat="45.94468" lon="4.73798">
        <ele>185</ele>
        <time>2018-09-09T10:01:24Z</time>
      </trkpt>
      <trkpt lat="45.9447" lon="4.73788">
        <ele>186</ele>
        <time>2018-09-09T10:01:27Z</time>
      </trkpt>
      <trkpt lat="45.94472" lon="4.73785">
        <ele>186</ele>
        <time>2018-09-09T10:01:28Z</time>
      </trkpt>
      <trkpt lat="45.94477" lon="4.73781">
        <ele>186</ele>
        <time>2018-09-09T10:01:30Z</time>
      </trkpt>
      <trkpt lat="45.94485" lon="4.73775">
        <ele>186</ele>
        <time>2018-09-09T10:01:31Z</time>
      </trkpt>
      <trkpt lat="45.94489" lon="4.73764">
        <ele>186</ele>
        <time>2018-09-09T10:01:33Z</time>
      </trkpt>
      <trkpt lat="45.94489" lon="4.73758">
        <ele>186</ele>
        <time>2018-09-09T10:01:34Z</time>
      </trkpt>
      <trkpt lat="45.94489" lon="4.73746">
        <ele>186</ele>
        <time>2018-09-09T10:01:36Z</time>
      </trkpt>
      <trkpt lat="45.9449" lon="4.73741">
        <ele>186</ele>
        <time>2018-09-09T10:01:37Z</time>
      </trkpt>
      <trkpt lat="45.94492" lon="4.73729">
        <ele>186</ele>
        <time>2018-09-09T10:01:39Z</time>
      </trkpt>
      <trkpt lat="45.94493" lon="4.73721">
        <ele>186</ele>
        <time>2018-09-09T10:01:40Z</time>
      </trkpt>
      <trkpt lat="45.94494" lon="4.73712">
        <ele>186</ele>
        <time>2018-09-09T10:01:41Z</time>
      </trkpt>
      <trkpt lat="45.94495" lon="4.73704">
        <ele>186</ele>
        <time>2018-09-09T10:01:42Z</time>
      </trkpt>
      <trkpt lat="45.94496" lon="4.73697">
        <ele>186</ele>
        <time>2018-09-09T10:01:43Z</time>
      </trkpt>
      <trkpt lat="45.94497" lon="4.73689">
        <ele>186</ele>
        <time>2018-09-09T10:01:44Z</time>
      </trkpt>
      <trkpt lat="45.94497" lon="4.73682">
        <ele>185</ele>
        <time>2018-09-09T10:01:45Z</time>
      </trkpt>
      <trkpt lat="45.94498" lon="4.73674">
        <ele>185</ele>
        <time>2018-09-09T10:01:46Z</time>
      </trkpt>
      <trkpt lat="45.94499" lon="4.73662">
        <ele>185</ele>
        <time>2018-09-09T10:01:48Z</time>
      </trkpt>
      <trkpt lat="45.94499" lon="4.73653">
        <ele>185</ele>
        <time>2018-09-09T10:01:49Z</time>
      </trkpt>
      <trkpt lat="45.945" lon="4.73645">
        <ele>186</ele>
        <time>2018-09-09T10:01:50Z</time>
      </trkpt>
      <trkpt lat="45.945" lon="4.73637">
        <ele>184</ele>
        <time>2018-09-09T10:01:51Z</time>
      </trkpt>
      <trkpt lat="45.94501" lon="4.73631">
        <ele>184</ele>
        <time>2018-09-09T10:01:52Z</time>
      </trkpt>
      <trkpt lat="45.94502" lon="4.73623">
        <ele>184</ele>
        <time>2018-09-09T10:01:53Z</time>
      </trkpt>
      <trkpt lat="45.94503" lon="4.73615">
        <ele>184</ele>
        <time>2018-09-09T10:01:54Z</time>
      </trkpt>
      <trkpt lat="45.94504" lon="4.73607">
        <ele>184</ele>
        <time>2018-09-09T10:01:55Z</time>
      </trkpt>
      <trkpt lat="45.94505" lon="4.73598">
        <ele>184</ele>
        <time>2018-09-09T10:01:56Z</time>
      </trkpt>
      <trkpt lat="45.94504" lon="4.7359">
        <ele>185</ele>
        <time>2018-09-09T10:01:57Z</time>
      </trkpt>
      <trkpt lat="45.94504" lon="4.73581">
        <ele>185</ele>
        <time>2018-09-09T10:01:58Z</time>
      </trkpt>
      <trkpt lat="45.94505" lon="4.73575">
        <ele>184</ele>
        <time>2018-09-09T10:01:59Z</time>
      </trkpt>
      <trkpt lat="45.94506" lon="4.73567">
        <ele>184</ele>
        <time>2018-09-09T10:02:00Z</time>
      </trkpt>
      <trkpt lat="45.94507" lon="4.73559">
        <ele>184</ele>
        <time>2018-09-09T10:02:01Z</time>
      </trkpt>
      <trkpt lat="45.94508" lon="4.73552">
        <ele>183</ele>
        <time>2018-09-09T10:02:02Z</time>
      </trkpt>
      <trkpt lat="45.9451" lon="4.73545">
        <ele>183</ele>
        <time>2018-09-09T10:02:03Z</time>
      </trkpt>
      <trkpt lat="45.94509" lon="4.73536">
        <ele>183</ele>
        <time>2018-09-09T10:02:04Z</time>
      </trkpt>
      <trkpt lat="45.94509" lon="4.73527">
        <ele>183</ele>
        <time>2018-09-09T10:02:05Z</time>
      </trkpt>
      <trkpt lat="45.94509" lon="4.73519">
        <ele>183</ele>
        <time>2018-09-09T10:02:06Z</time>
      </trkpt>
      <trkpt lat="45.94512" lon="4.73512">
        <ele>183</ele>
        <time>2018-09-09T10:02:07Z</time>
      </trkpt>
      <trkpt lat="45.9451" lon="4.73501">
        <ele>183</ele>
        <time>2018-09-09T10:02:08Z</time>
      </trkpt>
      <trkpt lat="45.9451" lon="4.73492">
        <ele>182</ele>
        <time>2018-09-09T10:02:09Z</time>
      </trkpt>
      <trkpt lat="45.94508" lon="4.73481">
        <ele>182</ele>
        <time>2018-09-09T10:02:10Z</time>
      </trkpt>
      <trkpt lat="45.94509" lon="4.73473">
        <ele>182</ele>
        <time>2018-09-09T10:02:11Z</time>
      </trkpt>
      <trkpt lat="45.94509" lon="4.73465">
        <ele>181</ele>
        <time>2018-09-09T10:02:12Z</time>
      </trkpt>
      <trkpt lat="45.94509" lon="4.73455">
        <ele>181</ele>
        <time>2018-09-09T10:02:13Z</time>
      </trkpt>
      <trkpt lat="45.9451" lon="4.73447">
        <ele>181</ele>
        <time>2018-09-09T10:02:14Z</time>
      </trkpt>
      <trkpt lat="45.94511" lon="4.73438">
        <ele>181</ele>
        <time>2018-09-09T10:02:15Z</time>
      </trkpt>
      <trkpt lat="45.9451" lon="4.73429">
        <ele>180</ele>
        <time>2018-09-09T10:02:16Z</time>
      </trkpt>
      <trkpt lat="45.94508" lon="4.73417">
        <ele>180</ele>
        <time>2018-09-09T10:02:17Z</time>
      </trkpt>
      <trkpt lat="45.94508" lon="4.73409">
        <ele>179</ele>
        <time>2018-09-09T10:02:18Z</time>
      </trkpt>
      <trkpt lat="45.94506" lon="4.73398">
        <ele>179</ele>
        <time>2018-09-09T10:02:19Z</time>
      </trkpt>
      <trkpt lat="45.94506" lon="4.73388">
        <ele>179</ele>
        <time>2018-09-09T10:02:20Z</time>
      </trkpt>
      <trkpt lat="45.94505" lon="4.73378">
        <ele>178</ele>
        <time>2018-09-09T10:02:21Z</time>
      </trkpt>
      <trkpt lat="45.94503" lon="4.73368">
        <ele>178</ele>
        <time>2018-09-09T10:02:22Z</time>
      </trkpt>
      <trkpt lat="45.94504" lon="4.73358">
        <ele>178</ele>
        <time>2018-09-09T10:02:23Z</time>
      </trkpt>
      <trkpt lat="45.94501" lon="4.73347">
        <ele>178</ele>
        <time>2018-09-09T10:02:24Z</time>
      </trkpt>
      <trkpt lat="45.94501" lon="4.73336">
        <ele>177</ele>
        <time>2018-09-09T10:02:25Z</time>
      </trkpt>
      <trkpt lat="45.94499" lon="4.73326">
        <ele>177</ele>
        <time>2018-09-09T10:02:26Z</time>
      </trkpt>
      <trkpt lat="45.94498" lon="4.73318">
        <ele>177</ele>
        <time>2018-09-09T10:02:27Z</time>
      </trkpt>
      <trkpt lat="45.94496" lon="4.73308">
        <ele>177</ele>
        <time>2018-09-09T10:02:28Z</time>
      </trkpt>
      <trkpt lat="45.94493" lon="4.733">
        <ele>177</ele>
        <time>2018-09-09T10:02:29Z</time>
      </trkpt>
      <trkpt lat="45.94493" lon="4.73293">
        <ele>177</ele>
        <time>2018-09-09T10:02:30Z</time>
      </trkpt>
      <trkpt lat="45.94492" lon="4.73287">
        <ele>177</ele>
        <time>2018-09-09T10:02:31Z</time>
      </trkpt>
      <trkpt lat="45.9449" lon="4.73275">
        <ele>177</ele>
        <time>2018-09-09T10:02:33Z</time>
      </trkpt>
      <trkpt lat="45.9449" lon="4.73268">
        <ele>177</ele>
        <time>2018-09-09T10:02:34Z</time>
      </trkpt>
      <trkpt lat="45.94489" lon="4.73256">
        <ele>176</ele>
        <time>2018-09-09T10:02:37Z</time>
      </trkpt>
      <trkpt lat="45.94488" lon="4.73253">
        <ele>176</ele>
        <time>2018-09-09T10:02:38Z</time>
      </trkpt>
      <trkpt lat="45.94488" lon="4.73242">
        <ele>175</ele>
        <time>2018-09-09T10:02:42Z</time>
      </trkpt>
      <trkpt lat="45.94487" lon="4.73239">
        <ele>175</ele>
        <time>2018-09-09T10:02:43Z</time>
      </trkpt>
      <trkpt lat="45.94485" lon="4.73229">
        <ele>175</ele>
        <time>2018-09-09T10:02:46Z</time>
      </trkpt>
      <trkpt lat="45.94484" lon="4.73224">
        <ele>175</ele>
        <time>2018-09-09T10:02:47Z</time>
      </trkpt>
      <trkpt lat="45.94483" lon="4.73214">
        <ele>175</ele>
        <time>2018-09-09T10:02:50Z</time>
      </trkpt>
      <trkpt lat="45.94483" lon="4.73211">
        <ele>175</ele>
        <time>2018-09-09T10:02:51Z</time>
      </trkpt>
      <trkpt lat="45.94482" lon="4.73201">
        <ele>175</ele>
        <time>2018-09-09T10:02:55Z</time>
      </trkpt>
      <trkpt lat="45.94482" lon="4.73198">
        <ele>174</ele>
        <time>2018-09-09T10:02:56Z</time>
      </trkpt>
      <trkpt lat="45.9448" lon="4.73183">
        <ele>174</ele>
        <time>2018-09-09T10:02:57Z</time>
      </trkpt>
      <trkpt lat="45.94479" lon="4.73177">
        <ele>174</ele>
        <time>2018-09-09T10:02:58Z</time>
      </trkpt>
      <trkpt lat="45.94477" lon="4.73169">
        <ele>174</ele>
        <time>2018-09-09T10:02:59Z</time>
      </trkpt>
      <trkpt lat="45.94476" lon="4.73159">
        <ele>173</ele>
        <time>2018-09-09T10:03:01Z</time>
      </trkpt>
      <trkpt lat="45.94476" lon="4.73153">
        <ele>173</ele>
        <time>2018-09-09T10:03:02Z</time>
      </trkpt>
      <trkpt lat="45.94474" lon="4.7314">
        <ele>172</ele>
        <time>2018-09-09T10:03:04Z</time>
      </trkpt>
      <trkpt lat="45.94473" lon="4.73134">
        <ele>172</ele>
        <time>2018-09-09T10:03:05Z</time>
      </trkpt>
      <trkpt lat="45.94473" lon="4.73123">
        <ele>172</ele>
        <time>2018-09-09T10:03:07Z</time>
      </trkpt>
      <trkpt lat="45.94473" lon="4.73118">
        <ele>172</ele>
        <time>2018-09-09T10:03:08Z</time>
      </trkpt>
      <trkpt lat="45.94471" lon="4.73112">
        <ele>172</ele>
        <time>2018-09-09T10:03:09Z</time>
      </trkpt>
      <trkpt lat="45.94471" lon="4.73105">
        <ele>172</ele>
        <time>2018-09-09T10:03:10Z</time>
      </trkpt>
      <trkpt lat="45.9447" lon="4.73098">
        <ele>172</ele>
        <time>2018-09-09T10:03:11Z</time>
      </trkpt>
      <trkpt lat="45.9447" lon="4.73091">
        <ele>172</ele>
        <time>2018-09-09T10:03:12Z</time>
      </trkpt>
      <trkpt lat="45.94468" lon="4.73084">
        <ele>171</ele>
        <time>2018-09-09T10:03:13Z</time>
      </trkpt>
      <trkpt lat="45.94467" lon="4.73078">
        <ele>170</ele>
        <time>2018-09-09T10:03:14Z</time>
      </trkpt>
      <trkpt lat="45.94464" lon="4.73072">
        <ele>170</ele>
        <time>2018-09-09T10:03:15Z</time>
      </trkpt>
      <trkpt lat="45.94464" lon="4.73065">
        <ele>170</ele>
        <time>2018-09-09T10:03:16Z</time>
      </trkpt>
      <trkpt lat="45.94463" lon="4.73059">
        <ele>170</ele>
        <time>2018-09-09T10:03:17Z</time>
      </trkpt>
      <trkpt lat="45.9446" lon="4.7305">
        <ele>170</ele>
        <time>2018-09-09T10:03:18Z</time>
      </trkpt>
      <trkpt lat="45.9446" lon="4.73044">
        <ele>170</ele>
        <time>2018-09-09T10:03:19Z</time>
      </trkpt>
      <trkpt lat="45.94458" lon="4.73036">
        <ele>169</ele>
        <time>2018-09-09T10:03:20Z</time>
      </trkpt>
      <trkpt lat="45.94456" lon="4.73028">
        <ele>169</ele>
        <time>2018-09-09T10:03:21Z</time>
      </trkpt>
      <trkpt lat="45.94454" lon="4.73021">
        <ele>169</ele>
        <time>2018-09-09T10:03:22Z</time>
      </trkpt>
      <trkpt lat="45.94453" lon="4.73013">
        <ele>169</ele>
        <time>2018-09-09T10:03:23Z</time>
      </trkpt>
      <trkpt lat="45.94452" lon="4.73006">
        <ele>169</ele>
        <time>2018-09-09T10:03:24Z</time>
      </trkpt>
      <trkpt lat="45.94451" lon="4.72998">
        <ele>167</ele>
        <time>2018-09-09T10:03:25Z</time>
      </trkpt>
      <trkpt lat="45.94451" lon="4.72991">
        <ele>167</ele>
        <time>2018-09-09T10:03:26Z</time>
      </trkpt>
      <trkpt lat="45.94452" lon="4.72984">
        <ele>167</ele>
        <time>2018-09-09T10:03:27Z</time>
      </trkpt>
      <trkpt lat="45.94451" lon="4.72977">
        <ele>167</ele>
        <time>2018-09-09T10:03:28Z</time>
      </trkpt>
      <trkpt lat="45.94451" lon="4.72969">
        <ele>167</ele>
        <time>2018-09-09T10:03:29Z</time>
      </trkpt>
      <trkpt lat="45.94449" lon="4.72962">
        <ele>167</ele>
        <time>2018-09-09T10:03:30Z</time>
      </trkpt>
      <trkpt lat="45.94448" lon="4.72954">
        <ele>167</ele>
        <time>2018-09-09T10:03:31Z</time>
      </trkpt>
      <trkpt lat="45.94448" lon="4.72948">
        <ele>167</ele>
        <time>2018-09-09T10:03:32Z</time>
      </trkpt>
      <trkpt lat="45.94445" lon="4.72939">
        <ele>167</ele>
        <time>2018-09-09T10:03:33Z</time>
      </trkpt>
      <trkpt lat="45.94444" lon="4.72932">
        <ele>167</ele>
        <time>2018-09-09T10:03:34Z</time>
      </trkpt>
      <trkpt lat="45.94445" lon="4.72922">
        <ele>167</ele>
        <time>2018-09-09T10:03:36Z</time>
      </trkpt>
      <trkpt lat="45.94445" lon="4.72914">
        <ele>166</ele>
        <time>2018-09-09T10:03:37Z</time>
      </trkpt>
      <trkpt lat="45.94445" lon="4.72906">
        <ele>166</ele>
        <time>2018-09-09T10:03:38Z</time>
      </trkpt>
      <trkpt lat="45.94443" lon="4.72898">
        <ele>166</ele>
        <time>2018-09-09T10:03:39Z</time>
      </trkpt>
      <trkpt lat="45.94442" lon="4.7289">
        <ele>166</ele>
        <time>2018-09-09T10:03:40Z</time>
      </trkpt>
      <trkpt lat="45.9444" lon="4.72882">
        <ele>166</ele>
        <time>2018-09-09T10:03:41Z</time>
      </trkpt>
      <trkpt lat="45.9444" lon="4.72876">
        <ele>166</ele>
        <time>2018-09-09T10:03:42Z</time>
      </trkpt>
      <trkpt lat="45.94439" lon="4.72868">
        <ele>166</ele>
        <time>2018-09-09T10:03:43Z</time>
      </trkpt>
      <trkpt lat="45.94437" lon="4.7286">
        <ele>166</ele>
        <time>2018-09-09T10:03:44Z</time>
      </trkpt>
      <trkpt lat="45.94437" lon="4.72852">
        <ele>166</ele>
        <time>2018-09-09T10:03:45Z</time>
      </trkpt>
      <trkpt lat="45.94435" lon="4.72843">
        <ele>166</ele>
        <time>2018-09-09T10:03:46Z</time>
      </trkpt>
      <trkpt lat="45.94435" lon="4.72835">
        <ele>166</ele>
        <time>2018-09-09T10:03:47Z</time>
      </trkpt>
      <trkpt lat="45.94432" lon="4.72825">
        <ele>167</ele>
        <time>2018-09-09T10:03:48Z</time>
      </trkpt>
      <trkpt lat="45.94431" lon="4.72815">
        <ele>167</ele>
        <time>2018-09-09T10:03:49Z</time>
      </trkpt>
      <trkpt lat="45.94429" lon="4.72807">
        <ele>167</ele>
        <time>2018-09-09T10:03:50Z</time>
      </trkpt>
      <trkpt lat="45.94428" lon="4.72797">
        <ele>167</ele>
        <time>2018-09-09T10:03:51Z</time>
      </trkpt>
      <trkpt lat="45.94427" lon="4.72788">
        <ele>168</ele>
        <time>2018-09-09T10:03:52Z</time>
      </trkpt>
      <trkpt lat="45.94425" lon="4.72778">
        <ele>168</ele>
        <time>2018-09-09T10:03:53Z</time>
      </trkpt>
      <trkpt lat="45.94424" lon="4.72767">
        <ele>169</ele>
        <time>2018-09-09T10:03:54Z</time>
      </trkpt>
      <trkpt lat="45.94423" lon="4.72757">
        <ele>170</ele>
        <time>2018-09-09T10:03:55Z</time>
      </trkpt>
      <trkpt lat="45.94422" lon="4.72747">
        <ele>171</ele>
        <time>2018-09-09T10:03:56Z</time>
      </trkpt>
      <trkpt lat="45.94421" lon="4.72737">
        <ele>171</ele>
        <time>2018-09-09T10:03:57Z</time>
      </trkpt>
      <trkpt lat="45.9442" lon="4.72727">
        <ele>171</ele>
        <time>2018-09-09T10:03:58Z</time>
      </trkpt>
      <trkpt lat="45.94419" lon="4.72718">
        <ele>171</ele>
        <time>2018-09-09T10:03:59Z</time>
      </trkpt>
      <trkpt lat="45.94418" lon="4.72708">
        <ele>172</ele>
        <time>2018-09-09T10:04:00Z</time>
      </trkpt>
      <trkpt lat="45.94418" lon="4.72699">
        <ele>172</ele>
        <time>2018-09-09T10:04:01Z</time>
      </trkpt>
      <trkpt lat="45.94416" lon="4.7269">
        <ele>173</ele>
        <time>2018-09-09T10:04:02Z</time>
      </trkpt>
      <trkpt lat="45.94415" lon="4.7268">
        <ele>173</ele>
        <time>2018-09-09T10:04:03Z</time>
      </trkpt>
      <trkpt lat="45.94414" lon="4.7267">
        <ele>174</ele>
        <time>2018-09-09T10:04:04Z</time>
      </trkpt>
      <trkpt lat="45.94413" lon="4.7266">
        <ele>174</ele>
        <time>2018-09-09T10:04:05Z</time>
      </trkpt>
      <trkpt lat="45.94411" lon="4.72651">
        <ele>174</ele>
        <time>2018-09-09T10:04:06Z</time>
      </trkpt>
      <trkpt lat="45.9441" lon="4.72641">
        <ele>174</ele>
        <time>2018-09-09T10:04:07Z</time>
      </trkpt>
      <trkpt lat="45.94409" lon="4.72633">
        <ele>174</ele>
        <time>2018-09-09T10:04:08Z</time>
      </trkpt>
      <trkpt lat="45.94407" lon="4.72623">
        <ele>173</ele>
        <time>2018-09-09T10:04:09Z</time>
      </trkpt>
      <trkpt lat="45.94407" lon="4.72615">
        <ele>173</ele>
        <time>2018-09-09T10:04:10Z</time>
      </trkpt>
      <trkpt lat="45.94405" lon="4.72605">
        <ele>173</ele>
        <time>2018-09-09T10:04:11Z</time>
      </trkpt>
      <trkpt lat="45.94404" lon="4.72597">
        <ele>173</ele>
        <time>2018-09-09T10:04:12Z</time>
      </trkpt>
      <trkpt lat="45.94403" lon="4.72589">
        <ele>173</ele>
        <time>2018-09-09T10:04:13Z</time>
      </trkpt>
      <trkpt lat="45.94402" lon="4.7258">
        <ele>173</ele>
        <time>2018-09-09T10:04:14Z</time>
      </trkpt>
      <trkpt lat="45.94402" lon="4.72574">
        <ele>173</ele>
        <time>2018-09-09T10:04:15Z</time>
      </trkpt>
      <trkpt lat="45.944" lon="4.72566">
        <ele>173</ele>
        <time>2018-09-09T10:04:16Z</time>
      </trkpt>
      <trkpt lat="45.94398" lon="4.72558">
        <ele>173</ele>
        <time>2018-09-09T10:04:17Z</time>
      </trkpt>
      <trkpt lat="45.94395" lon="4.72549">
        <ele>173</ele>
        <time>2018-09-09T10:04:18Z</time>
      </trkpt>
      <trkpt lat="45.94394" lon="4.72542">
        <ele>173</ele>
        <time>2018-09-09T10:04:19Z</time>
      </trkpt>
      <trkpt lat="45.94392" lon="4.72534">
        <ele>174</ele>
        <time>2018-09-09T10:04:20Z</time>
      </trkpt>
      <trkpt lat="45.94391" lon="4.72527">
        <ele>174</ele>
        <time>2018-09-09T10:04:21Z</time>
      </trkpt>
      <trkpt lat="45.94389" lon="4.72519">
        <ele>174</ele>
        <time>2018-09-09T10:04:22Z</time>
      </trkpt>
      <trkpt lat="45.94386" lon="4.72512">
        <ele>174</ele>
        <time>2018-09-09T10:04:23Z</time>
      </trkpt>
      <trkpt lat="45.94382" lon="4.72504">
        <ele>174</ele>
        <time>2018-09-09T10:04:24Z</time>
      </trkpt>
      <trkpt lat="45.9438" lon="4.72497">
        <ele>173</ele>
        <time>2018-09-09T10:04:25Z</time>
      </trkpt>
      <trkpt lat="45.94378" lon="4.72489">
        <ele>173</ele>
        <time>2018-09-09T10:04:26Z</time>
      </trkpt>
      <trkpt lat="45.94376" lon="4.72482">
        <ele>173</ele>
        <time>2018-09-09T10:04:27Z</time>
      </trkpt>
      <trkpt lat="45.94374" lon="4.72474">
        <ele>173</ele>
        <time>2018-09-09T10:04:28Z</time>
      </trkpt>
      <trkpt lat="45.94371" lon="4.72467">
        <ele>173</ele>
        <time>2018-09-09T10:04:29Z</time>
      </trkpt>
      <trkpt lat="45.94366" lon="4.72461">
        <ele>173</ele>
        <time>2018-09-09T10:04:30Z</time>
      </trkpt>
      <trkpt lat="45.94363" lon="4.72455">
        <ele>173</ele>
        <time>2018-09-09T10:04:31Z</time>
      </trkpt>
      <trkpt lat="45.94359" lon="4.7245">
        <ele>173</ele>
        <time>2018-09-09T10:04:32Z</time>
      </trkpt>
      <trkpt lat="45.94356" lon="4.72445">
        <ele>173</ele>
        <time>2018-09-09T10:04:33Z</time>
      </trkpt>
      <trkpt lat="45.94353" lon="4.72433">
        <ele>173</ele>
        <time>2018-09-09T10:04:35Z</time>
      </trkpt>
      <trkpt lat="45.9435" lon="4.72426">
        <ele>173</ele>
        <time>2018-09-09T10:04:36Z</time>
      </trkpt>
      <trkpt lat="45.94347" lon="4.72419">
        <ele>173</ele>
        <time>2018-09-09T10:04:37Z</time>
      </trkpt>
      <trkpt lat="45.94345" lon="4.72413">
        <ele>173</ele>
        <time>2018-09-09T10:04:38Z</time>
      </trkpt>
      <trkpt lat="45.94342" lon="4.72404">
        <ele>173</ele>
        <time>2018-09-09T10:04:39Z</time>
      </trkpt>
      <trkpt lat="45.94339" lon="4.72397">
        <ele>172</ele>
        <time>2018-09-09T10:04:40Z</time>
      </trkpt>
      <trkpt lat="45.94337" lon="4.7239">
        <ele>172</ele>
        <time>2018-09-09T10:04:41Z</time>
      </trkpt>
      <trkpt lat="45.94336" lon="4.72384">
        <ele>172</ele>
        <time>2018-09-09T10:04:42Z</time>
      </trkpt>
      <trkpt lat="45.94332" lon="4.72377">
        <ele>172</ele>
        <time>2018-09-09T10:04:43Z</time>
      </trkpt>
      <trkpt lat="45.94328" lon="4.72372">
        <ele>172</ele>
        <time>2018-09-09T10:04:44Z</time>
      </trkpt>
      <trkpt lat="45.94325" lon="4.72366">
        <ele>172</ele>
        <time>2018-09-09T10:04:45Z</time>
      </trkpt>
      <trkpt lat="45.94323" lon="4.7236">
        <ele>172</ele>
        <time>2018-09-09T10:04:46Z</time>
      </trkpt>
      <trkpt lat="45.9432" lon="4.72354">
        <ele>172</ele>
        <time>2018-09-09T10:04:47Z</time>
      </trkpt>
      <trkpt lat="45.94318" lon="4.72347">
        <ele>172</ele>
        <time>2018-09-09T10:04:48Z</time>
      </trkpt>
      <trkpt lat="45.94313" lon="4.7234">
        <ele>172</ele>
        <time>2018-09-09T10:04:49Z</time>
      </trkpt>
      <trkpt lat="45.94309" lon="4.72333">
        <ele>172</ele>
        <time>2018-09-09T10:04:50Z</time>
      </trkpt>
      <trkpt lat="45.94304" lon="4.72325">
        <ele>171</ele>
        <time>2018-09-09T10:04:51Z</time>
      </trkpt>
      <trkpt lat="45.94302" lon="4.72316">
        <ele>171</ele>
        <time>2018-09-09T10:04:52Z</time>
      </trkpt>
      <trkpt lat="45.94299" lon="4.72308">
        <ele>171</ele>
        <time>2018-09-09T10:04:53Z</time>
      </trkpt>
      <trkpt lat="45.94295" lon="4.723">
        <ele>171</ele>
        <time>2018-09-09T10:04:54Z</time>
      </trkpt>
      <trkpt lat="45.94292" lon="4.72294">
        <ele>171</ele>
        <time>2018-09-09T10:04:55Z</time>
      </trkpt>
      <trkpt lat="45.94289" lon="4.72286">
        <ele>171</ele>
        <time>2018-09-09T10:04:56Z</time>
      </trkpt>
      <trkpt lat="45.94283" lon="4.72279">
        <ele>171</ele>
        <time>2018-09-09T10:04:57Z</time>
      </trkpt>
      <trkpt lat="45.9428" lon="4.72274">
        <ele>171</ele>
        <time>2018-09-09T10:04:58Z</time>
      </trkpt>
      <trkpt lat="45.94276" lon="4.7227">
        <ele>171</ele>
        <time>2018-09-09T10:04:59Z</time>
      </trkpt>
      <trkpt lat="45.94271" lon="4.72271">
        <ele>171</ele>
        <time>2018-09-09T10:05:00Z</time>
      </trkpt>
      <trkpt lat="45.94266" lon="4.72271">
        <ele>171</ele>
        <time>2018-09-09T10:05:01Z</time>
      </trkpt>
      <trkpt lat="45.94261" lon="4.72274">
        <ele>171</ele>
        <time>2018-09-09T10:05:02Z</time>
      </trkpt>
      <trkpt lat="45.94257" lon="4.72276">
        <ele>171</ele>
        <time>2018-09-09T10:05:03Z</time>
      </trkpt>
      <trkpt lat="45.94251" lon="4.72279">
        <ele>171</ele>
        <time>2018-09-09T10:05:04Z</time>
      </trkpt>
      <trkpt lat="45.94246" lon="4.72281">
        <ele>171</ele>
        <time>2018-09-09T10:05:05Z</time>
      </trkpt>
      <trkpt lat="45.9424" lon="4.72283">
        <ele>171</ele>
        <time>2018-09-09T10:05:06Z</time>
      </trkpt>
      <trkpt lat="45.94235" lon="4.72285">
        <ele>171</ele>
        <time>2018-09-09T10:05:07Z</time>
      </trkpt>
      <trkpt lat="45.94229" lon="4.72287">
        <ele>171</ele>
        <time>2018-09-09T10:05:08Z</time>
      </trkpt>
      <trkpt lat="45.94223" lon="4.72288">
        <ele>171</ele>
        <time>2018-09-09T10:05:09Z</time>
      </trkpt>
      <trkpt lat="45.94217" lon="4.72289">
        <ele>171</ele>
        <time>2018-09-09T10:05:10Z</time>
      </trkpt>
      <trkpt lat="45.94211" lon="4.72289">
        <ele>171</ele>
        <time>2018-09-09T10:05:11Z</time>
      </trkpt>
      <trkpt lat="45.94205" lon="4.7229">
        <ele>171</ele>
        <time>2018-09-09T10:05:12Z</time>
      </trkpt>
      <trkpt lat="45.94197" lon="4.72287">
        <ele>171</ele>
        <time>2018-09-09T10:05:15Z</time>
      </trkpt>
      <trkpt lat="45.94195" lon="4.72287">
        <ele>171</ele>
        <time>2018-09-09T10:05:16Z</time>
      </trkpt>
      <trkpt lat="45.94192" lon="4.72286">
        <ele>171</ele>
        <time>2018-09-09T10:05:45Z</time>
      </trkpt>
      <trkpt lat="45.94192" lon="4.72286">
        <ele>171</ele>
        <time>2018-09-09T10:05:46Z</time>
      </trkpt>
      <trkpt lat="45.94188" lon="4.72285">
        <ele>171</ele>
        <time>2018-09-09T10:06:20Z</time>
      </trkpt>
      <trkpt lat="45.94188" lon="4.72285">
        <ele>171</ele>
        <time>2018-09-09T10:06:21Z</time>
      </trkpt>
      <trkpt lat="45.94181" lon="4.72278">
        <ele>171</ele>
        <time>2018-09-09T10:06:55Z</time>
      </trkpt>
      <trkpt lat="45.9418" lon="4.72278">
        <ele>171</ele>
        <time>2018-09-09T10:06:56Z</time>
      </trkpt>
      <trkpt lat="45.94173" lon="4.72282">
        <ele>171</ele>
        <time>2018-09-09T10:08:10Z</time>
      </trkpt>
      <trkpt lat="45.94171" lon="4.72282">
        <ele>171</ele>
        <time>2018-09-09T10:08:11Z</time>
      </trkpt>
      <trkpt lat="45.94163" lon="4.72281">
        <ele>171</ele>
        <time>2018-09-09T10:08:15Z</time>
      </trkpt>
      <trkpt lat="45.94161" lon="4.7228">
        <ele>171</ele>
        <time>2018-09-09T10:08:16Z</time>
      </trkpt>
      <trkpt lat="45.94153" lon="4.72278">
        <ele>171</ele>
        <time>2018-09-09T10:08:19Z</time>
      </trkpt>
      <trkpt lat="45.94144" lon="4.72274">
        <ele>171</ele>
        <time>2018-09-09T10:08:20Z</time>
      </trkpt>
      <trkpt lat="45.94137" lon="4.72269">
        <ele>171</ele>
        <time>2018-09-09T10:08:22Z</time>
      </trkpt>
      <trkpt lat="45.94133" lon="4.72267">
        <ele>171</ele>
        <time>2018-09-09T10:08:23Z</time>
      </trkpt>
      <trkpt lat="45.94124" lon="4.72264">
        <ele>171</ele>
        <time>2018-09-09T10:08:25Z</time>
      </trkpt>
      <trkpt lat="45.9412" lon="4.72262">
        <ele>171</ele>
        <time>2018-09-09T10:08:26Z</time>
      </trkpt>
      <trkpt lat="45.94114" lon="4.72263">
        <ele>171</ele>
        <time>2018-09-09T10:08:27Z</time>
      </trkpt>
      <trkpt lat="45.94109" lon="4.72262">
        <ele>171</ele>
        <time>2018-09-09T10:08:28Z</time>
      </trkpt>
      <trkpt lat="45.94103" lon="4.72263">
        <ele>171</ele>
        <time>2018-09-09T10:08:29Z</time>
      </trkpt>
      <trkpt lat="45.94098" lon="4.72263">
        <ele>171</ele>
        <time>2018-09-09T10:08:30Z</time>
      </trkpt>
      <trkpt lat="45.94093" lon="4.72265">
        <ele>171</ele>
        <time>2018-09-09T10:08:31Z</time>
      </trkpt>
      <trkpt lat="45.94088" lon="4.72267">
        <ele>171</ele>
        <time>2018-09-09T10:08:32Z</time>
      </trkpt>
      <trkpt lat="45.94083" lon="4.72271">
        <ele>171</ele>
        <time>2018-09-09T10:08:33Z</time>
      </trkpt>
      <trkpt lat="45.94079" lon="4.72275">
        <ele>171</ele>
        <time>2018-09-09T10:08:34Z</time>
      </trkpt>
      <trkpt lat="45.94073" lon="4.72278">
        <ele>171</ele>
        <time>2018-09-09T10:08:35Z</time>
      </trkpt>
      <trkpt lat="45.94068" lon="4.72281">
        <ele>171</ele>
        <time>2018-09-09T10:08:36Z</time>
      </trkpt>
      <trkpt lat="45.94064" lon="4.72285">
        <ele>171</ele>
        <time>2018-09-09T10:08:37Z</time>
      </trkpt>
      <trkpt lat="45.9406" lon="4.7229">
        <ele>171</ele>
        <time>2018-09-09T10:08:38Z</time>
      </trkpt>
      <trkpt lat="45.94055" lon="4.72295">
        <ele>171</ele>
        <time>2018-09-09T10:08:39Z</time>
      </trkpt>
      <trkpt lat="45.94051" lon="4.723">
        <ele>171</ele>
        <time>2018-09-09T10:08:40Z</time>
      </trkpt>
      <trkpt lat="45.94048" lon="4.72304">
        <ele>171</ele>
        <time>2018-09-09T10:08:41Z</time>
      </trkpt>
      <trkpt lat="45.94044" lon="4.72309">
        <ele>171</ele>
        <time>2018-09-09T10:08:42Z</time>
      </trkpt>
      <trkpt lat="45.9404" lon="4.72314">
        <ele>171</ele>
        <time>2018-09-09T10:08:43Z</time>
      </trkpt>
      <trkpt lat="45.94036" lon="4.72319">
        <ele>171</ele>
        <time>2018-09-09T10:08:44Z</time>
      </trkpt>
      <trkpt lat="45.94032" lon="4.72325">
        <ele>171</ele>
        <time>2018-09-09T10:08:45Z</time>
      </trkpt>
      <trkpt lat="45.94028" lon="4.7233">
        <ele>171</ele>
        <time>2018-09-09T10:08:46Z</time>
      </trkpt>
      <trkpt lat="45.94023" lon="4.72335">
        <ele>171</ele>
        <time>2018-09-09T10:08:47Z</time>
      </trkpt>
      <trkpt lat="45.94018" lon="4.72341">
        <ele>171</ele>
        <time>2018-09-09T10:08:48Z</time>
      </trkpt>
      <trkpt lat="45.94015" lon="4.7235">
        <ele>171</ele>
        <time>2018-09-09T10:08:49Z</time>
      </trkpt>
      <trkpt lat="45.9401" lon="4.72355">
        <ele>171</ele>
        <time>2018-09-09T10:08:50Z</time>
      </trkpt>
      <trkpt lat="45.94006" lon="4.72363">
        <ele>171</ele>
        <time>2018-09-09T10:08:51Z</time>
      </trkpt>
      <trkpt lat="45.94002" lon="4.72369">
        <ele>171</ele>
        <time>2018-09-09T10:08:52Z</time>
      </trkpt>
      <trkpt lat="45.93997" lon="4.72374">
        <ele>171</ele>
        <time>2018-09-09T10:08:53Z</time>
      </trkpt>
      <trkpt lat="45.93993" lon="4.72377">
        <ele>171</ele>
        <time>2018-09-09T10:08:54Z</time>
      </trkpt>
      <trkpt lat="45.93989" lon="4.72381">
        <ele>171</ele>
        <time>2018-09-09T10:08:55Z</time>
      </trkpt>
      <trkpt lat="45.93985" lon="4.72386">
        <ele>171</ele>
        <time>2018-09-09T10:08:56Z</time>
      </trkpt>
      <trkpt lat="45.9398" lon="4.72392">
        <ele>171</ele>
        <time>2018-09-09T10:08:57Z</time>
      </trkpt>
      <trkpt lat="45.93976" lon="4.72397">
        <ele>171</ele>
        <time>2018-09-09T10:08:58Z</time>
      </trkpt>
      <trkpt lat="45.93972" lon="4.72402">
        <ele>171</ele>
        <time>2018-09-09T10:08:59Z</time>
      </trkpt>
      <trkpt lat="45.93967" lon="4.72406">
        <ele>171</ele>
        <time>2018-09-09T10:09:00Z</time>
      </trkpt>
      <trkpt lat="45.93964" lon="4.7241">
        <ele>171</ele>
        <time>2018-09-09T10:09:01Z</time>
      </trkpt>
      <trkpt lat="45.9396" lon="4.72414">
        <ele>171</ele>
        <time>2018-09-09T10:09:02Z</time>
      </trkpt>
      <trkpt lat="45.93957" lon="4.72423">
        <ele>171</ele>
        <time>2018-09-09T10:09:03Z</time>
      </trkpt>
      <trkpt lat="45.93953" lon="4.72427">
        <ele>171</ele>
        <time>2018-09-09T10:09:04Z</time>
      </trkpt>
      <trkpt lat="45.93949" lon="4.72431">
        <ele>171</ele>
        <time>2018-09-09T10:09:05Z</time>
      </trkpt>
      <trkpt lat="45.93945" lon="4.72435">
        <ele>171</ele>
        <time>2018-09-09T10:09:06Z</time>
      </trkpt>
      <trkpt lat="45.93943" lon="4.72442">
        <ele>171</ele>
        <time>2018-09-09T10:09:07Z</time>
      </trkpt>
      <trkpt lat="45.93939" lon="4.72446">
        <ele>171</ele>
        <time>2018-09-09T10:09:08Z</time>
      </trkpt>
      <trkpt lat="45.93934" lon="4.72451">
        <ele>171</ele>
        <time>2018-09-09T10:09:09Z</time>
      </trkpt>
      <trkpt lat="45.9393" lon="4.72456">
        <ele>171</ele>
        <time>2018-09-09T10:09:10Z</time>
      </trkpt>
      <trkpt lat="45.93926" lon="4.72461">
        <ele>171</ele>
        <time>2018-09-09T10:09:11Z</time>
      </trkpt>
      <trkpt lat="45.93922" lon="4.72466">
        <ele>171</ele>
        <time>2018-09-09T10:09:12Z</time>
      </trkpt>
      <trkpt lat="45.93919" lon="4.7247">
        <ele>171</ele>
        <time>2018-09-09T10:09:13Z</time>
      </trkpt>
      <trkpt lat="45.93915" lon="4.72475">
        <ele>172</ele>
        <time>2018-09-09T10:09:14Z</time>
      </trkpt>
      <trkpt lat="45.93911" lon="4.72479">
        <ele>172</ele>
        <time>2018-09-09T10:09:15Z</time>
      </trkpt>
      <trkpt lat="45.93907" lon="4.72483">
        <ele>172</ele>
        <time>2018-09-09T10:09:16Z</time>
      </trkpt>
      <trkpt lat="45.93904" lon="4.72487">
        <ele>172</ele>
        <time>2018-09-09T10:09:17Z</time>
      </trkpt>
      <trkpt lat="45.93901" lon="4.72493">
        <ele>172</ele>
        <time>2018-09-09T10:09:18Z</time>
      </trkpt>
      <trkpt lat="45.93896" lon="4.72499">
        <ele>172</ele>
        <time>2018-09-09T10:09:19Z</time>
      </trkpt>
      <trkpt lat="45.93892" lon="4.72504">
        <ele>172</ele>
        <time>2018-09-09T10:09:20Z</time>
      </trkpt>
      <trkpt lat="45.9389" lon="4.72511">
        <ele>173</ele>
        <time>2018-09-09T10:09:21Z</time>
      </trkpt>
      <trkpt lat="45.93885" lon="4.72514">
        <ele>173</ele>
        <time>2018-09-09T10:09:22Z</time>
      </trkpt>
      <trkpt lat="45.9388" lon="4.72519">
        <ele>173</ele>
        <time>2018-09-09T10:09:23Z</time>
      </trkpt>
      <trkpt lat="45.93876" lon="4.72521">
        <ele>173</ele>
        <time>2018-09-09T10:09:24Z</time>
      </trkpt>
      <trkpt lat="45.93871" lon="4.72522">
        <ele>173</ele>
        <time>2018-09-09T10:09:25Z</time>
      </trkpt>
      <trkpt lat="45.93866" lon="4.72522">
        <ele>173</ele>
        <time>2018-09-09T10:09:26Z</time>
      </trkpt>
      <trkpt lat="45.93861" lon="4.72518">
        <ele>173</ele>
        <time>2018-09-09T10:09:27Z</time>
      </trkpt>
      <trkpt lat="45.93831" lon="4.72473">
        <ele>173</ele>
        <time>2018-09-09T10:09:36Z</time>
      </trkpt>
      <trkpt lat="45.93826" lon="4.72468">
        <ele>172</ele>
        <time>2018-09-09T10:09:37Z</time>
      </trkpt>
      <trkpt lat="45.93821" lon="4.72465">
        <ele>172</ele>
        <time>2018-09-09T10:09:38Z</time>
      </trkpt>
      <trkpt lat="45.93813" lon="4.72461">
        <ele>172</ele>
        <time>2018-09-09T10:09:40Z</time>
      </trkpt>
      <trkpt lat="45.93808" lon="4.72458">
        <ele>172</ele>
        <time>2018-09-09T10:09:41Z</time>
      </trkpt>
      <trkpt lat="45.93804" lon="4.72457">
        <ele>172</ele>
        <time>2018-09-09T10:09:42Z</time>
      </trkpt>
      <trkpt lat="45.93796" lon="4.72448">
        <ele>172</ele>
        <time>2018-09-09T10:09:43Z</time>
      </trkpt>
      <trkpt lat="45.93795" lon="4.72444">
        <ele>172</ele>
        <time>2018-09-09T10:09:44Z</time>
      </trkpt>
      <trkpt lat="45.93787" lon="4.7244">
        <ele>172</ele>
        <time>2018-09-09T10:09:45Z</time>
      </trkpt>
      <trkpt lat="45.93784" lon="4.72433">
        <ele>172</ele>
        <time>2018-09-09T10:09:47Z</time>
      </trkpt>
      <trkpt lat="45.93781" lon="4.72431">
        <ele>172</ele>
        <time>2018-09-09T10:09:48Z</time>
      </trkpt>
      <trkpt lat="45.93775" lon="4.72425">
        <ele>171</ele>
        <time>2018-09-09T10:09:49Z</time>
      </trkpt>
      <trkpt lat="45.93771" lon="4.72422">
        <ele>171</ele>
        <time>2018-09-09T10:09:50Z</time>
      </trkpt>
      <trkpt lat="45.93766" lon="4.72417">
        <ele>171</ele>
        <time>2018-09-09T10:09:51Z</time>
      </trkpt>
      <trkpt lat="45.93762" lon="4.72412">
        <ele>171</ele>
        <time>2018-09-09T10:09:52Z</time>
      </trkpt>
      <trkpt lat="45.93759" lon="4.72409">
        <ele>171</ele>
        <time>2018-09-09T10:09:53Z</time>
      </trkpt>
      <trkpt lat="45.93753" lon="4.72406">
        <ele>171</ele>
        <time>2018-09-09T10:09:54Z</time>
      </trkpt>
      <trkpt lat="45.93749" lon="4.72401">
        <ele>171</ele>
        <time>2018-09-09T10:09:55Z</time>
      </trkpt>
      <trkpt lat="45.93745" lon="4.72397">
        <ele>171</ele>
        <time>2018-09-09T10:09:56Z</time>
      </trkpt>
      <trkpt lat="45.93741" lon="4.72393">
        <ele>171</ele>
        <time>2018-09-09T10:09:57Z</time>
      </trkpt>
      <trkpt lat="45.93737" lon="4.72389">
        <ele>171</ele>
        <time>2018-09-09T10:09:58Z</time>
      </trkpt>
      <trkpt lat="45.9373" lon="4.72384">
        <ele>171</ele>
        <time>2018-09-09T10:10:00Z</time>
      </trkpt>
      <trkpt lat="45.93728" lon="4.72379">
        <ele>171</ele>
        <time>2018-09-09T10:10:01Z</time>
      </trkpt>
      <trkpt lat="45.93723" lon="4.72374">
        <ele>172</ele>
        <time>2018-09-09T10:10:02Z</time>
      </trkpt>
      <trkpt lat="45.93719" lon="4.72369">
        <ele>172</ele>
        <time>2018-09-09T10:10:03Z</time>
      </trkpt>
      <trkpt lat="45.93712" lon="4.72361">
        <ele>172</ele>
        <time>2018-09-09T10:10:05Z</time>
      </trkpt>
      <trkpt lat="45.93707" lon="4.72357">
        <ele>171</ele>
        <time>2018-09-09T10:10:06Z</time>
      </trkpt>
      <trkpt lat="45.93704" lon="4.72354">
        <ele>171</ele>
        <time>2018-09-09T10:10:07Z</time>
      </trkpt>
      <trkpt lat="45.93692" lon="4.72338">
        <ele>171</ele>
        <time>2018-09-09T10:10:10Z</time>
      </trkpt>
      <trkpt lat="45.93686" lon="4.72333">
        <ele>172</ele>
        <time>2018-09-09T10:10:11Z</time>
      </trkpt>
      <trkpt lat="45.93682" lon="4.72328">
        <ele>171</ele>
        <time>2018-09-09T10:10:12Z</time>
      </trkpt>
      <trkpt lat="45.9368" lon="4.72324">
        <ele>171</ele>
        <time>2018-09-09T10:10:14Z</time>
      </trkpt>
      <trkpt lat="45.9367" lon="4.72319">
        <ele>171</ele>
        <time>2018-09-09T10:10:15Z</time>
      </trkpt>
      <trkpt lat="45.93662" lon="4.72313">
        <ele>172</ele>
        <time>2018-09-09T10:10:17Z</time>
      </trkpt>
      <trkpt lat="45.93658" lon="4.7231">
        <ele>172</ele>
        <time>2018-09-09T10:10:18Z</time>
      </trkpt>
      <trkpt lat="45.9365" lon="4.72304">
        <ele>172</ele>
        <time>2018-09-09T10:10:20Z</time>
      </trkpt>
      <trkpt lat="45.93648" lon="4.72301">
        <ele>172</ele>
        <time>2018-09-09T10:10:21Z</time>
      </trkpt>
      <trkpt lat="45.93641" lon="4.72293">
        <ele>172</ele>
        <time>2018-09-09T10:10:23Z</time>
      </trkpt>
      <trkpt lat="45.93637" lon="4.72289">
        <ele>172</ele>
        <time>2018-09-09T10:10:24Z</time>
      </trkpt>
      <trkpt lat="45.93631" lon="4.72284">
        <ele>172</ele>
        <time>2018-09-09T10:10:26Z</time>
      </trkpt>
      <trkpt lat="45.93628" lon="4.7228">
        <ele>172</ele>
        <time>2018-09-09T10:10:27Z</time>
      </trkpt>
      <trkpt lat="45.93621" lon="4.72275">
        <ele>172</ele>
        <time>2018-09-09T10:10:29Z</time>
      </trkpt>
      <trkpt lat="45.93618" lon="4.72267">
        <ele>172</ele>
        <time>2018-09-09T10:10:30Z</time>
      </trkpt>
      <trkpt lat="45.93611" lon="4.7226">
        <ele>172</ele>
        <time>2018-09-09T10:10:33Z</time>
      </trkpt>
      <trkpt lat="45.93606" lon="4.72252">
        <ele>173</ele>
        <time>2018-09-09T10:10:34Z</time>
      </trkpt>
      <trkpt lat="45.936" lon="4.72241">
        <ele>173</ele>
        <time>2018-09-09T10:10:36Z</time>
      </trkpt>
      <trkpt lat="45.936" lon="4.72241">
        <ele>173</ele>
        <time>2018-09-09T10:10:37Z</time>
      </trkpt>
      <trkpt lat="45.93598" lon="4.72242">
        <ele>173</ele>
        <time>2018-09-09T10:10:38Z</time>
      </trkpt>
      <trkpt lat="45.93586" lon="4.7224">
        <ele>173</ele>
        <time>2018-09-09T10:10:39Z</time>
      </trkpt>
      <trkpt lat="45.9358" lon="4.72233">
        <ele>173</ele>
        <time>2018-09-09T10:10:41Z</time>
      </trkpt>
      <trkpt lat="45.93578" lon="4.7223">
        <ele>173</ele>
        <time>2018-09-09T10:10:42Z</time>
      </trkpt>
      <trkpt lat="45.93572" lon="4.72224">
        <ele>173</ele>
        <time>2018-09-09T10:10:45Z</time>
      </trkpt>
      <trkpt lat="45.93569" lon="4.72223">
        <ele>173</ele>
        <time>2018-09-09T10:10:46Z</time>
      </trkpt>
      <trkpt lat="45.93563" lon="4.7222">
        <ele>173</ele>
        <time>2018-09-09T10:10:49Z</time>
      </trkpt>
      <trkpt lat="45.93562" lon="4.7222">
        <ele>173</ele>
        <time>2018-09-09T10:10:50Z</time>
      </trkpt>
      <trkpt lat="45.9356" lon="4.7222">
        <ele>173</ele>
        <time>2018-09-09T10:10:58Z</time>
      </trkpt>
      <trkpt lat="45.9356" lon="4.7222">
        <ele>173</ele>
        <time>2018-09-09T10:10:59Z</time>
      </trkpt>
      <trkpt lat="45.93552" lon="4.7222">
        <ele>173</ele>
        <time>2018-09-09T10:11:18Z</time>
      </trkpt>
      <trkpt lat="45.93551" lon="4.72222">
        <ele>173</ele>
        <time>2018-09-09T10:11:19Z</time>
      </trkpt>
      <trkpt lat="45.93547" lon="4.72231">
        <ele>172</ele>
        <time>2018-09-09T10:11:22Z</time>
      </trkpt>
      <trkpt lat="45.93545" lon="4.72234">
        <ele>172</ele>
        <time>2018-09-09T10:11:23Z</time>
      </trkpt>
      <trkpt lat="45.93542" lon="4.72243">
        <ele>172</ele>
        <time>2018-09-09T10:11:25Z</time>
      </trkpt>
      <trkpt lat="45.93537" lon="4.72256">
        <ele>172</ele>
        <time>2018-09-09T10:11:26Z</time>
      </trkpt>
      <trkpt lat="45.93533" lon="4.72265">
        <ele>172</ele>
        <time>2018-09-09T10:11:28Z</time>
      </trkpt>
      <trkpt lat="45.9353" lon="4.7227">
        <ele>172</ele>
        <time>2018-09-09T10:11:29Z</time>
      </trkpt>
      <trkpt lat="45.93527" lon="4.72275">
        <ele>172</ele>
        <time>2018-09-09T10:11:30Z</time>
      </trkpt>
      <trkpt lat="45.93526" lon="4.72283">
        <ele>172</ele>
        <time>2018-09-09T10:11:31Z</time>
      </trkpt>
      <trkpt lat="45.93522" lon="4.72291">
        <ele>172</ele>
        <time>2018-09-09T10:11:32Z</time>
      </trkpt>
      <trkpt lat="45.93519" lon="4.72297">
        <ele>172</ele>
        <time>2018-09-09T10:11:33Z</time>
      </trkpt>
      <trkpt lat="45.93516" lon="4.72304">
        <ele>173</ele>
        <time>2018-09-09T10:11:34Z</time>
      </trkpt>
      <trkpt lat="45.93512" lon="4.7231">
        <ele>173</ele>
        <time>2018-09-09T10:11:35Z</time>
      </trkpt>
      <trkpt lat="45.93507" lon="4.72317">
        <ele>173</ele>
        <time>2018-09-09T10:11:36Z</time>
      </trkpt>
      <trkpt lat="45.93503" lon="4.72323">
        <ele>173</ele>
        <time>2018-09-09T10:11:37Z</time>
      </trkpt>
      <trkpt lat="45.93498" lon="4.72329">
        <ele>173</ele>
        <time>2018-09-09T10:11:38Z</time>
      </trkpt>
      <trkpt lat="45.93494" lon="4.72335">
        <ele>173</ele>
        <time>2018-09-09T10:11:39Z</time>
      </trkpt>
      <trkpt lat="45.9349" lon="4.72341">
        <ele>173</ele>
        <time>2018-09-09T10:11:40Z</time>
      </trkpt>
      <trkpt lat="45.93485" lon="4.72347">
        <ele>173</ele>
        <time>2018-09-09T10:11:41Z</time>
      </trkpt>
      <trkpt lat="45.9348" lon="4.72351">
        <ele>173</ele>
        <time>2018-09-09T10:11:42Z</time>
      </trkpt>
      <trkpt lat="45.93475" lon="4.72357">
        <ele>173</ele>
        <time>2018-09-09T10:11:43Z</time>
      </trkpt>
      <trkpt lat="45.93471" lon="4.72363">
        <ele>173</ele>
        <time>2018-09-09T10:11:44Z</time>
      </trkpt>
      <trkpt lat="45.93467" lon="4.7237">
        <ele>173</ele>
        <time>2018-09-09T10:11:45Z</time>
      </trkpt>
      <trkpt lat="45.93463" lon="4.72373">
        <ele>173</ele>
        <time>2018-09-09T10:11:46Z</time>
      </trkpt>
      <trkpt lat="45.93463" lon="4.72386">
        <ele>173</ele>
        <time>2018-09-09T10:11:47Z</time>
      </trkpt>
      <trkpt lat="45.9346" lon="4.72394">
        <ele>173</ele>
        <time>2018-09-09T10:11:48Z</time>
      </trkpt>
      <trkpt lat="45.93452" lon="4.72392">
        <ele>173</ele>
        <time>2018-09-09T10:11:49Z</time>
      </trkpt>
      <trkpt lat="45.93449" lon="4.72401">
        <ele>173</ele>
        <time>2018-09-09T10:11:50Z</time>
      </trkpt>
      <trkpt lat="45.93444" lon="4.72403">
        <ele>173</ele>
        <time>2018-09-09T10:11:51Z</time>
      </trkpt>
      <trkpt lat="45.93436" lon="4.72406">
        <ele>174</ele>
        <time>2018-09-09T10:11:52Z</time>
      </trkpt>
      <trkpt lat="45.93431" lon="4.72408">
        <ele>174</ele>
        <time>2018-09-09T10:11:53Z</time>
      </trkpt>
      <trkpt lat="45.93425" lon="4.7241">
        <ele>174</ele>
        <time>2018-09-09T10:11:54Z</time>
      </trkpt>
      <trkpt lat="45.93419" lon="4.72412">
        <ele>174</ele>
        <time>2018-09-09T10:11:55Z</time>
      </trkpt>
      <trkpt lat="45.93414" lon="4.72414">
        <ele>174</ele>
        <time>2018-09-09T10:11:56Z</time>
      </trkpt>
      <trkpt lat="45.93408" lon="4.72412">
        <ele>174</ele>
        <time>2018-09-09T10:11:57Z</time>
      </trkpt>
      <trkpt lat="45.93402" lon="4.72411">
        <ele>174</ele>
        <time>2018-09-09T10:11:58Z</time>
      </trkpt>
      <trkpt lat="45.93396" lon="4.72409">
        <ele>174</ele>
        <time>2018-09-09T10:11:59Z</time>
      </trkpt>
      <trkpt lat="45.93391" lon="4.72412">
        <ele>174</ele>
        <time>2018-09-09T10:12:00Z</time>
      </trkpt>
      <trkpt lat="45.93386" lon="4.72416">
        <ele>174</ele>
        <time>2018-09-09T10:12:01Z</time>
      </trkpt>
      <trkpt lat="45.93383" lon="4.72423">
        <ele>173</ele>
        <time>2018-09-09T10:12:02Z</time>
      </trkpt>
      <trkpt lat="45.93384" lon="4.72429">
        <ele>173</ele>
        <time>2018-09-09T10:12:03Z</time>
      </trkpt>
      <trkpt lat="45.93385" lon="4.72436">
        <ele>173</ele>
        <time>2018-09-09T10:12:04Z</time>
      </trkpt>
      <trkpt lat="45.93387" lon="4.72442">
        <ele>173</ele>
        <time>2018-09-09T10:12:05Z</time>
      </trkpt>
      <trkpt lat="45.93389" lon="4.72449">
        <ele>173</ele>
        <time>2018-09-09T10:12:06Z</time>
      </trkpt>
      <trkpt lat="45.93391" lon="4.72456">
        <ele>173</ele>
        <time>2018-09-09T10:12:07Z</time>
      </trkpt>
      <trkpt lat="45.93391" lon="4.72463">
        <ele>173</ele>
        <time>2018-09-09T10:12:08Z</time>
      </trkpt>
      <trkpt lat="45.93387" lon="4.7247">
        <ele>173</ele>
        <time>2018-09-09T10:12:09Z</time>
      </trkpt>
      <trkpt lat="45.93383" lon="4.72475">
        <ele>173</ele>
        <time>2018-09-09T10:12:10Z</time>
      </trkpt>
      <trkpt lat="45.93379" lon="4.7248">
        <ele>173</ele>
        <time>2018-09-09T10:12:11Z</time>
      </trkpt>
      <trkpt lat="45.93374" lon="4.72482">
        <ele>173</ele>
        <time>2018-09-09T10:12:12Z</time>
      </trkpt>
      <trkpt lat="45.93369" lon="4.72485">
        <ele>173</ele>
        <time>2018-09-09T10:12:13Z</time>
      </trkpt>
      <trkpt lat="45.93364" lon="4.72491">
        <ele>173</ele>
        <time>2018-09-09T10:12:14Z</time>
      </trkpt>
      <trkpt lat="45.93361" lon="4.72496">
        <ele>173</ele>
        <time>2018-09-09T10:12:15Z</time>
      </trkpt>
      <trkpt lat="45.93355" lon="4.72502">
        <ele>172</ele>
        <time>2018-09-09T10:12:16Z</time>
      </trkpt>
      <trkpt lat="45.93351" lon="4.72508">
        <ele>172</ele>
        <time>2018-09-09T10:12:17Z</time>
      </trkpt>
      <trkpt lat="45.93347" lon="4.72515">
        <ele>172</ele>
        <time>2018-09-09T10:12:18Z</time>
      </trkpt>
      <trkpt lat="45.93347" lon="4.72521">
        <ele>172</ele>
        <time>2018-09-09T10:12:19Z</time>
      </trkpt>
      <trkpt lat="45.93342" lon="4.72527">
        <ele>172</ele>
        <time>2018-09-09T10:12:20Z</time>
      </trkpt>
      <trkpt lat="45.93337" lon="4.72533">
        <ele>172</ele>
        <time>2018-09-09T10:12:21Z</time>
      </trkpt>
      <trkpt lat="45.93334" lon="4.72538">
        <ele>171</ele>
        <time>2018-09-09T10:12:22Z</time>
      </trkpt>
      <trkpt lat="45.9333" lon="4.72543">
        <ele>172</ele>
        <time>2018-09-09T10:12:23Z</time>
      </trkpt>
      <trkpt lat="45.93325" lon="4.72551">
        <ele>172</ele>
        <time>2018-09-09T10:12:24Z</time>
      </trkpt>
      <trkpt lat="45.93319" lon="4.72556">
        <ele>171</ele>
        <time>2018-09-09T10:12:25Z</time>
      </trkpt>
      <trkpt lat="45.93313" lon="4.72561">
        <ele>171</ele>
        <time>2018-09-09T10:12:26Z</time>
      </trkpt>
      <trkpt lat="45.93312" lon="4.72567">
        <ele>171</ele>
        <time>2018-09-09T10:12:27Z</time>
      </trkpt>
      <trkpt lat="45.93304" lon="4.72572">
        <ele>171</ele>
        <time>2018-09-09T10:12:29Z</time>
      </trkpt>
      <trkpt lat="45.93298" lon="4.72576">
        <ele>171</ele>
        <time>2018-09-09T10:12:30Z</time>
      </trkpt>
      <trkpt lat="45.93294" lon="4.7258">
        <ele>171</ele>
        <time>2018-09-09T10:12:31Z</time>
      </trkpt>
      <trkpt lat="45.9329" lon="4.72587">
        <ele>170</ele>
        <time>2018-09-09T10:12:32Z</time>
      </trkpt>
      <trkpt lat="45.93284" lon="4.72593">
        <ele>170</ele>
        <time>2018-09-09T10:12:34Z</time>
      </trkpt>
      <trkpt lat="45.9328" lon="4.72594">
        <ele>170</ele>
        <time>2018-09-09T10:12:35Z</time>
      </trkpt>
      <trkpt lat="45.93274" lon="4.72603">
        <ele>170</ele>
        <time>2018-09-09T10:12:36Z</time>
      </trkpt>
      <trkpt lat="45.93269" lon="4.72608">
        <ele>170</ele>
        <time>2018-09-09T10:12:37Z</time>
      </trkpt>
      <trkpt lat="45.93265" lon="4.72611">
        <ele>170</ele>
        <time>2018-09-09T10:12:38Z</time>
      </trkpt>
      <trkpt lat="45.93258" lon="4.72615">
        <ele>170</ele>
        <time>2018-09-09T10:12:39Z</time>
      </trkpt>
      <trkpt lat="45.93254" lon="4.72622">
        <ele>170</ele>
        <time>2018-09-09T10:12:40Z</time>
      </trkpt>
      <trkpt lat="45.93249" lon="4.72627">
        <ele>170</ele>
        <time>2018-09-09T10:12:41Z</time>
      </trkpt>
      <trkpt lat="45.93244" lon="4.72635">
        <ele>170</ele>
        <time>2018-09-09T10:12:42Z</time>
      </trkpt>
      <trkpt lat="45.93238" lon="4.7264">
        <ele>170</ele>
        <time>2018-09-09T10:12:43Z</time>
      </trkpt>
      <trkpt lat="45.93233" lon="4.72645">
        <ele>170</ele>
        <time>2018-09-09T10:12:44Z</time>
      </trkpt>
      <trkpt lat="45.93228" lon="4.7265">
        <ele>170</ele>
        <time>2018-09-09T10:12:45Z</time>
      </trkpt>
      <trkpt lat="45.93224" lon="4.72656">
        <ele>170</ele>
        <time>2018-09-09T10:12:46Z</time>
      </trkpt>
      <trkpt lat="45.9322" lon="4.72662">
        <ele>170</ele>
        <time>2018-09-09T10:12:47Z</time>
      </trkpt>
      <trkpt lat="45.93215" lon="4.72668">
        <ele>169</ele>
        <time>2018-09-09T10:12:48Z</time>
      </trkpt>
      <trkpt lat="45.93211" lon="4.72671">
        <ele>169</ele>
        <time>2018-09-09T10:12:49Z</time>
      </trkpt>
      <trkpt lat="45.93208" lon="4.72674">
        <ele>169</ele>
        <time>2018-09-09T10:12:50Z</time>
      </trkpt>
      <trkpt lat="45.93204" lon="4.7268">
        <ele>169</ele>
        <time>2018-09-09T10:12:51Z</time>
      </trkpt>
      <trkpt lat="45.93199" lon="4.72688">
        <ele>169</ele>
        <time>2018-09-09T10:12:52Z</time>
      </trkpt>
      <trkpt lat="45.93195" lon="4.72693">
        <ele>169</ele>
        <time>2018-09-09T10:12:53Z</time>
      </trkpt>
      <trkpt lat="45.93188" lon="4.72699">
        <ele>169</ele>
        <time>2018-09-09T10:12:55Z</time>
      </trkpt>
      <trkpt lat="45.93186" lon="4.72704">
        <ele>169</ele>
        <time>2018-09-09T10:12:56Z</time>
      </trkpt>
      <trkpt lat="45.93179" lon="4.72713">
        <ele>169</ele>
        <time>2018-09-09T10:12:58Z</time>
      </trkpt>
      <trkpt lat="45.93177" lon="4.72718">
        <ele>169</ele>
        <time>2018-09-09T10:12:59Z</time>
      </trkpt>
      <trkpt lat="45.93173" lon="4.72723">
        <ele>170</ele>
        <time>2018-09-09T10:13:00Z</time>
      </trkpt>
      <trkpt lat="45.9317" lon="4.72727">
        <ele>170</ele>
        <time>2018-09-09T10:13:01Z</time>
      </trkpt>
      <trkpt lat="45.93165" lon="4.72732">
        <ele>170</ele>
        <time>2018-09-09T10:13:02Z</time>
      </trkpt>
      <trkpt lat="45.9316" lon="4.72735">
        <ele>170</ele>
        <time>2018-09-09T10:13:03Z</time>
      </trkpt>
      <trkpt lat="45.93156" lon="4.7274">
        <ele>170</ele>
        <time>2018-09-09T10:13:04Z</time>
      </trkpt>
      <trkpt lat="45.93151" lon="4.72744">
        <ele>170</ele>
        <time>2018-09-09T10:13:05Z</time>
      </trkpt>
      <trkpt lat="45.93146" lon="4.72749">
        <ele>170</ele>
        <time>2018-09-09T10:13:06Z</time>
      </trkpt>
      <trkpt lat="45.93141" lon="4.72755">
        <ele>171</ele>
        <time>2018-09-09T10:13:07Z</time>
      </trkpt>
      <trkpt lat="45.93138" lon="4.7276">
        <ele>171</ele>
        <time>2018-09-09T10:13:08Z</time>
      </trkpt>
      <trkpt lat="45.93134" lon="4.72765">
        <ele>171</ele>
        <time>2018-09-09T10:13:09Z</time>
      </trkpt>
      <trkpt lat="45.9313" lon="4.72769">
        <ele>171</ele>
        <time>2018-09-09T10:13:10Z</time>
      </trkpt>
      <trkpt lat="45.93125" lon="4.72774">
        <ele>171</ele>
        <time>2018-09-09T10:13:11Z</time>
      </trkpt>
      <trkpt lat="45.93122" lon="4.7278">
        <ele>171</ele>
        <time>2018-09-09T10:13:12Z</time>
      </trkpt>
      <trkpt lat="45.93118" lon="4.72785">
        <ele>171</ele>
        <time>2018-09-09T10:13:13Z</time>
      </trkpt>
      <trkpt lat="45.93113" lon="4.72791">
        <ele>171</ele>
        <time>2018-09-09T10:13:14Z</time>
      </trkpt>
      <trkpt lat="45.93109" lon="4.72797">
        <ele>171</ele>
        <time>2018-09-09T10:13:15Z</time>
      </trkpt>
      <trkpt lat="45.93105" lon="4.72803">
        <ele>171</ele>
        <time>2018-09-09T10:13:16Z</time>
      </trkpt>
      <trkpt lat="45.931" lon="4.72809">
        <ele>172</ele>
        <time>2018-09-09T10:13:17Z</time>
      </trkpt>
      <trkpt lat="45.93096" lon="4.72814">
        <ele>172</ele>
        <time>2018-09-09T10:13:18Z</time>
      </trkpt>
      <trkpt lat="45.93091" lon="4.72818">
        <ele>172</ele>
        <time>2018-09-09T10:13:19Z</time>
      </trkpt>
      <trkpt lat="45.93086" lon="4.72822">
        <ele>172</ele>
        <time>2018-09-09T10:13:20Z</time>
      </trkpt>
      <trkpt lat="45.93083" lon="4.72826">
        <ele>173</ele>
        <time>2018-09-09T10:13:21Z</time>
      </trkpt>
      <trkpt lat="45.93079" lon="4.72831">
        <ele>173</ele>
        <time>2018-09-09T10:13:22Z</time>
      </trkpt>
      <trkpt lat="45.93075" lon="4.72835">
        <ele>173</ele>
        <time>2018-09-09T10:13:23Z</time>
      </trkpt>
      <trkpt lat="45.93071" lon="4.72839">
        <ele>173</ele>
        <time>2018-09-09T10:13:24Z</time>
      </trkpt>
      <trkpt lat="45.93067" lon="4.72844">
        <ele>172</ele>
        <time>2018-09-09T10:13:25Z</time>
      </trkpt>
      <trkpt lat="45.93064" lon="4.72848">
        <ele>172</ele>
        <time>2018-09-09T10:13:26Z</time>
      </trkpt>
      <trkpt lat="45.9306" lon="4.72852">
        <ele>172</ele>
        <time>2018-09-09T10:13:27Z</time>
      </trkpt>
      <trkpt lat="45.93052" lon="4.72856">
        <ele>172</ele>
        <time>2018-09-09T10:13:28Z</time>
      </trkpt>
      <trkpt lat="45.93048" lon="4.72869">
        <ele>172</ele>
        <time>2018-09-09T10:13:29Z</time>
      </trkpt>
      <trkpt lat="45.93041" lon="4.72872">
        <ele>172</ele>
        <time>2018-09-09T10:13:31Z</time>
      </trkpt>
      <trkpt lat="45.93035" lon="4.72878">
        <ele>172</ele>
        <time>2018-09-09T10:13:32Z</time>
      </trkpt>
      <trkpt lat="45.93032" lon="4.72884">
        <ele>172</ele>
        <time>2018-09-09T10:13:33Z</time>
      </trkpt>
      <trkpt lat="45.93029" lon="4.7289">
        <ele>172</ele>
        <time>2018-09-09T10:13:34Z</time>
      </trkpt>
      <trkpt lat="45.93022" lon="4.72899">
        <ele>172</ele>
        <time>2018-09-09T10:13:36Z</time>
      </trkpt>
      <trkpt lat="45.93018" lon="4.72904">
        <ele>172</ele>
        <time>2018-09-09T10:13:37Z</time>
      </trkpt>
      <trkpt lat="45.93013" lon="4.72908">
        <ele>171</ele>
        <time>2018-09-09T10:13:38Z</time>
      </trkpt>
      <trkpt lat="45.93008" lon="4.72912">
        <ele>171</ele>
        <time>2018-09-09T10:13:39Z</time>
      </trkpt>
      <trkpt lat="45.93004" lon="4.72918">
        <ele>171</ele>
        <time>2018-09-09T10:13:40Z</time>
      </trkpt>
      <trkpt lat="45.93" lon="4.72922">
        <ele>171</ele>
        <time>2018-09-09T10:13:41Z</time>
      </trkpt>
      <trkpt lat="45.92996" lon="4.72927">
        <ele>171</ele>
        <time>2018-09-09T10:13:42Z</time>
      </trkpt>
      <trkpt lat="45.92991" lon="4.72931">
        <ele>171</ele>
        <time>2018-09-09T10:13:43Z</time>
      </trkpt>
      <trkpt lat="45.92987" lon="4.72935">
        <ele>171</ele>
        <time>2018-09-09T10:13:44Z</time>
      </trkpt>
      <trkpt lat="45.92983" lon="4.7294">
        <ele>171</ele>
        <time>2018-09-09T10:13:45Z</time>
      </trkpt>
      <trkpt lat="45.92979" lon="4.72946">
        <ele>171</ele>
        <time>2018-09-09T10:13:46Z</time>
      </trkpt>
      <trkpt lat="45.92976" lon="4.72951">
        <ele>171</ele>
        <time>2018-09-09T10:13:47Z</time>
      </trkpt>
      <trkpt lat="45.92972" lon="4.72955">
        <ele>171</ele>
        <time>2018-09-09T10:13:48Z</time>
      </trkpt>
      <trkpt lat="45.92967" lon="4.72959">
        <ele>171</ele>
        <time>2018-09-09T10:13:49Z</time>
      </trkpt>
      <trkpt lat="45.92962" lon="4.72963">
        <ele>171</ele>
        <time>2018-09-09T10:13:50Z</time>
      </trkpt>
      <trkpt lat="45.92959" lon="4.72968">
        <ele>171</ele>
        <time>2018-09-09T10:13:51Z</time>
      </trkpt>
      <trkpt lat="45.92954" lon="4.72972">
        <ele>171</ele>
        <time>2018-09-09T10:13:52Z</time>
      </trkpt>
      <trkpt lat="45.9295" lon="4.72977">
        <ele>171</ele>
        <time>2018-09-09T10:13:53Z</time>
      </trkpt>
      <trkpt lat="45.92946" lon="4.72983">
        <ele>171</ele>
        <time>2018-09-09T10:13:54Z</time>
      </trkpt>
      <trkpt lat="45.92943" lon="4.72987">
        <ele>171</ele>
        <time>2018-09-09T10:13:55Z</time>
      </trkpt>
      <trkpt lat="45.92939" lon="4.72992">
        <ele>171</ele>
        <time>2018-09-09T10:13:56Z</time>
      </trkpt>
      <trkpt lat="45.92935" lon="4.72996">
        <ele>172</ele>
        <time>2018-09-09T10:13:57Z</time>
      </trkpt>
      <trkpt lat="45.92931" lon="4.73">
        <ele>172</ele>
        <time>2018-09-09T10:13:58Z</time>
      </trkpt>
      <trkpt lat="45.92928" lon="4.73005">
        <ele>172</ele>
        <time>2018-09-09T10:13:59Z</time>
      </trkpt>
      <trkpt lat="45.92924" lon="4.7301">
        <ele>172</ele>
        <time>2018-09-09T10:14:00Z</time>
      </trkpt>
      <trkpt lat="45.92919" lon="4.73014">
        <ele>172</ele>
        <time>2018-09-09T10:14:01Z</time>
      </trkpt>
      <trkpt lat="45.92915" lon="4.7302">
        <ele>172</ele>
        <time>2018-09-09T10:14:02Z</time>
      </trkpt>
      <trkpt lat="45.92911" lon="4.73025">
        <ele>172</ele>
        <time>2018-09-09T10:14:03Z</time>
      </trkpt>
      <trkpt lat="45.92908" lon="4.7303">
        <ele>172</ele>
        <time>2018-09-09T10:14:04Z</time>
      </trkpt>
      <trkpt lat="45.92906" lon="4.73036">
        <ele>172</ele>
        <time>2018-09-09T10:14:05Z</time>
      </trkpt>
      <trkpt lat="45.92902" lon="4.73042">
        <ele>172</ele>
        <time>2018-09-09T10:14:06Z</time>
      </trkpt>
      <trkpt lat="45.92898" lon="4.73046">
        <ele>172</ele>
        <time>2018-09-09T10:14:07Z</time>
      </trkpt>
      <trkpt lat="45.92894" lon="4.73051">
        <ele>172</ele>
        <time>2018-09-09T10:14:08Z</time>
      </trkpt>
      <trkpt lat="45.92891" lon="4.73057">
        <ele>172</ele>
        <time>2018-09-09T10:14:09Z</time>
      </trkpt>
      <trkpt lat="45.92887" lon="4.73063">
        <ele>172</ele>
        <time>2018-09-09T10:14:10Z</time>
      </trkpt>
      <trkpt lat="45.92884" lon="4.73067">
        <ele>172</ele>
        <time>2018-09-09T10:14:11Z</time>
      </trkpt>
      <trkpt lat="45.9288" lon="4.73072">
        <ele>172</ele>
        <time>2018-09-09T10:14:12Z</time>
      </trkpt>
      <trkpt lat="45.92877" lon="4.73078">
        <ele>172</ele>
        <time>2018-09-09T10:14:13Z</time>
      </trkpt>
      <trkpt lat="45.92874" lon="4.73083">
        <ele>172</ele>
        <time>2018-09-09T10:14:14Z</time>
      </trkpt>
      <trkpt lat="45.9287" lon="4.7309">
        <ele>172</ele>
        <time>2018-09-09T10:14:15Z</time>
      </trkpt>
      <trkpt lat="45.92866" lon="4.73095">
        <ele>172</ele>
        <time>2018-09-09T10:14:16Z</time>
      </trkpt>
      <trkpt lat="45.92861" lon="4.73099">
        <ele>171</ele>
        <time>2018-09-09T10:14:17Z</time>
      </trkpt>
      <trkpt lat="45.92853" lon="4.73102">
        <ele>171</ele>
        <time>2018-09-09T10:14:19Z</time>
      </trkpt>
      <trkpt lat="45.92849" lon="4.73099">
        <ele>171</ele>
        <time>2018-09-09T10:14:20Z</time>
      </trkpt>
      <trkpt lat="45.92845" lon="4.73089">
        <ele>171</ele>
        <time>2018-09-09T10:14:22Z</time>
      </trkpt>
      <trkpt lat="45.92845" lon="4.73082">
        <ele>171</ele>
        <time>2018-09-09T10:14:23Z</time>
      </trkpt>
      <trkpt lat="45.92844" lon="4.73076">
        <ele>171</ele>
        <time>2018-09-09T10:14:24Z</time>
      </trkpt>
      <trkpt lat="45.92845" lon="4.73068">
        <ele>171</ele>
        <time>2018-09-09T10:14:25Z</time>
      </trkpt>
      <trkpt lat="45.92842" lon="4.73061">
        <ele>171</ele>
        <time>2018-09-09T10:14:26Z</time>
      </trkpt>
      <trkpt lat="45.9284" lon="4.73054">
        <ele>171</ele>
        <time>2018-09-09T10:14:27Z</time>
      </trkpt>
      <trkpt lat="45.92838" lon="4.73047">
        <ele>171</ele>
        <time>2018-09-09T10:14:28Z</time>
      </trkpt>
      <trkpt lat="45.92836" lon="4.73042">
        <ele>171</ele>
        <time>2018-09-09T10:14:29Z</time>
      </trkpt>
      <trkpt lat="45.92835" lon="4.73029">
        <ele>171</ele>
        <time>2018-09-09T10:14:31Z</time>
      </trkpt>
      <trkpt lat="45.92835" lon="4.73022">
        <ele>171</ele>
        <time>2018-09-09T10:14:32Z</time>
      </trkpt>
      <trkpt lat="45.92833" lon="4.73016">
        <ele>170</ele>
        <time>2018-09-09T10:14:33Z</time>
      </trkpt>
      <trkpt lat="45.92832" lon="4.73009">
        <ele>170</ele>
        <time>2018-09-09T10:14:34Z</time>
      </trkpt>
      <trkpt lat="45.9283" lon="4.73002">
        <ele>170</ele>
        <time>2018-09-09T10:14:35Z</time>
      </trkpt>
      <trkpt lat="45.9283" lon="4.72995">
        <ele>170</ele>
        <time>2018-09-09T10:14:36Z</time>
      </trkpt>
      <trkpt lat="45.9283" lon="4.72988">
        <ele>170</ele>
        <time>2018-09-09T10:14:37Z</time>
      </trkpt>
      <trkpt lat="45.9283" lon="4.72981">
        <ele>170</ele>
        <time>2018-09-09T10:14:38Z</time>
      </trkpt>
      <trkpt lat="45.9283" lon="4.72974">
        <ele>170</ele>
        <time>2018-09-09T10:14:39Z</time>
      </trkpt>
      <trkpt lat="45.9283" lon="4.72967">
        <ele>170</ele>
        <time>2018-09-09T10:14:40Z</time>
      </trkpt>
      <trkpt lat="45.92829" lon="4.72959">
        <ele>170</ele>
        <time>2018-09-09T10:14:41Z</time>
      </trkpt>
      <trkpt lat="45.92827" lon="4.72951">
        <ele>170</ele>
        <time>2018-09-09T10:14:42Z</time>
      </trkpt>
      <trkpt lat="45.92826" lon="4.72944">
        <ele>170</ele>
        <time>2018-09-09T10:14:43Z</time>
      </trkpt>
      <trkpt lat="45.92826" lon="4.72936">
        <ele>170</ele>
        <time>2018-09-09T10:14:44Z</time>
      </trkpt>
      <trkpt lat="45.92826" lon="4.72928">
        <ele>170</ele>
        <time>2018-09-09T10:14:45Z</time>
      </trkpt>
      <trkpt lat="45.92825" lon="4.72921">
        <ele>170</ele>
        <time>2018-09-09T10:14:46Z</time>
      </trkpt>
      <trkpt lat="45.92824" lon="4.72914">
        <ele>170</ele>
        <time>2018-09-09T10:14:47Z</time>
      </trkpt>
      <trkpt lat="45.92822" lon="4.72906">
        <ele>170</ele>
        <time>2018-09-09T10:14:48Z</time>
      </trkpt>
      <trkpt lat="45.92821" lon="4.72899">
        <ele>170</ele>
        <time>2018-09-09T10:14:49Z</time>
      </trkpt>
      <trkpt lat="45.9282" lon="4.72892">
        <ele>170</ele>
        <time>2018-09-09T10:14:50Z</time>
      </trkpt>
      <trkpt lat="45.92819" lon="4.72886">
        <ele>170</ele>
        <time>2018-09-09T10:14:51Z</time>
      </trkpt>
      <trkpt lat="45.92818" lon="4.72879">
        <ele>170</ele>
        <time>2018-09-09T10:14:52Z</time>
      </trkpt>
      <trkpt lat="45.92817" lon="4.72873">
        <ele>170</ele>
        <time>2018-09-09T10:14:53Z</time>
      </trkpt>
      <trkpt lat="45.92816" lon="4.72866">
        <ele>170</ele>
        <time>2018-09-09T10:14:54Z</time>
      </trkpt>
      <trkpt lat="45.92813" lon="4.72859">
        <ele>170</ele>
        <time>2018-09-09T10:14:55Z</time>
      </trkpt>
      <trkpt lat="45.92814" lon="4.72852">
        <ele>170</ele>
        <time>2018-09-09T10:14:56Z</time>
      </trkpt>
      <trkpt lat="45.92813" lon="4.72845">
        <ele>170</ele>
        <time>2018-09-09T10:14:57Z</time>
      </trkpt>
      <trkpt lat="45.92811" lon="4.72839">
        <ele>170</ele>
        <time>2018-09-09T10:14:58Z</time>
      </trkpt>
      <trkpt lat="45.92809" lon="4.72832">
        <ele>171</ele>
        <time>2018-09-09T10:14:59Z</time>
      </trkpt>
      <trkpt lat="45.92808" lon="4.72824">
        <ele>171</ele>
        <time>2018-09-09T10:15:00Z</time>
      </trkpt>
      <trkpt lat="45.92805" lon="4.72813">
        <ele>171</ele>
        <time>2018-09-09T10:15:02Z</time>
      </trkpt>
      <trkpt lat="45.92804" lon="4.72808">
        <ele>171</ele>
        <time>2018-09-09T10:15:03Z</time>
      </trkpt>
      <trkpt lat="45.92804" lon="4.72802">
        <ele>171</ele>
        <time>2018-09-09T10:15:04Z</time>
      </trkpt>
      <trkpt lat="45.92803" lon="4.72795">
        <ele>171</ele>
        <time>2018-09-09T10:15:05Z</time>
      </trkpt>
      <trkpt lat="45.92797" lon="4.72786">
        <ele>171</ele>
        <time>2018-09-09T10:15:07Z</time>
      </trkpt>
      <trkpt lat="45.92792" lon="4.72789">
        <ele>171</ele>
        <time>2018-09-09T10:15:08Z</time>
      </trkpt>
      <trkpt lat="45.92788" lon="4.72795">
        <ele>170</ele>
        <time>2018-09-09T10:15:10Z</time>
      </trkpt>
      <trkpt lat="45.92785" lon="4.72797">
        <ele>170</ele>
        <time>2018-09-09T10:15:11Z</time>
      </trkpt>
      <trkpt lat="45.9278" lon="4.72799">
        <ele>170</ele>
        <time>2018-09-09T10:15:12Z</time>
      </trkpt>
      <trkpt lat="45.92776" lon="4.72802">
        <ele>170</ele>
        <time>2018-09-09T10:15:13Z</time>
      </trkpt>
      <trkpt lat="45.9277" lon="4.72805">
        <ele>170</ele>
        <time>2018-09-09T10:15:14Z</time>
      </trkpt>
      <trkpt lat="45.92765" lon="4.72809">
        <ele>170</ele>
        <time>2018-09-09T10:15:15Z</time>
      </trkpt>
      <trkpt lat="45.9276" lon="4.72813">
        <ele>170</ele>
        <time>2018-09-09T10:15:17Z</time>
      </trkpt>
      <trkpt lat="45.92754" lon="4.72819">
        <ele>170</ele>
        <time>2018-09-09T10:15:18Z</time>
      </trkpt>
      <trkpt lat="45.9275" lon="4.72823">
        <ele>169</ele>
        <time>2018-09-09T10:15:19Z</time>
      </trkpt>
      <trkpt lat="45.92745" lon="4.72827">
        <ele>169</ele>
        <time>2018-09-09T10:15:20Z</time>
      </trkpt>
      <trkpt lat="45.92738" lon="4.72832">
        <ele>169</ele>
        <time>2018-09-09T10:15:22Z</time>
      </trkpt>
      <trkpt lat="45.92734" lon="4.72835">
        <ele>169</ele>
        <time>2018-09-09T10:15:23Z</time>
      </trkpt>
      <trkpt lat="45.92727" lon="4.72842">
        <ele>169</ele>
        <time>2018-09-09T10:15:25Z</time>
      </trkpt>
      <trkpt lat="45.92723" lon="4.72846">
        <ele>169</ele>
        <time>2018-09-09T10:15:26Z</time>
      </trkpt>
      <trkpt lat="45.92719" lon="4.72849">
        <ele>169</ele>
        <time>2018-09-09T10:15:27Z</time>
      </trkpt>
      <trkpt lat="45.92714" lon="4.72852">
        <ele>169</ele>
        <time>2018-09-09T10:15:28Z</time>
      </trkpt>
      <trkpt lat="45.92709" lon="4.72855">
        <ele>169</ele>
        <time>2018-09-09T10:15:29Z</time>
      </trkpt>
      <trkpt lat="45.92704" lon="4.72859">
        <ele>169</ele>
        <time>2018-09-09T10:15:30Z</time>
      </trkpt>
      <trkpt lat="45.92698" lon="4.72862">
        <ele>169</ele>
        <time>2018-09-09T10:15:31Z</time>
      </trkpt>
      <trkpt lat="45.92692" lon="4.72866">
        <ele>169</ele>
        <time>2018-09-09T10:15:32Z</time>
      </trkpt>
      <trkpt lat="45.92688" lon="4.7287">
        <ele>169</ele>
        <time>2018-09-09T10:15:33Z</time>
      </trkpt>
      <trkpt lat="45.92684" lon="4.72874">
        <ele>169</ele>
        <time>2018-09-09T10:15:34Z</time>
      </trkpt>
      <trkpt lat="45.92679" lon="4.72878">
        <ele>170</ele>
        <time>2018-09-09T10:15:35Z</time>
      </trkpt>
      <trkpt lat="45.92674" lon="4.72882">
        <ele>170</ele>
        <time>2018-09-09T10:15:36Z</time>
      </trkpt>
      <trkpt lat="45.9267" lon="4.72886">
        <ele>170</ele>
        <time>2018-09-09T10:15:37Z</time>
      </trkpt>
      <trkpt lat="45.92664" lon="4.7289">
        <ele>169</ele>
        <time>2018-09-09T10:15:38Z</time>
      </trkpt>
      <trkpt lat="45.92659" lon="4.72893">
        <ele>170</ele>
        <time>2018-09-09T10:15:39Z</time>
      </trkpt>
      <trkpt lat="45.92654" lon="4.72895">
        <ele>170</ele>
        <time>2018-09-09T10:15:40Z</time>
      </trkpt>
      <trkpt lat="45.92649" lon="4.72899">
        <ele>170</ele>
        <time>2018-09-09T10:15:41Z</time>
      </trkpt>
      <trkpt lat="45.92644" lon="4.72903">
        <ele>169</ele>
        <time>2018-09-09T10:15:42Z</time>
      </trkpt>
      <trkpt lat="45.9264" lon="4.72908">
        <ele>169</ele>
        <time>2018-09-09T10:15:43Z</time>
      </trkpt>
      <trkpt lat="45.92636" lon="4.72912">
        <ele>169</ele>
        <time>2018-09-09T10:15:44Z</time>
      </trkpt>
      <trkpt lat="45.92631" lon="4.72916">
        <ele>169</ele>
        <time>2018-09-09T10:15:45Z</time>
      </trkpt>
      <trkpt lat="45.92626" lon="4.72921">
        <ele>170</ele>
        <time>2018-09-09T10:15:46Z</time>
      </trkpt>
      <trkpt lat="45.92621" lon="4.72925">
        <ele>169</ele>
        <time>2018-09-09T10:15:47Z</time>
      </trkpt>
      <trkpt lat="45.92615" lon="4.7293">
        <ele>169</ele>
        <time>2018-09-09T10:15:48Z</time>
      </trkpt>
      <trkpt lat="45.92611" lon="4.72936">
        <ele>169</ele>
        <time>2018-09-09T10:15:49Z</time>
      </trkpt>
      <trkpt lat="45.92605" lon="4.72941">
        <ele>169</ele>
        <time>2018-09-09T10:15:50Z</time>
      </trkpt>
      <trkpt lat="45.92599" lon="4.72947">
        <ele>169</ele>
        <time>2018-09-09T10:15:51Z</time>
      </trkpt>
      <trkpt lat="45.92595" lon="4.72953">
        <ele>169</ele>
        <time>2018-09-09T10:15:52Z</time>
      </trkpt>
      <trkpt lat="45.9259" lon="4.72958">
        <ele>169</ele>
        <time>2018-09-09T10:15:53Z</time>
      </trkpt>
      <trkpt lat="45.92586" lon="4.72963">
        <ele>169</ele>
        <time>2018-09-09T10:15:54Z</time>
      </trkpt>
      <trkpt lat="45.92582" lon="4.72968">
        <ele>169</ele>
        <time>2018-09-09T10:15:55Z</time>
      </trkpt>
      <trkpt lat="45.92577" lon="4.72973">
        <ele>169</ele>
        <time>2018-09-09T10:15:56Z</time>
      </trkpt>
      <trkpt lat="45.92572" lon="4.72979">
        <ele>169</ele>
        <time>2018-09-09T10:15:57Z</time>
      </trkpt>
      <trkpt lat="45.92567" lon="4.72984">
        <ele>169</ele>
        <time>2018-09-09T10:15:58Z</time>
      </trkpt>
      <trkpt lat="45.92562" lon="4.7299">
        <ele>169</ele>
        <time>2018-09-09T10:15:59Z</time>
      </trkpt>
      <trkpt lat="45.92557" lon="4.72995">
        <ele>169</ele>
        <time>2018-09-09T10:16:00Z</time>
      </trkpt>
      <trkpt lat="45.92551" lon="4.73">
        <ele>169</ele>
        <time>2018-09-09T10:16:01Z</time>
      </trkpt>
      <trkpt lat="45.92546" lon="4.73005">
        <ele>169</ele>
        <time>2018-09-09T10:16:02Z</time>
      </trkpt>
      <trkpt lat="45.9254" lon="4.73009">
        <ele>169</ele>
        <time>2018-09-09T10:16:03Z</time>
      </trkpt>
      <trkpt lat="45.92535" lon="4.73014">
        <ele>169</ele>
        <time>2018-09-09T10:16:04Z</time>
      </trkpt>
      <trkpt lat="45.9253" lon="4.73019">
        <ele>169</ele>
        <time>2018-09-09T10:16:05Z</time>
      </trkpt>
      <trkpt lat="45.92525" lon="4.73023">
        <ele>169</ele>
        <time>2018-09-09T10:16:06Z</time>
      </trkpt>
      <trkpt lat="45.92519" lon="4.73028">
        <ele>169</ele>
        <time>2018-09-09T10:16:07Z</time>
      </trkpt>
      <trkpt lat="45.92515" lon="4.73033">
        <ele>169</ele>
        <time>2018-09-09T10:16:08Z</time>
      </trkpt>
      <trkpt lat="45.9251" lon="4.73038">
        <ele>169</ele>
        <time>2018-09-09T10:16:09Z</time>
      </trkpt>
      <trkpt lat="45.92505" lon="4.73042">
        <ele>170</ele>
        <time>2018-09-09T10:16:10Z</time>
      </trkpt>
      <trkpt lat="45.92501" lon="4.73046">
        <ele>170</ele>
        <time>2018-09-09T10:16:11Z</time>
      </trkpt>
      <trkpt lat="45.92497" lon="4.73051">
        <ele>170</ele>
        <time>2018-09-09T10:16:12Z</time>
      </trkpt>
      <trkpt lat="45.92492" lon="4.73055">
        <ele>170</ele>
        <time>2018-09-09T10:16:13Z</time>
      </trkpt>
      <trkpt lat="45.92488" lon="4.73059">
        <ele>170</ele>
        <time>2018-09-09T10:16:14Z</time>
      </trkpt>
      <trkpt lat="45.92483" lon="4.73062">
        <ele>170</ele>
        <time>2018-09-09T10:16:15Z</time>
      </trkpt>
      <trkpt lat="45.92478" lon="4.73065">
        <ele>170</ele>
        <time>2018-09-09T10:16:16Z</time>
      </trkpt>
      <trkpt lat="45.92474" lon="4.73069">
        <ele>170</ele>
        <time>2018-09-09T10:16:17Z</time>
      </trkpt>
      <trkpt lat="45.92469" lon="4.73072">
        <ele>170</ele>
        <time>2018-09-09T10:16:18Z</time>
      </trkpt>
      <trkpt lat="45.92464" lon="4.73076">
        <ele>170</ele>
        <time>2018-09-09T10:16:19Z</time>
      </trkpt>
      <trkpt lat="45.92461" lon="4.73079">
        <ele>170</ele>
        <time>2018-09-09T10:16:20Z</time>
      </trkpt>
      <trkpt lat="45.92457" lon="4.73083">
        <ele>170</ele>
        <time>2018-09-09T10:16:21Z</time>
      </trkpt>
      <trkpt lat="45.92452" lon="4.73086">
        <ele>170</ele>
        <time>2018-09-09T10:16:22Z</time>
      </trkpt>
      <trkpt lat="45.92447" lon="4.7309">
        <ele>170</ele>
        <time>2018-09-09T10:16:23Z</time>
      </trkpt>
      <trkpt lat="45.92444" lon="4.73094">
        <ele>170</ele>
        <time>2018-09-09T10:16:24Z</time>
      </trkpt>
      <trkpt lat="45.9244" lon="4.73098">
        <ele>170</ele>
        <time>2018-09-09T10:16:25Z</time>
      </trkpt>
      <trkpt lat="45.92435" lon="4.73101">
        <ele>171</ele>
        <time>2018-09-09T10:16:26Z</time>
      </trkpt>
      <trkpt lat="45.9243" lon="4.73104">
        <ele>171</ele>
        <time>2018-09-09T10:16:27Z</time>
      </trkpt>
      <trkpt lat="45.92426" lon="4.73109">
        <ele>170</ele>
        <time>2018-09-09T10:16:28Z</time>
      </trkpt>
      <trkpt lat="45.92422" lon="4.73112">
        <ele>170</ele>
        <time>2018-09-09T10:16:29Z</time>
      </trkpt>
      <trkpt lat="45.92418" lon="4.73115">
        <ele>170</ele>
        <time>2018-09-09T10:16:30Z</time>
      </trkpt>
      <trkpt lat="45.92414" lon="4.7312">
        <ele>171</ele>
        <time>2018-09-09T10:16:31Z</time>
      </trkpt>
      <trkpt lat="45.92412" lon="4.73125">
        <ele>171</ele>
        <time>2018-09-09T10:16:32Z</time>
      </trkpt>
      <trkpt lat="45.9241" lon="4.73132">
        <ele>171</ele>
        <time>2018-09-09T10:16:33Z</time>
      </trkpt>
      <trkpt lat="45.9241" lon="4.73139">
        <ele>171</ele>
        <time>2018-09-09T10:16:34Z</time>
      </trkpt>
      <trkpt lat="45.9241" lon="4.73146">
        <ele>171</ele>
        <time>2018-09-09T10:16:35Z</time>
      </trkpt>
      <trkpt lat="45.92409" lon="4.73154">
        <ele>170</ele>
        <time>2018-09-09T10:16:36Z</time>
      </trkpt>
      <trkpt lat="45.92409" lon="4.73162">
        <ele>170</ele>
        <time>2018-09-09T10:16:37Z</time>
      </trkpt>
      <trkpt lat="45.92409" lon="4.7317">
        <ele>170</ele>
        <time>2018-09-09T10:16:38Z</time>
      </trkpt>
      <trkpt lat="45.92409" lon="4.73178">
        <ele>171</ele>
        <time>2018-09-09T10:16:39Z</time>
      </trkpt>
      <trkpt lat="45.92409" lon="4.73186">
        <ele>171</ele>
        <time>2018-09-09T10:16:40Z</time>
      </trkpt>
      <trkpt lat="45.92409" lon="4.73193">
        <ele>171</ele>
        <time>2018-09-09T10:16:41Z</time>
      </trkpt>
      <trkpt lat="45.9241" lon="4.73202">
        <ele>171</ele>
        <time>2018-09-09T10:16:42Z</time>
      </trkpt>
      <trkpt lat="45.92409" lon="4.73214">
        <ele>171</ele>
        <time>2018-09-09T10:16:44Z</time>
      </trkpt>
      <trkpt lat="45.92409" lon="4.7322">
        <ele>171</ele>
        <time>2018-09-09T10:16:45Z</time>
      </trkpt>
      <trkpt lat="45.9241" lon="4.73227">
        <ele>171</ele>
        <time>2018-09-09T10:16:46Z</time>
      </trkpt>
      <trkpt lat="45.92411" lon="4.73234">
        <ele>171</ele>
        <time>2018-09-09T10:16:47Z</time>
      </trkpt>
      <trkpt lat="45.92411" lon="4.73243">
        <ele>171</ele>
        <time>2018-09-09T10:16:48Z</time>
      </trkpt>
      <trkpt lat="45.92412" lon="4.73251">
        <ele>171</ele>
        <time>2018-09-09T10:16:49Z</time>
      </trkpt>
      <trkpt lat="45.92413" lon="4.73258">
        <ele>171</ele>
        <time>2018-09-09T10:16:50Z</time>
      </trkpt>
      <trkpt lat="45.92413" lon="4.73265">
        <ele>171</ele>
        <time>2018-09-09T10:16:51Z</time>
      </trkpt>
      <trkpt lat="45.92412" lon="4.73272">
        <ele>171</ele>
        <time>2018-09-09T10:16:52Z</time>
      </trkpt>
      <trkpt lat="45.92413" lon="4.73279">
        <ele>171</ele>
        <time>2018-09-09T10:16:53Z</time>
      </trkpt>
      <trkpt lat="45.92413" lon="4.73286">
        <ele>171</ele>
        <time>2018-09-09T10:16:54Z</time>
      </trkpt>
      <trkpt lat="45.92413" lon="4.73293">
        <ele>171</ele>
        <time>2018-09-09T10:16:55Z</time>
      </trkpt>
      <trkpt lat="45.92414" lon="4.733">
        <ele>171</ele>
        <time>2018-09-09T10:16:56Z</time>
      </trkpt>
      <trkpt lat="45.92415" lon="4.73308">
        <ele>171</ele>
        <time>2018-09-09T10:16:57Z</time>
      </trkpt>
      <trkpt lat="45.92416" lon="4.73315">
        <ele>171</ele>
        <time>2018-09-09T10:16:58Z</time>
      </trkpt>
      <trkpt lat="45.92417" lon="4.73323">
        <ele>171</ele>
        <time>2018-09-09T10:16:59Z</time>
      </trkpt>
      <trkpt lat="45.92417" lon="4.73329">
        <ele>171</ele>
        <time>2018-09-09T10:17:00Z</time>
      </trkpt>
      <trkpt lat="45.92417" lon="4.73337">
        <ele>171</ele>
        <time>2018-09-09T10:17:01Z</time>
      </trkpt>
      <trkpt lat="45.92418" lon="4.73345">
        <ele>171</ele>
        <time>2018-09-09T10:17:02Z</time>
      </trkpt>
      <trkpt lat="45.92419" lon="4.73352">
        <ele>171</ele>
        <time>2018-09-09T10:17:03Z</time>
      </trkpt>
      <trkpt lat="45.92419" lon="4.7336">
        <ele>171</ele>
        <time>2018-09-09T10:17:04Z</time>
      </trkpt>
      <trkpt lat="45.9242" lon="4.73368">
        <ele>172</ele>
        <time>2018-09-09T10:17:05Z</time>
      </trkpt>
      <trkpt lat="45.92421" lon="4.73374">
        <ele>172</ele>
        <time>2018-09-09T10:17:06Z</time>
      </trkpt>
      <trkpt lat="45.92423" lon="4.73382">
        <ele>172</ele>
        <time>2018-09-09T10:17:07Z</time>
      </trkpt>
      <trkpt lat="45.92424" lon="4.73388">
        <ele>172</ele>
        <time>2018-09-09T10:17:08Z</time>
      </trkpt>
      <trkpt lat="45.92426" lon="4.73396">
        <ele>172</ele>
        <time>2018-09-09T10:17:09Z</time>
      </trkpt>
      <trkpt lat="45.92429" lon="4.73403">
        <ele>172</ele>
        <time>2018-09-09T10:17:10Z</time>
      </trkpt>
      <trkpt lat="45.92432" lon="4.7341">
        <ele>172</ele>
        <time>2018-09-09T10:17:11Z</time>
      </trkpt>
      <trkpt lat="45.92438" lon="4.73416">
        <ele>172</ele>
        <time>2018-09-09T10:17:13Z</time>
      </trkpt>
      <trkpt lat="45.92441" lon="4.73419">
        <ele>173</ele>
        <time>2018-09-09T10:17:14Z</time>
      </trkpt>
      <trkpt lat="45.92448" lon="4.73425">
        <ele>173</ele>
        <time>2018-09-09T10:17:16Z</time>
      </trkpt>
      <trkpt lat="45.92453" lon="4.73429">
        <ele>173</ele>
        <time>2018-09-09T10:17:17Z</time>
      </trkpt>
      <trkpt lat="45.92458" lon="4.73433">
        <ele>173</ele>
        <time>2018-09-09T10:17:18Z</time>
      </trkpt>
      <trkpt lat="45.92461" lon="4.7344">
        <ele>173</ele>
        <time>2018-09-09T10:17:19Z</time>
      </trkpt>
      <trkpt lat="45.92466" lon="4.73449">
        <ele>173</ele>
        <time>2018-09-09T10:17:21Z</time>
      </trkpt>
      <trkpt lat="45.92467" lon="4.73456">
        <ele>173</ele>
        <time>2018-09-09T10:17:22Z</time>
      </trkpt>
      <trkpt lat="45.92467" lon="4.73464">
        <ele>173</ele>
        <time>2018-09-09T10:17:23Z</time>
      </trkpt>
      <trkpt lat="45.92468" lon="4.73471">
        <ele>173</ele>
        <time>2018-09-09T10:17:24Z</time>
      </trkpt>
      <trkpt lat="45.92469" lon="4.73481">
        <ele>173</ele>
        <time>2018-09-09T10:17:25Z</time>
      </trkpt>
      <trkpt lat="45.9247" lon="4.73489">
        <ele>173</ele>
        <time>2018-09-09T10:17:26Z</time>
      </trkpt>
      <trkpt lat="45.92471" lon="4.73498">
        <ele>173</ele>
        <time>2018-09-09T10:17:27Z</time>
      </trkpt>
      <trkpt lat="45.9247" lon="4.73505">
        <ele>174</ele>
        <time>2018-09-09T10:17:28Z</time>
      </trkpt>
      <trkpt lat="45.92469" lon="4.73512">
        <ele>174</ele>
        <time>2018-09-09T10:17:29Z</time>
      </trkpt>
      <trkpt lat="45.92469" lon="4.73519">
        <ele>174</ele>
        <time>2018-09-09T10:17:30Z</time>
      </trkpt>
      <trkpt lat="45.9247" lon="4.73526">
        <ele>174</ele>
        <time>2018-09-09T10:17:31Z</time>
      </trkpt>
      <trkpt lat="45.92469" lon="4.73532">
        <ele>174</ele>
        <time>2018-09-09T10:17:32Z</time>
      </trkpt>
      <trkpt lat="45.92469" lon="4.73544">
        <ele>173</ele>
        <time>2018-09-09T10:17:34Z</time>
      </trkpt>
      <trkpt lat="45.92469" lon="4.7355">
        <ele>173</ele>
        <time>2018-09-09T10:17:35Z</time>
      </trkpt>
      <trkpt lat="45.9247" lon="4.73563">
        <ele>173</ele>
        <time>2018-09-09T10:17:37Z</time>
      </trkpt>
      <trkpt lat="45.92469" lon="4.73568">
        <ele>173</ele>
        <time>2018-09-09T10:17:38Z</time>
      </trkpt>
      <trkpt lat="45.9247" lon="4.73576">
        <ele>173</ele>
        <time>2018-09-09T10:17:39Z</time>
      </trkpt>
      <trkpt lat="45.92471" lon="4.73582">
        <ele>173</ele>
        <time>2018-09-09T10:17:40Z</time>
      </trkpt>
      <trkpt lat="45.9247" lon="4.7359">
        <ele>174</ele>
        <time>2018-09-09T10:17:41Z</time>
      </trkpt>
      <trkpt lat="45.9247" lon="4.73595">
        <ele>174</ele>
        <time>2018-09-09T10:17:42Z</time>
      </trkpt>
      <trkpt lat="45.92471" lon="4.73603">
        <ele>174</ele>
        <time>2018-09-09T10:17:43Z</time>
      </trkpt>
      <trkpt lat="45.92471" lon="4.73612">
        <ele>174</ele>
        <time>2018-09-09T10:17:44Z</time>
      </trkpt>
      <trkpt lat="45.92471" lon="4.73622">
        <ele>174</ele>
        <time>2018-09-09T10:17:45Z</time>
      </trkpt>
      <trkpt lat="45.9247" lon="4.73632">
        <ele>174</ele>
        <time>2018-09-09T10:17:46Z</time>
      </trkpt>
      <trkpt lat="45.92471" lon="4.7364">
        <ele>174</ele>
        <time>2018-09-09T10:17:47Z</time>
      </trkpt>
      <trkpt lat="45.9247" lon="4.73648">
        <ele>174</ele>
        <time>2018-09-09T10:17:48Z</time>
      </trkpt>
      <trkpt lat="45.9247" lon="4.73655">
        <ele>174</ele>
        <time>2018-09-09T10:17:49Z</time>
      </trkpt>
      <trkpt lat="45.92469" lon="4.73665">
        <ele>174</ele>
        <time>2018-09-09T10:17:50Z</time>
      </trkpt>
      <trkpt lat="45.92468" lon="4.73677">
        <ele>174</ele>
        <time>2018-09-09T10:17:52Z</time>
      </trkpt>
      <trkpt lat="45.92467" lon="4.73684">
        <ele>174</ele>
        <time>2018-09-09T10:17:53Z</time>
      </trkpt>
      <trkpt lat="45.92466" lon="4.73693">
        <ele>174</ele>
        <time>2018-09-09T10:17:54Z</time>
      </trkpt>
      <trkpt lat="45.92466" lon="4.73701">
        <ele>174</ele>
        <time>2018-09-09T10:17:55Z</time>
      </trkpt>
      <trkpt lat="45.92463" lon="4.73708">
        <ele>174</ele>
        <time>2018-09-09T10:18:21Z</time>
      </trkpt>
      <trkpt lat="45.92464" lon="4.73708">
        <ele>174</ele>
        <time>2018-09-09T10:18:22Z</time>
      </trkpt>
      <trkpt lat="45.9246" lon="4.73707">
        <ele>174</ele>
        <time>2018-09-09T10:18:38.357Z</time>
      </trkpt>
    </trkseg>
  </trk>
</gpx>